<?xml version="1.0" encoding="UTF-8" standalone="yes"?>
<gpx xmlns="http://www.topografix.com/GPX/1/1" xmlns:gpxtrx="http://www.garmin.com/xmlschemas/GpxExtensions/v3" xmlns:rcxx="http://www.routeconverter.de/xmlschemas/RouteCatalogExtensions/1.0" xmlns:xsi="http://www.w3.org/2001/XMLSchema-instance" xmlns:gpxtpx="http://www.garmin.com/xmlschemas/TrackPointExtension/v1" xmlns:gpxx="http://www.garmin.com/xmlschemas/WaypointExtension/v1" xmlns:nmea="http://trekbuddy.net/2009/01/gpx/nmea" creator="Generated by Christian Pesch's RouteConverter. See http://www.routeconverter.com" version="1.1">
    <metadata>
        <name>20120519_rv_süh_rv</name>
        <link href="http://www.gpsies.com/">
            <text>20120519_rv_süh_rv on GPSies.com</text>
        </link>
        <time>2012-05-19T21:17:58Z</time>
    </metadata>
    <trk>
        <name>20120519_rv_süh_rv on GPSies.com</name>
        <trkseg>
            <trkpt lon="9.604771" lat="47.772215">
                <ele>430.75516319999474</ele>
                <time>2012-05-19T21:22:27.000Z</time>
                <name>Position 1</name>
            </trkpt>
            <trkpt lon="9.604831" lat="47.772539">
                <ele>430.3250179200022</ele>
                <time>2012-05-19T21:22:40.000Z</time>
                <name>Position 2</name>
            </trkpt>
            <trkpt lon="9.604836" lat="47.772857">
                <ele>430.56298176000246</ele>
                <time>2012-05-19T21:22:53.000Z</time>
                <name>Position 3</name>
            </trkpt>
            <trkpt lon="9.604834" lat="47.773012">
                <ele>430.67042304000154</ele>
                <time>2012-05-19T21:22:59.000Z</time>
                <name>Position 4</name>
            </trkpt>
            <trkpt lon="9.604757" lat="47.773085">
                <ele>430.5009935999987</ele>
                <time>2012-05-19T21:23:02.000Z</time>
                <name>Position 5</name>
            </trkpt>
            <trkpt lon="9.604693" lat="47.773164">
                <ele>430.3413177599978</ele>
                <time>2012-05-19T21:23:06.000Z</time>
                <name>Position 6</name>
            </trkpt>
            <trkpt lon="9.604639" lat="47.77321">
                <ele>430.1806272000015</ele>
                <time>2012-05-19T21:23:08.000Z</time>
                <name>Position 7</name>
            </trkpt>
            <trkpt lon="9.604546" lat="47.773242">
                <ele>429.8754201599965</ele>
                <time>2012-05-19T21:23:11.000Z</time>
                <name>Position 8</name>
            </trkpt>
            <trkpt lon="9.604422" lat="47.773273">
                <ele>429.44723327999685</ele>
                <time>2012-05-19T21:23:15.000Z</time>
                <name>Position 9</name>
            </trkpt>
            <trkpt lon="9.604295" lat="47.773309">
                <ele>428.98220640000346</ele>
                <time>2012-05-19T21:23:18.000Z</time>
                <name>Position 10</name>
            </trkpt>
            <trkpt lon="9.604229" lat="47.773462">
                <ele>428.5584508799976</ele>
                <time>2012-05-19T21:23:25.000Z</time>
                <name>Position 11</name>
            </trkpt>
            <trkpt lon="9.604212" lat="47.773652">
                <ele>428.25999744000313</ele>
                <time>2012-05-19T21:23:32.000Z</time>
                <name>Position 12</name>
            </trkpt>
            <trkpt lon="9.604142" lat="47.773834">
                <ele>427.91101631999936</ele>
                <time>2012-05-19T21:23:40.000Z</time>
                <name>Position 13</name>
            </trkpt>
            <trkpt lon="9.604114" lat="47.773959">
                <ele>427.76494944000314</ele>
                <time>2012-05-19T21:23:45.000Z</time>
                <name>Position 14</name>
            </trkpt>
            <trkpt lon="9.604141" lat="47.774127">
                <ele>427.5490660800001</ele>
                <time>2012-05-19T21:23:52.000Z</time>
                <name>Position 15</name>
            </trkpt>
            <trkpt lon="9.604106" lat="47.77425">
                <ele>427.78544000000716</ele>
                <time>2012-05-19T21:23:57.000Z</time>
                <name>Position 16</name>
            </trkpt>
            <trkpt lon="9.603948" lat="47.774322">
                <ele>427.9613772799943</ele>
                <time>2012-05-19T21:24:02.000Z</time>
                <name>Position 17</name>
            </trkpt>
            <trkpt lon="9.603738" lat="47.774383">
                <ele>428.01172352000054</ele>
                <time>2012-05-19T21:24:08.000Z</time>
                <name>Position 18</name>
            </trkpt>
            <trkpt lon="9.603501" lat="47.77439">
                <ele>427.87584319999434</ele>
                <time>2012-05-19T21:24:14.000Z</time>
                <name>Position 19</name>
            </trkpt>
            <trkpt lon="9.603223" lat="47.774389">
                <ele>427.63439999999895</ele>
                <time>2012-05-19T21:24:22.000Z</time>
                <name>Position 20</name>
            </trkpt>
            <trkpt lon="9.602968" lat="47.774379">
                <ele>427.3164000000046</ele>
                <time>2012-05-19T21:24:29.000Z</time>
                <name>Position 21</name>
            </trkpt>
            <trkpt lon="9.602749" lat="47.774376">
                <ele>427.04999999999507</ele>
                <time>2012-05-19T21:24:35.000Z</time>
                <name>Position 22</name>
            </trkpt>
            <trkpt lon="9.602473" lat="47.774376">
                <ele>426.7591833599964</ele>
                <time>2012-05-19T21:24:42.000Z</time>
                <name>Position 23</name>
            </trkpt>
            <trkpt lon="9.602188" lat="47.774379">
                <ele>426.84300863999954</ele>
                <time>2012-05-19T21:24:50.000Z</time>
                <name>Position 24</name>
            </trkpt>
            <trkpt lon="9.601896" lat="47.774391">
                <ele>426.90865151999805</ele>
                <time>2012-05-19T21:24:58.000Z</time>
                <name>Position 25</name>
            </trkpt>
            <trkpt lon="9.601633" lat="47.774425">
                <ele>426.87999999999806</ele>
                <time>2012-05-19T21:25:05.000Z</time>
                <name>Position 26</name>
            </trkpt>
            <trkpt lon="9.601385" lat="47.774465">
                <ele>426.7840000000017</ele>
                <time>2012-05-19T21:25:12.000Z</time>
                <name>Position 27</name>
            </trkpt>
            <trkpt lon="9.601113" lat="47.774501">
                <ele>426.69759999999815</ele>
                <time>2012-05-19T21:25:19.000Z</time>
                <name>Position 28</name>
            </trkpt>
            <trkpt lon="9.600879" lat="47.774546">
                <ele>426.589599999998</ele>
                <time>2012-05-19T21:25:26.000Z</time>
                <name>Position 29</name>
            </trkpt>
            <trkpt lon="9.600706" lat="47.774636">
                <ele>426.173370879999</ele>
                <time>2012-05-19T21:25:32.000Z</time>
                <name>Position 30</name>
            </trkpt>
            <trkpt lon="9.600671" lat="47.7748">
                <ele>425.8397440000017</ele>
                <time>2012-05-19T21:25:38.000Z</time>
                <name>Position 31</name>
            </trkpt>
            <trkpt lon="9.600718" lat="47.77497">
                <ele>425.55705279999387</ele>
                <time>2012-05-19T21:25:45.000Z</time>
                <name>Position 32</name>
            </trkpt>
            <trkpt lon="9.600777" lat="47.775145">
                <ele>425.34952479999765</ele>
                <time>2012-05-19T21:25:52.000Z</time>
                <name>Position 33</name>
            </trkpt>
            <trkpt lon="9.600824" lat="47.775315">
                <ele>425.13046720000176</ele>
                <time>2012-05-19T21:25:59.000Z</time>
                <name>Position 34</name>
            </trkpt>
            <trkpt lon="9.600789" lat="47.775485">
                <ele>424.9799247999956</ele>
                <time>2012-05-19T21:26:06.000Z</time>
                <name>Position 35</name>
            </trkpt>
            <trkpt lon="9.600612" lat="47.775615">
                <ele>425.1540255999992</ele>
                <time>2012-05-19T21:26:13.000Z</time>
                <name>Position 36</name>
            </trkpt>
            <trkpt lon="9.6004" lat="47.775758">
                <ele>425.53638399999926</ele>
                <time>2012-05-19T21:26:21.000Z</time>
                <name>Position 37</name>
            </trkpt>
            <trkpt lon="9.600332" lat="47.775833">
                <ele>425.7031187200002</ele>
                <time>2012-05-19T21:26:25.000Z</time>
                <name>Position 38</name>
            </trkpt>
            <trkpt lon="9.600222" lat="47.775876">
                <ele>426.032039679994</ele>
                <time>2012-05-19T21:26:28.000Z</time>
                <name>Position 39</name>
            </trkpt>
            <trkpt lon="9.600086" lat="47.775932">
                <ele>426.4242188799984</ele>
                <time>2012-05-19T21:26:32.000Z</time>
                <name>Position 40</name>
            </trkpt>
            <trkpt lon="9.59994" lat="47.776049">
                <ele>426.6868000000006</ele>
                <time>2012-05-19T21:26:39.000Z</time>
                <name>Position 41</name>
            </trkpt>
            <trkpt lon="9.599787" lat="47.776189">
                <ele>426.6712000000016</ele>
                <time>2012-05-19T21:26:46.000Z</time>
                <name>Position 42</name>
            </trkpt>
            <trkpt lon="9.599677" lat="47.776326">
                <ele>426.7035999999965</ele>
                <time>2012-05-19T21:26:52.000Z</time>
                <name>Position 43</name>
            </trkpt>
            <trkpt lon="9.599623" lat="47.776483">
                <ele>426.8271999999978</ele>
                <time>2012-05-19T21:26:58.000Z</time>
                <name>Position 44</name>
            </trkpt>
            <trkpt lon="9.599608" lat="47.77665">
                <ele>427.0095999999956</ele>
                <time>2012-05-19T21:27:05.000Z</time>
                <name>Position 45</name>
            </trkpt>
            <trkpt lon="9.599613" lat="47.776816">
                <ele>426.8564000000037</ele>
                <time>2012-05-19T21:27:12.000Z</time>
                <name>Position 46</name>
            </trkpt>
            <trkpt lon="9.59953" lat="47.776951">
                <ele>426.5948000000034</ele>
                <time>2012-05-19T21:27:17.000Z</time>
                <name>Position 47</name>
            </trkpt>
            <trkpt lon="9.599317" lat="47.777015">
                <ele>426.26240000000064</ele>
                <time>2012-05-19T21:27:24.000Z</time>
                <name>Position 48</name>
            </trkpt>
            <trkpt lon="9.599116" lat="47.777071">
                <ele>425.8949996800018</ele>
                <time>2012-05-19T21:27:30.000Z</time>
                <name>Position 49</name>
            </trkpt>
            <trkpt lon="9.598899" lat="47.777116">
                <ele>425.29321791999956</ele>
                <time>2012-05-19T21:27:36.000Z</time>
                <name>Position 50</name>
            </trkpt>
            <trkpt lon="9.598706" lat="47.777158">
                <ele>424.7057382399999</ele>
                <time>2012-05-19T21:27:41.000Z</time>
                <name>Position 51</name>
            </trkpt>
            <trkpt lon="9.598498" lat="47.777206">
                <ele>424.01177343999933</ele>
                <time>2012-05-19T21:27:47.000Z</time>
                <name>Position 52</name>
            </trkpt>
            <trkpt lon="9.598274" lat="47.777243">
                <ele>423.59488384000525</ele>
                <time>2012-05-19T21:27:53.000Z</time>
                <name>Position 53</name>
            </trkpt>
            <trkpt lon="9.598048" lat="47.777268">
                <ele>424.17175168000085</ele>
                <time>2012-05-19T21:27:59.000Z</time>
                <name>Position 54</name>
            </trkpt>
            <trkpt lon="9.597824" lat="47.777292">
                <ele>424.7772889599966</ele>
                <time>2012-05-19T21:28:05.000Z</time>
                <name>Position 55</name>
            </trkpt>
            <trkpt lon="9.59759" lat="47.777319">
                <ele>425.4401152000014</ele>
                <time>2012-05-19T21:28:12.000Z</time>
                <name>Position 56</name>
            </trkpt>
            <trkpt lon="9.597338" lat="47.777346">
                <ele>426.00174975999784</ele>
                <time>2012-05-19T21:28:19.000Z</time>
                <name>Position 57</name>
            </trkpt>
            <trkpt lon="9.597121" lat="47.777356">
                <ele>426.42522112000114</ele>
                <time>2012-05-19T21:28:25.000Z</time>
                <name>Position 58</name>
            </trkpt>
            <trkpt lon="9.596921" lat="47.777396">
                <ele>426.84097792000136</ele>
                <time>2012-05-19T21:28:30.000Z</time>
                <name>Position 59</name>
            </trkpt>
            <trkpt lon="9.596774" lat="47.777515">
                <ele>427.17967359999614</ele>
                <time>2012-05-19T21:28:36.000Z</time>
                <name>Position 60</name>
            </trkpt>
            <trkpt lon="9.596816" lat="47.777619">
                <ele>426.6727590399941</ele>
                <time>2012-05-19T21:28:41.000Z</time>
                <name>Position 61</name>
            </trkpt>
            <trkpt lon="9.596939" lat="47.777717">
                <ele>426.1451948799908</ele>
                <time>2012-05-19T21:28:46.000Z</time>
                <name>Position 62</name>
            </trkpt>
            <trkpt lon="9.597064" lat="47.777822">
                <ele>425.7377420799993</ele>
                <time>2012-05-19T21:28:51.000Z</time>
                <name>Position 63</name>
            </trkpt>
            <trkpt lon="9.597214" lat="47.777917">
                <ele>425.4994508799965</ele>
                <time>2012-05-19T21:28:57.000Z</time>
                <name>Position 64</name>
            </trkpt>
            <trkpt lon="9.597346" lat="47.77803">
                <ele>425.39946879999906</ele>
                <time>2012-05-19T21:29:03.000Z</time>
                <name>Position 65</name>
            </trkpt>
            <trkpt lon="9.597473" lat="47.778141">
                <ele>425.46511168000137</ele>
                <time>2012-05-19T21:29:08.000Z</time>
                <name>Position 66</name>
            </trkpt>
            <trkpt lon="9.597612" lat="47.778244">
                <ele>425.3367846400006</ele>
                <time>2012-05-19T21:29:14.000Z</time>
                <name>Position 67</name>
            </trkpt>
            <trkpt lon="9.597774" lat="47.778367">
                <ele>425.10313407999496</ele>
                <time>2012-05-19T21:29:20.000Z</time>
                <name>Position 68</name>
            </trkpt>
            <trkpt lon="9.597943" lat="47.778482">
                <ele>424.8125497600032</ele>
                <time>2012-05-19T21:29:27.000Z</time>
                <name>Position 69</name>
            </trkpt>
            <trkpt lon="9.598084" lat="47.778574">
                <ele>424.74236416000025</ele>
                <time>2012-05-19T21:29:32.000Z</time>
                <name>Position 70</name>
            </trkpt>
            <trkpt lon="9.598198" lat="47.778668">
                <ele>424.8031206400013</ele>
                <time>2012-05-19T21:29:37.000Z</time>
                <name>Position 71</name>
            </trkpt>
            <trkpt lon="9.598317" lat="47.778769">
                <ele>425.00141247999613</ele>
                <time>2012-05-19T21:29:42.000Z</time>
                <name>Position 72</name>
            </trkpt>
            <trkpt lon="9.598429" lat="47.778851">
                <ele>425.23600000000283</ele>
                <time>2012-05-19T21:29:46.000Z</time>
                <name>Position 73</name>
            </trkpt>
            <trkpt lon="9.598416" lat="47.778923">
                <ele>425.3067999999989</ele>
                <time>2012-05-19T21:29:49.000Z</time>
                <name>Position 74</name>
            </trkpt>
            <trkpt lon="9.598333" lat="47.778981">
                <ele>425.2763564800024</ele>
                <time>2012-05-19T21:29:53.000Z</time>
                <name>Position 75</name>
            </trkpt>
            <trkpt lon="9.598228" lat="47.77906">
                <ele>425.0575168000025</ele>
                <time>2012-05-19T21:29:57.000Z</time>
                <name>Position 76</name>
            </trkpt>
            <trkpt lon="9.598086" lat="47.779156">
                <ele>424.611996160001</ele>
                <time>2012-05-19T21:30:02.000Z</time>
                <name>Position 77</name>
            </trkpt>
            <trkpt lon="9.598045" lat="47.779306">
                <ele>424.80275359999814</ele>
                <time>2012-05-19T21:30:08.000Z</time>
                <name>Position 78</name>
            </trkpt>
            <trkpt lon="9.598047" lat="47.779466">
                <ele>425.1986633599967</ele>
                <time>2012-05-19T21:30:15.000Z</time>
                <name>Position 79</name>
            </trkpt>
            <trkpt lon="9.59812" lat="47.779634">
                <ele>425.7234944000027</ele>
                <time>2012-05-19T21:30:22.000Z</time>
                <name>Position 80</name>
            </trkpt>
            <trkpt lon="9.598294" lat="47.779768">
                <ele>426.18217855999524</ele>
                <time>2012-05-19T21:30:29.000Z</time>
                <name>Position 81</name>
            </trkpt>
            <trkpt lon="9.598443" lat="47.779916">
                <ele>426.53079999999954</ele>
                <time>2012-05-19T21:30:36.000Z</time>
                <name>Position 82</name>
            </trkpt>
            <trkpt lon="9.598556" lat="47.78008">
                <ele>426.7672000000003</ele>
                <time>2012-05-19T21:30:43.000Z</time>
                <name>Position 83</name>
            </trkpt>
            <trkpt lon="9.598558" lat="47.780265">
                <ele>426.76960000000065</ele>
                <time>2012-05-19T21:30:51.000Z</time>
                <name>Position 84</name>
            </trkpt>
            <trkpt lon="9.598578" lat="47.780461">
                <ele>426.79359999999974</ele>
                <time>2012-05-19T21:30:59.000Z</time>
                <name>Position 85</name>
            </trkpt>
            <trkpt lon="9.59857" lat="47.780641">
                <ele>426.7840000000005</ele>
                <time>2012-05-19T21:31:06.000Z</time>
                <name>Position 86</name>
            </trkpt>
            <trkpt lon="9.598606" lat="47.780825">
                <ele>426.8272000000002</ele>
                <time>2012-05-19T21:31:13.000Z</time>
                <name>Position 87</name>
            </trkpt>
            <trkpt lon="9.598624" lat="47.78099">
                <ele>426.3503743999902</ele>
                <time>2012-05-19T21:31:20.000Z</time>
                <name>Position 88</name>
            </trkpt>
            <trkpt lon="9.598628" lat="47.781151">
                <ele>425.8447923199956</ele>
                <time>2012-05-19T21:31:26.000Z</time>
                <name>Position 89</name>
            </trkpt>
            <trkpt lon="9.598723" lat="47.781291">
                <ele>425.57680591999014</ele>
                <time>2012-05-19T21:31:32.000Z</time>
                <name>Position 90</name>
            </trkpt>
            <trkpt lon="9.598938" lat="47.781363">
                <ele>425.7799913600038</ele>
                <time>2012-05-19T21:31:39.000Z</time>
                <name>Position 91</name>
            </trkpt>
            <trkpt lon="9.599064" lat="47.781462">
                <ele>425.77505792000653</ele>
                <time>2012-05-19T21:31:44.000Z</time>
                <name>Position 92</name>
            </trkpt>
            <trkpt lon="9.599073" lat="47.781595">
                <ele>425.45686639999406</ele>
                <time>2012-05-19T21:31:49.000Z</time>
                <name>Position 93</name>
            </trkpt>
            <trkpt lon="9.599014" lat="47.781721">
                <ele>425.2998339199927</ele>
                <time>2012-05-19T21:31:55.000Z</time>
                <name>Position 94</name>
            </trkpt>
            <trkpt lon="9.598959" lat="47.781848">
                <ele>425.5994777599894</ele>
                <time>2012-05-19T21:32:00.000Z</time>
                <name>Position 95</name>
            </trkpt>
            <trkpt lon="9.598907" lat="47.781982">
                <ele>425.98732831999774</ele>
                <time>2012-05-19T21:32:06.000Z</time>
                <name>Position 96</name>
            </trkpt>
            <trkpt lon="9.598879" lat="47.782113">
                <ele>426.4354673600089</ele>
                <time>2012-05-19T21:32:11.000Z</time>
                <name>Position 97</name>
            </trkpt>
            <trkpt lon="9.598855" lat="47.782258">
                <ele>426.96737119999517</ele>
                <time>2012-05-19T21:32:17.000Z</time>
                <name>Position 98</name>
            </trkpt>
            <trkpt lon="9.598893" lat="47.782311">
                <ele>427.15135663999956</ele>
                <time>2012-05-19T21:32:19.000Z</time>
                <name>Position 99</name>
            </trkpt>
            <trkpt lon="9.599305" lat="47.782114">
                <ele>426.6627087999993</ele>
                <time>2012-05-19T21:32:33.000Z</time>
                <name>Position 100</name>
            </trkpt>
            <trkpt lon="9.599113" lat="47.782358">
                <ele>427.1906787200059</ele>
                <time>2012-05-19T21:32:44.000Z</time>
                <name>Position 101</name>
            </trkpt>
            <trkpt lon="9.599275" lat="47.782559">
                <ele>427.32839200000535</ele>
                <time>2012-05-19T21:32:53.000Z</time>
                <name>Position 102</name>
            </trkpt>
            <trkpt lon="9.599343" lat="47.782484">
                <ele>427.66913727998997</ele>
                <time>2012-05-19T21:32:56.000Z</time>
                <name>Position 103</name>
            </trkpt>
            <trkpt lon="9.599152" lat="47.782374">
                <ele>427.20721663999296</ele>
                <time>2012-05-19T21:33:03.000Z</time>
                <name>Position 104</name>
            </trkpt>
            <trkpt lon="9.598945" lat="47.782312">
                <ele>427.13477119999106</ele>
                <time>2012-05-19T21:33:09.000Z</time>
                <name>Position 105</name>
            </trkpt>
            <trkpt lon="9.598757" lat="47.782268">
                <ele>427.0242156800077</ele>
                <time>2012-05-19T21:33:15.000Z</time>
                <name>Position 106</name>
            </trkpt>
            <trkpt lon="9.598555" lat="47.782225">
                <ele>426.8473399999837</ele>
                <time>2012-05-19T21:33:20.000Z</time>
                <name>Position 107</name>
            </trkpt>
            <trkpt lon="9.598359" lat="47.782208">
                <ele>426.74957695998273</ele>
                <time>2012-05-19T21:33:26.000Z</time>
                <name>Position 108</name>
            </trkpt>
            <trkpt lon="9.598146" lat="47.782184">
                <ele>427.25502080000444</ele>
                <time>2012-05-19T21:33:31.000Z</time>
                <name>Position 109</name>
            </trkpt>
            <trkpt lon="9.597966" lat="47.78216">
                <ele>427.8000319999932</ele>
                <time>2012-05-19T21:33:36.000Z</time>
                <name>Position 110</name>
            </trkpt>
            <trkpt lon="9.597793" lat="47.782122">
                <ele>428.35097120000484</ele>
                <time>2012-05-19T21:33:41.000Z</time>
                <name>Position 111</name>
            </trkpt>
            <trkpt lon="9.597626" lat="47.78218">
                <ele>429.05849599999715</ele>
                <time>2012-05-19T21:33:46.000Z</time>
                <name>Position 112</name>
            </trkpt>
            <trkpt lon="9.597513" lat="47.782298">
                <ele>429.4654928000017</ele>
                <time>2012-05-19T21:33:52.000Z</time>
                <name>Position 113</name>
            </trkpt>
            <trkpt lon="9.597458" lat="47.782443">
                <ele>429.6615420800015</ele>
                <time>2012-05-19T21:33:58.000Z</time>
                <name>Position 114</name>
            </trkpt>
            <trkpt lon="9.5975" lat="47.782606">
                <ele>430.00880000000535</ele>
                <time>2012-05-19T21:34:05.000Z</time>
                <name>Position 115</name>
            </trkpt>
            <trkpt lon="9.597573" lat="47.782773">
                <ele>430.608008959993</ele>
                <time>2012-05-19T21:34:11.000Z</time>
                <name>Position 116</name>
            </trkpt>
            <trkpt lon="9.597652" lat="47.782908">
                <ele>430.9187878399958</ele>
                <time>2012-05-19T21:34:17.000Z</time>
                <name>Position 117</name>
            </trkpt>
            <trkpt lon="9.597732" lat="47.783043">
                <ele>431.1023782399947</ele>
                <time>2012-05-19T21:34:23.000Z</time>
                <name>Position 118</name>
            </trkpt>
            <trkpt lon="9.597793" lat="47.783172">
                <ele>431.2398790400045</ele>
                <time>2012-05-19T21:34:29.000Z</time>
                <name>Position 119</name>
            </trkpt>
            <trkpt lon="9.597827" lat="47.783296">
                <ele>431.4291180799967</ele>
                <time>2012-05-19T21:34:34.000Z</time>
                <name>Position 120</name>
            </trkpt>
            <trkpt lon="9.597836" lat="47.783424">
                <ele>431.91745919998897</ele>
                <time>2012-05-19T21:34:39.000Z</time>
                <name>Position 121</name>
            </trkpt>
            <trkpt lon="9.597871" lat="47.783555">
                <ele>432.27788400000185</ele>
                <time>2012-05-19T21:34:44.000Z</time>
                <name>Position 122</name>
            </trkpt>
            <trkpt lon="9.597898" lat="47.783688">
                <ele>432.6492671999849</ele>
                <time>2012-05-19T21:34:49.000Z</time>
                <name>Position 123</name>
            </trkpt>
            <trkpt lon="9.59792" lat="47.78382">
                <ele>433.012319999992</ele>
                <time>2012-05-19T21:34:55.000Z</time>
                <name>Position 124</name>
            </trkpt>
            <trkpt lon="9.597964" lat="47.783931">
                <ele>433.02251520001744</ele>
                <time>2012-05-19T21:34:59.000Z</time>
                <name>Position 125</name>
            </trkpt>
            <trkpt lon="9.597995" lat="47.78403">
                <ele>433.063080000014</ele>
                <time>2012-05-19T21:35:03.000Z</time>
                <name>Position 126</name>
            </trkpt>
            <trkpt lon="9.598039" lat="47.784141">
                <ele>432.9468071999942</ele>
                <time>2012-05-19T21:35:08.000Z</time>
                <name>Position 127</name>
            </trkpt>
            <trkpt lon="9.598132" lat="47.784281">
                <ele>434.00714752000437</ele>
                <time>2012-05-19T21:35:14.000Z</time>
                <name>Position 128</name>
            </trkpt>
            <trkpt lon="9.598226" lat="47.784433">
                <ele>435.62316447999444</ele>
                <time>2012-05-19T21:35:21.000Z</time>
                <name>Position 129</name>
            </trkpt>
            <trkpt lon="9.598334" lat="47.784584">
                <ele>437.0091942400452</ele>
                <time>2012-05-19T21:35:27.000Z</time>
                <name>Position 130</name>
            </trkpt>
            <trkpt lon="9.598442" lat="47.784742">
                <ele>439.17614656002075</ele>
                <time>2012-05-19T21:35:34.000Z</time>
                <name>Position 131</name>
            </trkpt>
            <trkpt lon="9.59855" lat="47.784887">
                <ele>440.70330399996914</ele>
                <time>2012-05-19T21:35:41.000Z</time>
                <name>Position 132</name>
            </trkpt>
            <trkpt lon="9.598678" lat="47.785039">
                <ele>441.62857407997717</ele>
                <time>2012-05-19T21:35:48.000Z</time>
                <name>Position 133</name>
            </trkpt>
            <trkpt lon="9.598799" lat="47.785177">
                <ele>441.8912435199762</ele>
                <time>2012-05-19T21:35:54.000Z</time>
                <name>Position 134</name>
            </trkpt>
            <trkpt lon="9.598907" lat="47.785316">
                <ele>442.1198348800109</ele>
                <time>2012-05-19T21:36:01.000Z</time>
                <name>Position 135</name>
            </trkpt>
            <trkpt lon="9.599045" lat="47.785454">
                <ele>441.79976320001</ele>
                <time>2012-05-19T21:36:07.000Z</time>
                <name>Position 136</name>
            </trkpt>
            <trkpt lon="9.599199" lat="47.785603">
                <ele>441.12104864000923</ele>
                <time>2012-05-19T21:36:14.000Z</time>
                <name>Position 137</name>
            </trkpt>
            <trkpt lon="9.599323" lat="47.785748">
                <ele>440.57042047998505</ele>
                <time>2012-05-19T21:36:21.000Z</time>
                <name>Position 138</name>
            </trkpt>
            <trkpt lon="9.599457" lat="47.785885">
                <ele>439.6912000000144</ele>
                <time>2012-05-19T21:36:28.000Z</time>
                <name>Position 139</name>
            </trkpt>
            <trkpt lon="9.599598" lat="47.786029">
                <ele>438.69759999999064</ele>
                <time>2012-05-19T21:36:35.000Z</time>
                <name>Position 140</name>
            </trkpt>
            <trkpt lon="9.599736" lat="47.786167">
                <ele>437.70399999999245</ele>
                <time>2012-05-19T21:36:41.000Z</time>
                <name>Position 141</name>
            </trkpt>
            <trkpt lon="9.599816" lat="47.786308">
                <ele>437.5671999999797</ele>
                <time>2012-05-19T21:36:47.000Z</time>
                <name>Position 142</name>
            </trkpt>
            <trkpt lon="9.599908" lat="47.786442">
                <ele>437.20720000001893</ele>
                <time>2012-05-19T21:36:53.000Z</time>
                <name>Position 143</name>
            </trkpt>
            <trkpt lon="9.600007" lat="47.786555">
                <ele>436.63945120000176</ele>
                <time>2012-05-19T21:36:58.000Z</time>
                <name>Position 144</name>
            </trkpt>
            <trkpt lon="9.600139" lat="47.786667">
                <ele>436.33606672001116</ele>
                <time>2012-05-19T21:37:04.000Z</time>
                <name>Position 145</name>
            </trkpt>
            <trkpt lon="9.600326" lat="47.786775">
                <ele>435.98245599997836</ele>
                <time>2012-05-19T21:37:11.000Z</time>
                <name>Position 146</name>
            </trkpt>
            <trkpt lon="9.600493" lat="47.786917">
                <ele>436.24011664002774</ele>
                <time>2012-05-19T21:37:18.000Z</time>
                <name>Position 147</name>
            </trkpt>
            <trkpt lon="9.600618" lat="47.787063">
                <ele>436.94190496003364</ele>
                <time>2012-05-19T21:37:25.000Z</time>
                <name>Position 148</name>
            </trkpt>
            <trkpt lon="9.600705" lat="47.787229">
                <ele>438.22208080004435</ele>
                <time>2012-05-19T21:37:32.000Z</time>
                <name>Position 149</name>
            </trkpt>
            <trkpt lon="9.600753" lat="47.787412">
                <ele>440.03257984004523</ele>
                <time>2012-05-19T21:37:39.000Z</time>
                <name>Position 150</name>
            </trkpt>
            <trkpt lon="9.600831" lat="47.787592">
                <ele>440.8510911999925</ele>
                <time>2012-05-19T21:37:47.000Z</time>
                <name>Position 151</name>
            </trkpt>
            <trkpt lon="9.600914" lat="47.787759">
                <ele>440.4107728000096</ele>
                <time>2012-05-19T21:37:54.000Z</time>
                <name>Position 152</name>
            </trkpt>
            <trkpt lon="9.600985" lat="47.787944">
                <ele>439.97555200001227</ele>
                <time>2012-05-19T21:38:01.000Z</time>
                <name>Position 153</name>
            </trkpt>
            <trkpt lon="9.601051" lat="47.788104">
                <ele>439.3770111999937</ele>
                <time>2012-05-19T21:38:08.000Z</time>
                <name>Position 154</name>
            </trkpt>
            <trkpt lon="9.601137" lat="47.788283">
                <ele>438.3272488000064</ele>
                <time>2012-05-19T21:38:16.000Z</time>
                <name>Position 155</name>
            </trkpt>
            <trkpt lon="9.60126" lat="47.788433">
                <ele>436.57119999999605</ele>
                <time>2012-05-19T21:38:23.000Z</time>
                <name>Position 156</name>
            </trkpt>
            <trkpt lon="9.601362" lat="47.788617">
                <ele>435.29920000000584</ele>
                <time>2012-05-19T21:38:30.000Z</time>
                <name>Position 157</name>
            </trkpt>
            <trkpt lon="9.601435" lat="47.788791">
                <ele>434.4904000000015</ele>
                <time>2012-05-19T21:38:38.000Z</time>
                <name>Position 158</name>
            </trkpt>
            <trkpt lon="9.601547" lat="47.788955">
                <ele>433.0024000000024</ele>
                <time>2012-05-19T21:38:45.000Z</time>
                <name>Position 159</name>
            </trkpt>
            <trkpt lon="9.601657" lat="47.789119">
                <ele>431.548000000008</ele>
                <time>2012-05-19T21:38:52.000Z</time>
                <name>Position 160</name>
            </trkpt>
            <trkpt lon="9.60178" lat="47.789276">
                <ele>431.2995136000088</ele>
                <time>2012-05-19T21:38:59.000Z</time>
                <name>Position 161</name>
            </trkpt>
            <trkpt lon="9.601893" lat="47.78944">
                <ele>431.38863039998955</ele>
                <time>2012-05-19T21:39:06.000Z</time>
                <name>Position 162</name>
            </trkpt>
            <trkpt lon="9.602005" lat="47.789605">
                <ele>431.38688800000926</ele>
                <time>2012-05-19T21:39:14.000Z</time>
                <name>Position 163</name>
            </trkpt>
            <trkpt lon="9.602102" lat="47.789764">
                <ele>431.3950873599853</ele>
                <time>2012-05-19T21:39:21.000Z</time>
                <name>Position 164</name>
            </trkpt>
            <trkpt lon="9.602186" lat="47.789936">
                <ele>431.5261235199883</ele>
                <time>2012-05-19T21:39:28.000Z</time>
                <name>Position 165</name>
            </trkpt>
            <trkpt lon="9.602285" lat="47.790095">
                <ele>431.62000000000535</ele>
                <time>2012-05-19T21:39:35.000Z</time>
                <name>Position 166</name>
            </trkpt>
            <trkpt lon="9.602382" lat="47.790248">
                <ele>431.857599999981</ele>
                <time>2012-05-19T21:39:41.000Z</time>
                <name>Position 167</name>
            </trkpt>
            <trkpt lon="9.60247" lat="47.790421">
                <ele>432.36040000001395</ele>
                <time>2012-05-19T21:39:49.000Z</time>
                <name>Position 168</name>
            </trkpt>
            <trkpt lon="9.602536" lat="47.790575">
                <ele>433.1377599999715</ele>
                <time>2012-05-19T21:39:55.000Z</time>
                <name>Position 169</name>
            </trkpt>
            <trkpt lon="9.602616" lat="47.790722">
                <ele>433.82258560002185</ele>
                <time>2012-05-19T21:40:01.000Z</time>
                <name>Position 170</name>
            </trkpt>
            <trkpt lon="9.602706" lat="47.790867">
                <ele>434.13799999999867</ele>
                <time>2012-05-19T21:40:08.000Z</time>
                <name>Position 171</name>
            </trkpt>
            <trkpt lon="9.602785" lat="47.79102">
                <ele>434.1200000000058</ele>
                <time>2012-05-19T21:40:14.000Z</time>
                <name>Position 172</name>
            </trkpt>
            <trkpt lon="9.602856" lat="47.791175">
                <ele>434.16680000001554</ele>
                <time>2012-05-19T21:40:21.000Z</time>
                <name>Position 173</name>
            </trkpt>
            <trkpt lon="9.602944" lat="47.791342">
                <ele>434.134399999995</ele>
                <time>2012-05-19T21:40:28.000Z</time>
                <name>Position 174</name>
            </trkpt>
            <trkpt lon="9.602947" lat="47.791496">
                <ele>434.66720000000555</ele>
                <time>2012-05-19T21:40:34.000Z</time>
                <name>Position 175</name>
            </trkpt>
            <trkpt lon="9.602855" lat="47.791652">
                <ele>435.8911999999975</ele>
                <time>2012-05-19T21:40:41.000Z</time>
                <name>Position 176</name>
            </trkpt>
            <trkpt lon="9.602752" lat="47.791792">
                <ele>436.92696191999767</ele>
                <time>2012-05-19T21:40:47.000Z</time>
                <name>Position 177</name>
            </trkpt>
            <trkpt lon="9.602702" lat="47.79191">
                <ele>437.47916159999784</ele>
                <time>2012-05-19T21:40:52.000Z</time>
                <name>Position 178</name>
            </trkpt>
            <trkpt lon="9.60267" lat="47.792028">
                <ele>437.8865088000045</ele>
                <time>2012-05-19T21:40:57.000Z</time>
                <name>Position 179</name>
            </trkpt>
            <trkpt lon="9.602648" lat="47.792157">
                <ele>438.2317996800034</ele>
                <time>2012-05-19T21:41:02.000Z</time>
                <name>Position 180</name>
            </trkpt>
            <trkpt lon="9.602659" lat="47.79228">
                <ele>438.3720576000014</ele>
                <time>2012-05-19T21:41:07.000Z</time>
                <name>Position 181</name>
            </trkpt>
            <trkpt lon="9.602719" lat="47.792408">
                <ele>438.280373760001</ele>
                <time>2012-05-19T21:41:12.000Z</time>
                <name>Position 182</name>
            </trkpt>
            <trkpt lon="9.602772" lat="47.792557">
                <ele>438.3549484800067</ele>
                <time>2012-05-19T21:41:18.000Z</time>
                <name>Position 183</name>
            </trkpt>
            <trkpt lon="9.602807" lat="47.792707">
                <ele>438.58857887999835</ele>
                <time>2012-05-19T21:41:24.000Z</time>
                <name>Position 184</name>
            </trkpt>
            <trkpt lon="9.602847" lat="47.792857">
                <ele>438.7628284799912</ele>
                <time>2012-05-19T21:41:30.000Z</time>
                <name>Position 185</name>
            </trkpt>
            <trkpt lon="9.602889" lat="47.793014">
                <ele>438.90735552000274</ele>
                <time>2012-05-19T21:41:37.000Z</time>
                <name>Position 186</name>
            </trkpt>
            <trkpt lon="9.602949" lat="47.793188">
                <ele>438.93193343999735</ele>
                <time>2012-05-19T21:41:44.000Z</time>
                <name>Position 187</name>
            </trkpt>
            <trkpt lon="9.603006" lat="47.793363">
                <ele>439.35391839998533</ele>
                <time>2012-05-19T21:41:51.000Z</time>
                <name>Position 188</name>
            </trkpt>
            <trkpt lon="9.603075" lat="47.793529">
                <ele>441.54153999998783</ele>
                <time>2012-05-19T21:41:58.000Z</time>
                <name>Position 189</name>
            </trkpt>
            <trkpt lon="9.603202" lat="47.793699">
                <ele>443.0569743999524</ele>
                <time>2012-05-19T21:42:06.000Z</time>
                <name>Position 190</name>
            </trkpt>
            <trkpt lon="9.603334" lat="47.793842">
                <ele>443.8148051199673</ele>
                <time>2012-05-19T21:42:12.000Z</time>
                <name>Position 191</name>
            </trkpt>
            <trkpt lon="9.603506" lat="47.793969">
                <ele>442.78073055997436</ele>
                <time>2012-05-19T21:42:19.000Z</time>
                <name>Position 192</name>
            </trkpt>
            <trkpt lon="9.603684" lat="47.794075">
                <ele>440.8637920000053</ele>
                <time>2012-05-19T21:42:26.000Z</time>
                <name>Position 193</name>
            </trkpt>
            <trkpt lon="9.60389" lat="47.794173">
                <ele>437.83476960000695</ele>
                <time>2012-05-19T21:42:32.000Z</time>
                <name>Position 194</name>
            </trkpt>
            <trkpt lon="9.604105" lat="47.794233">
                <ele>433.8608711999859</ele>
                <time>2012-05-19T21:42:39.000Z</time>
                <name>Position 195</name>
            </trkpt>
            <trkpt lon="9.604365" lat="47.794279">
                <ele>432.1652704000053</ele>
                <time>2012-05-19T21:42:46.000Z</time>
                <name>Position 196</name>
            </trkpt>
            <trkpt lon="9.604619" lat="47.794293">
                <ele>431.3884460800009</ele>
                <time>2012-05-19T21:42:53.000Z</time>
                <name>Position 197</name>
            </trkpt>
            <trkpt lon="9.604865" lat="47.794269">
                <ele>430.65797439999983</ele>
                <time>2012-05-19T21:42:59.000Z</time>
                <name>Position 198</name>
            </trkpt>
            <trkpt lon="9.605106" lat="47.79422">
                <ele>430.388281599994</ele>
                <time>2012-05-19T21:43:06.000Z</time>
                <name>Position 199</name>
            </trkpt>
            <trkpt lon="9.60535" lat="47.794119">
                <ele>430.32840000000726</ele>
                <time>2012-05-19T21:43:14.000Z</time>
                <name>Position 200</name>
            </trkpt>
            <trkpt lon="9.605602" lat="47.793985">
                <ele>429.8459999999974</ele>
                <time>2012-05-19T21:43:22.000Z</time>
                <name>Position 201</name>
            </trkpt>
            <trkpt lon="9.605794" lat="47.793843">
                <ele>429.33480000000907</ele>
                <time>2012-05-19T21:43:30.000Z</time>
                <name>Position 202</name>
            </trkpt>
            <trkpt lon="9.605972" lat="47.793866">
                <ele>429.4313113600038</ele>
                <time>2012-05-19T21:43:35.000Z</time>
                <name>Position 203</name>
            </trkpt>
            <trkpt lon="9.606003" lat="47.79403">
                <ele>429.9045711999985</ele>
                <time>2012-05-19T21:43:42.000Z</time>
                <name>Position 204</name>
            </trkpt>
            <trkpt lon="9.606" lat="47.794235">
                <ele>430.33280000000036</ele>
                <time>2012-05-19T21:43:50.000Z</time>
                <name>Position 205</name>
            </trkpt>
            <trkpt lon="9.606027" lat="47.794445">
                <ele>430.4228432000021</ele>
                <time>2012-05-19T21:43:58.000Z</time>
                <name>Position 206</name>
            </trkpt>
            <trkpt lon="9.606152" lat="47.794609">
                <ele>430.5235558400011</ele>
                <time>2012-05-19T21:44:06.000Z</time>
                <name>Position 207</name>
            </trkpt>
            <trkpt lon="9.606266" lat="47.794739">
                <ele>430.69397311999967</ele>
                <time>2012-05-19T21:44:12.000Z</time>
                <name>Position 208</name>
            </trkpt>
            <trkpt lon="9.606401" lat="47.794882">
                <ele>430.9882841600019</ele>
                <time>2012-05-19T21:44:18.000Z</time>
                <name>Position 209</name>
            </trkpt>
            <trkpt lon="9.606546" lat="47.794999">
                <ele>431.3531475199938</ele>
                <time>2012-05-19T21:44:25.000Z</time>
                <name>Position 210</name>
            </trkpt>
            <trkpt lon="9.6067" lat="47.795102">
                <ele>431.26988800000015</ele>
                <time>2012-05-19T21:44:30.000Z</time>
                <name>Position 211</name>
            </trkpt>
            <trkpt lon="9.606832" lat="47.795226">
                <ele>431.11901824000154</ele>
                <time>2012-05-19T21:44:37.000Z</time>
                <name>Position 212</name>
            </trkpt>
            <trkpt lon="9.606951" lat="47.795358">
                <ele>431.0805385600005</ele>
                <time>2012-05-19T21:44:43.000Z</time>
                <name>Position 213</name>
            </trkpt>
            <trkpt lon="9.607067" lat="47.795477">
                <ele>431.1801428800026</ele>
                <time>2012-05-19T21:44:48.000Z</time>
                <name>Position 214</name>
            </trkpt>
            <trkpt lon="9.607177" lat="47.795588">
                <ele>431.38512831999975</ele>
                <time>2012-05-19T21:44:54.000Z</time>
                <name>Position 215</name>
            </trkpt>
            <trkpt lon="9.607265" lat="47.795714">
                <ele>431.63194719999916</ele>
                <time>2012-05-19T21:44:59.000Z</time>
                <name>Position 216</name>
            </trkpt>
            <trkpt lon="9.607303" lat="47.79587">
                <ele>431.8243984000003</ele>
                <time>2012-05-19T21:45:06.000Z</time>
                <name>Position 217</name>
            </trkpt>
            <trkpt lon="9.607319" lat="47.796035">
                <ele>432.03783760000454</ele>
                <time>2012-05-19T21:45:12.000Z</time>
                <name>Position 218</name>
            </trkpt>
            <trkpt lon="9.607337" lat="47.796189">
                <ele>432.25651791999553</ele>
                <time>2012-05-19T21:45:18.000Z</time>
                <name>Position 219</name>
            </trkpt>
            <trkpt lon="9.607379" lat="47.796345">
                <ele>432.58924720000175</ele>
                <time>2012-05-19T21:45:25.000Z</time>
                <name>Position 220</name>
            </trkpt>
            <trkpt lon="9.607395" lat="47.796498">
                <ele>432.81910240000116</ele>
                <time>2012-05-19T21:45:31.000Z</time>
                <name>Position 221</name>
            </trkpt>
            <trkpt lon="9.607393" lat="47.796645">
                <ele>432.96373839999814</ele>
                <time>2012-05-19T21:45:37.000Z</time>
                <name>Position 222</name>
            </trkpt>
            <trkpt lon="9.607391" lat="47.796792">
                <ele>433.1468723200036</ele>
                <time>2012-05-19T21:45:43.000Z</time>
                <name>Position 223</name>
            </trkpt>
            <trkpt lon="9.607424" lat="47.796947">
                <ele>433.5022796800035</ele>
                <time>2012-05-19T21:45:49.000Z</time>
                <name>Position 224</name>
            </trkpt>
            <trkpt lon="9.607438" lat="47.797106">
                <ele>433.7688236799997</ele>
                <time>2012-05-19T21:45:55.000Z</time>
                <name>Position 225</name>
            </trkpt>
            <trkpt lon="9.607462" lat="47.797238">
                <ele>434.03446335999973</ele>
                <time>2012-05-19T21:46:01.000Z</time>
                <name>Position 226</name>
            </trkpt>
            <trkpt lon="9.607463" lat="47.797392">
                <ele>434.2314457599994</ele>
                <time>2012-05-19T21:46:07.000Z</time>
                <name>Position 227</name>
            </trkpt>
            <trkpt lon="9.607481" lat="47.797557">
                <ele>434.1689166400111</ele>
                <time>2012-05-19T21:46:13.000Z</time>
                <name>Position 228</name>
            </trkpt>
            <trkpt lon="9.607492" lat="47.797673">
                <ele>433.65475071998645</ele>
                <time>2012-05-19T21:46:18.000Z</time>
                <name>Position 229</name>
            </trkpt>
            <trkpt lon="9.607549" lat="47.797847">
                <ele>432.84905296001295</ele>
                <time>2012-05-19T21:46:25.000Z</time>
                <name>Position 230</name>
            </trkpt>
            <trkpt lon="9.607561" lat="47.798052">
                <ele>431.92266304000805</ele>
                <time>2012-05-19T21:46:33.000Z</time>
                <name>Position 231</name>
            </trkpt>
            <trkpt lon="9.607575" lat="47.798257">
                <ele>431.0216680000037</ele>
                <time>2012-05-19T21:46:42.000Z</time>
                <name>Position 232</name>
            </trkpt>
            <trkpt lon="9.60756" lat="47.798427">
                <ele>430.7402143999953</ele>
                <time>2012-05-19T21:46:48.000Z</time>
                <name>Position 233</name>
            </trkpt>
            <trkpt lon="9.607561" lat="47.798639">
                <ele>430.95950048000213</ele>
                <time>2012-05-19T21:46:57.000Z</time>
                <name>Position 234</name>
            </trkpt>
            <trkpt lon="9.607616" lat="47.798801">
                <ele>431.1833619199979</ele>
                <time>2012-05-19T21:47:04.000Z</time>
                <name>Position 235</name>
            </trkpt>
            <trkpt lon="9.607673" lat="47.798957">
                <ele>431.35286432000106</ele>
                <time>2012-05-19T21:47:10.000Z</time>
                <name>Position 236</name>
            </trkpt>
            <trkpt lon="9.607753" lat="47.799098">
                <ele>431.4676332800005</ele>
                <time>2012-05-19T21:47:16.000Z</time>
                <name>Position 237</name>
            </trkpt>
            <trkpt lon="9.607764" lat="47.799244">
                <ele>431.6562009600033</ele>
                <time>2012-05-19T21:47:22.000Z</time>
                <name>Position 238</name>
            </trkpt>
            <trkpt lon="9.607699" lat="47.799369">
                <ele>431.9276193599971</ele>
                <time>2012-05-19T21:47:27.000Z</time>
                <name>Position 239</name>
            </trkpt>
            <trkpt lon="9.607657" lat="47.799478">
                <ele>432.1768137600014</ele>
                <time>2012-05-19T21:47:32.000Z</time>
                <name>Position 240</name>
            </trkpt>
            <trkpt lon="9.607666" lat="47.799583">
                <ele>432.39967967999644</ele>
                <time>2012-05-19T21:47:36.000Z</time>
                <name>Position 241</name>
            </trkpt>
            <trkpt lon="9.607677" lat="47.799695">
                <ele>432.63333839999905</ele>
                <time>2012-05-19T21:47:40.000Z</time>
                <name>Position 242</name>
            </trkpt>
            <trkpt lon="9.607706" lat="47.7998">
                <ele>432.8321279999947</ele>
                <time>2012-05-19T21:47:45.000Z</time>
                <name>Position 243</name>
            </trkpt>
            <trkpt lon="9.60773" lat="47.799951">
                <ele>433.12262880000003</ele>
                <time>2012-05-19T21:47:51.000Z</time>
                <name>Position 244</name>
            </trkpt>
            <trkpt lon="9.607786" lat="47.800124">
                <ele>434.0962636799736</ele>
                <time>2012-05-19T21:47:58.000Z</time>
                <name>Position 245</name>
            </trkpt>
            <trkpt lon="9.607821" lat="47.800274">
                <ele>435.16309248001346</ele>
                <time>2012-05-19T21:48:04.000Z</time>
                <name>Position 246</name>
            </trkpt>
            <trkpt lon="9.607843" lat="47.800418">
                <ele>436.1866828800017</ele>
                <time>2012-05-19T21:48:10.000Z</time>
                <name>Position 247</name>
            </trkpt>
            <trkpt lon="9.608079" lat="47.800543">
                <ele>436.4609366399833</ele>
                <time>2012-05-19T21:48:18.000Z</time>
                <name>Position 248</name>
            </trkpt>
            <trkpt lon="9.608327" lat="47.800615">
                <ele>436.20881760000543</ele>
                <time>2012-05-19T21:48:25.000Z</time>
                <name>Position 249</name>
            </trkpt>
            <trkpt lon="9.608413" lat="47.800722">
                <ele>436.88308864000214</ele>
                <time>2012-05-19T21:48:30.000Z</time>
                <name>Position 250</name>
            </trkpt>
            <trkpt lon="9.608393" lat="47.800857">
                <ele>437.4350662399986</ele>
                <time>2012-05-19T21:48:35.000Z</time>
                <name>Position 251</name>
            </trkpt>
            <trkpt lon="9.608413" lat="47.800983">
                <ele>437.0721209599934</ele>
                <time>2012-05-19T21:48:40.000Z</time>
                <name>Position 252</name>
            </trkpt>
            <trkpt lon="9.608385" lat="47.801104">
                <ele>436.7698495999939</ele>
                <time>2012-05-19T21:48:45.000Z</time>
                <name>Position 253</name>
            </trkpt>
            <trkpt lon="9.608449" lat="47.801233">
                <ele>436.2745260799893</ele>
                <time>2012-05-19T21:48:51.000Z</time>
                <name>Position 254</name>
            </trkpt>
            <trkpt lon="9.608469" lat="47.801377">
                <ele>435.7703571199949</ele>
                <time>2012-05-19T21:48:57.000Z</time>
                <name>Position 255</name>
            </trkpt>
            <trkpt lon="9.608426" lat="47.801514">
                <ele>435.5030873600093</ele>
                <time>2012-05-19T21:49:02.000Z</time>
                <name>Position 256</name>
            </trkpt>
            <trkpt lon="9.608294" lat="47.801637">
                <ele>435.9403983999943</ele>
                <time>2012-05-19T21:49:08.000Z</time>
                <name>Position 257</name>
            </trkpt>
            <trkpt lon="9.608134" lat="47.801775">
                <ele>437.0857920000056</ele>
                <time>2012-05-19T21:49:15.000Z</time>
                <name>Position 258</name>
            </trkpt>
            <trkpt lon="9.608051" lat="47.801924">
                <ele>437.493242880005</ele>
                <time>2012-05-19T21:49:22.000Z</time>
                <name>Position 259</name>
            </trkpt>
            <trkpt lon="9.607997" lat="47.802077">
                <ele>437.6490652800167</ele>
                <time>2012-05-19T21:49:28.000Z</time>
                <name>Position 260</name>
            </trkpt>
            <trkpt lon="9.608008" lat="47.802229">
                <ele>437.1256838400101</ele>
                <time>2012-05-19T21:49:34.000Z</time>
                <name>Position 261</name>
            </trkpt>
            <trkpt lon="9.608028" lat="47.802401">
                <ele>436.4333433600021</ele>
                <time>2012-05-19T21:49:41.000Z</time>
                <name>Position 262</name>
            </trkpt>
            <trkpt lon="9.608046" lat="47.802566">
                <ele>436.34399999999414</ele>
                <time>2012-05-19T21:49:48.000Z</time>
                <name>Position 263</name>
            </trkpt>
            <trkpt lon="9.608016" lat="47.802715">
                <ele>437.5980000000042</ele>
                <time>2012-05-19T21:49:54.000Z</time>
                <name>Position 264</name>
            </trkpt>
            <trkpt lon="9.608018" lat="47.802863">
                <ele>438.4620000000184</ele>
                <time>2012-05-19T21:50:00.000Z</time>
                <name>Position 265</name>
            </trkpt>
            <trkpt lon="9.608008" lat="47.803012">
                <ele>439.47600000001626</ele>
                <time>2012-05-19T21:50:05.000Z</time>
                <name>Position 266</name>
            </trkpt>
            <trkpt lon="9.607993" lat="47.803148">
                <ele>440.4719999999956</ele>
                <time>2012-05-19T21:50:11.000Z</time>
                <name>Position 267</name>
            </trkpt>
            <trkpt lon="9.607982" lat="47.803303">
                <ele>441.53400000000016</ele>
                <time>2012-05-19T21:50:17.000Z</time>
                <name>Position 268</name>
            </trkpt>
            <trkpt lon="9.607974" lat="47.803459">
                <ele>441.81199999999495</ele>
                <time>2012-05-19T21:50:23.000Z</time>
                <name>Position 269</name>
            </trkpt>
            <trkpt lon="9.607944" lat="47.803596">
                <ele>442.17200000000264</ele>
                <time>2012-05-19T21:50:29.000Z</time>
                <name>Position 270</name>
            </trkpt>
            <trkpt lon="9.60792" lat="47.803729">
                <ele>442.46000000000026</ele>
                <time>2012-05-19T21:50:34.000Z</time>
                <name>Position 271</name>
            </trkpt>
            <trkpt lon="9.607968" lat="47.803859">
                <ele>441.884000000005</ele>
                <time>2012-05-19T21:50:40.000Z</time>
                <name>Position 272</name>
            </trkpt>
            <trkpt lon="9.60807" lat="47.804042">
                <ele>440.66000000000446</ele>
                <time>2012-05-19T21:50:48.000Z</time>
                <name>Position 273</name>
            </trkpt>
            <trkpt lon="9.608134" lat="47.804218">
                <ele>439.7714611200066</ele>
                <time>2012-05-19T21:50:55.000Z</time>
                <name>Position 274</name>
            </trkpt>
            <trkpt lon="9.608106" lat="47.804361">
                <ele>439.74033216000714</ele>
                <time>2012-05-19T21:51:01.000Z</time>
                <name>Position 275</name>
            </trkpt>
            <trkpt lon="9.608078" lat="47.804573">
                <ele>439.47879743999886</ele>
                <time>2012-05-19T21:51:09.000Z</time>
                <name>Position 276</name>
            </trkpt>
            <trkpt lon="9.607958" lat="47.804776">
                <ele>439.95547008001114</ele>
                <time>2012-05-19T21:51:18.000Z</time>
                <name>Position 277</name>
            </trkpt>
            <trkpt lon="9.607915" lat="47.804961">
                <ele>439.6527744000036</ele>
                <time>2012-05-19T21:51:25.000Z</time>
                <name>Position 278</name>
            </trkpt>
            <trkpt lon="9.607876" lat="47.805146">
                <ele>439.3911014400035</ele>
                <time>2012-05-19T21:51:33.000Z</time>
                <name>Position 279</name>
            </trkpt>
            <trkpt lon="9.607828" lat="47.805305">
                <ele>439.1727456000115</ele>
                <time>2012-05-19T21:51:39.000Z</time>
                <name>Position 280</name>
            </trkpt>
            <trkpt lon="9.607781" lat="47.805464">
                <ele>438.8193177600005</ele>
                <time>2012-05-19T21:51:46.000Z</time>
                <name>Position 281</name>
            </trkpt>
            <trkpt lon="9.607733" lat="47.805635">
                <ele>438.2907311999916</ele>
                <time>2012-05-19T21:51:53.000Z</time>
                <name>Position 282</name>
            </trkpt>
            <trkpt lon="9.60769" lat="47.805807">
                <ele>437.61477119999375</ele>
                <time>2012-05-19T21:52:00.000Z</time>
                <name>Position 283</name>
            </trkpt>
            <trkpt lon="9.607666" lat="47.80597">
                <ele>436.87666879999085</ele>
                <time>2012-05-19T21:52:06.000Z</time>
                <name>Position 284</name>
            </trkpt>
            <trkpt lon="9.607721" lat="47.806125">
                <ele>436.1928199999933</ele>
                <time>2012-05-19T21:52:13.000Z</time>
                <name>Position 285</name>
            </trkpt>
            <trkpt lon="9.607787" lat="47.806273">
                <ele>435.57130544001194</ele>
                <time>2012-05-19T21:52:19.000Z</time>
                <name>Position 286</name>
            </trkpt>
            <trkpt lon="9.607847" lat="47.806424">
                <ele>434.9599443200007</ele>
                <time>2012-05-19T21:52:25.000Z</time>
                <name>Position 287</name>
            </trkpt>
            <trkpt lon="9.607887" lat="47.806586">
                <ele>434.30664607998773</ele>
                <time>2012-05-19T21:52:32.000Z</time>
                <name>Position 288</name>
            </trkpt>
            <trkpt lon="9.607966" lat="47.806739">
                <ele>433.88559999999865</ele>
                <time>2012-05-19T21:52:38.000Z</time>
                <name>Position 289</name>
            </trkpt>
            <trkpt lon="9.608044" lat="47.806914">
                <ele>433.559200000002</ele>
                <time>2012-05-19T21:52:45.000Z</time>
                <name>Position 290</name>
            </trkpt>
            <trkpt lon="9.608114" lat="47.807069">
                <ele>433.2712000000044</ele>
                <time>2012-05-19T21:52:52.000Z</time>
                <name>Position 291</name>
            </trkpt>
            <trkpt lon="9.60819" lat="47.807237">
                <ele>432.95919999999916</ele>
                <time>2012-05-19T21:52:59.000Z</time>
                <name>Position 292</name>
            </trkpt>
            <trkpt lon="9.608265" lat="47.807406">
                <ele>432.64359999999874</ele>
                <time>2012-05-19T21:53:06.000Z</time>
                <name>Position 293</name>
            </trkpt>
            <trkpt lon="9.608377" lat="47.807586">
                <ele>432.81600000000685</ele>
                <time>2012-05-19T21:53:14.000Z</time>
                <name>Position 294</name>
            </trkpt>
            <trkpt lon="9.608461" lat="47.807757">
                <ele>433.41719999999816</ele>
                <time>2012-05-19T21:53:21.000Z</time>
                <name>Position 295</name>
            </trkpt>
            <trkpt lon="9.608534" lat="47.807924">
                <ele>433.9176000000052</ele>
                <time>2012-05-19T21:53:28.000Z</time>
                <name>Position 296</name>
            </trkpt>
            <trkpt lon="9.608623" lat="47.808091">
                <ele>434.57159999999965</ele>
                <time>2012-05-19T21:53:35.000Z</time>
                <name>Position 297</name>
            </trkpt>
            <trkpt lon="9.608726" lat="47.808264">
                <ele>435.35280000000546</ele>
                <time>2012-05-19T21:53:43.000Z</time>
                <name>Position 298</name>
            </trkpt>
            <trkpt lon="9.608801" lat="47.808432">
                <ele>435.79026175998996</ele>
                <time>2012-05-19T21:53:50.000Z</time>
                <name>Position 299</name>
            </trkpt>
            <trkpt lon="9.608872" lat="47.808587">
                <ele>436.08090751999174</ele>
                <time>2012-05-19T21:53:56.000Z</time>
                <name>Position 300</name>
            </trkpt>
            <trkpt lon="9.608901" lat="47.808739">
                <ele>435.95477551998863</ele>
                <time>2012-05-19T21:54:02.000Z</time>
                <name>Position 301</name>
            </trkpt>
            <trkpt lon="9.608974" lat="47.808901">
                <ele>436.07928032000234</ele>
                <time>2012-05-19T21:54:09.000Z</time>
                <name>Position 302</name>
            </trkpt>
            <trkpt lon="9.609023" lat="47.809053">
                <ele>435.97665392000704</ele>
                <time>2012-05-19T21:54:15.000Z</time>
                <name>Position 303</name>
            </trkpt>
            <trkpt lon="9.609091" lat="47.809196">
                <ele>435.9179846399961</ele>
                <time>2012-05-19T21:54:21.000Z</time>
                <name>Position 304</name>
            </trkpt>
            <trkpt lon="9.609182" lat="47.809375">
                <ele>435.65639999999127</ele>
                <time>2012-05-19T21:54:29.000Z</time>
                <name>Position 305</name>
            </trkpt>
            <trkpt lon="9.609281" lat="47.809523">
                <ele>435.9070665599994</ele>
                <time>2012-05-19T21:54:35.000Z</time>
                <name>Position 306</name>
            </trkpt>
            <trkpt lon="9.609367" lat="47.809683">
                <ele>435.8872963200071</ele>
                <time>2012-05-19T21:54:42.000Z</time>
                <name>Position 307</name>
            </trkpt>
            <trkpt lon="9.609431" lat="47.809825">
                <ele>435.6936240000256</ele>
                <time>2012-05-19T21:54:48.000Z</time>
                <name>Position 308</name>
            </trkpt>
            <trkpt lon="9.609473" lat="47.809987">
                <ele>435.14706911999764</ele>
                <time>2012-05-19T21:54:55.000Z</time>
                <name>Position 309</name>
            </trkpt>
            <trkpt lon="9.60954" lat="47.810158">
                <ele>434.8123775999997</ele>
                <time>2012-05-19T21:55:02.000Z</time>
                <name>Position 310</name>
            </trkpt>
            <trkpt lon="9.609595" lat="47.810319">
                <ele>434.35932240000477</ele>
                <time>2012-05-19T21:55:08.000Z</time>
                <name>Position 311</name>
            </trkpt>
            <trkpt lon="9.609637" lat="47.810476">
                <ele>433.7700441599881</ele>
                <time>2012-05-19T21:55:15.000Z</time>
                <name>Position 312</name>
            </trkpt>
            <trkpt lon="9.609719" lat="47.81063">
                <ele>433.36836959998084</ele>
                <time>2012-05-19T21:55:21.000Z</time>
                <name>Position 313</name>
            </trkpt>
            <trkpt lon="9.609721" lat="47.810761">
                <ele>432.5944180800056</ele>
                <time>2012-05-19T21:55:26.000Z</time>
                <name>Position 314</name>
            </trkpt>
            <trkpt lon="9.609735" lat="47.810897">
                <ele>432.24878080000127</ele>
                <time>2012-05-19T21:55:32.000Z</time>
                <name>Position 315</name>
            </trkpt>
            <trkpt lon="9.60977" lat="47.811047">
                <ele>432.42266559999734</ele>
                <time>2012-05-19T21:55:38.000Z</time>
                <name>Position 316</name>
            </trkpt>
            <trkpt lon="9.609823" lat="47.81119">
                <ele>432.5860288000004</ele>
                <time>2012-05-19T21:55:44.000Z</time>
                <name>Position 317</name>
            </trkpt>
            <trkpt lon="9.609907" lat="47.81135">
                <ele>432.71036800000127</ele>
                <time>2012-05-19T21:55:51.000Z</time>
                <name>Position 318</name>
            </trkpt>
            <trkpt lon="9.610031" lat="47.811523">
                <ele>432.7416663999971</ele>
                <time>2012-05-19T21:55:58.000Z</time>
                <name>Position 319</name>
            </trkpt>
            <trkpt lon="9.610101" lat="47.811684">
                <ele>432.6394790399998</ele>
                <time>2012-05-19T21:56:05.000Z</time>
                <name>Position 320</name>
            </trkpt>
            <trkpt lon="9.610187" lat="47.811844">
                <ele>432.8894476800004</ele>
                <time>2012-05-19T21:56:12.000Z</time>
                <name>Position 321</name>
            </trkpt>
            <trkpt lon="9.610247" lat="47.812007">
                <ele>433.0837502400005</ele>
                <time>2012-05-19T21:56:19.000Z</time>
                <name>Position 322</name>
            </trkpt>
            <trkpt lon="9.610333" lat="47.812174">
                <ele>433.2651235199994</ele>
                <time>2012-05-19T21:56:26.000Z</time>
                <name>Position 323</name>
            </trkpt>
            <trkpt lon="9.610432" lat="47.812333">
                <ele>433.4034873600012</ele>
                <time>2012-05-19T21:56:33.000Z</time>
                <name>Position 324</name>
            </trkpt>
            <trkpt lon="9.610508" lat="47.812501">
                <ele>433.49880000000303</ele>
                <time>2012-05-19T21:56:40.000Z</time>
                <name>Position 325</name>
            </trkpt>
            <trkpt lon="9.610578" lat="47.812662">
                <ele>433.3055999999963</ele>
                <time>2012-05-19T21:56:46.000Z</time>
                <name>Position 326</name>
            </trkpt>
            <trkpt lon="9.61064" lat="47.812838">
                <ele>433.09440000000086</ele>
                <time>2012-05-19T21:56:54.000Z</time>
                <name>Position 327</name>
            </trkpt>
            <trkpt lon="9.610726" lat="47.812998">
                <ele>432.9023999999996</ele>
                <time>2012-05-19T21:57:00.000Z</time>
                <name>Position 328</name>
            </trkpt>
            <trkpt lon="9.610808" lat="47.81318">
                <ele>432.6839999999968</ele>
                <time>2012-05-19T21:57:08.000Z</time>
                <name>Position 329</name>
            </trkpt>
            <trkpt lon="9.610886" lat="47.813343">
                <ele>432.5856668800084</ele>
                <time>2012-05-19T21:57:15.000Z</time>
                <name>Position 330</name>
            </trkpt>
            <trkpt lon="9.610981" lat="47.813512">
                <ele>433.0680083200069</ele>
                <time>2012-05-19T21:57:22.000Z</time>
                <name>Position 331</name>
            </trkpt>
            <trkpt lon="9.611078" lat="47.813687">
                <ele>433.51779616000266</ele>
                <time>2012-05-19T21:57:30.000Z</time>
                <name>Position 332</name>
            </trkpt>
            <trkpt lon="9.611146" lat="47.813835">
                <ele>433.8533295999948</ele>
                <time>2012-05-19T21:57:36.000Z</time>
                <name>Position 333</name>
            </trkpt>
            <trkpt lon="9.611199" lat="47.81399">
                <ele>434.1690255999939</ele>
                <time>2012-05-19T21:57:42.000Z</time>
                <name>Position 334</name>
            </trkpt>
            <trkpt lon="9.611252" lat="47.814133">
                <ele>434.4394969599968</ele>
                <time>2012-05-19T21:57:48.000Z</time>
                <name>Position 335</name>
            </trkpt>
            <trkpt lon="9.611323" lat="47.814283">
                <ele>434.30282895999477</ele>
                <time>2012-05-19T21:57:54.000Z</time>
                <name>Position 336</name>
            </trkpt>
            <trkpt lon="9.611416" lat="47.814422">
                <ele>434.1014348799995</ele>
                <time>2012-05-19T21:58:00.000Z</time>
                <name>Position 337</name>
            </trkpt>
            <trkpt lon="9.611594" lat="47.814551">
                <ele>433.9985833599981</ele>
                <time>2012-05-19T21:58:07.000Z</time>
                <name>Position 338</name>
            </trkpt>
            <trkpt lon="9.611733" lat="47.814683">
                <ele>433.8501201599979</ele>
                <time>2012-05-19T21:58:14.000Z</time>
                <name>Position 339</name>
            </trkpt>
            <trkpt lon="9.611869" lat="47.814792">
                <ele>433.68899712000257</ele>
                <time>2012-05-19T21:58:20.000Z</time>
                <name>Position 340</name>
            </trkpt>
            <trkpt lon="9.612014" lat="47.814915">
                <ele>433.5594864000006</ele>
                <time>2012-05-19T21:58:26.000Z</time>
                <name>Position 341</name>
            </trkpt>
            <trkpt lon="9.612157" lat="47.815032">
                <ele>433.5225945600015</ele>
                <time>2012-05-19T21:58:32.000Z</time>
                <name>Position 342</name>
            </trkpt>
            <trkpt lon="9.612302" lat="47.815149">
                <ele>433.6363171199982</ele>
                <time>2012-05-19T21:58:38.000Z</time>
                <name>Position 343</name>
            </trkpt>
            <trkpt lon="9.612456" lat="47.81527">
                <ele>433.8068927999978</ele>
                <time>2012-05-19T21:58:44.000Z</time>
                <name>Position 344</name>
            </trkpt>
            <trkpt lon="9.612617" lat="47.815404">
                <ele>433.98480000000103</ele>
                <time>2012-05-19T21:58:51.000Z</time>
                <name>Position 345</name>
            </trkpt>
            <trkpt lon="9.612747" lat="47.815528">
                <ele>434.1336000000005</ele>
                <time>2012-05-19T21:58:57.000Z</time>
                <name>Position 346</name>
            </trkpt>
            <trkpt lon="9.612855" lat="47.815639">
                <ele>434.26679999999675</ele>
                <time>2012-05-19T21:59:03.000Z</time>
                <name>Position 347</name>
            </trkpt>
            <trkpt lon="9.612984" lat="47.815763">
                <ele>434.41559999999623</ele>
                <time>2012-05-19T21:59:09.000Z</time>
                <name>Position 348</name>
            </trkpt>
            <trkpt lon="9.613125" lat="47.815879">
                <ele>434.54110000000213</ele>
                <time>2012-05-19T21:59:15.000Z</time>
                <name>Position 349</name>
            </trkpt>
            <trkpt lon="9.613295" lat="47.815981">
                <ele>434.6690488000009</ele>
                <time>2012-05-19T21:59:21.000Z</time>
                <name>Position 350</name>
            </trkpt>
            <trkpt lon="9.613475" lat="47.81607">
                <ele>435.0988400000044</ele>
                <time>2012-05-19T21:59:27.000Z</time>
                <name>Position 351</name>
            </trkpt>
            <trkpt lon="9.613646" lat="47.816166">
                <ele>435.7237395200043</ele>
                <time>2012-05-19T21:59:33.000Z</time>
                <name>Position 352</name>
            </trkpt>
            <trkpt lon="9.613756" lat="47.816259">
                <ele>436.2952332800078</ele>
                <time>2012-05-19T21:59:38.000Z</time>
                <name>Position 353</name>
            </trkpt>
            <trkpt lon="9.613845" lat="47.81638">
                <ele>436.97835200000577</ele>
                <time>2012-05-19T21:59:43.000Z</time>
                <name>Position 354</name>
            </trkpt>
            <trkpt lon="9.613933" lat="47.816519">
                <ele>437.81866063999524</ele>
                <time>2012-05-19T21:59:49.000Z</time>
                <name>Position 355</name>
            </trkpt>
            <trkpt lon="9.614049" lat="47.816668">
                <ele>438.93107775999835</ele>
                <time>2012-05-19T21:59:56.000Z</time>
                <name>Position 356</name>
            </trkpt>
            <trkpt lon="9.614205" lat="47.816789">
                <ele>438.9418584000003</ele>
                <time>2012-05-19T22:00:02.000Z</time>
                <name>Position 357</name>
            </trkpt>
            <trkpt lon="9.614333" lat="47.816912">
                <ele>438.1942867199939</ele>
                <time>2012-05-19T22:00:08.000Z</time>
                <name>Position 358</name>
            </trkpt>
            <trkpt lon="9.614476" lat="47.817035">
                <ele>437.5526112000074</ele>
                <time>2012-05-19T22:00:14.000Z</time>
                <name>Position 359</name>
            </trkpt>
            <trkpt lon="9.614632" lat="47.817163">
                <ele>437.0357491199987</ele>
                <time>2012-05-19T22:00:21.000Z</time>
                <name>Position 360</name>
            </trkpt>
            <trkpt lon="9.614771" lat="47.817284">
                <ele>436.71368448000004</ele>
                <time>2012-05-19T22:00:27.000Z</time>
                <name>Position 361</name>
            </trkpt>
            <trkpt lon="9.614909" lat="47.817394">
                <ele>436.5416707199996</ele>
                <time>2012-05-19T22:00:33.000Z</time>
                <name>Position 362</name>
            </trkpt>
            <trkpt lon="9.615068" lat="47.81751">
                <ele>436.418399999999</ele>
                <time>2012-05-19T22:00:39.000Z</time>
                <name>Position 363</name>
            </trkpt>
            <trkpt lon="9.615213" lat="47.817621">
                <ele>436.2443999999992</ele>
                <time>2012-05-19T22:00:45.000Z</time>
                <name>Position 364</name>
            </trkpt>
            <trkpt lon="9.615323" lat="47.817708">
                <ele>436.1123999999999</ele>
                <time>2012-05-19T22:00:50.000Z</time>
                <name>Position 365</name>
            </trkpt>
            <trkpt lon="9.615418" lat="47.817783">
                <ele>435.99839999999995</ele>
                <time>2012-05-19T22:00:54.000Z</time>
                <name>Position 366</name>
            </trkpt>
            <trkpt lon="9.615453" lat="47.817832">
                <ele>435.9563999999994</ele>
                <time>2012-05-19T22:00:56.000Z</time>
                <name>Position 367</name>
            </trkpt>
            <trkpt lon="9.615473" lat="47.817862">
                <ele>435.9324000000003</ele>
                <time>2012-05-19T22:00:57.000Z</time>
                <name>Position 368</name>
            </trkpt>
            <trkpt lon="9.615442" lat="47.817857">
                <ele>435.9696000000002</ele>
                <time>2012-05-19T22:00:58.000Z</time>
                <name>Position 369</name>
            </trkpt>
            <trkpt lon="9.61544" lat="47.817851">
                <ele>435.97200000000055</ele>
                <time>2012-05-19T22:00:58.000Z</time>
                <name>Position 370</name>
            </trkpt>
            <trkpt lon="9.615437" lat="47.817844">
                <ele>435.9756</ele>
                <time>2012-05-19T22:00:59.000Z</time>
                <name>Position 371</name>
            </trkpt>
            <trkpt lon="9.615422" lat="47.817845">
                <ele>435.9935999999993</ele>
                <time>2012-05-19T22:00:59.000Z</time>
                <name>Position 372</name>
            </trkpt>
            <trkpt lon="9.615433" lat="47.817837">
                <ele>435.98040000000066</ele>
                <time>2012-05-19T22:00:59.000Z</time>
                <name>Position 373</name>
            </trkpt>
            <trkpt lon="9.615433" lat="47.817843">
                <ele>435.98040000000066</ele>
                <time>2012-05-19T22:01:00.000Z</time>
                <name>Position 374</name>
            </trkpt>
            <trkpt lon="9.615453" lat="47.81785">
                <ele>435.9563999999994</ele>
                <time>2012-05-19T22:01:00.000Z</time>
                <name>Position 375</name>
            </trkpt>
            <trkpt lon="9.615471" lat="47.817856">
                <ele>435.9348000000007</ele>
                <time>2012-05-19T22:01:01.000Z</time>
                <name>Position 376</name>
            </trkpt>
            <trkpt lon="9.615471" lat="47.817862">
                <ele>435.9348000000007</ele>
                <time>2012-05-19T22:01:01.000Z</time>
                <name>Position 377</name>
            </trkpt>
            <trkpt lon="9.615484" lat="47.817867">
                <ele>435.91919999999953</ele>
                <time>2012-05-19T22:01:01.000Z</time>
                <name>Position 378</name>
            </trkpt>
            <trkpt lon="9.615484" lat="47.817861">
                <ele>435.91919999999953</ele>
                <time>2012-05-19T22:01:02.000Z</time>
                <name>Position 379</name>
            </trkpt>
            <trkpt lon="9.615499" lat="47.817866">
                <ele>435.90120000000024</ele>
                <time>2012-05-19T22:01:02.000Z</time>
                <name>Position 380</name>
            </trkpt>
            <trkpt lon="9.615499" lat="47.81786">
                <ele>435.90120000000024</ele>
                <time>2012-05-19T22:01:02.000Z</time>
                <name>Position 381</name>
            </trkpt>
            <trkpt lon="9.615501" lat="47.817867">
                <ele>435.8987999999999</ele>
                <time>2012-05-19T22:01:03.000Z</time>
                <name>Position 382</name>
            </trkpt>
            <trkpt lon="9.615501" lat="47.817861">
                <ele>435.8987999999999</ele>
                <time>2012-05-19T22:01:03.000Z</time>
                <name>Position 383</name>
            </trkpt>
            <trkpt lon="9.615501" lat="47.817867">
                <ele>435.8987999999999</ele>
                <time>2012-05-19T22:01:03.000Z</time>
                <name>Position 384</name>
            </trkpt>
            <trkpt lon="9.615504" lat="47.817867">
                <ele>435.89520000000044</ele>
                <time>2012-05-19T22:01:03.000Z</time>
                <name>Position 385</name>
            </trkpt>
            <trkpt lon="9.615458" lat="47.817909">
                <ele>435.95039999999966</ele>
                <time>2012-05-19T22:01:05.000Z</time>
                <name>Position 386</name>
            </trkpt>
            <trkpt lon="9.615333" lat="47.817977">
                <ele>436.1004000000004</ele>
                <time>2012-05-19T22:01:10.000Z</time>
                <name>Position 387</name>
            </trkpt>
            <trkpt lon="9.615184" lat="47.818064">
                <ele>436.27920000000086</ele>
                <time>2012-05-19T22:01:15.000Z</time>
                <name>Position 388</name>
            </trkpt>
            <trkpt lon="9.615063" lat="47.818169">
                <ele>436.4244000000009</ele>
                <time>2012-05-19T22:01:20.000Z</time>
                <name>Position 389</name>
            </trkpt>
            <trkpt lon="9.614945" lat="47.818262">
                <ele>436.5</ele>
                <time>2012-05-19T22:01:25.000Z</time>
                <name>Position 390</name>
            </trkpt>
            <trkpt lon="9.614776" lat="47.818359">
                <ele>436.5</ele>
                <time>2012-05-19T22:01:31.000Z</time>
                <name>Position 391</name>
            </trkpt>
            <trkpt lon="9.614553" lat="47.818455">
                <ele>436.5</ele>
                <time>2012-05-19T22:01:38.000Z</time>
                <name>Position 392</name>
            </trkpt>
            <trkpt lon="9.614298" lat="47.818552">
                <ele>436.5</ele>
                <time>2012-05-19T22:01:46.000Z</time>
                <name>Position 393</name>
            </trkpt>
            <trkpt lon="9.614057" lat="47.818642">
                <ele>436.51463391999846</ele>
                <time>2012-05-19T22:01:54.000Z</time>
                <name>Position 394</name>
            </trkpt>
            <trkpt lon="9.613833" lat="47.818749">
                <ele>436.69875855999567</ele>
                <time>2012-05-19T22:02:01.000Z</time>
                <name>Position 395</name>
            </trkpt>
            <trkpt lon="9.613618" lat="47.818831">
                <ele>437.0211894400064</ele>
                <time>2012-05-19T22:02:08.000Z</time>
                <name>Position 396</name>
            </trkpt>
            <trkpt lon="9.613432" lat="47.818911">
                <ele>437.4517753600004</ele>
                <time>2012-05-19T22:02:14.000Z</time>
                <name>Position 397</name>
            </trkpt>
            <trkpt lon="9.61323" lat="47.818985">
                <ele>437.8730319999926</ele>
                <time>2012-05-19T22:02:20.000Z</time>
                <name>Position 398</name>
            </trkpt>
            <trkpt lon="9.613029" lat="47.819071">
                <ele>438.1975249600032</ele>
                <time>2012-05-19T22:02:26.000Z</time>
                <name>Position 399</name>
            </trkpt>
            <trkpt lon="9.61286" lat="47.819157">
                <ele>438.47178879999126</ele>
                <time>2012-05-19T22:02:32.000Z</time>
                <name>Position 400</name>
            </trkpt>
            <trkpt lon="9.612667" lat="47.819223">
                <ele>438.60810592000166</ele>
                <time>2012-05-19T22:02:38.000Z</time>
                <name>Position 401</name>
            </trkpt>
            <trkpt lon="9.612507" lat="47.819313">
                <ele>438.8482499200021</ele>
                <time>2012-05-19T22:02:43.000Z</time>
                <name>Position 402</name>
            </trkpt>
            <trkpt lon="9.61249" lat="47.81943">
                <ele>439.1275839999923</ele>
                <time>2012-05-19T22:02:48.000Z</time>
                <name>Position 403</name>
            </trkpt>
            <trkpt lon="9.61256" lat="47.819573">
                <ele>439.404985599996</ele>
                <time>2012-05-19T22:02:54.000Z</time>
                <name>Position 404</name>
            </trkpt>
            <trkpt lon="9.61269" lat="47.819691">
                <ele>439.47148479999686</ele>
                <time>2012-05-19T22:03:00.000Z</time>
                <name>Position 405</name>
            </trkpt>
            <trkpt lon="9.612888" lat="47.819822">
                <ele>439.3405043200029</ele>
                <time>2012-05-19T22:03:07.000Z</time>
                <name>Position 406</name>
            </trkpt>
            <trkpt lon="9.61306" lat="47.819955">
                <ele>439.1205759999984</ele>
                <time>2012-05-19T22:03:14.000Z</time>
                <name>Position 407</name>
            </trkpt>
            <trkpt lon="9.613227" lat="47.820068">
                <ele>438.7951513599992</ele>
                <time>2012-05-19T22:03:21.000Z</time>
                <name>Position 408</name>
            </trkpt>
            <trkpt lon="9.613416" lat="47.820155">
                <ele>438.7229023999999</ele>
                <time>2012-05-19T22:03:27.000Z</time>
                <name>Position 409</name>
            </trkpt>
            <trkpt lon="9.6136" lat="47.82021">
                <ele>438.91328000000567</ele>
                <time>2012-05-19T22:03:32.000Z</time>
                <name>Position 410</name>
            </trkpt>
            <trkpt lon="9.613787" lat="47.820272">
                <ele>439.181784320007</ele>
                <time>2012-05-19T22:03:38.000Z</time>
                <name>Position 411</name>
            </trkpt>
            <trkpt lon="9.613965" lat="47.820366">
                <ele>439.6050271999999</ele>
                <time>2012-05-19T22:03:44.000Z</time>
                <name>Position 412</name>
            </trkpt>
            <trkpt lon="9.61415" lat="47.820474">
                <ele>440.1836479999905</ele>
                <time>2012-05-19T22:03:51.000Z</time>
                <name>Position 413</name>
            </trkpt>
            <trkpt lon="9.614333" lat="47.820587">
                <ele>439.8738017600101</ele>
                <time>2012-05-19T22:03:57.000Z</time>
                <name>Position 414</name>
            </trkpt>
            <trkpt lon="9.614519" lat="47.820707">
                <ele>439.41809647999816</ele>
                <time>2012-05-19T22:04:04.000Z</time>
                <name>Position 415</name>
            </trkpt>
            <trkpt lon="9.614682" lat="47.820836">
                <ele>439.02791551999945</ele>
                <time>2012-05-19T22:04:11.000Z</time>
                <name>Position 416</name>
            </trkpt>
            <trkpt lon="9.614841" lat="47.820946">
                <ele>438.4304153599984</ele>
                <time>2012-05-19T22:04:17.000Z</time>
                <name>Position 417</name>
            </trkpt>
            <trkpt lon="9.614997" lat="47.821068">
                <ele>438.07354495999016</ele>
                <time>2012-05-19T22:04:24.000Z</time>
                <name>Position 418</name>
            </trkpt>
            <trkpt lon="9.615114" lat="47.821187">
                <ele>438.01714208000357</ele>
                <time>2012-05-19T22:04:29.000Z</time>
                <name>Position 419</name>
            </trkpt>
            <trkpt lon="9.615224" lat="47.821326">
                <ele>437.9858854399994</ele>
                <time>2012-05-19T22:04:36.000Z</time>
                <name>Position 420</name>
            </trkpt>
            <trkpt lon="9.615316" lat="47.821466">
                <ele>437.9721113600017</ele>
                <time>2012-05-19T22:04:42.000Z</time>
                <name>Position 421</name>
            </trkpt>
            <trkpt lon="9.6154" lat="47.82162">
                <ele>437.97488000000766</ele>
                <time>2012-05-19T22:04:48.000Z</time>
                <name>Position 422</name>
            </trkpt>
            <trkpt lon="9.615497" lat="47.821767">
                <ele>437.85441312000324</ele>
                <time>2012-05-19T22:04:55.000Z</time>
                <name>Position 423</name>
            </trkpt>
            <trkpt lon="9.615581" lat="47.821915">
                <ele>437.8239311999932</ele>
                <time>2012-05-19T22:05:01.000Z</time>
                <name>Position 424</name>
            </trkpt>
            <trkpt lon="9.615639" lat="47.822071">
                <ele>437.94370272000225</ele>
                <time>2012-05-19T22:05:07.000Z</time>
                <name>Position 425</name>
            </trkpt>
            <trkpt lon="9.61571" lat="47.82222">
                <ele>438.07545600000293</ele>
                <time>2012-05-19T22:05:14.000Z</time>
                <name>Position 426</name>
            </trkpt>
            <trkpt lon="9.615791" lat="47.822367">
                <ele>438.24781535999983</ele>
                <time>2012-05-19T22:05:20.000Z</time>
                <name>Position 427</name>
            </trkpt>
            <trkpt lon="9.615847" lat="47.822517">
                <ele>438.4879345599961</ele>
                <time>2012-05-19T22:05:26.000Z</time>
                <name>Position 428</name>
            </trkpt>
            <trkpt lon="9.615902" lat="47.822667">
                <ele>438.55211296000317</ele>
                <time>2012-05-19T22:05:32.000Z</time>
                <name>Position 429</name>
            </trkpt>
            <trkpt lon="9.615968" lat="47.822803">
                <ele>438.59915775999957</ele>
                <time>2012-05-19T22:05:38.000Z</time>
                <name>Position 430</name>
            </trkpt>
            <trkpt lon="9.61605" lat="47.822932">
                <ele>438.63318400000315</ele>
                <time>2012-05-19T22:05:44.000Z</time>
                <name>Position 431</name>
            </trkpt>
            <trkpt lon="9.616109" lat="47.823048">
                <ele>438.71353408000033</ele>
                <time>2012-05-19T22:05:49.000Z</time>
                <name>Position 432</name>
            </trkpt>
            <trkpt lon="9.616171" lat="47.823165">
                <ele>438.81094960000576</ele>
                <time>2012-05-19T22:05:54.000Z</time>
                <name>Position 433</name>
            </trkpt>
            <trkpt lon="9.616248" lat="47.823299">
                <ele>438.9406988799969</ele>
                <time>2012-05-19T22:05:59.000Z</time>
                <name>Position 434</name>
            </trkpt>
            <trkpt lon="9.616315" lat="47.823435">
                <ele>439.0115480000029</ele>
                <time>2012-05-19T22:06:05.000Z</time>
                <name>Position 435</name>
            </trkpt>
            <trkpt lon="9.616399" lat="47.823589">
                <ele>439.13916751999795</ele>
                <time>2012-05-19T22:06:12.000Z</time>
                <name>Position 436</name>
            </trkpt>
            <trkpt lon="9.61648" lat="47.823724">
                <ele>439.3465663999973</ele>
                <time>2012-05-19T22:06:17.000Z</time>
                <name>Position 437</name>
            </trkpt>
            <trkpt lon="9.616586" lat="47.823857">
                <ele>439.6711126399931</ele>
                <time>2012-05-19T22:06:24.000Z</time>
                <name>Position 438</name>
            </trkpt>
            <trkpt lon="9.616727" lat="47.823949">
                <ele>439.9775999999974</ele>
                <time>2012-05-19T22:06:29.000Z</time>
                <name>Position 439</name>
            </trkpt>
            <trkpt lon="9.616771" lat="47.824041">
                <ele>440.19840000000266</ele>
                <time>2012-05-19T22:06:33.000Z</time>
                <name>Position 440</name>
            </trkpt>
            <trkpt lon="9.616668" lat="47.824133">
                <ele>440.41920000000795</ele>
                <time>2012-05-19T22:06:37.000Z</time>
                <name>Position 441</name>
            </trkpt>
            <trkpt lon="9.616686" lat="47.824246">
                <ele>440.21660863999205</ele>
                <time>2012-05-19T22:06:42.000Z</time>
                <name>Position 442</name>
            </trkpt>
            <trkpt lon="9.616776" lat="47.824367">
                <ele>439.8103404799922</ele>
                <time>2012-05-19T22:06:47.000Z</time>
                <name>Position 443</name>
            </trkpt>
            <trkpt lon="9.61697" lat="47.824467">
                <ele>439.54998560000496</ele>
                <time>2012-05-19T22:06:54.000Z</time>
                <name>Position 444</name>
            </trkpt>
            <trkpt lon="9.617192" lat="47.824565">
                <ele>439.36733120000036</ele>
                <time>2012-05-19T22:07:01.000Z</time>
                <name>Position 445</name>
            </trkpt>
            <trkpt lon="9.617407" lat="47.824637">
                <ele>439.3082129599932</ele>
                <time>2012-05-19T22:07:07.000Z</time>
                <name>Position 446</name>
            </trkpt>
            <trkpt lon="9.617633" lat="47.824695">
                <ele>439.47714560000196</ele>
                <time>2012-05-19T22:07:14.000Z</time>
                <name>Position 447</name>
            </trkpt>
            <trkpt lon="9.617833" lat="47.824756">
                <ele>439.8163884799978</ele>
                <time>2012-05-19T22:07:20.000Z</time>
                <name>Position 448</name>
            </trkpt>
            <trkpt lon="9.618011" lat="47.82485">
                <ele>440.2580959999965</ele>
                <time>2012-05-19T22:07:26.000Z</time>
                <name>Position 449</name>
            </trkpt>
            <trkpt lon="9.618137" lat="47.824955">
                <ele>440.73608960000604</ele>
                <time>2012-05-19T22:07:31.000Z</time>
                <name>Position 450</name>
            </trkpt>
            <trkpt lon="9.618254" lat="47.825079">
                <ele>441.0338249599957</ele>
                <time>2012-05-19T22:07:37.000Z</time>
                <name>Position 451</name>
            </trkpt>
            <trkpt lon="9.618386" lat="47.82521">
                <ele>440.9960000000039</ele>
                <time>2012-05-19T22:07:44.000Z</time>
                <name>Position 452</name>
            </trkpt>
            <trkpt lon="9.618555" lat="47.825318">
                <ele>440.73679999999325</ele>
                <time>2012-05-19T22:07:50.000Z</time>
                <name>Position 453</name>
            </trkpt>
            <trkpt lon="9.618722" lat="47.82542">
                <ele>440.4919999999974</ele>
                <time>2012-05-19T22:07:56.000Z</time>
                <name>Position 454</name>
            </trkpt>
            <trkpt lon="9.618916" lat="47.825513">
                <ele>440.2687999999982</ele>
                <time>2012-05-19T22:08:02.000Z</time>
                <name>Position 455</name>
            </trkpt>
            <trkpt lon="9.619094" lat="47.825601">
                <ele>440.05760000000276</ele>
                <time>2012-05-19T22:08:08.000Z</time>
                <name>Position 456</name>
            </trkpt>
            <trkpt lon="9.61925" lat="47.825711">
                <ele>439.9495600000019</ele>
                <time>2012-05-19T22:08:14.000Z</time>
                <name>Position 457</name>
            </trkpt>
            <trkpt lon="9.619343" lat="47.825845">
                <ele>439.9643880000047</ele>
                <time>2012-05-19T22:08:20.000Z</time>
                <name>Position 458</name>
            </trkpt>
            <trkpt lon="9.619383" lat="47.825995">
                <ele>440.54338799999505</ele>
                <time>2012-05-19T22:08:26.000Z</time>
                <name>Position 459</name>
            </trkpt>
            <trkpt lon="9.619423" lat="47.826145">
                <ele>441.0359879999902</ele>
                <time>2012-05-19T22:08:32.000Z</time>
                <name>Position 460</name>
            </trkpt>
            <trkpt lon="9.619478" lat="47.826295">
                <ele>441.4283280000036</ele>
                <time>2012-05-19T22:08:39.000Z</time>
                <name>Position 461</name>
            </trkpt>
            <trkpt lon="9.619496" lat="47.826448">
                <ele>441.7833023999984</ele>
                <time>2012-05-19T22:08:45.000Z</time>
                <name>Position 462</name>
            </trkpt>
            <trkpt lon="9.619387" lat="47.826555">
                <ele>442.34794799999776</ele>
                <time>2012-05-19T22:08:50.000Z</time>
                <name>Position 463</name>
            </trkpt>
            <trkpt lon="9.619185" lat="47.826623">
                <ele>443.23016399999045</ele>
                <time>2012-05-19T22:08:56.000Z</time>
                <name>Position 464</name>
            </trkpt>
            <trkpt lon="9.619014" lat="47.826721">
                <ele>443.11617856000004</ele>
                <time>2012-05-19T22:09:02.000Z</time>
                <name>Position 465</name>
            </trkpt>
            <trkpt lon="9.619028" lat="47.826861">
                <ele>443.0892179199997</ele>
                <time>2012-05-19T22:09:08.000Z</time>
                <name>Position 466</name>
            </trkpt>
            <trkpt lon="9.619116" lat="47.826987">
                <ele>443.0874860799977</ele>
                <time>2012-05-19T22:09:13.000Z</time>
                <name>Position 467</name>
            </trkpt>
            <trkpt lon="9.619184" lat="47.827053">
                <ele>442.9836428799992</ele>
                <time>2012-05-19T22:09:16.000Z</time>
                <name>Position 468</name>
            </trkpt>
            <trkpt lon="9.619329" lat="47.827047">
                <ele>442.54810671999866</ele>
                <time>2012-05-19T22:09:20.000Z</time>
                <name>Position 469</name>
            </trkpt>
            <trkpt lon="9.619526" lat="47.827024">
                <ele>441.96249855999787</ele>
                <time>2012-05-19T22:09:26.000Z</time>
                <name>Position 470</name>
            </trkpt>
            <trkpt lon="9.619792" lat="47.826996">
                <ele>441.1501580799989</ele>
                <time>2012-05-19T22:09:33.000Z</time>
                <name>Position 471</name>
            </trkpt>
            <trkpt lon="9.620095" lat="47.826959">
                <ele>440.5</ele>
                <time>2012-05-19T22:09:41.000Z</time>
                <name>Position 472</name>
            </trkpt>
            <trkpt lon="9.620316" lat="47.826933">
                <ele>440.5</ele>
                <time>2012-05-19T22:09:47.000Z</time>
                <name>Position 473</name>
            </trkpt>
            <trkpt lon="9.620496" lat="47.826975">
                <ele>440.5</ele>
                <time>2012-05-19T22:09:52.000Z</time>
                <name>Position 474</name>
            </trkpt>
            <trkpt lon="9.620659" lat="47.827058">
                <ele>440.5</ele>
                <time>2012-05-19T22:09:58.000Z</time>
                <name>Position 475</name>
            </trkpt>
            <trkpt lon="9.620835" lat="47.827145">
                <ele>440.50399999999894</ele>
                <time>2012-05-19T22:10:04.000Z</time>
                <name>Position 476</name>
            </trkpt>
            <trkpt lon="9.621013" lat="47.827233">
                <ele>440.93119999999897</ele>
                <time>2012-05-19T22:10:10.000Z</time>
                <name>Position 477</name>
            </trkpt>
            <trkpt lon="9.621207" lat="47.827327">
                <ele>441.3968000000001</ele>
                <time>2012-05-19T22:10:16.000Z</time>
                <name>Position 478</name>
            </trkpt>
            <trkpt lon="9.621382" lat="47.827408">
                <ele>441.81680000000125</ele>
                <time>2012-05-19T22:10:22.000Z</time>
                <name>Position 479</name>
            </trkpt>
            <trkpt lon="9.62156" lat="47.82749">
                <ele>442.2440000000013</ele>
                <time>2012-05-19T22:10:28.000Z</time>
                <name>Position 480</name>
            </trkpt>
            <trkpt lon="9.621752" lat="47.827571">
                <ele>442.6701510399997</ele>
                <time>2012-05-19T22:10:34.000Z</time>
                <name>Position 481</name>
            </trkpt>
            <trkpt lon="9.621928" lat="47.827653">
                <ele>442.88204607999944</ele>
                <time>2012-05-19T22:10:39.000Z</time>
                <name>Position 482</name>
            </trkpt>
            <trkpt lon="9.622101" lat="47.827728">
                <ele>443.0095993600003</ele>
                <time>2012-05-19T22:10:45.000Z</time>
                <name>Position 483</name>
            </trkpt>
            <trkpt lon="9.622242" lat="47.827791">
                <ele>443.057424640001</ele>
                <time>2012-05-19T22:10:50.000Z</time>
                <name>Position 484</name>
            </trkpt>
            <trkpt lon="9.622301" lat="47.827849">
                <ele>443.04241887999973</ele>
                <time>2012-05-19T22:10:52.000Z</time>
                <name>Position 485</name>
            </trkpt>
            <trkpt lon="9.622341" lat="47.8279">
                <ele>443.01236800000027</ele>
                <time>2012-05-19T22:10:55.000Z</time>
                <name>Position 486</name>
            </trkpt>
            <trkpt lon="9.622299" lat="47.828038">
                <ele>442.9246374400004</ele>
                <time>2012-05-19T22:11:00.000Z</time>
                <name>Position 487</name>
            </trkpt>
            <trkpt lon="9.622295" lat="47.82819">
                <ele>442.83337600000095</ele>
                <time>2012-05-19T22:11:06.000Z</time>
                <name>Position 488</name>
            </trkpt>
            <trkpt lon="9.622386" lat="47.828271">
                <ele>442.69113471999873</ele>
                <time>2012-05-19T22:11:10.000Z</time>
                <name>Position 489</name>
            </trkpt>
            <trkpt lon="9.622572" lat="47.828268">
                <ele>442.58517375999827</ele>
                <time>2012-05-19T22:11:15.000Z</time>
                <name>Position 490</name>
            </trkpt>
            <trkpt lon="9.622787" lat="47.828257">
                <ele>442.62314703999897</ele>
                <time>2012-05-19T22:11:21.000Z</time>
                <name>Position 491</name>
            </trkpt>
            <trkpt lon="9.62304" lat="47.828271">
                <ele>442.62327039999826</ele>
                <time>2012-05-19T22:11:28.000Z</time>
                <name>Position 492</name>
            </trkpt>
            <trkpt lon="9.623224" lat="47.828261">
                <ele>442.6622118400053</ele>
                <time>2012-05-19T22:11:33.000Z</time>
                <name>Position 493</name>
            </trkpt>
            <trkpt lon="9.623444" lat="47.828264">
                <ele>442.78815104000535</ele>
                <time>2012-05-19T22:11:39.000Z</time>
                <name>Position 494</name>
            </trkpt>
            <trkpt lon="9.623666" lat="47.828279">
                <ele>443.0035721599962</ele>
                <time>2012-05-19T22:11:45.000Z</time>
                <name>Position 495</name>
            </trkpt>
            <trkpt lon="9.623905" lat="47.828276">
                <ele>443.2764031999967</ele>
                <time>2012-05-19T22:11:51.000Z</time>
                <name>Position 496</name>
            </trkpt>
            <trkpt lon="9.624127" lat="47.828285">
                <ele>443.5131607999982</ele>
                <time>2012-05-19T22:11:57.000Z</time>
                <name>Position 497</name>
            </trkpt>
            <trkpt lon="9.624329" lat="47.828281">
                <ele>443.57503344000435</ele>
                <time>2012-05-19T22:12:03.000Z</time>
                <name>Position 498</name>
            </trkpt>
            <trkpt lon="9.624575" lat="47.828275">
                <ele>443.60430000000383</ele>
                <time>2012-05-19T22:12:09.000Z</time>
                <name>Position 499</name>
            </trkpt>
            <trkpt lon="9.624821" lat="47.828269">
                <ele>443.63781744000266</ele>
                <time>2012-05-19T22:12:16.000Z</time>
                <name>Position 500</name>
            </trkpt>
            <trkpt lon="9.625065" lat="47.828298">
                <ele>443.7374928000062</ele>
                <time>2012-05-19T22:12:23.000Z</time>
                <name>Position 501</name>
            </trkpt>
            <trkpt lon="9.625289" lat="47.828307">
                <ele>444.2458411199964</ele>
                <time>2012-05-19T22:12:29.000Z</time>
                <name>Position 502</name>
            </trkpt>
            <trkpt lon="9.625524" lat="47.828315">
                <ele>444.7877663999953</ele>
                <time>2012-05-19T22:12:35.000Z</time>
                <name>Position 503</name>
            </trkpt>
            <trkpt lon="9.625746" lat="47.82833">
                <ele>445.2948191999972</ele>
                <time>2012-05-19T22:12:41.000Z</time>
                <name>Position 504</name>
            </trkpt>
            <trkpt lon="9.62595" lat="47.828345">
                <ele>445.62796000000077</ele>
                <time>2012-05-19T22:12:47.000Z</time>
                <name>Position 505</name>
            </trkpt>
            <trkpt lon="9.626169" lat="47.828353">
                <ele>445.88870608000116</ele>
                <time>2012-05-19T22:12:52.000Z</time>
                <name>Position 506</name>
            </trkpt>
            <trkpt lon="9.626404" lat="47.828367">
                <ele>446.17206592000105</ele>
                <time>2012-05-19T22:12:59.000Z</time>
                <name>Position 507</name>
            </trkpt>
            <trkpt lon="9.626624" lat="47.828382">
                <ele>446.44580991999965</ele>
                <time>2012-05-19T22:13:05.000Z</time>
                <name>Position 508</name>
            </trkpt>
            <trkpt lon="9.626828" lat="47.828385">
                <ele>446.70560319999896</ele>
                <time>2012-05-19T22:13:10.000Z</time>
                <name>Position 509</name>
            </trkpt>
            <trkpt lon="9.62703" lat="47.828387">
                <ele>446.964078399999</ele>
                <time>2012-05-19T22:13:16.000Z</time>
                <name>Position 510</name>
            </trkpt>
            <trkpt lon="9.62725" lat="47.82839">
                <ele>447.24759999999907</ele>
                <time>2012-05-19T22:13:22.000Z</time>
                <name>Position 511</name>
            </trkpt>
            <trkpt lon="9.627483" lat="47.828397">
                <ele>447.55444144000256</ele>
                <time>2012-05-19T22:13:28.000Z</time>
                <name>Position 512</name>
            </trkpt>
            <trkpt lon="9.627691" lat="47.828407">
                <ele>447.56813871999856</ele>
                <time>2012-05-19T22:13:33.000Z</time>
                <name>Position 513</name>
            </trkpt>
            <trkpt lon="9.627895" lat="47.828416">
                <ele>447.55217919999814</ele>
                <time>2012-05-19T22:13:39.000Z</time>
                <name>Position 514</name>
            </trkpt>
            <trkpt lon="9.628102" lat="47.828438">
                <ele>447.53486655999944</ele>
                <time>2012-05-19T22:13:45.000Z</time>
                <name>Position 515</name>
            </trkpt>
            <trkpt lon="9.6283" lat="47.82848">
                <ele>447.5070400000001</ele>
                <time>2012-05-19T22:13:50.000Z</time>
                <name>Position 516</name>
            </trkpt>
            <trkpt lon="9.628495" lat="47.828515">
                <ele>447.5</ele>
                <time>2012-05-19T22:13:56.000Z</time>
                <name>Position 517</name>
            </trkpt>
            <trkpt lon="9.628649" lat="47.828547">
                <ele>447.5</ele>
                <time>2012-05-19T22:14:00.000Z</time>
                <name>Position 518</name>
            </trkpt>
            <trkpt lon="9.628864" lat="47.82853">
                <ele>447.5</ele>
                <time>2012-05-19T22:14:06.000Z</time>
                <name>Position 519</name>
            </trkpt>
            <trkpt lon="9.629077" lat="47.828501">
                <ele>447.5</ele>
                <time>2012-05-19T22:14:12.000Z</time>
                <name>Position 520</name>
            </trkpt>
            <trkpt lon="9.629323" lat="47.828495">
                <ele>447.1975887999996</ele>
                <time>2012-05-19T22:14:18.000Z</time>
                <name>Position 521</name>
            </trkpt>
            <trkpt lon="9.629538" lat="47.828497">
                <ele>446.7838316799983</ele>
                <time>2012-05-19T22:14:24.000Z</time>
                <name>Position 522</name>
            </trkpt>
            <trkpt lon="9.629725" lat="47.828524">
                <ele>446.4665920000015</ele>
                <time>2012-05-19T22:14:29.000Z</time>
                <name>Position 523</name>
            </trkpt>
            <trkpt lon="9.629924" lat="47.828526">
                <ele>446.10262911999087</ele>
                <time>2012-05-19T22:14:34.000Z</time>
                <name>Position 524</name>
            </trkpt>
            <trkpt lon="9.630124" lat="47.828534">
                <ele>446.28467583999685</ele>
                <time>2012-05-19T22:14:40.000Z</time>
                <name>Position 525</name>
            </trkpt>
            <trkpt lon="9.630326" lat="47.828536">
                <ele>446.77944064000025</ele>
                <time>2012-05-19T22:14:45.000Z</time>
                <name>Position 526</name>
            </trkpt>
            <trkpt lon="9.630541" lat="47.828537">
                <ele>447.3017420799999</ele>
                <time>2012-05-19T22:14:51.000Z</time>
                <name>Position 527</name>
            </trkpt>
            <trkpt lon="9.630759" lat="47.828545">
                <ele>447.81502720000196</ele>
                <time>2012-05-19T22:14:57.000Z</time>
                <name>Position 528</name>
            </trkpt>
            <trkpt lon="9.630976" lat="47.828553">
                <ele>448.2249433600024</ele>
                <time>2012-05-19T22:15:03.000Z</time>
                <name>Position 529</name>
            </trkpt>
            <trkpt lon="9.631211" lat="47.828567">
                <ele>448.59144544000213</ele>
                <time>2012-05-19T22:15:09.000Z</time>
                <name>Position 530</name>
            </trkpt>
            <trkpt lon="9.631428" lat="47.828575">
                <ele>448.93331199999653</ele>
                <time>2012-05-19T22:15:15.000Z</time>
                <name>Position 531</name>
            </trkpt>
            <trkpt lon="9.631661" lat="47.828582">
                <ele>449.2968582400121</ele>
                <time>2012-05-19T22:15:21.000Z</time>
                <name>Position 532</name>
            </trkpt>
            <trkpt lon="9.631881" lat="47.828597">
                <ele>448.96413423999246</ele>
                <time>2012-05-19T22:15:27.000Z</time>
                <name>Position 533</name>
            </trkpt>
            <trkpt lon="9.632098" lat="47.828599">
                <ele>448.6846326400101</ele>
                <time>2012-05-19T22:15:33.000Z</time>
                <name>Position 534</name>
            </trkpt>
            <trkpt lon="9.632318" lat="47.828619">
                <ele>448.36939743999386</ele>
                <time>2012-05-19T22:15:39.000Z</time>
                <name>Position 535</name>
            </trkpt>
            <trkpt lon="9.63252" lat="47.828628">
                <ele>448.18591359999664</ele>
                <time>2012-05-19T22:15:44.000Z</time>
                <name>Position 536</name>
            </trkpt>
            <trkpt lon="9.63275" lat="47.828616">
                <ele>448.6590400000045</ele>
                <time>2012-05-19T22:15:51.000Z</time>
                <name>Position 537</name>
            </trkpt>
            <trkpt lon="9.632965" lat="47.828612">
                <ele>449.0950048000014</ele>
                <time>2012-05-19T22:15:56.000Z</time>
                <name>Position 538</name>
            </trkpt>
            <trkpt lon="9.633183" lat="47.828626">
                <ele>449.50015648000164</ele>
                <time>2012-05-19T22:16:02.000Z</time>
                <name>Position 539</name>
            </trkpt>
            <trkpt lon="9.633411" lat="47.828638">
                <ele>449.93014784000553</ele>
                <time>2012-05-19T22:16:08.000Z</time>
                <name>Position 540</name>
            </trkpt>
            <trkpt lon="9.633628" lat="47.828664">
                <ele>450.3406169599943</ele>
                <time>2012-05-19T22:16:14.000Z</time>
                <name>Position 541</name>
            </trkpt>
            <trkpt lon="9.633844" lat="47.828671">
                <ele>450.7990131199996</ele>
                <time>2012-05-19T22:16:20.000Z</time>
                <name>Position 542</name>
            </trkpt>
            <trkpt lon="9.63403" lat="47.828674">
                <ele>451.2019135999983</ele>
                <time>2012-05-19T22:16:25.000Z</time>
                <name>Position 543</name>
            </trkpt>
            <trkpt lon="9.63425" lat="47.828695">
                <ele>451.59999999999974</ele>
                <time>2012-05-19T22:16:31.000Z</time>
                <name>Position 544</name>
            </trkpt>
            <trkpt lon="9.634465" lat="47.828708">
                <ele>451.85800000000063</ele>
                <time>2012-05-19T22:16:37.000Z</time>
                <name>Position 545</name>
            </trkpt>
            <trkpt lon="9.634642" lat="47.828685">
                <ele>452.0703999999994</ele>
                <time>2012-05-19T22:16:42.000Z</time>
                <name>Position 546</name>
            </trkpt>
            <trkpt lon="9.634844" lat="47.828681">
                <ele>452.3127999999992</ele>
                <time>2012-05-19T22:16:47.000Z</time>
                <name>Position 547</name>
            </trkpt>
            <trkpt lon="9.635071" lat="47.828669">
                <ele>452.51656288000044</ele>
                <time>2012-05-19T22:16:53.000Z</time>
                <name>Position 548</name>
            </trkpt>
            <trkpt lon="9.635237" lat="47.828654">
                <ele>452.5655257599999</ele>
                <time>2012-05-19T22:16:58.000Z</time>
                <name>Position 549</name>
            </trkpt>
            <trkpt lon="9.635378" lat="47.828652">
                <ele>452.60668672000185</ele>
                <time>2012-05-19T22:17:02.000Z</time>
                <name>Position 550</name>
            </trkpt>
            <trkpt lon="9.635555" lat="47.828676">
                <ele>452.6182815999976</ele>
                <time>2012-05-19T22:17:06.000Z</time>
                <name>Position 551</name>
            </trkpt>
            <trkpt lon="9.635806" lat="47.828723">
                <ele>452.56267456000813</ele>
                <time>2012-05-19T22:17:13.000Z</time>
                <name>Position 552</name>
            </trkpt>
            <trkpt lon="9.635997" lat="47.828685">
                <ele>452.6559999999998</ele>
                <time>2012-05-19T22:17:19.000Z</time>
                <name>Position 553</name>
            </trkpt>
            <trkpt lon="9.636162" lat="47.828627">
                <ele>452.79520000000645</ele>
                <time>2012-05-19T22:17:24.000Z</time>
                <name>Position 554</name>
            </trkpt>
            <trkpt lon="9.636408" lat="47.828609">
                <ele>452.8383999999997</ele>
                <time>2012-05-19T22:17:30.000Z</time>
                <name>Position 555</name>
            </trkpt>
            <trkpt lon="9.636684" lat="47.828608">
                <ele>452.8268556799932</ele>
                <time>2012-05-19T22:17:38.000Z</time>
                <name>Position 556</name>
            </trkpt>
            <trkpt lon="9.636959" lat="47.8286">
                <ele>452.6214559999977</ele>
                <time>2012-05-19T22:17:45.000Z</time>
                <name>Position 557</name>
            </trkpt>
            <trkpt lon="9.637213" lat="47.828586">
                <ele>452.4367779199986</ele>
                <time>2012-05-19T22:17:52.000Z</time>
                <name>Position 558</name>
            </trkpt>
            <trkpt lon="9.637424" lat="47.828568">
                <ele>452.2839180800045</ele>
                <time>2012-05-19T22:17:58.000Z</time>
                <name>Position 559</name>
            </trkpt>
            <trkpt lon="9.637606" lat="47.828546">
                <ele>452.1175999999968</ele>
                <time>2012-05-19T22:18:03.000Z</time>
                <name>Position 560</name>
            </trkpt>
            <trkpt lon="9.637845" lat="47.828509">
                <ele>451.8752000000034</ele>
                <time>2012-05-19T22:18:09.000Z</time>
                <name>Position 561</name>
            </trkpt>
            <trkpt lon="9.638115" lat="47.828488">
                <ele>451.57639999999896</ele>
                <time>2012-05-19T22:18:17.000Z</time>
                <name>Position 562</name>
            </trkpt>
            <trkpt lon="9.638346" lat="47.828507">
                <ele>451.28273535999773</ele>
                <time>2012-05-19T22:18:23.000Z</time>
                <name>Position 563</name>
            </trkpt>
            <trkpt lon="9.638583" lat="47.828499">
                <ele>451.1207209599993</ele>
                <time>2012-05-19T22:18:29.000Z</time>
                <name>Position 564</name>
            </trkpt>
            <trkpt lon="9.638811" lat="47.82844">
                <ele>450.94553919999976</ele>
                <time>2012-05-19T22:18:36.000Z</time>
                <name>Position 565</name>
            </trkpt>
            <trkpt lon="9.639023" lat="47.828312">
                <ele>450.74037312001036</ele>
                <time>2012-05-19T22:18:44.000Z</time>
                <name>Position 566</name>
            </trkpt>
            <trkpt lon="9.639247" lat="47.828199">
                <ele>451.1919396800059</ele>
                <time>2012-05-19T22:18:51.000Z</time>
                <name>Position 567</name>
            </trkpt>
            <trkpt lon="9.639532" lat="47.82815">
                <ele>452.133247999999</ele>
                <time>2012-05-19T22:18:59.000Z</time>
                <name>Position 568</name>
            </trkpt>
            <trkpt lon="9.639784" lat="47.828129">
                <ele>452.8988441600151</ele>
                <time>2012-05-19T22:19:06.000Z</time>
                <name>Position 569</name>
            </trkpt>
            <trkpt lon="9.640048" lat="47.828135">
                <ele>453.48218239998533</ele>
                <time>2012-05-19T22:19:13.000Z</time>
                <name>Position 570</name>
            </trkpt>
            <trkpt lon="9.640314" lat="47.82813">
                <ele>453.6689215999939</ele>
                <time>2012-05-19T22:19:20.000Z</time>
                <name>Position 571</name>
            </trkpt>
            <trkpt lon="9.640588" lat="47.82811">
                <ele>453.8993983999924</ele>
                <time>2012-05-19T22:19:27.000Z</time>
                <name>Position 572</name>
            </trkpt>
            <trkpt lon="9.640827" lat="47.828072">
                <ele>454.12436672000285</ele>
                <time>2012-05-19T22:19:34.000Z</time>
                <name>Position 573</name>
            </trkpt>
            <trkpt lon="9.641056" lat="47.828042">
                <ele>454.37298687999333</ele>
                <time>2012-05-19T22:19:40.000Z</time>
                <name>Position 574</name>
            </trkpt>
            <trkpt lon="9.641302" lat="47.828006">
                <ele>454.6270892799962</ele>
                <time>2012-05-19T22:19:47.000Z</time>
                <name>Position 575</name>
            </trkpt>
            <trkpt lon="9.641554" lat="47.827962">
                <ele>454.8706451200003</ele>
                <time>2012-05-19T22:19:54.000Z</time>
                <name>Position 576</name>
            </trkpt>
            <trkpt lon="9.641787" lat="47.82791">
                <ele>455.0813551999966</ele>
                <time>2012-05-19T22:20:01.000Z</time>
                <name>Position 577</name>
            </trkpt>
            <trkpt lon="9.642024" lat="47.827884">
                <ele>455.270408960004</ele>
                <time>2012-05-19T22:20:07.000Z</time>
                <name>Position 578</name>
            </trkpt>
            <trkpt lon="9.642263" lat="47.827858">
                <ele>455.47857824000175</ele>
                <time>2012-05-19T22:20:14.000Z</time>
                <name>Position 579</name>
            </trkpt>
            <trkpt lon="9.642489" lat="47.827846">
                <ele>455.6618806399973</ele>
                <time>2012-05-19T22:20:20.000Z</time>
                <name>Position 580</name>
            </trkpt>
            <trkpt lon="9.642717" lat="47.827852">
                <ele>455.87518591999924</ele>
                <time>2012-05-19T22:20:26.000Z</time>
                <name>Position 581</name>
            </trkpt>
            <trkpt lon="9.642928" lat="47.827828">
                <ele>456.1171059200034</ele>
                <time>2012-05-19T22:20:32.000Z</time>
                <name>Position 582</name>
            </trkpt>
            <trkpt lon="9.643136" lat="47.827792">
                <ele>456.3340505599988</ele>
                <time>2012-05-19T22:20:37.000Z</time>
                <name>Position 583</name>
            </trkpt>
            <trkpt lon="9.643347" lat="47.82775">
                <ele>456.51476000000036</ele>
                <time>2012-05-19T22:20:43.000Z</time>
                <name>Position 584</name>
            </trkpt>
            <trkpt lon="9.643573" lat="47.827713">
                <ele>456.72053168000275</ele>
                <time>2012-05-19T22:20:50.000Z</time>
                <name>Position 585</name>
            </trkpt>
            <trkpt lon="9.643797" lat="47.827682">
                <ele>456.86455328000517</ele>
                <time>2012-05-19T22:20:56.000Z</time>
                <name>Position 586</name>
            </trkpt>
            <trkpt lon="9.644023" lat="47.827652">
                <ele>456.9528627200018</ele>
                <time>2012-05-19T22:21:02.000Z</time>
                <name>Position 587</name>
            </trkpt>
            <trkpt lon="9.644251" lat="47.827634">
                <ele>456.9137459200122</ele>
                <time>2012-05-19T22:21:08.000Z</time>
                <name>Position 588</name>
            </trkpt>
            <trkpt lon="9.644462" lat="47.827604">
                <ele>456.60845824000324</ele>
                <time>2012-05-19T22:21:14.000Z</time>
                <name>Position 589</name>
            </trkpt>
            <trkpt lon="9.644655" lat="47.827556">
                <ele>456.1943584000062</ele>
                <time>2012-05-19T22:21:19.000Z</time>
                <name>Position 590</name>
            </trkpt>
            <trkpt lon="9.644881" lat="47.827507">
                <ele>455.6824009599838</ele>
                <time>2012-05-19T22:21:26.000Z</time>
                <name>Position 591</name>
            </trkpt>
            <trkpt lon="9.645094" lat="47.827484">
                <ele>455.7788684800065</ele>
                <time>2012-05-19T22:21:32.000Z</time>
                <name>Position 592</name>
            </trkpt>
            <trkpt lon="9.645318" lat="47.827459">
                <ele>456.37325056000606</ele>
                <time>2012-05-19T22:21:38.000Z</time>
                <name>Position 593</name>
            </trkpt>
            <trkpt lon="9.645544" lat="47.827434">
                <ele>456.9397964800052</ele>
                <time>2012-05-19T22:21:44.000Z</time>
                <name>Position 594</name>
            </trkpt>
            <trkpt lon="9.645772" lat="47.82741">
                <ele>457.47669759999764</ele>
                <time>2012-05-19T22:21:50.000Z</time>
                <name>Position 595</name>
            </trkpt>
            <trkpt lon="9.645985" lat="47.827393">
                <ele>457.6050311999995</ele>
                <time>2012-05-19T22:21:56.000Z</time>
                <name>Position 596</name>
            </trkpt>
            <trkpt lon="9.646196" lat="47.827369">
                <ele>457.5887865600019</ele>
                <time>2012-05-19T22:22:02.000Z</time>
                <name>Position 597</name>
            </trkpt>
            <trkpt lon="9.646408" lat="47.827346">
                <ele>457.55736192000074</ele>
                <time>2012-05-19T22:22:07.000Z</time>
                <name>Position 598</name>
            </trkpt>
            <trkpt lon="9.646621" lat="47.827334">
                <ele>457.5109161600001</ele>
                <time>2012-05-19T22:22:13.000Z</time>
                <name>Position 599</name>
            </trkpt>
            <trkpt lon="9.646845" lat="47.827309">
                <ele>457.71400000000085</ele>
                <time>2012-05-19T22:22:19.000Z</time>
                <name>Position 600</name>
            </trkpt>
            <trkpt lon="9.647058" lat="47.82728">
                <ele>457.9695999999993</ele>
                <time>2012-05-19T22:22:25.000Z</time>
                <name>Position 601</name>
            </trkpt>
            <trkpt lon="9.647269" lat="47.82725">
                <ele>458.2227999999995</ele>
                <time>2012-05-19T22:22:31.000Z</time>
                <name>Position 602</name>
            </trkpt>
            <trkpt lon="9.647468" lat="47.827228">
                <ele>458.46159999999986</ele>
                <time>2012-05-19T22:22:36.000Z</time>
                <name>Position 603</name>
            </trkpt>
            <trkpt lon="9.647684" lat="47.827199">
                <ele>458.7207999999998</ele>
                <time>2012-05-19T22:22:42.000Z</time>
                <name>Position 604</name>
            </trkpt>
            <trkpt lon="9.647881" lat="47.827158">
                <ele>458.95719999999983</ele>
                <time>2012-05-19T22:22:48.000Z</time>
                <name>Position 605</name>
            </trkpt>
            <trkpt lon="9.648105" lat="47.827127">
                <ele>459.22599999999903</ele>
                <time>2012-05-19T22:22:54.000Z</time>
                <name>Position 606</name>
            </trkpt>
            <trkpt lon="9.648318" lat="47.827104">
                <ele>459.48159999999956</ele>
                <time>2012-05-19T22:23:00.000Z</time>
                <name>Position 607</name>
            </trkpt>
            <trkpt lon="9.648544" lat="47.827073">
                <ele>459.74653055999823</ele>
                <time>2012-05-19T22:23:06.000Z</time>
                <name>Position 608</name>
            </trkpt>
            <trkpt lon="9.648754" lat="47.827037">
                <ele>459.9486662399966</ele>
                <time>2012-05-19T22:23:12.000Z</time>
                <name>Position 609</name>
            </trkpt>
            <trkpt lon="9.648967" lat="47.827032">
                <ele>460.16671872000535</ele>
                <time>2012-05-19T22:23:17.000Z</time>
                <name>Position 610</name>
            </trkpt>
            <trkpt lon="9.64918" lat="47.827008">
                <ele>460.344646399997</ele>
                <time>2012-05-19T22:23:23.000Z</time>
                <name>Position 611</name>
            </trkpt>
            <trkpt lon="9.649393" lat="47.826985">
                <ele>460.7034488000007</ele>
                <time>2012-05-19T22:23:29.000Z</time>
                <name>Position 612</name>
            </trkpt>
            <trkpt lon="9.649617" lat="47.82696">
                <ele>461.0945791999978</ele>
                <time>2012-05-19T22:23:35.000Z</time>
                <name>Position 613</name>
            </trkpt>
            <trkpt lon="9.649825" lat="47.826924">
                <ele>461.45364799999703</ele>
                <time>2012-05-19T22:23:41.000Z</time>
                <name>Position 614</name>
            </trkpt>
            <trkpt lon="9.650025" lat="47.826913">
                <ele>461.82559999999626</ele>
                <time>2012-05-19T22:23:46.000Z</time>
                <name>Position 615</name>
            </trkpt>
            <trkpt lon="9.650236" lat="47.826883">
                <ele>462.0428000000021</ele>
                <time>2012-05-19T22:23:52.000Z</time>
                <name>Position 616</name>
            </trkpt>
            <trkpt lon="9.650453" lat="47.826879">
                <ele>462.29839999999837</ele>
                <time>2012-05-19T22:23:58.000Z</time>
                <name>Position 617</name>
            </trkpt>
            <trkpt lon="9.650657" lat="47.826888">
                <ele>462.5539999999968</ele>
                <time>2012-05-19T22:24:03.000Z</time>
                <name>Position 618</name>
            </trkpt>
            <trkpt lon="9.650833" lat="47.826899">
                <ele>462.77839999999725</ele>
                <time>2012-05-19T22:24:08.000Z</time>
                <name>Position 619</name>
            </trkpt>
            <trkpt lon="9.650969" lat="47.826913">
                <ele>462.74747631999753</ele>
                <time>2012-05-19T22:24:12.000Z</time>
                <name>Position 620</name>
            </trkpt>
            <trkpt lon="9.651068" lat="47.826943">
                <ele>462.73822143999973</ele>
                <time>2012-05-19T22:24:15.000Z</time>
                <name>Position 621</name>
            </trkpt>
            <trkpt lon="9.651136" lat="47.82695">
                <ele>462.7165119999976</ele>
                <time>2012-05-19T22:24:17.000Z</time>
                <name>Position 622</name>
            </trkpt>
            <trkpt lon="9.651178" lat="47.826953">
                <ele>462.70148704000223</ele>
                <time>2012-05-19T22:24:18.000Z</time>
                <name>Position 623</name>
            </trkpt>
            <trkpt lon="9.651206" lat="47.826964">
                <ele>462.69723903999767</ele>
                <time>2012-05-19T22:24:19.000Z</time>
                <name>Position 624</name>
            </trkpt>
            <trkpt lon="9.651198" lat="47.826984">
                <ele>462.71416192000163</ele>
                <time>2012-05-19T22:24:19.000Z</time>
                <name>Position 625</name>
            </trkpt>
            <trkpt lon="9.651211" lat="47.826977">
                <ele>462.70362831999955</ele>
                <time>2012-05-19T22:24:20.000Z</time>
                <name>Position 626</name>
            </trkpt>
            <trkpt lon="9.651215" lat="47.82699">
                <ele>462.71029600000105</ele>
                <time>2012-05-19T22:24:20.000Z</time>
                <name>Position 627</name>
            </trkpt>
            <trkpt lon="9.651215" lat="47.826984">
                <ele>462.7063936000017</ele>
                <time>2012-05-19T22:24:21.000Z</time>
                <name>Position 628</name>
            </trkpt>
            <trkpt lon="9.651226" lat="47.826958">
                <ele>462.6848684799987</ele>
                <time>2012-05-19T22:24:22.000Z</time>
                <name>Position 629</name>
            </trkpt>
            <trkpt lon="9.65131" lat="47.82697">
                <ele>462.6557920000012</ele>
                <time>2012-05-19T22:24:24.000Z</time>
                <name>Position 630</name>
            </trkpt>
            <trkpt lon="9.651468" lat="47.827046">
                <ele>462.6085196800011</ele>
                <time>2012-05-19T22:24:29.000Z</time>
                <name>Position 631</name>
            </trkpt>
            <trkpt lon="9.651679" lat="47.827093">
                <ele>462.5147999999995</ele>
                <time>2012-05-19T22:24:35.000Z</time>
                <name>Position 632</name>
            </trkpt>
            <trkpt lon="9.651912" lat="47.827124">
                <ele>462.7943999999992</ele>
                <time>2012-05-19T22:24:42.000Z</time>
                <name>Position 633</name>
            </trkpt>
            <trkpt lon="9.652142" lat="47.827131">
                <ele>463.0703999999994</ele>
                <time>2012-05-19T22:24:48.000Z</time>
                <name>Position 634</name>
            </trkpt>
            <trkpt lon="9.652375" lat="47.82715">
                <ele>463.34999999999906</ele>
                <time>2012-05-19T22:24:54.000Z</time>
                <name>Position 635</name>
            </trkpt>
            <trkpt lon="9.652597" lat="47.827189">
                <ele>463.4565595199996</ele>
                <time>2012-05-19T22:25:00.000Z</time>
                <name>Position 636</name>
            </trkpt>
            <trkpt lon="9.65281" lat="47.827237">
                <ele>463.3825967999983</ele>
                <time>2012-05-19T22:25:06.000Z</time>
                <name>Position 637</name>
            </trkpt>
            <trkpt lon="9.653036" lat="47.827283">
                <ele>463.3325107200009</ele>
                <time>2012-05-19T22:25:13.000Z</time>
                <name>Position 638</name>
            </trkpt>
            <trkpt lon="9.653263" lat="47.827317">
                <ele>463.2989342400005</ele>
                <time>2012-05-19T22:25:19.000Z</time>
                <name>Position 639</name>
            </trkpt>
            <trkpt lon="9.65348" lat="47.827365">
                <ele>463.21902400000016</ele>
                <time>2012-05-19T22:25:25.000Z</time>
                <name>Position 640</name>
            </trkpt>
            <trkpt lon="9.653702" lat="47.827439">
                <ele>463.04916736000064</ele>
                <time>2012-05-19T22:25:32.000Z</time>
                <name>Position 641</name>
            </trkpt>
            <trkpt lon="9.653924" lat="47.827507">
                <ele>462.79120000000006</ele>
                <time>2012-05-19T22:25:38.000Z</time>
                <name>Position 642</name>
            </trkpt>
            <trkpt lon="9.65414" lat="47.827601">
                <ele>462.53200000000004</ele>
                <time>2012-05-19T22:25:45.000Z</time>
                <name>Position 643</name>
            </trkpt>
            <trkpt lon="9.654347" lat="47.82771">
                <ele>462.82373439999753</ele>
                <time>2012-05-19T22:25:52.000Z</time>
                <name>Position 644</name>
            </trkpt>
            <trkpt lon="9.654552" lat="47.827818">
                <ele>463.07189632000035</ele>
                <time>2012-05-19T22:25:59.000Z</time>
                <name>Position 645</name>
            </trkpt>
            <trkpt lon="9.654746" lat="47.82794">
                <ele>463.15626880000247</ele>
                <time>2012-05-19T22:26:06.000Z</time>
                <name>Position 646</name>
            </trkpt>
            <trkpt lon="9.654908" lat="47.827988">
                <ele>463.2373004800056</ele>
                <time>2012-05-19T22:26:11.000Z</time>
                <name>Position 647</name>
            </trkpt>
            <trkpt lon="9.655104" lat="47.828076">
                <ele>463.24239999999264</ele>
                <time>2012-05-19T22:26:18.000Z</time>
                <name>Position 648</name>
            </trkpt>
            <trkpt lon="9.655282" lat="47.828158">
                <ele>463.25919999999496</ele>
                <time>2012-05-19T22:26:23.000Z</time>
                <name>Position 649</name>
            </trkpt>
            <trkpt lon="9.655467" lat="47.828219">
                <ele>463.3348000000066</ele>
                <time>2012-05-19T22:26:29.000Z</time>
                <name>Position 650</name>
            </trkpt>
            <trkpt lon="9.655686" lat="47.828246">
                <ele>463.5327999999991</ele>
                <time>2012-05-19T22:26:35.000Z</time>
                <name>Position 651</name>
            </trkpt>
            <trkpt lon="9.655895" lat="47.828274">
                <ele>463.70059359999846</ele>
                <time>2012-05-19T22:26:41.000Z</time>
                <name>Position 652</name>
            </trkpt>
            <trkpt lon="9.656097" lat="47.82824">
                <ele>463.9340895999994</ele>
                <time>2012-05-19T22:26:46.000Z</time>
                <name>Position 653</name>
            </trkpt>
            <trkpt lon="9.656186" lat="47.828066">
                <ele>464.15751232000025</ele>
                <time>2012-05-19T22:26:54.000Z</time>
                <name>Position 654</name>
            </trkpt>
            <trkpt lon="9.656298" lat="47.827893">
                <ele>464.2304924799991</ele>
                <time>2012-05-19T22:27:01.000Z</time>
                <name>Position 655</name>
            </trkpt>
            <trkpt lon="9.656438" lat="47.827718">
                <ele>464.09505088000003</ele>
                <time>2012-05-19T22:27:09.000Z</time>
                <name>Position 656</name>
            </trkpt>
            <trkpt lon="9.656617" lat="47.827576">
                <ele>463.6940934399992</ele>
                <time>2012-05-19T22:27:16.000Z</time>
                <name>Position 657</name>
            </trkpt>
            <trkpt lon="9.656832" lat="47.827495">
                <ele>463.7007808</ele>
                <time>2012-05-19T22:27:23.000Z</time>
                <name>Position 658</name>
            </trkpt>
            <trkpt lon="9.657054" lat="47.827421">
                <ele>464.0529260799995</ele>
                <time>2012-05-19T22:27:30.000Z</time>
                <name>Position 659</name>
            </trkpt>
            <trkpt lon="9.657242" lat="47.827283">
                <ele>464.54996031999804</ele>
                <time>2012-05-19T22:27:37.000Z</time>
                <name>Position 660</name>
            </trkpt>
            <trkpt lon="9.65736" lat="47.827126">
                <ele>465.0788032000018</ele>
                <time>2012-05-19T22:27:44.000Z</time>
                <name>Position 661</name>
            </trkpt>
            <trkpt lon="9.657482" lat="47.827005">
                <ele>465.6407392000003</ele>
                <time>2012-05-19T22:27:50.000Z</time>
                <name>Position 662</name>
            </trkpt>
            <trkpt lon="9.657605" lat="47.826885">
                <ele>466.65992800001044</ele>
                <time>2012-05-19T22:27:56.000Z</time>
                <name>Position 663</name>
            </trkpt>
            <trkpt lon="9.657668" lat="47.826743">
                <ele>467.61720063999223</ele>
                <time>2012-05-19T22:28:02.000Z</time>
                <name>Position 664</name>
            </trkpt>
            <trkpt lon="9.657845" lat="47.826726">
                <ele>469.07873919999605</ele>
                <time>2012-05-19T22:28:07.000Z</time>
                <name>Position 665</name>
            </trkpt>
            <trkpt lon="9.658041" lat="47.826798">
                <ele>470.1153164800298</ele>
                <time>2012-05-19T22:28:13.000Z</time>
                <name>Position 666</name>
            </trkpt>
            <trkpt lon="9.658201" lat="47.826892">
                <ele>470.4828371199934</ele>
                <time>2012-05-19T22:28:18.000Z</time>
                <name>Position 667</name>
            </trkpt>
            <trkpt lon="9.658347" lat="47.826974">
                <ele>470.63590335999675</ele>
                <time>2012-05-19T22:28:24.000Z</time>
                <name>Position 668</name>
            </trkpt>
            <trkpt lon="9.658507" lat="47.827056">
                <ele>470.81807104001325</ele>
                <time>2012-05-19T22:28:29.000Z</time>
                <name>Position 669</name>
            </trkpt>
            <trkpt lon="9.65867" lat="47.827145">
                <ele>470.8682079999889</ele>
                <time>2012-05-19T22:28:35.000Z</time>
                <name>Position 670</name>
            </trkpt>
            <trkpt lon="9.658813" lat="47.827215">
                <ele>470.9321103999758</ele>
                <time>2012-05-19T22:28:39.000Z</time>
                <name>Position 671</name>
            </trkpt>
            <trkpt lon="9.658951" lat="47.827272">
                <ele>471.05918463999393</ele>
                <time>2012-05-19T22:28:44.000Z</time>
                <name>Position 672</name>
            </trkpt>
            <trkpt lon="9.659079" lat="47.827336">
                <ele>471.00579327997275</ele>
                <time>2012-05-19T22:28:48.000Z</time>
                <name>Position 673</name>
            </trkpt>
            <trkpt lon="9.659202" lat="47.827428">
                <ele>470.6644633600343</ele>
                <time>2012-05-19T22:28:53.000Z</time>
                <name>Position 674</name>
            </trkpt>
            <trkpt lon="9.659321" lat="47.827495">
                <ele>470.8575112000159</ele>
                <time>2012-05-19T22:28:57.000Z</time>
                <name>Position 675</name>
            </trkpt>
            <trkpt lon="9.659455" lat="47.827567">
                <ele>471.7025079999893</ele>
                <time>2012-05-19T22:29:02.000Z</time>
                <name>Position 676</name>
            </trkpt>
            <trkpt lon="9.659556" lat="47.827604">
                <ele>472.3540671999983</ele>
                <time>2012-05-19T22:29:05.000Z</time>
                <name>Position 677</name>
            </trkpt>
            <trkpt lon="9.6596" lat="47.827613">
                <ele>472.65183999999687</ele>
                <time>2012-05-19T22:29:06.000Z</time>
                <name>Position 678</name>
            </trkpt>
            <trkpt lon="9.659587" lat="47.827596">
                <ele>472.625065600002</ele>
                <time>2012-05-19T22:29:07.000Z</time>
                <name>Position 679</name>
            </trkpt>
            <trkpt lon="9.659608" lat="47.827569">
                <ele>472.90514560001685</ele>
                <time>2012-05-19T22:29:08.000Z</time>
                <name>Position 680</name>
            </trkpt>
            <trkpt lon="9.659646" lat="47.827559">
                <ele>473.2519791999993</ele>
                <time>2012-05-19T22:29:09.000Z</time>
                <name>Position 681</name>
            </trkpt>
            <trkpt lon="9.659659" lat="47.827558">
                <ele>473.3604015999805</ele>
                <time>2012-05-19T22:29:09.000Z</time>
                <name>Position 682</name>
            </trkpt>
            <trkpt lon="9.659637" lat="47.827579">
                <ele>473.0884743999999</ele>
                <time>2012-05-19T22:29:11.000Z</time>
                <name>Position 683</name>
            </trkpt>
            <trkpt lon="9.659624" lat="47.82758">
                <ele>472.9821760000179</ele>
                <time>2012-05-19T22:29:11.000Z</time>
                <name>Position 684</name>
            </trkpt>
            <trkpt lon="9.65965" lat="47.827572">
                <ele>473.223039999977</ele>
                <time>2012-05-19T22:29:12.000Z</time>
                <name>Position 685</name>
            </trkpt>
            <trkpt lon="9.659685" lat="47.827556">
                <ele>473.5778079999907</ele>
                <time>2012-05-19T22:29:13.000Z</time>
                <name>Position 686</name>
            </trkpt>
            <trkpt lon="9.659722" lat="47.827546">
                <ele>473.9256736000127</ele>
                <time>2012-05-19T22:29:14.000Z</time>
                <name>Position 687</name>
            </trkpt>
            <trkpt lon="9.659758" lat="47.827523">
                <ele>474.34167520000415</ele>
                <time>2012-05-19T22:29:15.000Z</time>
                <name>Position 688</name>
            </trkpt>
            <trkpt lon="9.659771" lat="47.827516">
                <ele>474.48758079997793</ele>
                <time>2012-05-19T22:29:16.000Z</time>
                <name>Position 689</name>
            </trkpt>
            <trkpt lon="9.659771" lat="47.82751">
                <ele>474.5208880000121</ele>
                <time>2012-05-19T22:29:16.000Z</time>
                <name>Position 690</name>
            </trkpt>
            <trkpt lon="9.659705" lat="47.827528">
                <ele>473.8798720000006</ele>
                <time>2012-05-19T22:29:18.000Z</time>
                <name>Position 691</name>
            </trkpt>
            <trkpt lon="9.659646" lat="47.827559">
                <ele>473.2519791999993</ele>
                <time>2012-05-19T22:29:20.000Z</time>
                <name>Position 692</name>
            </trkpt>
            <trkpt lon="9.659633" lat="47.827566">
                <ele>473.1163984000078</ele>
                <time>2012-05-19T22:29:20.000Z</time>
                <name>Position 693</name>
            </trkpt>
            <trkpt lon="9.659604" lat="47.827602">
                <ele>472.7300224000039</ele>
                <time>2012-05-19T22:29:22.000Z</time>
                <name>Position 694</name>
            </trkpt>
            <trkpt lon="9.659598" lat="47.827571">
                <ele>472.81750240001077</ele>
                <time>2012-05-19T22:29:23.000Z</time>
                <name>Position 695</name>
            </trkpt>
            <trkpt lon="9.659606" lat="47.827556">
                <ele>472.94606079999545</ele>
                <time>2012-05-19T22:29:24.000Z</time>
                <name>Position 696</name>
            </trkpt>
            <trkpt lon="9.659622" lat="47.827562">
                <ele>473.04713920000313</ele>
                <time>2012-05-19T22:29:24.000Z</time>
                <name>Position 697</name>
            </trkpt>
            <trkpt lon="9.659637" lat="47.827567">
                <ele>473.1435111999913</ele>
                <time>2012-05-19T22:29:25.000Z</time>
                <name>Position 698</name>
            </trkpt>
            <trkpt lon="9.659611" lat="47.827563">
                <ele>472.9552504000091</ele>
                <time>2012-05-19T22:29:25.000Z</time>
                <name>Position 699</name>
            </trkpt>
            <trkpt lon="9.659556" lat="47.827537">
                <ele>472.62228160000393</ele>
                <time>2012-05-19T22:29:27.000Z</time>
                <name>Position 700</name>
            </trkpt>
            <trkpt lon="9.659496" lat="47.827504">
                <ele>472.2521152000149</ele>
                <time>2012-05-19T22:29:29.000Z</time>
                <name>Position 701</name>
            </trkpt>
            <trkpt lon="9.659479" lat="47.82748">
                <ele>472.37259519997843</ele>
                <time>2012-05-19T22:29:30.000Z</time>
                <name>Position 702</name>
            </trkpt>
            <trkpt lon="9.659481" lat="47.827456">
                <ele>472.68831616002257</ele>
                <time>2012-05-19T22:29:31.000Z</time>
                <name>Position 703</name>
            </trkpt>
            <trkpt lon="9.65951" lat="47.827454">
                <ele>472.9587423999563</ele>
                <time>2012-05-19T22:29:32.000Z</time>
                <name>Position 704</name>
            </trkpt>
            <trkpt lon="9.659538" lat="47.827536">
                <ele>472.47975039998806</ele>
                <time>2012-05-19T22:29:36.000Z</time>
                <name>Position 705</name>
            </trkpt>
            <trkpt lon="9.659609" lat="47.827584">
                <ele>472.84727679999014</ele>
                <time>2012-05-19T22:29:38.000Z</time>
                <name>Position 706</name>
            </trkpt>
            <trkpt lon="9.65966" lat="47.827601">
                <ele>473.16404799999793</ele>
                <time>2012-05-19T22:29:40.000Z</time>
                <name>Position 707</name>
            </trkpt>
            <trkpt lon="9.659704" lat="47.827587">
                <ele>473.57261439999104</ele>
                <time>2012-05-19T22:29:41.000Z</time>
                <name>Position 708</name>
            </trkpt>
            <trkpt lon="9.659699" lat="47.827586">
                <ele>473.53877920001565</ele>
                <time>2012-05-19T22:29:41.000Z</time>
                <name>Position 709</name>
            </trkpt>
            <trkpt lon="9.65971" lat="47.82759">
                <ele>473.6039199999999</ele>
                <time>2012-05-19T22:29:42.000Z</time>
                <name>Position 710</name>
            </trkpt>
            <trkpt lon="9.659706" lat="47.827583">
                <ele>473.60849440001414</ele>
                <time>2012-05-19T22:29:42.000Z</time>
                <name>Position 711</name>
            </trkpt>
            <trkpt lon="9.659703" lat="47.827582">
                <ele>473.59014880000495</ele>
                <time>2012-05-19T22:29:42.000Z</time>
                <name>Position 712</name>
            </trkpt>
            <trkpt lon="9.659714" lat="47.827575">
                <ele>473.71203999997834</ele>
                <time>2012-05-19T22:29:42.000Z</time>
                <name>Position 713</name>
            </trkpt>
            <trkpt lon="9.659697" lat="47.827569">
                <ele>473.6085304000119</ele>
                <time>2012-05-19T22:29:43.000Z</time>
                <name>Position 714</name>
            </trkpt>
            <trkpt lon="9.659697" lat="47.827575">
                <ele>473.57841999998095</ele>
                <time>2012-05-19T22:29:43.000Z</time>
                <name>Position 715</name>
            </trkpt>
            <trkpt lon="9.659694" lat="47.827568">
                <ele>473.5898176000029</ele>
                <time>2012-05-19T22:29:43.000Z</time>
                <name>Position 716</name>
            </trkpt>
            <trkpt lon="9.659732" lat="47.827552">
                <ele>473.9747392000147</ele>
                <time>2012-05-19T22:29:45.000Z</time>
                <name>Position 717</name>
            </trkpt>
            <trkpt lon="9.659789" lat="47.827514">
                <ele>474.6480687999954</ele>
                <time>2012-05-19T22:29:47.000Z</time>
                <name>Position 718</name>
            </trkpt>
            <trkpt lon="9.659859" lat="47.827463">
                <ele>475.7964875199876</ele>
                <time>2012-05-19T22:29:50.000Z</time>
                <name>Position 719</name>
            </trkpt>
            <trkpt lon="9.659887" lat="47.827415">
                <ele>476.6589687999703</ele>
                <time>2012-05-19T22:29:52.000Z</time>
                <name>Position 720</name>
            </trkpt>
            <trkpt lon="9.659928" lat="47.827366">
                <ele>477.65010688003605</ele>
                <time>2012-05-19T22:29:54.000Z</time>
                <name>Position 721</name>
            </trkpt>
            <trkpt lon="9.659961" lat="47.82733">
                <ele>478.4068527999484</ele>
                <time>2012-05-19T22:29:56.000Z</time>
                <name>Position 722</name>
            </trkpt>
            <trkpt lon="9.659981" lat="47.827308">
                <ele>478.8695468799742</ele>
                <time>2012-05-19T22:29:57.000Z</time>
                <name>Position 723</name>
            </trkpt>
            <trkpt lon="9.659989" lat="47.827288">
                <ele>479.20264191995847</ele>
                <time>2012-05-19T22:29:57.000Z</time>
                <name>Position 724</name>
            </trkpt>
            <trkpt lon="9.659994" lat="47.827255">
                <ele>479.6814831999825</ele>
                <time>2012-05-19T22:29:59.000Z</time>
                <name>Position 725</name>
            </trkpt>
            <trkpt lon="9.659985" lat="47.827228">
                <ele>479.9585248000329</ele>
                <time>2012-05-19T22:30:00.000Z</time>
                <name>Position 726</name>
            </trkpt>
            <trkpt lon="9.659984" lat="47.827212">
                <ele>480.16056447995965</ele>
                <time>2012-05-19T22:30:00.000Z</time>
                <name>Position 727</name>
            </trkpt>
            <trkpt lon="9.66" lat="47.827171">
                <ele>480.84280000000496</ele>
                <time>2012-05-19T22:30:02.000Z</time>
                <name>Position 728</name>
            </trkpt>
            <trkpt lon="9.66001" lat="47.827151">
                <ele>481.2837231999883</ele>
                <time>2012-05-19T22:30:03.000Z</time>
                <name>Position 729</name>
            </trkpt>
            <trkpt lon="9.660006" lat="47.827132">
                <ele>481.4632614400017</ele>
                <time>2012-05-19T22:30:04.000Z</time>
                <name>Position 730</name>
            </trkpt>
            <trkpt lon="9.660017" lat="47.827124">
                <ele>481.76198656002776</ele>
                <time>2012-05-19T22:30:04.000Z</time>
                <name>Position 731</name>
            </trkpt>
            <trkpt lon="9.660019" lat="47.827137">
                <ele>481.62660495999717</ele>
                <time>2012-05-19T22:30:05.000Z</time>
                <name>Position 732</name>
            </trkpt>
            <trkpt lon="9.660026" lat="47.827056">
                <ele>482.81012992001905</ele>
                <time>2012-05-19T22:30:08.000Z</time>
                <name>Position 733</name>
            </trkpt>
            <trkpt lon="9.660026" lat="47.82705">
                <ele>482.88865600000673</ele>
                <time>2012-05-19T22:30:08.000Z</time>
                <name>Position 734</name>
            </trkpt>
            <trkpt lon="9.660023" lat="47.827031">
                <ele>483.08580016003793</ele>
                <time>2012-05-19T22:30:09.000Z</time>
                <name>Position 735</name>
            </trkpt>
            <trkpt lon="9.660001" lat="47.827064">
                <ele>482.27251647999003</ele>
                <time>2012-05-19T22:30:10.000Z</time>
                <name>Position 736</name>
            </trkpt>
            <trkpt lon="9.659958" lat="47.827208">
                <ele>479.9839398400131</ele>
                <time>2012-05-19T22:30:16.000Z</time>
                <name>Position 737</name>
            </trkpt>
            <trkpt lon="9.659847" lat="47.827363">
                <ele>476.9930161600164</ele>
                <time>2012-05-19T22:30:23.000Z</time>
                <name>Position 738</name>
            </trkpt>
            <trkpt lon="9.659682" lat="47.827474">
                <ele>474.16009407997325</ele>
                <time>2012-05-19T22:30:29.000Z</time>
                <name>Position 739</name>
            </trkpt>
            <trkpt lon="9.659672" lat="47.827565">
                <ele>473.43030400000436</ele>
                <time>2012-05-19T22:30:33.000Z</time>
                <name>Position 740</name>
            </trkpt>
            <trkpt lon="9.659832" lat="47.827622">
                <ele>474.3579712000096</ele>
                <time>2012-05-19T22:30:38.000Z</time>
                <name>Position 741</name>
            </trkpt>
            <trkpt lon="9.660021" lat="47.827685">
                <ele>475.4928783999874</ele>
                <time>2012-05-19T22:30:44.000Z</time>
                <name>Position 742</name>
            </trkpt>
            <trkpt lon="9.660206" lat="47.827768">
                <ele>477.4126067200188</ele>
                <time>2012-05-19T22:30:50.000Z</time>
                <name>Position 743</name>
            </trkpt>
            <trkpt lon="9.660395" lat="47.827836">
                <ele>478.9891648000258</ele>
                <time>2012-05-19T22:30:55.000Z</time>
                <name>Position 744</name>
            </trkpt>
            <trkpt lon="9.660591" lat="47.827918">
                <ele>479.85731392006227</ele>
                <time>2012-05-19T22:31:02.000Z</time>
                <name>Position 745</name>
            </trkpt>
            <trkpt lon="9.660787" lat="47.827988">
                <ele>480.3542310400443</ele>
                <time>2012-05-19T22:31:08.000Z</time>
                <name>Position 746</name>
            </trkpt>
            <trkpt lon="9.660989" lat="47.828061">
                <ele>480.4547086400551</ele>
                <time>2012-05-19T22:31:14.000Z</time>
                <name>Position 747</name>
            </trkpt>
            <trkpt lon="9.661191" lat="47.828128">
                <ele>480.3081036800182</ele>
                <time>2012-05-19T22:31:20.000Z</time>
                <name>Position 748</name>
            </trkpt>
            <trkpt lon="9.661378" lat="47.82819">
                <ele>479.79101120001627</ele>
                <time>2012-05-19T22:31:25.000Z</time>
                <name>Position 749</name>
            </trkpt>
            <trkpt lon="9.661567" lat="47.828264">
                <ele>478.49134208009787</ele>
                <time>2012-05-19T22:31:31.000Z</time>
                <name>Position 750</name>
            </trkpt>
            <trkpt lon="9.661767" lat="47.828319">
                <ele>477.869787359977</ele>
                <time>2012-05-19T22:31:37.000Z</time>
                <name>Position 751</name>
            </trkpt>
            <trkpt lon="9.661954" lat="47.828362">
                <ele>478.5672332800157</ele>
                <time>2012-05-19T22:31:42.000Z</time>
                <name>Position 752</name>
            </trkpt>
            <trkpt lon="9.662147" lat="47.828397">
                <ele>479.659378239959</ele>
                <time>2012-05-19T22:31:48.000Z</time>
                <name>Position 753</name>
            </trkpt>
            <trkpt lon="9.662354" lat="47.828419">
                <ele>480.94246336005574</ele>
                <time>2012-05-19T22:31:53.000Z</time>
                <name>Position 754</name>
            </trkpt>
            <trkpt lon="9.662556" lat="47.828562">
                <ele>479.74403968003406</ele>
                <time>2012-05-19T22:32:01.000Z</time>
                <name>Position 755</name>
            </trkpt>
            <trkpt lon="9.662759" lat="47.828629">
                <ele>478.9538718400094</ele>
                <time>2012-05-19T22:32:07.000Z</time>
                <name>Position 756</name>
            </trkpt>
            <trkpt lon="9.662921" lat="47.828653">
                <ele>478.82859471995715</ele>
                <time>2012-05-19T22:32:12.000Z</time>
                <name>Position 757</name>
            </trkpt>
            <trkpt lon="9.663062" lat="47.828687">
                <ele>478.5190153599657</ele>
                <time>2012-05-19T22:32:16.000Z</time>
                <name>Position 758</name>
            </trkpt>
            <trkpt lon="9.663255" lat="47.828709">
                <ele>478.5032247999449</ele>
                <time>2012-05-19T22:32:21.000Z</time>
                <name>Position 759</name>
            </trkpt>
            <trkpt lon="9.663374" lat="47.828735">
                <ele>478.5250431999676</ele>
                <time>2012-05-19T22:32:24.000Z</time>
                <name>Position 760</name>
            </trkpt>
            <trkpt lon="9.663507" lat="47.828779">
                <ele>478.8125046400358</ele>
                <time>2012-05-19T22:32:28.000Z</time>
                <name>Position 761</name>
            </trkpt>
            <trkpt lon="9.663646" lat="47.828818">
                <ele>479.2516326400255</ele>
                <time>2012-05-19T22:32:33.000Z</time>
                <name>Position 762</name>
            </trkpt>
            <trkpt lon="9.66376" lat="47.828883">
                <ele>479.1606304000344</ele>
                <time>2012-05-19T22:32:37.000Z</time>
                <name>Position 763</name>
            </trkpt>
            <trkpt lon="9.663879" lat="47.828997">
                <ele>478.46376543998247</ele>
                <time>2012-05-19T22:32:42.000Z</time>
                <name>Position 764</name>
            </trkpt>
            <trkpt lon="9.663963" lat="47.829086">
                <ele>477.90131584005263</ele>
                <time>2012-05-19T22:32:46.000Z</time>
                <name>Position 765</name>
            </trkpt>
            <trkpt lon="9.664038" lat="47.829161">
                <ele>477.4960998400094</ele>
                <time>2012-05-19T22:32:50.000Z</time>
                <name>Position 766</name>
            </trkpt>
            <trkpt lon="9.664121" lat="47.829216">
                <ele>478.07666495999604</ele>
                <time>2012-05-19T22:32:53.000Z</time>
                <name>Position 767</name>
            </trkpt>
            <trkpt lon="9.664271" lat="47.829271">
                <ele>479.6109246399964</ele>
                <time>2012-05-19T22:32:58.000Z</time>
                <name>Position 768</name>
            </trkpt>
            <trkpt lon="9.664394" lat="47.829369">
                <ele>480.66187743999774</ele>
                <time>2012-05-19T22:33:03.000Z</time>
                <name>Position 769</name>
            </trkpt>
            <trkpt lon="9.664555" lat="47.829491">
                <ele>481.60449520001697</ele>
                <time>2012-05-19T22:33:09.000Z</time>
                <name>Position 770</name>
            </trkpt>
            <trkpt lon="9.664706" lat="47.829612">
                <ele>481.9720268800271</ele>
                <time>2012-05-19T22:33:16.000Z</time>
                <name>Position 771</name>
            </trkpt>
            <trkpt lon="9.664896" lat="47.82971">
                <ele>482.3395264000189</ele>
                <time>2012-05-19T22:33:22.000Z</time>
                <name>Position 772</name>
            </trkpt>
            <trkpt lon="9.665124" lat="47.829834">
                <ele>482.77132288002815</ele>
                <time>2012-05-19T22:33:30.000Z</time>
                <name>Position 773</name>
            </trkpt>
            <trkpt lon="9.665307" lat="47.829918">
                <ele>483.53995168001325</ele>
                <time>2012-05-19T22:33:36.000Z</time>
                <name>Position 774</name>
            </trkpt>
            <trkpt lon="9.665419" lat="47.829931">
                <ele>484.4752955199729</ele>
                <time>2012-05-19T22:33:39.000Z</time>
                <name>Position 775</name>
            </trkpt>
            <trkpt lon="9.665493" lat="47.829947">
                <ele>484.981677280038</ele>
                <time>2012-05-19T22:33:41.000Z</time>
                <name>Position 776</name>
            </trkpt>
            <trkpt lon="9.665545" lat="47.829938">
                <ele>485.6219728000201</ele>
                <time>2012-05-19T22:33:43.000Z</time>
                <name>Position 777</name>
            </trkpt>
            <trkpt lon="9.665589" lat="47.829903">
                <ele>486.5652145599835</ele>
                <time>2012-05-19T22:33:44.000Z</time>
                <name>Position 778</name>
            </trkpt>
            <trkpt lon="9.665641" lat="47.829882">
                <ele>487.3963561600413</ele>
                <time>2012-05-19T22:33:46.000Z</time>
                <name>Position 779</name>
            </trkpt>
            <trkpt lon="9.665641" lat="47.829868">
                <ele>487.603123840044</ele>
                <time>2012-05-19T22:33:47.000Z</time>
                <name>Position 780</name>
            </trkpt>
            <trkpt lon="9.66564" lat="47.829847">
                <ele>487.90301439998507</ele>
                <time>2012-05-19T22:33:47.000Z</time>
                <name>Position 781</name>
            </trkpt>
            <trkpt lon="9.665646" lat="47.829822">
                <ele>488.334348160006</ele>
                <time>2012-05-19T22:33:48.000Z</time>
                <name>Position 782</name>
            </trkpt>
            <trkpt lon="9.665677" lat="47.829835">
                <ele>488.46176559996445</ele>
                <time>2012-05-19T22:33:49.000Z</time>
                <name>Position 783</name>
            </trkpt>
            <trkpt lon="9.665751" lat="47.829863">
                <ele>488.79807183995484</ele>
                <time>2012-05-19T22:33:52.000Z</time>
                <name>Position 784</name>
            </trkpt>
            <trkpt lon="9.665848" lat="47.829864">
                <ele>489.8119615999964</ele>
                <time>2012-05-19T22:33:54.000Z</time>
                <name>Position 785</name>
            </trkpt>
            <trkpt lon="9.665874" lat="47.829882">
                <ele>489.86335040004195</ele>
                <time>2012-05-19T22:33:55.000Z</time>
                <name>Position 786</name>
            </trkpt>
            <trkpt lon="9.666006" lat="47.829947">
                <ele>490.46468960004194</ele>
                <time>2012-05-19T22:34:00.000Z</time>
                <name>Position 787</name>
            </trkpt>
            <trkpt lon="9.666153" lat="47.830018">
                <ele>490.9705711999429</ele>
                <time>2012-05-19T22:34:05.000Z</time>
                <name>Position 788</name>
            </trkpt>
            <trkpt lon="9.666305" lat="47.830078">
                <ele>491.4911119999882</ele>
                <time>2012-05-19T22:34:09.000Z</time>
                <name>Position 789</name>
            </trkpt>
            <trkpt lon="9.666428" lat="47.830134">
                <ele>491.6502655999756</ele>
                <time>2012-05-19T22:34:13.000Z</time>
                <name>Position 790</name>
            </trkpt>
            <trkpt lon="9.666545" lat="47.830164">
                <ele>492.24766399991336</ele>
                <time>2012-05-19T22:34:17.000Z</time>
                <name>Position 791</name>
            </trkpt>
            <trkpt lon="9.66669" lat="47.830239">
                <ele>491.820212800027</ele>
                <time>2012-05-19T22:34:22.000Z</time>
                <name>Position 792</name>
            </trkpt>
            <trkpt lon="9.666796" lat="47.830276">
                <ele>491.23581568005073</ele>
                <time>2012-05-19T22:34:25.000Z</time>
                <name>Position 793</name>
            </trkpt>
            <trkpt lon="9.666906" lat="47.830325">
                <ele>490.4840559999615</ele>
                <time>2012-05-19T22:34:28.000Z</time>
                <name>Position 794</name>
            </trkpt>
            <trkpt lon="9.667037" lat="47.830409">
                <ele>489.21078063994133</ele>
                <time>2012-05-19T22:34:33.000Z</time>
                <name>Position 795</name>
            </trkpt>
            <trkpt lon="9.667105" lat="47.830461">
                <ele>488.47288240000466</ele>
                <time>2012-05-19T22:34:36.000Z</time>
                <name>Position 796</name>
            </trkpt>
            <trkpt lon="9.667191" lat="47.830531">
                <ele>487.5624836799943</ele>
                <time>2012-05-19T22:34:40.000Z</time>
                <name>Position 797</name>
            </trkpt>
            <trkpt lon="9.667271" lat="47.830599">
                <ele>486.7729163200082</ele>
                <time>2012-05-19T22:34:43.000Z</time>
                <name>Position 798</name>
            </trkpt>
            <trkpt lon="9.667311" lat="47.830637">
                <ele>486.34923855994754</ele>
                <time>2012-05-19T22:34:45.000Z</time>
                <name>Position 799</name>
            </trkpt>
            <trkpt lon="9.667384" lat="47.830673">
                <ele>486.2142745600468</ele>
                <time>2012-05-19T22:34:47.000Z</time>
                <name>Position 800</name>
            </trkpt>
            <trkpt lon="9.667615" lat="47.830749">
                <ele>486.95984080003547</ele>
                <time>2012-05-19T22:34:54.000Z</time>
                <name>Position 801</name>
            </trkpt>
            <trkpt lon="9.667773" lat="47.830766">
                <ele>488.3135094400424</ele>
                <time>2012-05-19T22:34:59.000Z</time>
                <name>Position 802</name>
            </trkpt>
            <trkpt lon="9.667904" lat="47.830773">
                <ele>489.55870335999293</ele>
                <time>2012-05-19T22:35:02.000Z</time>
                <name>Position 803</name>
            </trkpt>
            <trkpt lon="9.668027" lat="47.830794">
                <ele>490.5962550400307</ele>
                <time>2012-05-19T22:35:05.000Z</time>
                <name>Position 804</name>
            </trkpt>
            <trkpt lon="9.668186" lat="47.830849">
                <ele>491.8236284800004</ele>
                <time>2012-05-19T22:35:10.000Z</time>
                <name>Position 805</name>
            </trkpt>
            <trkpt lon="9.66838" lat="47.83087">
                <ele>493.4360000000153</ele>
                <time>2012-05-19T22:35:16.000Z</time>
                <name>Position 806</name>
            </trkpt>
            <trkpt lon="9.668536" lat="47.830806">
                <ele>494.1752230399815</ele>
                <time>2012-05-19T22:35:20.000Z</time>
                <name>Position 807</name>
            </trkpt>
            <trkpt lon="9.66861" lat="47.830732">
                <ele>494.85322880001524</ele>
                <time>2012-05-19T22:35:24.000Z</time>
                <name>Position 808</name>
            </trkpt>
            <trkpt lon="9.668638" lat="47.830666">
                <ele>495.3625875199943</ele>
                <time>2012-05-19T22:35:27.000Z</time>
                <name>Position 809</name>
            </trkpt>
            <trkpt lon="9.668711" lat="47.830597">
                <ele>495.97947248001816</ele>
                <time>2012-05-19T22:35:30.000Z</time>
                <name>Position 810</name>
            </trkpt>
            <trkpt lon="9.668789" lat="47.830508">
                <ele>496.72252927998926</ele>
                <time>2012-05-19T22:35:34.000Z</time>
                <name>Position 811</name>
            </trkpt>
            <trkpt lon="9.668875" lat="47.830444">
                <ele>497.29952000000054</ele>
                <time>2012-05-19T22:35:38.000Z</time>
                <name>Position 812</name>
            </trkpt>
            <trkpt lon="9.668956" lat="47.830379">
                <ele>497.85822655999584</ele>
                <time>2012-05-19T22:35:41.000Z</time>
                <name>Position 813</name>
            </trkpt>
            <trkpt lon="9.669039" lat="47.830303">
                <ele>498.4730964799958</ele>
                <time>2012-05-19T22:35:45.000Z</time>
                <name>Position 814</name>
            </trkpt>
            <trkpt lon="9.669153" lat="47.830249">
                <ele>498.9846996799878</ele>
                <time>2012-05-19T22:35:49.000Z</time>
                <name>Position 815</name>
            </trkpt>
            <trkpt lon="9.669269" lat="47.83022">
                <ele>499.3931808000182</ele>
                <time>2012-05-19T22:35:52.000Z</time>
                <name>Position 816</name>
            </trkpt>
            <trkpt lon="9.669403" lat="47.830198">
                <ele>499.811816639984</ele>
                <time>2012-05-19T22:35:56.000Z</time>
                <name>Position 817</name>
            </trkpt>
            <trkpt lon="9.669537" lat="47.830187">
                <ele>500.16707663998596</ele>
                <time>2012-05-19T22:35:59.000Z</time>
                <name>Position 818</name>
            </trkpt>
            <trkpt lon="9.669686" lat="47.830182">
                <ele>500.51829311999705</ele>
                <time>2012-05-19T22:36:03.000Z</time>
                <name>Position 819</name>
            </trkpt>
            <trkpt lon="9.669851" lat="47.830194">
                <ele>500.7872246400081</ele>
                <time>2012-05-19T22:36:08.000Z</time>
                <name>Position 820</name>
            </trkpt>
            <trkpt lon="9.670018" lat="47.830219">
                <ele>500.94937056000435</ele>
                <time>2012-05-19T22:36:12.000Z</time>
                <name>Position 821</name>
            </trkpt>
            <trkpt lon="9.670183" lat="47.830237">
                <ele>501.0454372800259</ele>
                <time>2012-05-19T22:36:17.000Z</time>
                <name>Position 822</name>
            </trkpt>
            <trkpt lon="9.670347" lat="47.830256">
                <ele>501.10584576001264</ele>
                <time>2012-05-19T22:36:21.000Z</time>
                <name>Position 823</name>
            </trkpt>
            <trkpt lon="9.670525" lat="47.830267">
                <ele>501.2320440000077</ele>
                <time>2012-05-19T22:36:26.000Z</time>
                <name>Position 824</name>
            </trkpt>
            <trkpt lon="9.670712" lat="47.830304">
                <ele>501.08494464001967</ele>
                <time>2012-05-19T22:36:31.000Z</time>
                <name>Position 825</name>
            </trkpt>
            <trkpt lon="9.67091" lat="47.830334">
                <ele>500.8007999999956</ele>
                <time>2012-05-19T22:36:37.000Z</time>
                <name>Position 826</name>
            </trkpt>
            <trkpt lon="9.671114" lat="47.830343">
                <ele>500.4588000000107</ele>
                <time>2012-05-19T22:36:42.000Z</time>
                <name>Position 827</name>
            </trkpt>
            <trkpt lon="9.671321" lat="47.830359">
                <ele>500.0375999999849</ele>
                <time>2012-05-19T22:36:48.000Z</time>
                <name>Position 828</name>
            </trkpt>
            <trkpt lon="9.67154" lat="47.830373">
                <ele>499.62359999998347</ele>
                <time>2012-05-19T22:36:54.000Z</time>
                <name>Position 829</name>
            </trkpt>
            <trkpt lon="9.671755" lat="47.830368">
                <ele>499.6068384</ele>
                <time>2012-05-19T22:37:00.000Z</time>
                <name>Position 830</name>
            </trkpt>
            <trkpt lon="9.671968" lat="47.830345">
                <ele>500.0112095999893</ele>
                <time>2012-05-19T22:37:05.000Z</time>
                <name>Position 831</name>
            </trkpt>
            <trkpt lon="9.672181" lat="47.830334">
                <ele>500.26509503999614</ele>
                <time>2012-05-19T22:37:11.000Z</time>
                <name>Position 832</name>
            </trkpt>
            <trkpt lon="9.672405" lat="47.830302">
                <ele>500.6367455999792</ele>
                <time>2012-05-19T22:37:17.000Z</time>
                <name>Position 833</name>
            </trkpt>
            <trkpt lon="9.672649" lat="47.830308">
                <ele>500.6986310399858</ele>
                <time>2012-05-19T22:37:24.000Z</time>
                <name>Position 834</name>
            </trkpt>
            <trkpt lon="9.672881" lat="47.830321">
                <ele>500.6789731200157</ele>
                <time>2012-05-19T22:37:30.000Z</time>
                <name>Position 835</name>
            </trkpt>
            <trkpt lon="9.673119" lat="47.830354">
                <ele>500.48771712000195</ele>
                <time>2012-05-19T22:37:37.000Z</time>
                <name>Position 836</name>
            </trkpt>
            <trkpt lon="9.673374" lat="47.83041">
                <ele>500.0552191999961</ele>
                <time>2012-05-19T22:37:44.000Z</time>
                <name>Position 837</name>
            </trkpt>
            <trkpt lon="9.673615" lat="47.830468">
                <ele>499.6104415999754</ele>
                <time>2012-05-19T22:37:51.000Z</time>
                <name>Position 838</name>
            </trkpt>
            <trkpt lon="9.67387" lat="47.830512">
                <ele>499.3465472000089</ele>
                <time>2012-05-19T22:37:58.000Z</time>
                <name>Position 839</name>
            </trkpt>
            <trkpt lon="9.674116" lat="47.830543">
                <ele>499.2235654400084</ele>
                <time>2012-05-19T22:38:05.000Z</time>
                <name>Position 840</name>
            </trkpt>
            <trkpt lon="9.674349" lat="47.830544">
                <ele>499.39703679997604</ele>
                <time>2012-05-19T22:38:11.000Z</time>
                <name>Position 841</name>
            </trkpt>
            <trkpt lon="9.674577" lat="47.83055">
                <ele>499.5446799999791</ele>
                <time>2012-05-19T22:38:17.000Z</time>
                <name>Position 842</name>
            </trkpt>
            <trkpt lon="9.674808" lat="47.830557">
                <ele>499.66439680001304</ele>
                <time>2012-05-19T22:38:23.000Z</time>
                <name>Position 843</name>
            </trkpt>
            <trkpt lon="9.675039" lat="47.830557">
                <ele>499.8157566400145</ele>
                <time>2012-05-19T22:38:29.000Z</time>
                <name>Position 844</name>
            </trkpt>
            <trkpt lon="9.675269" lat="47.830558">
                <ele>499.8011593599554</ele>
                <time>2012-05-19T22:38:36.000Z</time>
                <name>Position 845</name>
            </trkpt>
            <trkpt lon="9.675491" lat="47.830573">
                <ele>499.58699823998535</ele>
                <time>2012-05-19T22:38:42.000Z</time>
                <name>Position 846</name>
            </trkpt>
            <trkpt lon="9.675711" lat="47.830581">
                <ele>499.4498468799675</ele>
                <time>2012-05-19T22:38:48.000Z</time>
                <name>Position 847</name>
            </trkpt>
            <trkpt lon="9.675908" lat="47.830623">
                <ele>499.07261503995625</ele>
                <time>2012-05-19T22:38:53.000Z</time>
                <name>Position 848</name>
            </trkpt>
            <trkpt lon="9.676095" lat="47.830679">
                <ele>498.90775279994546</ele>
                <time>2012-05-19T22:38:59.000Z</time>
                <name>Position 849</name>
            </trkpt>
            <trkpt lon="9.676284" lat="47.830741">
                <ele>498.6227206399505</ele>
                <time>2012-05-19T22:39:04.000Z</time>
                <name>Position 850</name>
            </trkpt>
            <trkpt lon="9.676458" lat="47.83081">
                <ele>498.1337888000083</ele>
                <time>2012-05-19T22:39:10.000Z</time>
                <name>Position 851</name>
            </trkpt>
            <trkpt lon="9.676647" lat="47.830878">
                <ele>498.1076000000147</ele>
                <time>2012-05-19T22:39:15.000Z</time>
                <name>Position 852</name>
            </trkpt>
            <trkpt lon="9.676821" lat="47.830941">
                <ele>498.0712721599803</ele>
                <time>2012-05-19T22:39:21.000Z</time>
                <name>Position 853</name>
            </trkpt>
            <trkpt lon="9.677019" lat="47.830983">
                <ele>498.19206511997373</ele>
                <time>2012-05-19T22:39:26.000Z</time>
                <name>Position 854</name>
            </trkpt>
            <trkpt lon="9.677216" lat="47.831024">
                <ele>498.2947750400051</ele>
                <time>2012-05-19T22:39:32.000Z</time>
                <name>Position 855</name>
            </trkpt>
            <trkpt lon="9.677416" lat="47.831067">
                <ele>498.3638643200208</ele>
                <time>2012-05-19T22:39:37.000Z</time>
                <name>Position 856</name>
            </trkpt>
            <trkpt lon="9.677627" lat="47.831108">
                <ele>498.4456620799961</ele>
                <time>2012-05-19T22:39:43.000Z</time>
                <name>Position 857</name>
            </trkpt>
            <trkpt lon="9.677852" lat="47.831147">
                <ele>498.60558271998957</ele>
                <time>2012-05-19T22:39:50.000Z</time>
                <name>Position 858</name>
            </trkpt>
            <trkpt lon="9.678076" lat="47.831187">
                <ele>498.8070905600031</ele>
                <time>2012-05-19T22:39:56.000Z</time>
                <name>Position 859</name>
            </trkpt>
            <trkpt lon="9.6783" lat="47.831232">
                <ele>499.02972800000106</ele>
                <time>2012-05-19T22:40:02.000Z</time>
                <name>Position 860</name>
            </trkpt>
            <trkpt lon="9.678513" lat="47.83128">
                <ele>499.88247680000677</ele>
                <time>2012-05-19T22:40:08.000Z</time>
                <name>Position 861</name>
            </trkpt>
            <trkpt lon="9.678737" lat="47.831325">
                <ele>500.8848080000027</ele>
                <time>2012-05-19T22:40:14.000Z</time>
                <name>Position 862</name>
            </trkpt>
            <trkpt lon="9.678946" lat="47.831359">
                <ele>501.82967168000687</ele>
                <time>2012-05-19T22:40:20.000Z</time>
                <name>Position 863</name>
            </trkpt>
            <trkpt lon="9.679172" lat="47.831406">
                <ele>502.7016115199893</ele>
                <time>2012-05-19T22:40:27.000Z</time>
                <name>Position 864</name>
            </trkpt>
            <trkpt lon="9.679355" lat="47.831448">
                <ele>502.692614399982</ele>
                <time>2012-05-19T22:40:32.000Z</time>
                <name>Position 865</name>
            </trkpt>
            <trkpt lon="9.67955" lat="47.831489">
                <ele>502.5808320000291</ele>
                <time>2012-05-19T22:40:37.000Z</time>
                <name>Position 866</name>
            </trkpt>
            <trkpt lon="9.679763" lat="47.831537">
                <ele>502.2572841600371</ele>
                <time>2012-05-19T22:40:43.000Z</time>
                <name>Position 867</name>
            </trkpt>
            <trkpt lon="9.679972" lat="47.831577">
                <ele>501.87710783995635</ele>
                <time>2012-05-19T22:40:49.000Z</time>
                <name>Position 868</name>
            </trkpt>
            <trkpt lon="9.680185" lat="47.83163">
                <ele>501.34284000005226</ele>
                <time>2012-05-19T22:40:55.000Z</time>
                <name>Position 869</name>
            </trkpt>
            <trkpt lon="9.680385" lat="47.831679">
                <ele>500.9016751999934</ele>
                <time>2012-05-19T22:41:01.000Z</time>
                <name>Position 870</name>
            </trkpt>
            <trkpt lon="9.680572" lat="47.831728">
                <ele>500.9194380800072</ele>
                <time>2012-05-19T22:41:06.000Z</time>
                <name>Position 871</name>
            </trkpt>
            <trkpt lon="9.68077" lat="47.83177">
                <ele>501.03315200000566</ele>
                <time>2012-05-19T22:41:12.000Z</time>
                <name>Position 872</name>
            </trkpt>
            <trkpt lon="9.680939" lat="47.831814">
                <ele>501.8571999999978</ele>
                <time>2012-05-19T22:41:17.000Z</time>
                <name>Position 873</name>
            </trkpt>
            <trkpt lon="9.681121" lat="47.831856">
                <ele>503.23479999998574</ele>
                <time>2012-05-19T22:41:22.000Z</time>
                <name>Position 874</name>
            </trkpt>
            <trkpt lon="9.681322" lat="47.831904">
                <ele>504.7503999999919</ele>
                <time>2012-05-19T22:41:28.000Z</time>
                <name>Position 875</name>
            </trkpt>
            <trkpt lon="9.681548" lat="47.831969">
                <ele>506.41479999999115</ele>
                <time>2012-05-19T22:41:34.000Z</time>
                <name>Position 876</name>
            </trkpt>
            <trkpt lon="9.681816" lat="47.832036">
                <ele>507.6285785599898</ele>
                <time>2012-05-19T22:41:42.000Z</time>
                <name>Position 877</name>
            </trkpt>
            <trkpt lon="9.682082" lat="47.832079">
                <ele>508.264191679997</ele>
                <time>2012-05-19T22:41:49.000Z</time>
                <name>Position 878</name>
            </trkpt>
            <trkpt lon="9.682337" lat="47.832136">
                <ele>508.7705619200081</ele>
                <time>2012-05-19T22:41:57.000Z</time>
                <name>Position 879</name>
            </trkpt>
            <trkpt lon="9.682607" lat="47.832198">
                <ele>508.97199296001037</ele>
                <time>2012-05-19T22:42:04.000Z</time>
                <name>Position 880</name>
            </trkpt>
            <trkpt lon="9.682888" lat="47.832252">
                <ele>508.59057536002535</ele>
                <time>2012-05-19T22:42:12.000Z</time>
                <name>Position 881</name>
            </trkpt>
            <trkpt lon="9.683154" lat="47.832301">
                <ele>508.0100614399888</ele>
                <time>2012-05-19T22:42:20.000Z</time>
                <name>Position 882</name>
            </trkpt>
            <trkpt lon="9.68342" lat="47.832343">
                <ele>507.26040639998104</ele>
                <time>2012-05-19T22:42:27.000Z</time>
                <name>Position 883</name>
            </trkpt>
            <trkpt lon="9.683708" lat="47.832353">
                <ele>506.7350905600276</ele>
                <time>2012-05-19T22:42:35.000Z</time>
                <name>Position 884</name>
            </trkpt>
            <trkpt lon="9.683991" lat="47.832331">
                <ele>506.5787502399605</ele>
                <time>2012-05-19T22:42:42.000Z</time>
                <name>Position 885</name>
            </trkpt>
            <trkpt lon="9.684257" lat="47.832303">
                <ele>506.67885151996575</ele>
                <time>2012-05-19T22:42:50.000Z</time>
                <name>Position 886</name>
            </trkpt>
            <trkpt lon="9.684522" lat="47.832269">
                <ele>507.2311961600399</ele>
                <time>2012-05-19T22:42:57.000Z</time>
                <name>Position 887</name>
            </trkpt>
            <trkpt lon="9.684816" lat="47.832233">
                <ele>507.88291135997156</ele>
                <time>2012-05-19T22:43:05.000Z</time>
                <name>Position 888</name>
            </trkpt>
            <trkpt lon="9.685084" lat="47.832206">
                <ele>508.4933734400089</ele>
                <time>2012-05-19T22:43:12.000Z</time>
                <name>Position 889</name>
            </trkpt>
            <trkpt lon="9.685326" lat="47.832193">
                <ele>509.0259084800537</ele>
                <time>2012-05-19T22:43:19.000Z</time>
                <name>Position 890</name>
            </trkpt>
            <trkpt lon="9.685512" lat="47.832113">
                <ele>510.7059641600042</ele>
                <time>2012-05-19T22:43:25.000Z</time>
                <name>Position 891</name>
            </trkpt>
            <trkpt lon="9.685542" lat="47.832006">
                <ele>512.683742720003</ele>
                <time>2012-05-19T22:43:29.000Z</time>
                <name>Position 892</name>
            </trkpt>
            <trkpt lon="9.685557" lat="47.831953">
                <ele>513.6844265600224</ele>
                <time>2012-05-19T22:43:31.000Z</time>
                <name>Position 893</name>
            </trkpt>
            <trkpt lon="9.68568" lat="47.831904">
                <ele>515.0528191999691</ele>
                <time>2012-05-19T22:43:35.000Z</time>
                <name>Position 894</name>
            </trkpt>
            <trkpt lon="9.685853" lat="47.83189">
                <ele>516.12477599997</ele>
                <time>2012-05-19T22:43:40.000Z</time>
                <name>Position 895</name>
            </trkpt>
            <trkpt lon="9.686042" lat="47.831887">
                <ele>517.9277711999639</ele>
                <time>2012-05-19T22:43:45.000Z</time>
                <name>Position 896</name>
            </trkpt>
            <trkpt lon="9.686235" lat="47.831922">
                <ele>518.8907760000286</ele>
                <time>2012-05-19T22:43:50.000Z</time>
                <name>Position 897</name>
            </trkpt>
            <trkpt lon="9.686416" lat="47.83194">
                <ele>520.0701119999206</ele>
                <time>2012-05-19T22:43:55.000Z</time>
                <name>Position 898</name>
            </trkpt>
            <trkpt lon="9.686598" lat="47.83197">
                <ele>520.9003680000432</ele>
                <time>2012-05-19T22:44:00.000Z</time>
                <name>Position 899</name>
            </trkpt>
            <trkpt lon="9.686791" lat="47.831999">
                <ele>521.7112990399085</ele>
                <time>2012-05-19T22:44:05.000Z</time>
                <name>Position 900</name>
            </trkpt>
            <trkpt lon="9.686976" lat="47.832054">
                <ele>521.700266240012</ele>
                <time>2012-05-19T22:44:11.000Z</time>
                <name>Position 901</name>
            </trkpt>
            <trkpt lon="9.687125" lat="47.832073">
                <ele>522.3546199999674</ele>
                <time>2012-05-19T22:44:15.000Z</time>
                <name>Position 902</name>
            </trkpt>
            <trkpt lon="9.687279" lat="47.832111">
                <ele>522.5214046400662</ele>
                <time>2012-05-19T22:44:19.000Z</time>
                <name>Position 903</name>
            </trkpt>
            <trkpt lon="9.687433" lat="47.832155">
                <ele>522.5063143999969</ele>
                <time>2012-05-19T22:44:24.000Z</time>
                <name>Position 904</name>
            </trkpt>
            <trkpt lon="9.687545" lat="47.83219">
                <ele>522.2519120000802</ele>
                <time>2012-05-19T22:44:27.000Z</time>
                <name>Position 905</name>
            </trkpt>
            <trkpt lon="9.68767" lat="47.832235">
                <ele>521.5651280000803</ele>
                <time>2012-05-19T22:44:31.000Z</time>
                <name>Position 906</name>
            </trkpt>
            <trkpt lon="9.687764" lat="47.832246">
                <ele>521.6810393600575</ele>
                <time>2012-05-19T22:44:33.000Z</time>
                <name>Position 907</name>
            </trkpt>
            <trkpt lon="9.687861" lat="47.832294">
                <ele>520.811312960069</ele>
                <time>2012-05-19T22:44:37.000Z</time>
                <name>Position 908</name>
            </trkpt>
            <trkpt lon="9.687927" lat="47.832288">
                <ele>521.270445440045</ele>
                <time>2012-05-19T22:44:38.000Z</time>
                <name>Position 909</name>
            </trkpt>
            <trkpt lon="9.688026" lat="47.832318">
                <ele>520.9101459199823</ele>
                <time>2012-05-19T22:44:41.000Z</time>
                <name>Position 910</name>
            </trkpt>
            <trkpt lon="9.68812" lat="47.832329">
                <ele>521.0429311999601</ele>
                <time>2012-05-19T22:44:44.000Z</time>
                <name>Position 911</name>
            </trkpt>
            <trkpt lon="9.688199" lat="47.832334">
                <ele>521.2697110399158</ele>
                <time>2012-05-19T22:44:46.000Z</time>
                <name>Position 912</name>
            </trkpt>
            <trkpt lon="9.688303" lat="47.832377">
                <ele>520.6069726399701</ele>
                <time>2012-05-19T22:44:49.000Z</time>
                <name>Position 913</name>
            </trkpt>
            <trkpt lon="9.68836" lat="47.83238">
                <ele>520.6633919999853</ele>
                <time>2012-05-19T22:44:51.000Z</time>
                <name>Position 914</name>
            </trkpt>
            <trkpt lon="9.688518" lat="47.832389">
                <ele>520.400882880022</ele>
                <time>2012-05-19T22:44:55.000Z</time>
                <name>Position 915</name>
            </trkpt>
            <trkpt lon="9.688674" lat="47.832422">
                <ele>519.5209363199713</ele>
                <time>2012-05-19T22:45:00.000Z</time>
                <name>Position 916</name>
            </trkpt>
            <trkpt lon="9.688848" lat="47.83246">
                <ele>518.5263552000632</ele>
                <time>2012-05-19T22:45:04.000Z</time>
                <name>Position 917</name>
            </trkpt>
            <trkpt lon="9.689019" lat="47.832504">
                <ele>517.4158483199976</ele>
                <time>2012-05-19T22:45:09.000Z</time>
                <name>Position 918</name>
            </trkpt>
            <trkpt lon="9.689202" lat="47.832529">
                <ele>516.9946755199803</ele>
                <time>2012-05-19T22:45:14.000Z</time>
                <name>Position 919</name>
            </trkpt>
            <trkpt lon="9.689373" lat="47.832561">
                <ele>516.7689243200333</ele>
                <time>2012-05-19T22:45:19.000Z</time>
                <name>Position 920</name>
            </trkpt>
            <trkpt lon="9.689542" lat="47.832586">
                <ele>516.6928812800155</ele>
                <time>2012-05-19T22:45:24.000Z</time>
                <name>Position 921</name>
            </trkpt>
            <trkpt lon="9.689699" lat="47.832619">
                <ele>516.4412206399763</ele>
                <time>2012-05-19T22:45:28.000Z</time>
                <name>Position 922</name>
            </trkpt>
            <trkpt lon="9.689841" lat="47.832646">
                <ele>516.2817718400594</ele>
                <time>2012-05-19T22:45:32.000Z</time>
                <name>Position 923</name>
            </trkpt>
            <trkpt lon="9.689969" lat="47.832662">
                <ele>516.307968320016</ele>
                <time>2012-05-19T22:45:36.000Z</time>
                <name>Position 924</name>
            </trkpt>
            <trkpt lon="9.69011" lat="47.832684">
                <ele>516.9940543999978</ele>
                <time>2012-05-19T22:45:40.000Z</time>
                <name>Position 925</name>
            </trkpt>
            <trkpt lon="9.690233" lat="47.832693">
                <ele>517.9664446400117</ele>
                <time>2012-05-19T22:45:43.000Z</time>
                <name>Position 926</name>
            </trkpt>
            <trkpt lon="9.690358" lat="47.83272">
                <ele>518.5993855999604</ele>
                <time>2012-05-19T22:45:46.000Z</time>
                <name>Position 927</name>
            </trkpt>
            <trkpt lon="9.690522" lat="47.832733">
                <ele>519.8624585600462</ele>
                <time>2012-05-19T22:45:51.000Z</time>
                <name>Position 928</name>
            </trkpt>
            <trkpt lon="9.690692" lat="47.83277">
                <ele>520.6901504000741</ele>
                <time>2012-05-19T22:45:56.000Z</time>
                <name>Position 929</name>
            </trkpt>
            <trkpt lon="9.690903" lat="47.832805">
                <ele>522.0385927999955</ele>
                <time>2012-05-19T22:46:02.000Z</time>
                <name>Position 930</name>
            </trkpt>
            <trkpt lon="9.691147" lat="47.832881">
                <ele>523.2550702400008</ele>
                <time>2012-05-19T22:46:09.000Z</time>
                <name>Position 931</name>
            </trkpt>
            <trkpt lon="9.691378" lat="47.832952">
                <ele>524.5715379200242</ele>
                <time>2012-05-19T22:46:16.000Z</time>
                <name>Position 932</name>
            </trkpt>
            <trkpt lon="9.691595" lat="47.833025">
                <ele>525.8294600000067</ele>
                <time>2012-05-19T22:46:22.000Z</time>
                <name>Position 933</name>
            </trkpt>
            <trkpt lon="9.691818" lat="47.833117">
                <ele>525.9481132799741</ele>
                <time>2012-05-19T22:46:29.000Z</time>
                <name>Position 934</name>
            </trkpt>
            <trkpt lon="9.692048" lat="47.833212">
                <ele>525.6931468799487</ele>
                <time>2012-05-19T22:46:36.000Z</time>
                <name>Position 935</name>
            </trkpt>
            <trkpt lon="9.692207" lat="47.833287">
                <ele>525.4482979200205</ele>
                <time>2012-05-19T22:46:42.000Z</time>
                <name>Position 936</name>
            </trkpt>
            <trkpt lon="9.692352" lat="47.833405">
                <ele>525.1820000000031</ele>
                <time>2012-05-19T22:46:48.000Z</time>
                <name>Position 937</name>
            </trkpt>
            <trkpt lon="9.692511" lat="47.833545">
                <ele>525.2825887999933</ele>
                <time>2012-05-19T22:46:55.000Z</time>
                <name>Position 938</name>
            </trkpt>
            <trkpt lon="9.692645" lat="47.833675">
                <ele>525.0346400000062</ele>
                <time>2012-05-19T22:47:01.000Z</time>
                <name>Position 939</name>
            </trkpt>
            <trkpt lon="9.692798" lat="47.833824">
                <ele>524.5017804800004</ele>
                <time>2012-05-19T22:47:08.000Z</time>
                <name>Position 940</name>
            </trkpt>
            <trkpt lon="9.692928" lat="47.83396">
                <ele>523.7630912000212</ele>
                <time>2012-05-19T22:47:15.000Z</time>
                <name>Position 941</name>
            </trkpt>
            <trkpt lon="9.693073" lat="47.834095">
                <ele>522.8541344000208</ele>
                <time>2012-05-19T22:47:22.000Z</time>
                <name>Position 942</name>
            </trkpt>
            <trkpt lon="9.693201" lat="47.83423">
                <ele>521.785062400018</ele>
                <time>2012-05-19T22:47:28.000Z</time>
                <name>Position 943</name>
            </trkpt>
            <trkpt lon="9.693353" lat="47.834333">
                <ele>521.2349316799937</ele>
                <time>2012-05-19T22:47:34.000Z</time>
                <name>Position 944</name>
            </trkpt>
            <trkpt lon="9.693558" lat="47.834459">
                <ele>521.6761270399776</ele>
                <time>2012-05-19T22:47:41.000Z</time>
                <name>Position 945</name>
            </trkpt>
            <trkpt lon="9.693784" lat="47.834541">
                <ele>522.7883820799967</ele>
                <time>2012-05-19T22:47:48.000Z</time>
                <name>Position 946</name>
            </trkpt>
            <trkpt lon="9.694032" lat="47.834584">
                <ele>524.4460121600024</ele>
                <time>2012-05-19T22:47:55.000Z</time>
                <name>Position 947</name>
            </trkpt>
            <trkpt lon="9.694274" lat="47.834583">
                <ele>526.4679606399883</ele>
                <time>2012-05-19T22:48:01.000Z</time>
                <name>Position 948</name>
            </trkpt>
            <trkpt lon="9.694595" lat="47.834586">
                <ele>529.3306863999821</ele>
                <time>2012-05-19T22:48:10.000Z</time>
                <name>Position 949</name>
            </trkpt>
            <trkpt lon="9.694829" lat="47.834571">
                <ele>531.6025412800399</ele>
                <time>2012-05-19T22:48:16.000Z</time>
                <name>Position 950</name>
            </trkpt>
            <trkpt lon="9.695119" lat="47.834587">
                <ele>533.0173451200144</ele>
                <time>2012-05-19T22:48:24.000Z</time>
                <name>Position 951</name>
            </trkpt>
            <trkpt lon="9.695372" lat="47.834584">
                <ele>533.2111859200096</ele>
                <time>2012-05-19T22:48:31.000Z</time>
                <name>Position 952</name>
            </trkpt>
            <trkpt lon="9.695624" lat="47.834569">
                <ele>533.6795142399612</ele>
                <time>2012-05-19T22:48:38.000Z</time>
                <name>Position 953</name>
            </trkpt>
            <trkpt lon="9.695907" lat="47.834565">
                <ele>533.9822552000544</ele>
                <time>2012-05-19T22:48:45.000Z</time>
                <name>Position 954</name>
            </trkpt>
            <trkpt lon="9.696177" lat="47.834581">
                <ele>533.7610452800011</ele>
                <time>2012-05-19T22:48:53.000Z</time>
                <name>Position 955</name>
            </trkpt>
            <trkpt lon="9.696382" lat="47.83459">
                <ele>533.6744672000334</ele>
                <time>2012-05-19T22:48:58.000Z</time>
                <name>Position 956</name>
            </trkpt>
            <trkpt lon="9.696601" lat="47.834616">
                <ele>533.2127110400714</ele>
                <time>2012-05-19T22:49:04.000Z</time>
                <name>Position 957</name>
            </trkpt>
            <trkpt lon="9.696863" lat="47.834622">
                <ele>533.4827318399326</ele>
                <time>2012-05-19T22:49:11.000Z</time>
                <name>Position 958</name>
            </trkpt>
            <trkpt lon="9.6971" lat="47.834648">
                <ele>533.3459519999718</ele>
                <time>2012-05-19T22:49:18.000Z</time>
                <name>Position 959</name>
            </trkpt>
            <trkpt lon="9.697338" lat="47.834703">
                <ele>532.5956841600556</ele>
                <time>2012-05-19T22:49:24.000Z</time>
                <name>Position 960</name>
            </trkpt>
            <trkpt lon="9.697529" lat="47.834784">
                <ele>531.3318604800177</ele>
                <time>2012-05-19T22:49:31.000Z</time>
                <name>Position 961</name>
            </trkpt>
            <trkpt lon="9.697723" lat="47.834883">
                <ele>530.2103131200497</ele>
                <time>2012-05-19T22:49:37.000Z</time>
                <name>Position 962</name>
            </trkpt>
            <trkpt lon="9.697956" lat="47.834979">
                <ele>529.1837683200692</ele>
                <time>2012-05-19T22:49:44.000Z</time>
                <name>Position 963</name>
            </trkpt>
            <trkpt lon="9.698213" lat="47.83506">
                <ele>528.2975904000443</ele>
                <time>2012-05-19T22:49:52.000Z</time>
                <name>Position 964</name>
            </trkpt>
            <trkpt lon="9.698459" lat="47.835143">
                <ele>526.9797227199402</ele>
                <time>2012-05-19T22:49:59.000Z</time>
                <name>Position 965</name>
            </trkpt>
            <trkpt lon="9.698684" lat="47.835189">
                <ele>526.4505625600096</ele>
                <time>2012-05-19T22:50:06.000Z</time>
                <name>Position 966</name>
            </trkpt>
            <trkpt lon="9.698941" lat="47.835252">
                <ele>525.5118899200862</ele>
                <time>2012-05-19T22:50:13.000Z</time>
                <name>Position 967</name>
            </trkpt>
            <trkpt lon="9.69913" lat="47.835285">
                <ele>525.1750480000331</ele>
                <time>2012-05-19T22:50:18.000Z</time>
                <name>Position 968</name>
            </trkpt>
            <trkpt lon="9.699338" lat="47.835307">
                <ele>524.5501721599959</ele>
                <time>2012-05-19T22:50:24.000Z</time>
                <name>Position 969</name>
            </trkpt>
            <trkpt lon="9.699547" lat="47.835323">
                <ele>523.9924025599356</ele>
                <time>2012-05-19T22:50:30.000Z</time>
                <name>Position 970</name>
            </trkpt>
            <trkpt lon="9.699738" lat="47.835309">
                <ele>524.2464819199433</ele>
                <time>2012-05-19T22:50:35.000Z</time>
                <name>Position 971</name>
            </trkpt>
            <trkpt lon="9.699973" lat="47.835299">
                <ele>524.3422995200231</ele>
                <time>2012-05-19T22:50:41.000Z</time>
                <name>Position 972</name>
            </trkpt>
            <trkpt lon="9.700186" lat="47.835263">
                <ele>525.0352419200574</ele>
                <time>2012-05-19T22:50:47.000Z</time>
                <name>Position 973</name>
            </trkpt>
            <trkpt lon="9.700348" lat="47.835198">
                <ele>526.4296217600411</ele>
                <time>2012-05-19T22:50:52.000Z</time>
                <name>Position 974</name>
            </trkpt>
            <trkpt lon="9.700526" lat="47.835133">
                <ele>527.7775395200247</ele>
                <time>2012-05-19T22:50:58.000Z</time>
                <name>Position 975</name>
            </trkpt>
            <trkpt lon="9.700732" lat="47.835077">
                <ele>528.8547641600405</ele>
                <time>2012-05-19T22:51:04.000Z</time>
                <name>Position 976</name>
            </trkpt>
            <trkpt lon="9.700934" lat="47.835068">
                <ele>529.0802572800086</ele>
                <time>2012-05-19T22:51:09.000Z</time>
                <name>Position 977</name>
            </trkpt>
            <trkpt lon="9.701112" lat="47.835085">
                <ele>528.930508800015</ele>
                <time>2012-05-19T22:51:14.000Z</time>
                <name>Position 978</name>
            </trkpt>
            <trkpt lon="9.701261" lat="47.835104">
                <ele>528.7060473599762</ele>
                <time>2012-05-19T22:51:18.000Z</time>
                <name>Position 979</name>
            </trkpt>
            <trkpt lon="9.70136" lat="47.835063">
                <ele>529.7433792000422</ele>
                <time>2012-05-19T22:51:21.000Z</time>
                <name>Position 980</name>
            </trkpt>
            <trkpt lon="9.701491" lat="47.835058">
                <ele>530.0217283200784</ele>
                <time>2012-05-19T22:51:25.000Z</time>
                <name>Position 981</name>
            </trkpt>
            <trkpt lon="9.701601" lat="47.835068">
                <ele>529.9459699200082</ele>
                <time>2012-05-19T22:51:28.000Z</time>
                <name>Position 982</name>
            </trkpt>
            <trkpt lon="9.701713" lat="47.835097">
                <ele>529.4668718400544</ele>
                <time>2012-05-19T22:51:31.000Z</time>
                <name>Position 983</name>
            </trkpt>
            <trkpt lon="9.701792" lat="47.835108">
                <ele>529.3370918400395</ele>
                <time>2012-05-19T22:51:33.000Z</time>
                <name>Position 984</name>
            </trkpt>
            <trkpt lon="9.701823" lat="47.835125">
                <ele>529.0157400000454</ele>
                <time>2012-05-19T22:51:34.000Z</time>
                <name>Position 985</name>
            </trkpt>
            <trkpt lon="9.701854" lat="47.835124">
                <ele>529.0798502399938</ele>
                <time>2012-05-19T22:51:35.000Z</time>
                <name>Position 986</name>
            </trkpt>
            <trkpt lon="9.701885" lat="47.835135">
                <ele>528.8884439999798</ele>
                <time>2012-05-19T22:51:36.000Z</time>
                <name>Position 987</name>
            </trkpt>
            <trkpt lon="9.701981" lat="47.835146">
                <ele>528.7896854399652</ele>
                <time>2012-05-19T22:51:38.000Z</time>
                <name>Position 988</name>
            </trkpt>
            <trkpt lon="9.702144" lat="47.83514">
                <ele>529.1450303999468</ele>
                <time>2012-05-19T22:51:43.000Z</time>
                <name>Position 989</name>
            </trkpt>
            <trkpt lon="9.702306" lat="47.835145">
                <ele>529.2686928000609</ele>
                <time>2012-05-19T22:51:47.000Z</time>
                <name>Position 990</name>
            </trkpt>
            <trkpt lon="9.702475" lat="47.835124">
                <ele>529.9359359999926</ele>
                <time>2012-05-19T22:51:52.000Z</time>
                <name>Position 991</name>
            </trkpt>
            <trkpt lon="9.702662" lat="47.835115">
                <ele>530.4557087999661</ele>
                <time>2012-05-19T22:51:57.000Z</time>
                <name>Position 992</name>
            </trkpt>
            <trkpt lon="9.702858" lat="47.835126">
                <ele>530.6190220799576</ele>
                <time>2012-05-19T22:52:02.000Z</time>
                <name>Position 993</name>
            </trkpt>
            <trkpt lon="9.703058" lat="47.835156">
                <ele>530.4885964800401</ele>
                <time>2012-05-19T22:52:08.000Z</time>
                <name>Position 994</name>
            </trkpt>
            <trkpt lon="9.703227" lat="47.835188">
                <ele>530.3244537599646</ele>
                <time>2012-05-19T22:52:12.000Z</time>
                <name>Position 995</name>
            </trkpt>
            <trkpt lon="9.70339" lat="47.835234">
                <ele>530.2385056000082</ele>
                <time>2012-05-19T22:52:17.000Z</time>
                <name>Position 996</name>
            </trkpt>
            <trkpt lon="9.703519" lat="47.835305">
                <ele>529.9972552000297</ele>
                <time>2012-05-19T22:52:22.000Z</time>
                <name>Position 997</name>
            </trkpt>
            <trkpt lon="9.703671" lat="47.835349">
                <ele>530.3171022399879</ele>
                <time>2012-05-19T22:52:26.000Z</time>
                <name>Position 998</name>
            </trkpt>
            <trkpt lon="9.703895" lat="47.835406">
                <ele>530.8820272000129</ele>
                <time>2012-05-19T22:52:32.000Z</time>
                <name>Position 999</name>
            </trkpt>
            <trkpt lon="9.704122" lat="47.835477">
                <ele>531.1954806400446</ele>
                <time>2012-05-19T22:52:39.000Z</time>
                <name>Position 1000</name>
            </trkpt>
            <trkpt lon="9.704357" lat="47.835502">
                <ele>531.9772592000335</ele>
                <time>2012-05-19T22:52:46.000Z</time>
                <name>Position 1001</name>
            </trkpt>
            <trkpt lon="9.704585" lat="47.835561">
                <ele>531.8994680000312</ele>
                <time>2012-05-19T22:52:52.000Z</time>
                <name>Position 1002</name>
            </trkpt>
            <trkpt lon="9.704827" lat="47.835625">
                <ele>531.5752999999947</ele>
                <time>2012-05-19T22:52:59.000Z</time>
                <name>Position 1003</name>
            </trkpt>
            <trkpt lon="9.705032" lat="47.835686">
                <ele>530.795978239944</ele>
                <time>2012-05-19T22:53:05.000Z</time>
                <name>Position 1004</name>
            </trkpt>
            <trkpt lon="9.705263" lat="47.835734">
                <ele>529.2088390399492</ele>
                <time>2012-05-19T22:53:12.000Z</time>
                <name>Position 1005</name>
            </trkpt>
            <trkpt lon="9.705568" lat="47.835761">
                <ele>527.9043257600524</ele>
                <time>2012-05-19T22:53:20.000Z</time>
                <name>Position 1006</name>
            </trkpt>
            <trkpt lon="9.705825" lat="47.835765">
                <ele>527.2403599999477</ele>
                <time>2012-05-19T22:53:27.000Z</time>
                <name>Position 1007</name>
            </trkpt>
            <trkpt lon="9.70611" lat="47.835762">
                <ele>526.6620191999351</ele>
                <time>2012-05-19T22:53:35.000Z</time>
                <name>Position 1008</name>
            </trkpt>
            <trkpt lon="9.706363" lat="47.835776">
                <ele>525.717329279932</ele>
                <time>2012-05-19T22:53:41.000Z</time>
                <name>Position 1009</name>
            </trkpt>
            <trkpt lon="9.706614" lat="47.835813">
                <ele>524.1616579199575</ele>
                <time>2012-05-19T22:53:48.000Z</time>
                <name>Position 1010</name>
            </trkpt>
            <trkpt lon="9.706868" lat="47.835781">
                <ele>524.8664275200746</ele>
                <time>2012-05-19T22:53:55.000Z</time>
                <name>Position 1011</name>
            </trkpt>
            <trkpt lon="9.707079" lat="47.835744">
                <ele>525.8053574400467</ele>
                <time>2012-05-19T22:54:01.000Z</time>
                <name>Position 1012</name>
            </trkpt>
            <trkpt lon="9.707318" lat="47.835648">
                <ele>528.2189721600257</ele>
                <time>2012-05-19T22:54:09.000Z</time>
                <name>Position 1013</name>
            </trkpt>
            <trkpt lon="9.707557" lat="47.835586">
                <ele>529.8012000000197</ele>
                <time>2012-05-19T22:54:15.000Z</time>
                <name>Position 1014</name>
            </trkpt>
            <trkpt lon="9.707741" lat="47.835546">
                <ele>531.0299999999826</ele>
                <time>2012-05-19T22:54:21.000Z</time>
                <name>Position 1015</name>
            </trkpt>
            <trkpt lon="9.70791" lat="47.835507">
                <ele>532.2156000000076</ele>
                <time>2012-05-19T22:54:25.000Z</time>
                <name>Position 1016</name>
            </trkpt>
            <trkpt lon="9.708035" lat="47.835458">
                <ele>533.6003999999347</ele>
                <time>2012-05-19T22:54:29.000Z</time>
                <name>Position 1017</name>
            </trkpt>
            <trkpt lon="9.708226" lat="47.835486">
                <ele>533.1239999999245</ele>
                <time>2012-05-19T22:54:35.000Z</time>
                <name>Position 1018</name>
            </trkpt>
            <trkpt lon="9.708457" lat="47.835551">
                <ele>531.657776639945</ele>
                <time>2012-05-19T22:54:41.000Z</time>
                <name>Position 1019</name>
            </trkpt>
            <trkpt lon="9.708699" lat="47.835603">
                <ele>530.6505254400222</ele>
                <time>2012-05-19T22:54:48.000Z</time>
                <name>Position 1020</name>
            </trkpt>
            <trkpt lon="9.708908" lat="47.835667">
                <ele>529.6592467199846</ele>
                <time>2012-05-19T22:54:54.000Z</time>
                <name>Position 1021</name>
            </trkpt>
            <trkpt lon="9.709127" lat="47.8357">
                <ele>529.4981279999577</ele>
                <time>2012-05-19T22:55:00.000Z</time>
                <name>Position 1022</name>
            </trkpt>
            <trkpt lon="9.709349" lat="47.835757">
                <ele>528.6707579199863</ele>
                <time>2012-05-19T22:55:07.000Z</time>
                <name>Position 1023</name>
            </trkpt>
            <trkpt lon="9.709574" lat="47.835861">
                <ele>527.4483407999977</ele>
                <time>2012-05-19T22:55:14.000Z</time>
                <name>Position 1024</name>
            </trkpt>
            <trkpt lon="9.709737" lat="47.835901">
                <ele>527.4530664000005</ele>
                <time>2012-05-19T22:55:19.000Z</time>
                <name>Position 1025</name>
            </trkpt>
            <trkpt lon="9.70991" lat="47.835988">
                <ele>527.5853760000009</ele>
                <time>2012-05-19T22:55:25.000Z</time>
                <name>Position 1026</name>
            </trkpt>
            <trkpt lon="9.710082" lat="47.83605">
                <ele>528.3936959999985</ele>
                <time>2012-05-19T22:55:30.000Z</time>
                <name>Position 1027</name>
            </trkpt>
            <trkpt lon="9.71024" lat="47.836089">
                <ele>529.5806496000033</ele>
                <time>2012-05-19T22:55:34.000Z</time>
                <name>Position 1028</name>
            </trkpt>
            <trkpt lon="9.710381" lat="47.836169">
                <ele>530.4554390400031</ele>
                <time>2012-05-19T22:55:39.000Z</time>
                <name>Position 1029</name>
            </trkpt>
            <trkpt lon="9.710509" lat="47.836262">
                <ele>531.0156268800071</ele>
                <time>2012-05-19T22:55:44.000Z</time>
                <name>Position 1030</name>
            </trkpt>
            <trkpt lon="9.710659" lat="47.836321">
                <ele>531.634943040007</ele>
                <time>2012-05-19T22:55:49.000Z</time>
                <name>Position 1031</name>
            </trkpt>
            <trkpt lon="9.710771" lat="47.836403">
                <ele>531.7903996800129</ele>
                <time>2012-05-19T22:55:53.000Z</time>
                <name>Position 1032</name>
            </trkpt>
            <trkpt lon="9.710912" lat="47.836495">
                <ele>532.0631712000077</ele>
                <time>2012-05-19T22:55:59.000Z</time>
                <name>Position 1033</name>
            </trkpt>
            <trkpt lon="9.711071" lat="47.836598">
                <ele>532.2408038399839</ele>
                <time>2012-05-19T22:56:05.000Z</time>
                <name>Position 1034</name>
            </trkpt>
            <trkpt lon="9.711241" lat="47.836719">
                <ele>531.8915999999725</ele>
                <time>2012-05-19T22:56:11.000Z</time>
                <name>Position 1035</name>
            </trkpt>
            <trkpt lon="9.711426" lat="47.836814">
                <ele>531.753600000031</ele>
                <time>2012-05-19T22:56:18.000Z</time>
                <name>Position 1036</name>
            </trkpt>
            <trkpt lon="9.71158" lat="47.836905">
                <ele>531.509999999981</ele>
                <time>2012-05-19T22:56:23.000Z</time>
                <name>Position 1037</name>
            </trkpt>
            <trkpt lon="9.711765" lat="47.837012">
                <ele>531.9621055999803</ele>
                <time>2012-05-19T22:56:30.000Z</time>
                <name>Position 1038</name>
            </trkpt>
            <trkpt lon="9.711945" lat="47.837107">
                <ele>532.8510007999577</ele>
                <time>2012-05-19T22:56:36.000Z</time>
                <name>Position 1039</name>
            </trkpt>
            <trkpt lon="9.71211" lat="47.83719">
                <ele>533.4253279999963</ele>
                <time>2012-05-19T22:56:41.000Z</time>
                <name>Position 1040</name>
            </trkpt>
            <trkpt lon="9.712295" lat="47.837233">
                <ele>534.5986712000323</ele>
                <time>2012-05-19T22:56:47.000Z</time>
                <name>Position 1041</name>
            </trkpt>
            <trkpt lon="9.712502" lat="47.837319">
                <ele>534.9937702399901</ele>
                <time>2012-05-19T22:56:53.000Z</time>
                <name>Position 1042</name>
            </trkpt>
            <trkpt lon="9.71274" lat="47.83741">
                <ele>535.2048320000356</ele>
                <time>2012-05-19T22:57:00.000Z</time>
                <name>Position 1043</name>
            </trkpt>
            <trkpt lon="9.712909" lat="47.83746">
                <ele>535.4012671999961</ele>
                <time>2012-05-19T22:57:05.000Z</time>
                <name>Position 1044</name>
            </trkpt>
            <trkpt lon="9.713032" lat="47.83757">
                <ele>534.2920256000086</ele>
                <time>2012-05-19T22:57:11.000Z</time>
                <name>Position 1045</name>
            </trkpt>
            <trkpt lon="9.713147" lat="47.837682">
                <ele>533.4887657599814</ele>
                <time>2012-05-19T22:57:16.000Z</time>
                <name>Position 1046</name>
            </trkpt>
            <trkpt lon="9.713264" lat="47.837819">
                <ele>532.3753510399581</ele>
                <time>2012-05-19T22:57:23.000Z</time>
                <name>Position 1047</name>
            </trkpt>
            <trkpt lon="9.713392" lat="47.837936">
                <ele>531.8216332800195</ele>
                <time>2012-05-19T22:57:29.000Z</time>
                <name>Position 1048</name>
            </trkpt>
            <trkpt lon="9.713473" lat="47.838036">
                <ele>531.2302003199701</ele>
                <time>2012-05-19T22:57:33.000Z</time>
                <name>Position 1049</name>
            </trkpt>
            <trkpt lon="9.713555" lat="47.838119">
                <ele>530.9119848000095</ele>
                <time>2012-05-19T22:57:37.000Z</time>
                <name>Position 1050</name>
            </trkpt>
            <trkpt lon="9.713682" lat="47.838208">
                <ele>531.0074726399813</ele>
                <time>2012-05-19T22:57:42.000Z</time>
                <name>Position 1051</name>
            </trkpt>
            <trkpt lon="9.713834" lat="47.838304">
                <ele>531.3084518399918</ele>
                <time>2012-05-19T22:57:48.000Z</time>
                <name>Position 1052</name>
            </trkpt>
            <trkpt lon="9.71398" lat="47.838421">
                <ele>531.4446240000324</ele>
                <time>2012-05-19T22:57:54.000Z</time>
                <name>Position 1053</name>
            </trkpt>
            <trkpt lon="9.714097" lat="47.838552">
                <ele>530.9708832000066</ele>
                <time>2012-05-19T22:58:00.000Z</time>
                <name>Position 1054</name>
            </trkpt>
            <trkpt lon="9.714174" lat="47.838674">
                <ele>530.1019923200312</ele>
                <time>2012-05-19T22:58:05.000Z</time>
                <name>Position 1055</name>
            </trkpt>
            <trkpt lon="9.714296" lat="47.838793">
                <ele>530.2412249599555</ele>
                <time>2012-05-19T22:58:11.000Z</time>
                <name>Position 1056</name>
            </trkpt>
            <trkpt lon="9.714369" lat="47.83889">
                <ele>530.066571200003</ele>
                <time>2012-05-19T22:58:15.000Z</time>
                <name>Position 1057</name>
            </trkpt>
            <trkpt lon="9.714413" lat="47.839001">
                <ele>529.3533041599667</ele>
                <time>2012-05-19T22:58:20.000Z</time>
                <name>Position 1058</name>
            </trkpt>
            <trkpt lon="9.71451" lat="47.83913">
                <ele>529.2856160000416</ele>
                <time>2012-05-19T22:58:26.000Z</time>
                <name>Position 1059</name>
            </trkpt>
            <trkpt lon="9.714561" lat="47.839195">
                <ele>529.2651560000431</ele>
                <time>2012-05-19T22:58:29.000Z</time>
                <name>Position 1060</name>
            </trkpt>
            <trkpt lon="9.714605" lat="47.839217">
                <ele>529.6355480000386</ele>
                <time>2012-05-19T22:58:30.000Z</time>
                <name>Position 1061</name>
            </trkpt>
            <trkpt lon="9.714607" lat="47.839212">
                <ele>529.7358751999659</ele>
                <time>2012-05-19T22:58:30.000Z</time>
                <name>Position 1062</name>
            </trkpt>
            <trkpt lon="9.714601" lat="47.839226">
                <ele>529.4492528000496</ele>
                <time>2012-05-19T22:58:31.000Z</time>
                <name>Position 1063</name>
            </trkpt>
            <trkpt lon="9.714601" lat="47.839232">
                <ele>529.3656895999637</ele>
                <time>2012-05-19T22:58:31.000Z</time>
                <name>Position 1064</name>
            </trkpt>
            <trkpt lon="9.71459" lat="47.83924">
                <ele>529.0884800000371</ele>
                <time>2012-05-19T22:58:32.000Z</time>
                <name>Position 1065</name>
            </trkpt>
            <trkpt lon="9.714559" lat="47.839223">
                <ele>528.852869600034</ele>
                <time>2012-05-19T22:58:33.000Z</time>
                <name>Position 1066</name>
            </trkpt>
            <trkpt lon="9.714557" lat="47.839217">
                <ele>528.9041432000168</ele>
                <time>2012-05-19T22:58:33.000Z</time>
                <name>Position 1067</name>
            </trkpt>
            <trkpt lon="9.714546" lat="47.839218">
                <ele>528.7229983999719</ele>
                <time>2012-05-19T22:58:33.000Z</time>
                <name>Position 1068</name>
            </trkpt>
            <trkpt lon="9.714531" lat="47.839213">
                <ele>528.561658399975</ele>
                <time>2012-05-19T22:58:34.000Z</time>
                <name>Position 1069</name>
            </trkpt>
            <trkpt lon="9.714528" lat="47.839212">
                <ele>528.5292607999484</ele>
                <time>2012-05-19T22:58:34.000Z</time>
                <name>Position 1070</name>
            </trkpt>
            <trkpt lon="9.714526" lat="47.839206">
                <ele>528.5790368000266</ele>
                <time>2012-05-19T22:58:34.000Z</time>
                <name>Position 1071</name>
            </trkpt>
            <trkpt lon="9.714526" lat="47.839212">
                <ele>528.4987135999442</ele>
                <time>2012-05-19T22:58:34.000Z</time>
                <name>Position 1072</name>
            </trkpt>
            <trkpt lon="9.714526" lat="47.839218">
                <ele>528.4183903999567</ele>
                <time>2012-05-19T22:58:34.000Z</time>
                <name>Position 1073</name>
            </trkpt>
            <trkpt lon="9.714528" lat="47.839224">
                <ele>528.3684415999735</ele>
                <time>2012-05-19T22:58:35.000Z</time>
                <name>Position 1074</name>
            </trkpt>
            <trkpt lon="9.714526" lat="47.839212">
                <ele>528.4987135999442</ele>
                <time>2012-05-19T22:58:35.000Z</time>
                <name>Position 1075</name>
            </trkpt>
            <trkpt lon="9.714526" lat="47.839206">
                <ele>528.5790368000266</ele>
                <time>2012-05-19T22:58:35.000Z</time>
                <name>Position 1076</name>
            </trkpt>
            <trkpt lon="9.714524" lat="47.839205">
                <ele>528.5617760000158</ele>
                <time>2012-05-19T22:58:35.000Z</time>
                <name>Position 1077</name>
            </trkpt>
            <trkpt lon="9.714522" lat="47.839193">
                <ele>528.6914287999865</ele>
                <time>2012-05-19T22:58:36.000Z</time>
                <name>Position 1078</name>
            </trkpt>
            <trkpt lon="9.714524" lat="47.839199">
                <ele>528.6420128000033</ele>
                <time>2012-05-19T22:58:36.000Z</time>
                <name>Position 1079</name>
            </trkpt>
            <trkpt lon="9.714511" lat="47.8392">
                <ele>528.4289600000226</ele>
                <time>2012-05-19T22:58:37.000Z</time>
                <name>Position 1080</name>
            </trkpt>
            <trkpt lon="9.714498" lat="47.839201">
                <ele>528.2160943999751</ele>
                <time>2012-05-19T22:58:37.000Z</time>
                <name>Position 1081</name>
            </trkpt>
            <trkpt lon="9.7145" lat="47.839208">
                <ele>528.1543999999977</ele>
                <time>2012-05-19T22:58:37.000Z</time>
                <name>Position 1082</name>
            </trkpt>
            <trkpt lon="9.7145" lat="47.839214">
                <ele>528.0752000000102</ele>
                <time>2012-05-19T22:58:37.000Z</time>
                <name>Position 1083</name>
            </trkpt>
            <trkpt lon="9.714502" lat="47.839227">
                <ele>527.9339311999788</ele>
                <time>2012-05-19T22:58:38.000Z</time>
                <name>Position 1084</name>
            </trkpt>
            <trkpt lon="9.714489" lat="47.839228">
                <ele>527.7236576000248</ele>
                <time>2012-05-19T22:58:38.000Z</time>
                <name>Position 1085</name>
            </trkpt>
            <trkpt lon="9.714489" lat="47.839234">
                <ele>527.6449328000372</ele>
                <time>2012-05-19T22:58:39.000Z</time>
                <name>Position 1086</name>
            </trkpt>
            <trkpt lon="9.714487" lat="47.839227">
                <ele>527.7064471999875</ele>
                <time>2012-05-19T22:58:39.000Z</time>
                <name>Position 1087</name>
            </trkpt>
            <trkpt lon="9.714484" lat="47.839227">
                <ele>527.6609503999946</ele>
                <time>2012-05-19T22:58:39.000Z</time>
                <name>Position 1088</name>
            </trkpt>
            <trkpt lon="9.7145" lat="47.839238">
                <ele>527.7583999999661</ele>
                <time>2012-05-19T22:58:40.000Z</time>
                <name>Position 1089</name>
            </trkpt>
            <trkpt lon="9.714535" lat="47.83928">
                <ele>527.7214399999652</ele>
                <time>2012-05-19T22:58:41.000Z</time>
                <name>Position 1090</name>
            </trkpt>
            <trkpt lon="9.714586" lat="47.83934">
                <ele>527.646272000009</ele>
                <time>2012-05-19T22:58:44.000Z</time>
                <name>Position 1091</name>
            </trkpt>
            <trkpt lon="9.71463" lat="47.839439">
                <ele>526.8782960000135</ele>
                <time>2012-05-19T22:58:48.000Z</time>
                <name>Position 1092</name>
            </trkpt>
            <trkpt lon="9.714655" lat="47.839531">
                <ele>525.9022039999933</ele>
                <time>2012-05-19T22:58:52.000Z</time>
                <name>Position 1093</name>
            </trkpt>
            <trkpt lon="9.714686" lat="47.839649">
                <ele>524.5888591999841</ele>
                <time>2012-05-19T22:58:57.000Z</time>
                <name>Position 1094</name>
            </trkpt>
            <trkpt lon="9.714748" lat="47.839807">
                <ele>522.9730207999958</ele>
                <time>2012-05-19T22:59:03.000Z</time>
                <name>Position 1095</name>
            </trkpt>
            <trkpt lon="9.714808" lat="47.839934">
                <ele>521.6743616000044</ele>
                <time>2012-05-19T22:59:09.000Z</time>
                <name>Position 1096</name>
            </trkpt>
            <trkpt lon="9.714838" lat="47.840056">
                <ele>520.7805094400111</ele>
                <time>2012-05-19T22:59:14.000Z</time>
                <name>Position 1097</name>
            </trkpt>
            <trkpt lon="9.714907" lat="47.840263">
                <ele>520.6265676800003</ele>
                <time>2012-05-19T22:59:22.000Z</time>
                <name>Position 1098</name>
            </trkpt>
            <trkpt lon="9.714991" lat="47.840417">
                <ele>520.4552345599873</ele>
                <time>2012-05-19T22:59:29.000Z</time>
                <name>Position 1099</name>
            </trkpt>
            <trkpt lon="9.71502" lat="47.840562">
                <ele>520.2092864000241</ele>
                <time>2012-05-19T22:59:35.000Z</time>
                <name>Position 1100</name>
            </trkpt>
            <trkpt lon="9.715005" lat="47.840704">
                <ele>519.2163871999811</ele>
                <time>2012-05-19T22:59:40.000Z</time>
                <name>Position 1101</name>
            </trkpt>
            <trkpt lon="9.714993" lat="47.840841">
                <ele>518.5639363199784</ele>
                <time>2012-05-19T22:59:46.000Z</time>
                <name>Position 1102</name>
            </trkpt>
            <trkpt lon="9.714994" lat="47.841029">
                <ele>520.1334566399914</ele>
                <time>2012-05-19T22:59:53.000Z</time>
                <name>Position 1103</name>
            </trkpt>
            <trkpt lon="9.714951" lat="47.841167">
                <ele>521.1615388799862</ele>
                <time>2012-05-19T22:59:59.000Z</time>
                <name>Position 1104</name>
            </trkpt>
            <trkpt lon="9.714912" lat="47.841318">
                <ele>522.2026982400075</ele>
                <time>2012-05-19T23:00:05.000Z</time>
                <name>Position 1105</name>
            </trkpt>
            <trkpt lon="9.714873" lat="47.84144">
                <ele>522.930316799993</ele>
                <time>2012-05-19T23:00:10.000Z</time>
                <name>Position 1106</name>
            </trkpt>
            <trkpt lon="9.714851" lat="47.841556">
                <ele>523.6400678399748</ele>
                <time>2012-05-19T23:00:15.000Z</time>
                <name>Position 1107</name>
            </trkpt>
            <trkpt lon="9.714839" lat="47.841699">
                <ele>524.2781923199994</ele>
                <time>2012-05-19T23:00:21.000Z</time>
                <name>Position 1108</name>
            </trkpt>
            <trkpt lon="9.714815" lat="47.841803">
                <ele>523.9134384000002</ele>
                <time>2012-05-19T23:00:25.000Z</time>
                <name>Position 1109</name>
            </trkpt>
            <trkpt lon="9.714816" lat="47.841879">
                <ele>523.7781196800072</ele>
                <time>2012-05-19T23:00:28.000Z</time>
                <name>Position 1110</name>
            </trkpt>
            <trkpt lon="9.714818" lat="47.841892">
                <ele>523.7669107199923</ele>
                <time>2012-05-19T23:00:28.000Z</time>
                <name>Position 1111</name>
            </trkpt>
            <trkpt lon="9.714875" lat="47.841959">
                <ele>524.0036399999892</ele>
                <time>2012-05-19T23:00:31.000Z</time>
                <name>Position 1112</name>
            </trkpt>
            <trkpt lon="9.714933" lat="47.842097">
                <ele>524.0678371199956</ele>
                <time>2012-05-19T23:00:37.000Z</time>
                <name>Position 1113</name>
            </trkpt>
            <trkpt lon="9.714989" lat="47.842247">
                <ele>524.0463849599943</ele>
                <time>2012-05-19T23:00:43.000Z</time>
                <name>Position 1114</name>
            </trkpt>
            <trkpt lon="9.714998" lat="47.842428">
                <ele>523.6627852800019</ele>
                <time>2012-05-19T23:00:51.000Z</time>
                <name>Position 1115</name>
            </trkpt>
            <trkpt lon="9.715034" lat="47.842606">
                <ele>523.3079999999615</ele>
                <time>2012-05-19T23:00:58.000Z</time>
                <name>Position 1116</name>
            </trkpt>
            <trkpt lon="9.71507" lat="47.842765">
                <ele>522.7680000000117</ele>
                <time>2012-05-19T23:01:04.000Z</time>
                <name>Position 1117</name>
            </trkpt>
            <trkpt lon="9.7151" lat="47.842905">
                <ele>522.2639999999797</ele>
                <time>2012-05-19T23:01:10.000Z</time>
                <name>Position 1118</name>
            </trkpt>
            <trkpt lon="9.7151" lat="47.843041">
                <ele>521.2847999999963</ele>
                <time>2012-05-19T23:01:15.000Z</time>
                <name>Position 1119</name>
            </trkpt>
            <trkpt lon="9.715163" lat="47.843151">
                <ele>521.5512000000143</ele>
                <time>2012-05-19T23:01:20.000Z</time>
                <name>Position 1120</name>
            </trkpt>
            <trkpt lon="9.715225" lat="47.84332">
                <ele>521.3760000000133</ele>
                <time>2012-05-19T23:01:27.000Z</time>
                <name>Position 1121</name>
            </trkpt>
            <trkpt lon="9.715274" lat="47.843491">
                <ele>521.162346240011</ele>
                <time>2012-05-19T23:01:34.000Z</time>
                <name>Position 1122</name>
            </trkpt>
            <trkpt lon="9.715394" lat="47.843663">
                <ele>521.8101619200015</ele>
                <time>2012-05-19T23:01:42.000Z</time>
                <name>Position 1123</name>
            </trkpt>
            <trkpt lon="9.715443" lat="47.843774">
                <ele>521.6693395199808</ele>
                <time>2012-05-19T23:01:46.000Z</time>
                <name>Position 1124</name>
            </trkpt>
            <trkpt lon="9.715525" lat="47.843916">
                <ele>521.5794239999929</ele>
                <time>2012-05-19T23:01:52.000Z</time>
                <name>Position 1125</name>
            </trkpt>
            <trkpt lon="9.715591" lat="47.84408">
                <ele>520.9281408000141</ele>
                <time>2012-05-19T23:01:59.000Z</time>
                <name>Position 1126</name>
            </trkpt>
            <trkpt lon="9.715689" lat="47.844209">
                <ele>520.7451855999999</ele>
                <time>2012-05-19T23:02:05.000Z</time>
                <name>Position 1127</name>
            </trkpt>
            <trkpt lon="9.715784" lat="47.844343">
                <ele>520.2472671999743</ele>
                <time>2012-05-19T23:02:11.000Z</time>
                <name>Position 1128</name>
            </trkpt>
            <trkpt lon="9.715998" lat="47.844449">
                <ele>521.4170780800436</ele>
                <time>2012-05-19T23:02:18.000Z</time>
                <name>Position 1129</name>
            </trkpt>
            <trkpt lon="9.71622" lat="47.844534">
                <ele>522.7240191999508</ele>
                <time>2012-05-19T23:02:25.000Z</time>
                <name>Position 1130</name>
            </trkpt>
            <trkpt lon="9.716433" lat="47.844582">
                <ele>524.141362239955</ele>
                <time>2012-05-19T23:02:31.000Z</time>
                <name>Position 1131</name>
            </trkpt>
            <trkpt lon="9.716634" lat="47.844652">
                <ele>524.7126707199343</ele>
                <time>2012-05-19T23:02:37.000Z</time>
                <name>Position 1132</name>
            </trkpt>
            <trkpt lon="9.716814" lat="47.844705">
                <ele>525.6728848000505</ele>
                <time>2012-05-19T23:02:42.000Z</time>
                <name>Position 1133</name>
            </trkpt>
            <trkpt lon="9.717019" lat="47.844754">
                <ele>526.896495039961</ele>
                <time>2012-05-19T23:02:48.000Z</time>
                <name>Position 1134</name>
            </trkpt>
            <trkpt lon="9.717208" lat="47.844798">
                <ele>527.8275673600732</ele>
                <time>2012-05-19T23:02:53.000Z</time>
                <name>Position 1135</name>
            </trkpt>
            <trkpt lon="9.717389" lat="47.84485">
                <ele>528.2118159999789</ele>
                <time>2012-05-19T23:02:59.000Z</time>
                <name>Position 1136</name>
            </trkpt>
            <trkpt lon="9.717578" lat="47.844917">
                <ele>528.546212799917</ele>
                <time>2012-05-19T23:03:05.000Z</time>
                <name>Position 1137</name>
            </trkpt>
            <trkpt lon="9.717743" lat="47.845">
                <ele>528.5824000000484</ele>
                <time>2012-05-19T23:03:10.000Z</time>
                <name>Position 1138</name>
            </trkpt>
            <trkpt lon="9.717924" lat="47.845088">
                <ele>529.9761779200584</ele>
                <time>2012-05-19T23:03:16.000Z</time>
                <name>Position 1139</name>
            </trkpt>
            <trkpt lon="9.718076" lat="47.845196">
                <ele>530.0365273599712</ele>
                <time>2012-05-19T23:03:22.000Z</time>
                <name>Position 1140</name>
            </trkpt>
            <trkpt lon="9.718259" lat="47.845315">
                <ele>529.684093600014</ele>
                <time>2012-05-19T23:03:29.000Z</time>
                <name>Position 1141</name>
            </trkpt>
            <trkpt lon="9.718426" lat="47.845405">
                <ele>529.7489408000002</ele>
                <time>2012-05-19T23:03:35.000Z</time>
                <name>Position 1142</name>
            </trkpt>
            <trkpt lon="9.718591" lat="47.8455">
                <ele>529.7340799999671</ele>
                <time>2012-05-19T23:03:40.000Z</time>
                <name>Position 1143</name>
            </trkpt>
            <trkpt lon="9.718686" lat="47.845593">
                <ele>528.5207052799747</ele>
                <time>2012-05-19T23:03:45.000Z</time>
                <name>Position 1144</name>
            </trkpt>
            <trkpt lon="9.718805" lat="47.845684">
                <ele>527.5317632000404</ele>
                <time>2012-05-19T23:03:50.000Z</time>
                <name>Position 1145</name>
            </trkpt>
            <trkpt lon="9.71897" lat="47.845785">
                <ele>526.6238720000291</ele>
                <time>2012-05-19T23:03:56.000Z</time>
                <name>Position 1146</name>
            </trkpt>
            <trkpt lon="9.719148" lat="47.845903">
                <ele>526.7095264000078</ele>
                <time>2012-05-19T23:04:03.000Z</time>
                <name>Position 1147</name>
            </trkpt>
            <trkpt lon="9.71934" lat="47.846014">
                <ele>528.3532672000481</ele>
                <time>2012-05-19T23:04:09.000Z</time>
                <name>Position 1148</name>
            </trkpt>
            <trkpt lon="9.719494" lat="47.846135">
                <ele>528.758876800037</ele>
                <time>2012-05-19T23:04:16.000Z</time>
                <name>Position 1149</name>
            </trkpt>
            <trkpt lon="9.719646" lat="47.846231">
                <ele>528.9185747199413</ele>
                <time>2012-05-19T23:04:21.000Z</time>
                <name>Position 1150</name>
            </trkpt>
            <trkpt lon="9.719789" lat="47.846354">
                <ele>527.9823923200423</ele>
                <time>2012-05-19T23:04:28.000Z</time>
                <name>Position 1151</name>
            </trkpt>
            <trkpt lon="9.719913" lat="47.846482">
                <ele>526.2239795199652</ele>
                <time>2012-05-19T23:04:34.000Z</time>
                <name>Position 1152</name>
            </trkpt>
            <trkpt lon="9.720041" lat="47.846575">
                <ele>525.1582599999708</ele>
                <time>2012-05-19T23:04:39.000Z</time>
                <name>Position 1153</name>
            </trkpt>
            <trkpt lon="9.720217" lat="47.846685">
                <ele>525.2516543999926</ele>
                <time>2012-05-19T23:04:45.000Z</time>
                <name>Position 1154</name>
            </trkpt>
            <trkpt lon="9.720395" lat="47.846779">
                <ele>526.6776576000169</ele>
                <time>2012-05-19T23:04:51.000Z</time>
                <name>Position 1155</name>
            </trkpt>
            <trkpt lon="9.720591" lat="47.846814">
                <ele>528.4429612799815</ele>
                <time>2012-05-19T23:04:57.000Z</time>
                <name>Position 1156</name>
            </trkpt>
            <trkpt lon="9.720818" lat="47.846866">
                <ele>530.0016153600184</ele>
                <time>2012-05-19T23:05:03.000Z</time>
                <name>Position 1157</name>
            </trkpt>
            <trkpt lon="9.721066" lat="47.846903">
                <ele>530.7297132800492</ele>
                <time>2012-05-19T23:05:10.000Z</time>
                <name>Position 1158</name>
            </trkpt>
            <trkpt lon="9.721281" lat="47.84691">
                <ele>531.6940255999732</ele>
                <time>2012-05-19T23:05:16.000Z</time>
                <name>Position 1159</name>
            </trkpt>
            <trkpt lon="9.72149" lat="47.846873">
                <ele>533.5909471999469</ele>
                <time>2012-05-19T23:05:22.000Z</time>
                <name>Position 1160</name>
            </trkpt>
            <trkpt lon="9.721663" lat="47.846877">
                <ele>534.4322633600165</ele>
                <time>2012-05-19T23:05:26.000Z</time>
                <name>Position 1161</name>
            </trkpt>
            <trkpt lon="9.721869" lat="47.846804">
                <ele>535.9584806400276</ele>
                <time>2012-05-19T23:05:32.000Z</time>
                <name>Position 1162</name>
            </trkpt>
            <trkpt lon="9.722069" lat="47.846735">
                <ele>537.1319375999509</ele>
                <time>2012-05-19T23:05:39.000Z</time>
                <name>Position 1163</name>
            </trkpt>
            <trkpt lon="9.722248" lat="47.846706">
                <ele>537.3583603200465</ele>
                <time>2012-05-19T23:05:43.000Z</time>
                <name>Position 1164</name>
            </trkpt>
            <trkpt lon="9.722404" lat="47.846698">
                <ele>537.1780108799403</ele>
                <time>2012-05-19T23:05:48.000Z</time>
                <name>Position 1165</name>
            </trkpt>
            <trkpt lon="9.722543" lat="47.846749">
                <ele>536.0855923199566</ele>
                <time>2012-05-19T23:05:52.000Z</time>
                <name>Position 1166</name>
            </trkpt>
            <trkpt lon="9.72269" lat="47.846779">
                <ele>535.5077376000323</ele>
                <time>2012-05-19T23:05:56.000Z</time>
                <name>Position 1167</name>
            </trkpt>
            <trkpt lon="9.722846" lat="47.846854">
                <ele>534.3109478399936</ele>
                <time>2012-05-19T23:06:01.000Z</time>
                <name>Position 1168</name>
            </trkpt>
            <trkpt lon="9.723" lat="47.84691">
                <ele>533.5127999999842</ele>
                <time>2012-05-19T23:06:06.000Z</time>
                <name>Position 1169</name>
            </trkpt>
            <trkpt lon="9.723134" lat="47.846982">
                <ele>532.5931468800393</ele>
                <time>2012-05-19T23:06:11.000Z</time>
                <name>Position 1170</name>
            </trkpt>
            <trkpt lon="9.723262" lat="47.847099">
                <ele>531.2199628799996</ele>
                <time>2012-05-19T23:06:16.000Z</time>
                <name>Position 1171</name>
            </trkpt>
            <trkpt lon="9.723526" lat="47.847182">
                <ele>530.9213740800394</ele>
                <time>2012-05-19T23:06:24.000Z</time>
                <name>Position 1172</name>
            </trkpt>
            <trkpt lon="9.723732" lat="47.847215">
                <ele>531.1915872000172</ele>
                <time>2012-05-19T23:06:30.000Z</time>
                <name>Position 1173</name>
            </trkpt>
            <trkpt lon="9.723928" lat="47.847263">
                <ele>531.2818521600237</ele>
                <time>2012-05-19T23:06:35.000Z</time>
                <name>Position 1174</name>
            </trkpt>
            <trkpt lon="9.724148" lat="47.847283">
                <ele>531.7822329600273</ele>
                <time>2012-05-19T23:06:41.000Z</time>
                <name>Position 1175</name>
            </trkpt>
            <trkpt lon="9.724381" lat="47.847272">
                <ele>531.683389440044</ele>
                <time>2012-05-19T23:06:48.000Z</time>
                <name>Position 1176</name>
            </trkpt>
            <trkpt lon="9.724565" lat="47.847268">
                <ele>531.5031264000047</ele>
                <time>2012-05-19T23:06:53.000Z</time>
                <name>Position 1177</name>
            </trkpt>
            <trkpt lon="9.724732" lat="47.847259">
                <ele>531.4409529599828</ele>
                <time>2012-05-19T23:06:57.000Z</time>
                <name>Position 1178</name>
            </trkpt>
            <trkpt lon="9.724903" lat="47.84725">
                <ele>531.4047599999553</ele>
                <time>2012-05-19T23:07:02.000Z</time>
                <name>Position 1179</name>
            </trkpt>
            <trkpt lon="9.725094" lat="47.847207">
                <ele>531.8268604800501</ele>
                <time>2012-05-19T23:07:07.000Z</time>
                <name>Position 1180</name>
            </trkpt>
            <trkpt lon="9.725258" lat="47.847155">
                <ele>532.3233743999849</ele>
                <time>2012-05-19T23:07:12.000Z</time>
                <name>Position 1181</name>
            </trkpt>
            <trkpt lon="9.725438" lat="47.847078">
                <ele>533.2917638399331</ele>
                <time>2012-05-19T23:07:18.000Z</time>
                <name>Position 1182</name>
            </trkpt>
            <trkpt lon="9.725631" lat="47.847005">
                <ele>534.1821767999426</ele>
                <time>2012-05-19T23:07:24.000Z</time>
                <name>Position 1183</name>
            </trkpt>
            <trkpt lon="9.725806" lat="47.846945">
                <ele>534.8985552000389</ele>
                <time>2012-05-19T23:07:29.000Z</time>
                <name>Position 1184</name>
            </trkpt>
            <trkpt lon="9.725944" lat="47.846895">
                <ele>534.9506463999342</ele>
                <time>2012-05-19T23:07:33.000Z</time>
                <name>Position 1185</name>
            </trkpt>
            <trkpt lon="9.726082" lat="47.846851">
                <ele>534.5476729599865</ele>
                <time>2012-05-19T23:07:37.000Z</time>
                <name>Position 1186</name>
            </trkpt>
            <trkpt lon="9.726231" lat="47.846811">
                <ele>533.7754124799645</ele>
                <time>2012-05-19T23:07:42.000Z</time>
                <name>Position 1187</name>
            </trkpt>
            <trkpt lon="9.726427" lat="47.846751">
                <ele>532.5207385600323</ele>
                <time>2012-05-19T23:07:47.000Z</time>
                <name>Position 1188</name>
            </trkpt>
            <trkpt lon="9.726578" lat="47.846664">
                <ele>531.6130214400581</ele>
                <time>2012-05-19T23:07:53.000Z</time>
                <name>Position 1189</name>
            </trkpt>
            <trkpt lon="9.726696" lat="47.846577">
                <ele>531.8800748799368</ele>
                <time>2012-05-19T23:07:57.000Z</time>
                <name>Position 1190</name>
            </trkpt>
            <trkpt lon="9.72682" lat="47.846433">
                <ele>533.2924384000426</ele>
                <time>2012-05-19T23:08:04.000Z</time>
                <name>Position 1191</name>
            </trkpt>
            <trkpt lon="9.726958" lat="47.846336">
                <ele>533.5220723199907</ele>
                <time>2012-05-19T23:08:10.000Z</time>
                <name>Position 1192</name>
            </trkpt>
            <trkpt lon="9.727004" lat="47.846306">
                <ele>533.5120153600161</ele>
                <time>2012-05-19T23:08:11.000Z</time>
                <name>Position 1193</name>
            </trkpt>
            <trkpt lon="9.72714" lat="47.846285">
                <ele>532.4011359999739</ele>
                <time>2012-05-19T23:08:15.000Z</time>
                <name>Position 1194</name>
            </trkpt>
            <trkpt lon="9.727254" lat="47.846244">
                <ele>531.7343526400157</ele>
                <time>2012-05-19T23:08:18.000Z</time>
                <name>Position 1195</name>
            </trkpt>
            <trkpt lon="9.727403" lat="47.846198">
                <ele>530.6527801599807</ele>
                <time>2012-05-19T23:08:23.000Z</time>
                <name>Position 1196</name>
            </trkpt>
            <trkpt lon="9.727567" lat="47.846164">
                <ele>530.1521190399856</ele>
                <time>2012-05-19T23:08:27.000Z</time>
                <name>Position 1197</name>
            </trkpt>
            <trkpt lon="9.727753" lat="47.846096">
                <ele>531.333063039977</ele>
                <time>2012-05-19T23:08:33.000Z</time>
                <name>Position 1198</name>
            </trkpt>
            <trkpt lon="9.727911" lat="47.846012">
                <ele>532.31059455999</ele>
                <time>2012-05-19T23:08:39.000Z</time>
                <name>Position 1199</name>
            </trkpt>
            <trkpt lon="9.728051" lat="47.845885">
                <ele>533.2289607999869</ele>
                <time>2012-05-19T23:08:45.000Z</time>
                <name>Position 1200</name>
            </trkpt>
            <trkpt lon="9.72816" lat="47.845706">
                <ele>535.5426304000008</ele>
                <time>2012-05-19T23:08:53.000Z</time>
                <name>Position 1201</name>
            </trkpt>
            <trkpt lon="9.728265" lat="47.845602">
                <ele>536.4764272000048</ele>
                <time>2012-05-19T23:08:58.000Z</time>
                <name>Position 1202</name>
            </trkpt>
            <trkpt lon="9.728348" lat="47.845549">
                <ele>536.581564160019</ele>
                <time>2012-05-19T23:09:01.000Z</time>
                <name>Position 1203</name>
            </trkpt>
            <trkpt lon="9.728471" lat="47.845512">
                <ele>537.0200921600069</ele>
                <time>2012-05-19T23:09:04.000Z</time>
                <name>Position 1204</name>
            </trkpt>
            <trkpt lon="9.72855" lat="47.845517">
                <ele>537.0055279999925</ele>
                <time>2012-05-19T23:09:07.000Z</time>
                <name>Position 1205</name>
            </trkpt>
            <trkpt lon="9.728688" lat="47.845485">
                <ele>537.293494400026</ele>
                <time>2012-05-19T23:09:10.000Z</time>
                <name>Position 1206</name>
            </trkpt>
            <trkpt lon="9.728802" lat="47.845397">
                <ele>537.8382915200103</ele>
                <time>2012-05-19T23:09:15.000Z</time>
                <name>Position 1207</name>
            </trkpt>
            <trkpt lon="9.728884" lat="47.845286">
                <ele>538.3555059199911</ele>
                <time>2012-05-19T23:09:20.000Z</time>
                <name>Position 1208</name>
            </trkpt>
            <trkpt lon="9.728948" lat="47.845215">
                <ele>538.5597055999839</ele>
                <time>2012-05-19T23:09:23.000Z</time>
                <name>Position 1209</name>
            </trkpt>
            <trkpt lon="9.729028" lat="47.845175">
                <ele>538.500992000011</ele>
                <time>2012-05-19T23:09:26.000Z</time>
                <name>Position 1210</name>
            </trkpt>
            <trkpt lon="9.72914" lat="47.84508">
                <ele>538.4144959999957</ele>
                <time>2012-05-19T23:09:31.000Z</time>
                <name>Position 1211</name>
            </trkpt>
            <trkpt lon="9.729251" lat="47.845026">
                <ele>538.1403148800078</ele>
                <time>2012-05-19T23:09:35.000Z</time>
                <name>Position 1212</name>
            </trkpt>
            <trkpt lon="9.729315" lat="47.844937">
                <ele>538.898147999979</ele>
                <time>2012-05-19T23:09:39.000Z</time>
                <name>Position 1213</name>
            </trkpt>
            <trkpt lon="9.729397" lat="47.844748">
                <ele>540.9530495999614</ele>
                <time>2012-05-19T23:09:46.000Z</time>
                <name>Position 1214</name>
            </trkpt>
            <trkpt lon="9.729457" lat="47.84465">
                <ele>541.5598799999842</ele>
                <time>2012-05-19T23:09:51.000Z</time>
                <name>Position 1215</name>
            </trkpt>
            <trkpt lon="9.729496" lat="47.844522">
                <ele>542.5180992000363</ele>
                <time>2012-05-19T23:09:56.000Z</time>
                <name>Position 1216</name>
            </trkpt>
            <trkpt lon="9.729546" lat="47.844361">
                <ele>543.4006896000242</ele>
                <time>2012-05-19T23:10:02.000Z</time>
                <name>Position 1217</name>
            </trkpt>
            <trkpt lon="9.729552" lat="47.844185">
                <ele>544.9993919999729</ele>
                <time>2012-05-19T23:10:10.000Z</time>
                <name>Position 1218</name>
            </trkpt>
            <trkpt lon="9.729578" lat="47.84413">
                <ele>544.6809184000007</ele>
                <time>2012-05-19T23:10:12.000Z</time>
                <name>Position 1219</name>
            </trkpt>
            <trkpt lon="9.729586" lat="47.844092">
                <ele>544.5770867200084</ele>
                <time>2012-05-19T23:10:13.000Z</time>
                <name>Position 1220</name>
            </trkpt>
            <trkpt lon="9.729615" lat="47.844013">
                <ele>544.0996071999907</ele>
                <time>2012-05-19T23:10:17.000Z</time>
                <name>Position 1221</name>
            </trkpt>
            <trkpt lon="9.729651" lat="47.843915">
                <ele>543.5159223999862</ele>
                <time>2012-05-19T23:10:21.000Z</time>
                <name>Position 1222</name>
            </trkpt>
            <trkpt lon="9.729662" lat="47.843907">
                <ele>543.2976150400121</ele>
                <time>2012-05-19T23:10:21.000Z</time>
                <name>Position 1223</name>
            </trkpt>
            <trkpt lon="9.729651" lat="47.843844">
                <ele>543.6506406399966</ele>
                <time>2012-05-19T23:10:24.000Z</time>
                <name>Position 1224</name>
            </trkpt>
            <trkpt lon="9.729642" lat="47.843674">
                <ele>544.161220479999</ele>
                <time>2012-05-19T23:10:30.000Z</time>
                <name>Position 1225</name>
            </trkpt>
            <trkpt lon="9.729634" lat="47.84356">
                <ele>544.5418623999918</ele>
                <time>2012-05-19T23:10:35.000Z</time>
                <name>Position 1226</name>
            </trkpt>
            <trkpt lon="9.729621" lat="47.843472">
                <ele>544.9744787200075</ele>
                <time>2012-05-19T23:10:39.000Z</time>
                <name>Position 1227</name>
            </trkpt>
            <trkpt lon="9.729607" lat="47.843415">
                <ele>545.3674168000078</ele>
                <time>2012-05-19T23:10:41.000Z</time>
                <name>Position 1228</name>
            </trkpt>
            <trkpt lon="9.729602" lat="47.843337">
                <ele>545.6125014400076</ele>
                <time>2012-05-19T23:10:44.000Z</time>
                <name>Position 1229</name>
            </trkpt>
            <trkpt lon="9.7296" lat="47.843259">
                <ele>546.2415839999843</ele>
                <time>2012-05-19T23:10:47.000Z</time>
                <name>Position 1230</name>
            </trkpt>
            <trkpt lon="9.729615" lat="47.8432">
                <ele>546.4000799999618</ele>
                <time>2012-05-19T23:10:50.000Z</time>
                <name>Position 1231</name>
            </trkpt>
            <trkpt lon="9.729658" lat="47.843062">
                <ele>546.6223737599638</ele>
                <time>2012-05-19T23:10:55.000Z</time>
                <name>Position 1232</name>
            </trkpt>
            <trkpt lon="9.729715" lat="47.842869">
                <ele>547.0238375999882</ele>
                <time>2012-05-19T23:11:03.000Z</time>
                <name>Position 1233</name>
            </trkpt>
            <trkpt lon="9.729775" lat="47.842744">
                <ele>546.8494559999741</ele>
                <time>2012-05-19T23:11:08.000Z</time>
                <name>Position 1234</name>
            </trkpt>
            <trkpt lon="9.729823" lat="47.842631">
                <ele>546.8313892800306</ele>
                <time>2012-05-19T23:11:13.000Z</time>
                <name>Position 1235</name>
            </trkpt>
            <trkpt lon="9.729893" lat="47.84255">
                <ele>546.1421039999676</ele>
                <time>2012-05-19T23:11:17.000Z</time>
                <name>Position 1236</name>
            </trkpt>
            <trkpt lon="9.729985" lat="47.842441">
                <ele>545.4353952000074</ele>
                <time>2012-05-19T23:11:22.000Z</time>
                <name>Position 1237</name>
            </trkpt>
            <trkpt lon="9.730053" lat="47.842341">
                <ele>545.175330240031</ele>
                <time>2012-05-19T23:11:26.000Z</time>
                <name>Position 1238</name>
            </trkpt>
            <trkpt lon="9.730144" lat="47.842238">
                <ele>544.4561433599982</ele>
                <time>2012-05-19T23:11:31.000Z</time>
                <name>Position 1239</name>
            </trkpt>
            <trkpt lon="9.730249" lat="47.842134">
                <ele>543.409534079975</ele>
                <time>2012-05-19T23:11:36.000Z</time>
                <name>Position 1240</name>
            </trkpt>
            <trkpt lon="9.730368" lat="47.842047">
                <ele>541.8466924799862</ele>
                <time>2012-05-19T23:11:41.000Z</time>
                <name>Position 1241</name>
            </trkpt>
            <trkpt lon="9.730462" lat="47.841963">
                <ele>540.714689280019</ele>
                <time>2012-05-19T23:11:45.000Z</time>
                <name>Position 1242</name>
            </trkpt>
            <trkpt lon="9.730567" lat="47.841878">
                <ele>539.3154988799774</ele>
                <time>2012-05-19T23:11:49.000Z</time>
                <name>Position 1243</name>
            </trkpt>
            <trkpt lon="9.730663" lat="47.841818">
                <ele>537.8337619199742</ele>
                <time>2012-05-19T23:11:53.000Z</time>
                <name>Position 1244</name>
            </trkpt>
            <trkpt lon="9.730735" lat="47.841774">
                <ele>536.6920032000103</ele>
                <time>2012-05-19T23:11:55.000Z</time>
                <name>Position 1245</name>
            </trkpt>
            <trkpt lon="9.730783" lat="47.841667">
                <ele>536.5843516799796</ele>
                <time>2012-05-19T23:12:00.000Z</time>
                <name>Position 1246</name>
            </trkpt>
            <trkpt lon="9.730868" lat="47.841545">
                <ele>537.6202111999418</ele>
                <time>2012-05-19T23:12:05.000Z</time>
                <name>Position 1247</name>
            </trkpt>
            <trkpt lon="9.73094" lat="47.841441">
                <ele>539.3979007999519</ele>
                <time>2012-05-19T23:12:10.000Z</time>
                <name>Position 1248</name>
            </trkpt>
            <trkpt lon="9.730994" lat="47.84132">
                <ele>541.2607615999538</ele>
                <time>2012-05-19T23:12:15.000Z</time>
                <name>Position 1249</name>
            </trkpt>
            <trkpt lon="9.731053" lat="47.841206">
                <ele>542.8642553600073</ele>
                <time>2012-05-19T23:12:20.000Z</time>
                <name>Position 1250</name>
            </trkpt>
            <trkpt lon="9.731116" lat="47.841081">
                <ele>544.4496819199654</ele>
                <time>2012-05-19T23:12:25.000Z</time>
                <name>Position 1251</name>
            </trkpt>
            <trkpt lon="9.731197" lat="47.840992">
                <ele>545.3171244800022</ele>
                <time>2012-05-19T23:12:29.000Z</time>
                <name>Position 1252</name>
            </trkpt>
            <trkpt lon="9.731264" lat="47.840875">
                <ele>546.4227200000405</ele>
                <time>2012-05-19T23:12:34.000Z</time>
                <name>Position 1253</name>
            </trkpt>
            <trkpt lon="9.731347" lat="47.840734">
                <ele>548.4346256000525</ele>
                <time>2012-05-19T23:12:40.000Z</time>
                <name>Position 1254</name>
            </trkpt>
            <trkpt lon="9.731445" lat="47.840598">
                <ele>550.4415919999964</ele>
                <time>2012-05-19T23:12:46.000Z</time>
                <name>Position 1255</name>
            </trkpt>
            <trkpt lon="9.731501" lat="47.840484">
                <ele>552.1986848000719</ele>
                <time>2012-05-19T23:12:51.000Z</time>
                <name>Position 1256</name>
            </trkpt>
            <trkpt lon="9.731571" lat="47.840392">
                <ele>553.3219903999702</ele>
                <time>2012-05-19T23:12:55.000Z</time>
                <name>Position 1257</name>
            </trkpt>
            <trkpt lon="9.731651" lat="47.840262">
                <ele>554.9424463999583</ele>
                <time>2012-05-19T23:13:01.000Z</time>
                <name>Position 1258</name>
            </trkpt>
            <trkpt lon="9.731741" lat="47.840159">
                <ele>555.3088129600122</ele>
                <time>2012-05-19T23:13:06.000Z</time>
                <name>Position 1259</name>
            </trkpt>
            <trkpt lon="9.731804" lat="47.840058">
                <ele>555.7805708800095</ele>
                <time>2012-05-19T23:13:10.000Z</time>
                <name>Position 1260</name>
            </trkpt>
            <trkpt lon="9.73185" lat="47.839933">
                <ele>556.438575999987</ele>
                <time>2012-05-19T23:13:15.000Z</time>
                <name>Position 1261</name>
            </trkpt>
            <trkpt lon="9.731924" lat="47.839806">
                <ele>556.2565772799835</ele>
                <time>2012-05-19T23:13:21.000Z</time>
                <name>Position 1262</name>
            </trkpt>
            <trkpt lon="9.731998" lat="47.839703">
                <ele>555.8754092799842</ele>
                <time>2012-05-19T23:13:25.000Z</time>
                <name>Position 1263</name>
            </trkpt>
            <trkpt lon="9.732059" lat="47.839602">
                <ele>555.7669081600169</ele>
                <time>2012-05-19T23:13:30.000Z</time>
                <name>Position 1264</name>
            </trkpt>
            <trkpt lon="9.732135" lat="47.839524">
                <ele>555.1576288000397</ele>
                <time>2012-05-19T23:13:33.000Z</time>
                <name>Position 1265</name>
            </trkpt>
            <trkpt lon="9.732194" lat="47.839416">
                <ele>555.2357324800056</ele>
                <time>2012-05-19T23:13:38.000Z</time>
                <name>Position 1266</name>
            </trkpt>
            <trkpt lon="9.732252" lat="47.839283">
                <ele>555.6510899199665</ele>
                <time>2012-05-19T23:13:44.000Z</time>
                <name>Position 1267</name>
            </trkpt>
            <trkpt lon="9.732305" lat="47.83919">
                <ele>555.7431039999733</ele>
                <time>2012-05-19T23:13:48.000Z</time>
                <name>Position 1268</name>
            </trkpt>
            <trkpt lon="9.732363" lat="47.839088">
                <ele>555.7690419200443</ele>
                <time>2012-05-19T23:13:52.000Z</time>
                <name>Position 1269</name>
            </trkpt>
            <trkpt lon="9.732391" lat="47.838999">
                <ele>556.1938491199924</ele>
                <time>2012-05-19T23:13:56.000Z</time>
                <name>Position 1270</name>
            </trkpt>
            <trkpt lon="9.732432" lat="47.838909">
                <ele>556.4311078400018</ele>
                <time>2012-05-19T23:13:59.000Z</time>
                <name>Position 1271</name>
            </trkpt>
            <trkpt lon="9.732502" lat="47.838805">
                <ele>556.3907839999918</ele>
                <time>2012-05-19T23:14:04.000Z</time>
                <name>Position 1272</name>
            </trkpt>
            <trkpt lon="9.732584" lat="47.838682">
                <ele>556.9465472000214</ele>
                <time>2012-05-19T23:14:09.000Z</time>
                <name>Position 1273</name>
            </trkpt>
            <trkpt lon="9.732623" lat="47.838544">
                <ele>557.8267328000085</ele>
                <time>2012-05-19T23:14:15.000Z</time>
                <name>Position 1274</name>
            </trkpt>
            <trkpt lon="9.732671" lat="47.838443">
                <ele>558.123243200019</ele>
                <time>2012-05-19T23:14:19.000Z</time>
                <name>Position 1275</name>
            </trkpt>
            <trkpt lon="9.732673" lat="47.838385">
                <ele>558.5795119999793</ele>
                <time>2012-05-19T23:14:22.000Z</time>
                <name>Position 1276</name>
            </trkpt>
            <trkpt lon="9.732714" lat="47.838259">
                <ele>558.6835737600032</ele>
                <time>2012-05-19T23:14:27.000Z</time>
                <name>Position 1277</name>
            </trkpt>
            <trkpt lon="9.732777" lat="47.83817">
                <ele>558.0345983999998</ele>
                <time>2012-05-19T23:14:31.000Z</time>
                <name>Position 1278</name>
            </trkpt>
            <trkpt lon="9.732807" lat="47.838045">
                <ele>557.9533344000084</ele>
                <time>2012-05-19T23:14:36.000Z</time>
                <name>Position 1279</name>
            </trkpt>
            <trkpt lon="9.732846" lat="47.837941">
                <ele>557.6188953599932</ele>
                <time>2012-05-19T23:14:40.000Z</time>
                <name>Position 1280</name>
            </trkpt>
            <trkpt lon="9.732868" lat="47.837907">
                <ele>557.3435097599997</ele>
                <time>2012-05-19T23:14:41.000Z</time>
                <name>Position 1281</name>
            </trkpt>
            <trkpt lon="9.732905" lat="47.837885">
                <ele>556.7741279999908</ele>
                <time>2012-05-19T23:14:43.000Z</time>
                <name>Position 1282</name>
            </trkpt>
            <trkpt lon="9.732951" lat="47.837843">
                <ele>556.0854316800036</ele>
                <time>2012-05-19T23:14:45.000Z</time>
                <name>Position 1283</name>
            </trkpt>
            <trkpt lon="9.733001" lat="47.837826">
                <ele>555.2567577600048</ele>
                <time>2012-05-19T23:14:46.000Z</time>
                <name>Position 1284</name>
            </trkpt>
            <trkpt lon="9.733032" lat="47.83779">
                <ele>554.7822528000094</ele>
                <time>2012-05-19T23:14:48.000Z</time>
                <name>Position 1285</name>
            </trkpt>
            <trkpt lon="9.733054" lat="47.837787">
                <ele>554.4014284800168</ele>
                <time>2012-05-19T23:14:49.000Z</time>
                <name>Position 1286</name>
            </trkpt>
            <trkpt lon="9.733069" lat="47.837768">
                <ele>554.1671539199981</ele>
                <time>2012-05-19T23:14:50.000Z</time>
                <name>Position 1287</name>
            </trkpt>
            <trkpt lon="9.733122" lat="47.837752">
                <ele>553.2508454400015</ele>
                <time>2012-05-19T23:14:51.000Z</time>
                <name>Position 1288</name>
            </trkpt>
            <trkpt lon="9.733174" lat="47.837699">
                <ele>552.3765657600003</ele>
                <time>2012-05-19T23:14:54.000Z</time>
                <name>Position 1289</name>
            </trkpt>
            <trkpt lon="9.733255" lat="47.837628">
                <ele>550.946246400004</ele>
                <time>2012-05-19T23:14:57.000Z</time>
                <name>Position 1290</name>
            </trkpt>
            <trkpt lon="9.733367" lat="47.837574">
                <ele>549.2755376000033</ele>
                <time>2012-05-19T23:15:01.000Z</time>
                <name>Position 1291</name>
            </trkpt>
            <trkpt lon="9.733501" lat="47.837505">
                <ele>548.2988359999977</ele>
                <time>2012-05-19T23:15:05.000Z</time>
                <name>Position 1292</name>
            </trkpt>
            <trkpt lon="9.733652" lat="47.837417">
                <ele>548.0492518399847</ele>
                <time>2012-05-19T23:15:11.000Z</time>
                <name>Position 1293</name>
            </trkpt>
            <trkpt lon="9.73377" lat="47.837324">
                <ele>548.0253247999793</ele>
                <time>2012-05-19T23:15:16.000Z</time>
                <name>Position 1294</name>
            </trkpt>
            <trkpt lon="9.733919" lat="47.83723">
                <ele>547.6123712000146</ele>
                <time>2012-05-19T23:15:21.000Z</time>
                <name>Position 1295</name>
            </trkpt>
            <trkpt lon="9.734065" lat="47.837135">
                <ele>547.0737439999797</ele>
                <time>2012-05-19T23:15:27.000Z</time>
                <name>Position 1296</name>
            </trkpt>
            <trkpt lon="9.734212" lat="47.837053">
                <ele>546.6679603200199</ele>
                <time>2012-05-19T23:15:32.000Z</time>
                <name>Position 1297</name>
            </trkpt>
            <trkpt lon="9.734346" lat="47.836971">
                <ele>547.1516179200124</ele>
                <time>2012-05-19T23:15:37.000Z</time>
                <name>Position 1298</name>
            </trkpt>
            <trkpt lon="9.734464" lat="47.836872">
                <ele>547.8457689600036</ele>
                <time>2012-05-19T23:15:42.000Z</time>
                <name>Position 1299</name>
            </trkpt>
            <trkpt lon="9.734639" lat="47.836788">
                <ele>548.4613478400128</ele>
                <time>2012-05-19T23:15:48.000Z</time>
                <name>Position 1300</name>
            </trkpt>
            <trkpt lon="9.734817" lat="47.83671">
                <ele>549.1068384000317</ele>
                <time>2012-05-19T23:15:53.000Z</time>
                <name>Position 1301</name>
            </trkpt>
            <trkpt lon="9.734994" lat="47.836608">
                <ele>549.855041280011</ele>
                <time>2012-05-19T23:15:59.000Z</time>
                <name>Position 1302</name>
            </trkpt>
            <trkpt lon="9.735169" lat="47.836506">
                <ele>550.8378009600023</ele>
                <time>2012-05-19T23:16:06.000Z</time>
                <name>Position 1303</name>
            </trkpt>
            <trkpt lon="9.735303" lat="47.836412">
                <ele>551.4521030399907</ele>
                <time>2012-05-19T23:16:11.000Z</time>
                <name>Position 1304</name>
            </trkpt>
            <trkpt lon="9.735465" lat="47.836329">
                <ele>551.8433904000015</ele>
                <time>2012-05-19T23:16:16.000Z</time>
                <name>Position 1305</name>
            </trkpt>
            <trkpt lon="9.735658" lat="47.836251">
                <ele>551.9996851200009</ele>
                <time>2012-05-19T23:16:22.000Z</time>
                <name>Position 1306</name>
            </trkpt>
            <trkpt lon="9.735822" lat="47.836174">
                <ele>551.9162419199993</ele>
                <time>2012-05-19T23:16:28.000Z</time>
                <name>Position 1307</name>
            </trkpt>
            <trkpt lon="9.735987" lat="47.836073">
                <ele>551.8912327999997</ele>
                <time>2012-05-19T23:16:34.000Z</time>
                <name>Position 1308</name>
            </trkpt>
            <trkpt lon="9.736136" lat="47.835991">
                <ele>552.0720128000003</ele>
                <time>2012-05-19T23:16:39.000Z</time>
                <name>Position 1309</name>
            </trkpt>
            <trkpt lon="9.736271" lat="47.835898">
                <ele>552.4242224000003</ele>
                <time>2012-05-19T23:16:44.000Z</time>
                <name>Position 1310</name>
            </trkpt>
            <trkpt lon="9.736436" lat="47.835834">
                <ele>552.9443072000039</ele>
                <time>2012-05-19T23:16:49.000Z</time>
                <name>Position 1311</name>
            </trkpt>
            <trkpt lon="9.736589" lat="47.835765">
                <ele>553.0085272000098</ele>
                <time>2012-05-19T23:16:54.000Z</time>
                <name>Position 1312</name>
            </trkpt>
            <trkpt lon="9.736734" lat="47.8357">
                <ele>553.1024000000136</ele>
                <time>2012-05-19T23:16:59.000Z</time>
                <name>Position 1313</name>
            </trkpt>
            <trkpt lon="9.736898" lat="47.835577">
                <ele>553.1024000000031</ele>
                <time>2012-05-19T23:17:06.000Z</time>
                <name>Position 1314</name>
            </trkpt>
            <trkpt lon="9.737053" lat="47.835468">
                <ele>553.1371999999919</ele>
                <time>2012-05-19T23:17:12.000Z</time>
                <name>Position 1315</name>
            </trkpt>
            <trkpt lon="9.737202" lat="47.835404">
                <ele>553.3663999999845</ele>
                <time>2012-05-19T23:17:16.000Z</time>
                <name>Position 1316</name>
            </trkpt>
            <trkpt lon="9.737351" lat="47.835358">
                <ele>553.6819999999977</ele>
                <time>2012-05-19T23:17:21.000Z</time>
                <name>Position 1317</name>
            </trkpt>
            <trkpt lon="9.737504" lat="47.835295">
                <ele>553.9154048000098</ele>
                <time>2012-05-19T23:17:26.000Z</time>
                <name>Position 1318</name>
            </trkpt>
            <trkpt lon="9.737682" lat="47.835253">
                <ele>553.7533625600048</ele>
                <time>2012-05-19T23:17:31.000Z</time>
                <name>Position 1319</name>
            </trkpt>
            <trkpt lon="9.737862" lat="47.835231">
                <ele>553.7551059200002</ele>
                <time>2012-05-19T23:17:36.000Z</time>
                <name>Position 1320</name>
            </trkpt>
            <trkpt lon="9.73801" lat="47.835197">
                <ele>553.8015391999998</ele>
                <time>2012-05-19T23:17:40.000Z</time>
                <name>Position 1321</name>
            </trkpt>
            <trkpt lon="9.738193" lat="47.83515">
                <ele>553.9850720000024</ele>
                <time>2012-05-19T23:17:45.000Z</time>
                <name>Position 1322</name>
            </trkpt>
            <trkpt lon="9.738385" lat="47.835096">
                <ele>554.0550304000037</ele>
                <time>2012-05-19T23:17:51.000Z</time>
                <name>Position 1323</name>
            </trkpt>
            <trkpt lon="9.738554" lat="47.835069">
                <ele>553.4522982400085</ele>
                <time>2012-05-19T23:17:55.000Z</time>
                <name>Position 1324</name>
            </trkpt>
            <trkpt lon="9.738715" lat="47.83508">
                <ele>552.7581280000143</ele>
                <time>2012-05-19T23:18:00.000Z</time>
                <name>Position 1325</name>
            </trkpt>
            <trkpt lon="9.738903" lat="47.835089">
                <ele>551.9435660799785</ele>
                <time>2012-05-19T23:18:05.000Z</time>
                <name>Position 1326</name>
            </trkpt>
            <trkpt lon="9.739103" lat="47.835091">
                <ele>551.1073715200109</ele>
                <time>2012-05-19T23:18:10.000Z</time>
                <name>Position 1327</name>
            </trkpt>
            <trkpt lon="9.739305" lat="47.835041">
                <ele>550.5081312000272</ele>
                <time>2012-05-19T23:18:16.000Z</time>
                <name>Position 1328</name>
            </trkpt>
            <trkpt lon="9.739434" lat="47.834988">
                <ele>550.3735756799689</ele>
                <time>2012-05-19T23:18:20.000Z</time>
                <name>Position 1329</name>
            </trkpt>
            <trkpt lon="9.739523" lat="47.834921">
                <ele>550.9128283199813</ele>
                <time>2012-05-19T23:18:24.000Z</time>
                <name>Position 1330</name>
            </trkpt>
            <trkpt lon="9.739666" lat="47.83489">
                <ele>550.8710495999786</ele>
                <time>2012-05-19T23:18:28.000Z</time>
                <name>Position 1331</name>
            </trkpt>
            <trkpt lon="9.739889" lat="47.834764">
                <ele>552.5076998400046</ele>
                <time>2012-05-19T23:18:35.000Z</time>
                <name>Position 1332</name>
            </trkpt>
            <trkpt lon="9.740093" lat="47.834696">
                <ele>554.0665766399803</ele>
                <time>2012-05-19T23:18:42.000Z</time>
                <name>Position 1333</name>
            </trkpt>
            <trkpt lon="9.740275" lat="47.834674">
                <ele>555.2122080000084</ele>
                <time>2012-05-19T23:18:46.000Z</time>
                <name>Position 1334</name>
            </trkpt>
            <trkpt lon="9.740462" lat="47.834665">
                <ele>556.1058623999829</ele>
                <time>2012-05-19T23:18:52.000Z</time>
                <name>Position 1335</name>
            </trkpt>
            <trkpt lon="9.740613" lat="47.834637">
                <ele>557.206745279986</ele>
                <time>2012-05-19T23:18:56.000Z</time>
                <name>Position 1336</name>
            </trkpt>
            <trkpt lon="9.740771" lat="47.83463">
                <ele>557.9272224000554</ele>
                <time>2012-05-19T23:19:00.000Z</time>
                <name>Position 1337</name>
            </trkpt>
            <trkpt lon="9.740935" lat="47.834654">
                <ele>558.0340735999943</ele>
                <time>2012-05-19T23:19:05.000Z</time>
                <name>Position 1338</name>
            </trkpt>
            <trkpt lon="9.741126" lat="47.834676">
                <ele>558.2687206399722</ele>
                <time>2012-05-19T23:19:10.000Z</time>
                <name>Position 1339</name>
            </trkpt>
            <trkpt lon="9.741331" lat="47.834703">
                <ele>558.5549475200368</ele>
                <time>2012-05-19T23:19:15.000Z</time>
                <name>Position 1340</name>
            </trkpt>
            <trkpt lon="9.741515" lat="47.83474">
                <ele>558.738704000042</ele>
                <time>2012-05-19T23:19:20.000Z</time>
                <name>Position 1341</name>
            </trkpt>
            <trkpt lon="9.741685" lat="47.834771">
                <ele>558.9291999999622</ele>
                <time>2012-05-19T23:19:25.000Z</time>
                <name>Position 1342</name>
            </trkpt>
            <trkpt lon="9.741911" lat="47.834799">
                <ele>558.0844000000359</ele>
                <time>2012-05-19T23:19:31.000Z</time>
                <name>Position 1343</name>
            </trkpt>
            <trkpt lon="9.742109" lat="47.834817">
                <ele>557.4147999999914</ele>
                <time>2012-05-19T23:19:37.000Z</time>
                <name>Position 1344</name>
            </trkpt>
            <trkpt lon="9.7423" lat="47.834791">
                <ele>557.2371999999708</ele>
                <time>2012-05-19T23:19:42.000Z</time>
                <name>Position 1345</name>
            </trkpt>
            <trkpt lon="9.742493" lat="47.8347">
                <ele>557.7568000000232</ele>
                <time>2012-05-19T23:19:48.000Z</time>
                <name>Position 1346</name>
            </trkpt>
            <trkpt lon="9.742695" lat="47.834666">
                <ele>557.4999232000204</ele>
                <time>2012-05-19T23:19:54.000Z</time>
                <name>Position 1347</name>
            </trkpt>
            <trkpt lon="9.742872" lat="47.834613">
                <ele>557.6914489600371</ele>
                <time>2012-05-19T23:19:59.000Z</time>
                <name>Position 1348</name>
            </trkpt>
            <trkpt lon="9.743039" lat="47.834531">
                <ele>558.5153142400272</ele>
                <time>2012-05-19T23:20:05.000Z</time>
                <name>Position 1349</name>
            </trkpt>
            <trkpt lon="9.74319" lat="47.834443">
                <ele>559.6962111999962</ele>
                <time>2012-05-19T23:20:10.000Z</time>
                <name>Position 1350</name>
            </trkpt>
            <trkpt lon="9.743272" lat="47.834413">
                <ele>560.1229369600393</ele>
                <time>2012-05-19T23:20:13.000Z</time>
                <name>Position 1351</name>
            </trkpt>
            <trkpt lon="9.743331" lat="47.834422">
                <ele>559.9063475199378</ele>
                <time>2012-05-19T23:20:14.000Z</time>
                <name>Position 1352</name>
            </trkpt>
            <trkpt lon="9.74345" lat="47.834464">
                <ele>559.0080000000562</ele>
                <time>2012-05-19T23:20:18.000Z</time>
                <name>Position 1353</name>
            </trkpt>
            <trkpt lon="9.743608" lat="47.834503">
                <ele>558.1164000000371</ele>
                <time>2012-05-19T23:20:22.000Z</time>
                <name>Position 1354</name>
            </trkpt>
            <trkpt lon="9.743819" lat="47.834544">
                <ele>557.1251999999816</ele>
                <time>2012-05-19T23:20:28.000Z</time>
                <name>Position 1355</name>
            </trkpt>
            <trkpt lon="9.743959" lat="47.834506">
                <ele>557.6412000000453</ele>
                <time>2012-05-19T23:20:32.000Z</time>
                <name>Position 1356</name>
            </trkpt>
            <trkpt lon="9.744091" lat="47.834477">
                <ele>558.0048000000077</ele>
                <time>2012-05-19T23:20:36.000Z</time>
                <name>Position 1357</name>
            </trkpt>
            <trkpt lon="9.744229" lat="47.834427">
                <ele>558.6269401600332</ele>
                <time>2012-05-19T23:20:40.000Z</time>
                <name>Position 1358</name>
            </trkpt>
            <trkpt lon="9.744339" lat="47.83436">
                <ele>559.3698208000544</ele>
                <time>2012-05-19T23:20:44.000Z</time>
                <name>Position 1359</name>
            </trkpt>
            <trkpt lon="9.744428" lat="47.834334">
                <ele>559.4237670400291</ele>
                <time>2012-05-19T23:20:47.000Z</time>
                <name>Position 1360</name>
            </trkpt>
            <trkpt lon="9.744501" lat="47.834289">
                <ele>559.7631692800272</ele>
                <time>2012-05-19T23:20:50.000Z</time>
                <name>Position 1361</name>
            </trkpt>
            <trkpt lon="9.744604" lat="47.834243">
                <ele>559.8865734399881</ele>
                <time>2012-05-19T23:20:53.000Z</time>
                <name>Position 1362</name>
            </trkpt>
            <trkpt lon="9.744764" lat="47.834206">
                <ele>559.4786636799814</ele>
                <time>2012-05-19T23:20:57.000Z</time>
                <name>Position 1363</name>
            </trkpt>
            <trkpt lon="9.744948" lat="47.83416">
                <ele>558.8280000000026</ele>
                <time>2012-05-19T23:21:03.000Z</time>
                <name>Position 1364</name>
            </trkpt>
            <trkpt lon="9.745075" lat="47.834118">
                <ele>558.8762880000073</ele>
                <time>2012-05-19T23:21:06.000Z</time>
                <name>Position 1365</name>
            </trkpt>
            <trkpt lon="9.745189" lat="47.834082">
                <ele>559.3375142399956</ele>
                <time>2012-05-19T23:21:10.000Z</time>
                <name>Position 1366</name>
            </trkpt>
            <trkpt lon="9.745292" lat="47.834054">
                <ele>559.7268518399945</ele>
                <time>2012-05-19T23:21:13.000Z</time>
                <name>Position 1367</name>
            </trkpt>
            <trkpt lon="9.745402" lat="47.834065">
                <ele>560.0734943999981</ele>
                <time>2012-05-19T23:21:16.000Z</time>
                <name>Position 1368</name>
            </trkpt>
            <trkpt lon="9.745534" lat="47.834071">
                <ele>560.5048723199963</ele>
                <time>2012-05-19T23:21:19.000Z</time>
                <name>Position 1369</name>
            </trkpt>
            <trkpt lon="9.745624" lat="47.834122">
                <ele>560.7733286399975</ele>
                <time>2012-05-19T23:21:23.000Z</time>
                <name>Position 1370</name>
            </trkpt>
            <trkpt lon="9.74569" lat="47.834187">
                <ele>560.9344191999992</ele>
                <time>2012-05-19T23:21:26.000Z</time>
                <name>Position 1371</name>
            </trkpt>
            <trkpt lon="9.745737" lat="47.834209">
                <ele>561.0671651199979</ele>
                <time>2012-05-19T23:21:27.000Z</time>
                <name>Position 1372</name>
            </trkpt>
            <trkpt lon="9.74577" lat="47.834257">
                <ele>561.1141695999997</ele>
                <time>2012-05-19T23:21:29.000Z</time>
                <name>Position 1373</name>
            </trkpt>
            <trkpt lon="9.745818" lat="47.834322">
                <ele>561.2378214399992</ele>
                <time>2012-05-19T23:21:32.000Z</time>
                <name>Position 1374</name>
            </trkpt>
            <trkpt lon="9.745908" lat="47.834378">
                <ele>561.6047999999989</ele>
                <time>2012-05-19T23:21:36.000Z</time>
                <name>Position 1375</name>
            </trkpt>
            <trkpt lon="9.746003" lat="47.834496">
                <ele>561.9191999999981</ele>
                <time>2012-05-19T23:21:41.000Z</time>
                <name>Position 1376</name>
            </trkpt>
            <trkpt lon="9.746076" lat="47.834599">
                <ele>562.1460000000053</ele>
                <time>2012-05-19T23:21:45.000Z</time>
                <name>Position 1377</name>
            </trkpt>
            <trkpt lon="9.746167" lat="47.834708">
                <ele>562.4520000000001</ele>
                <time>2012-05-19T23:21:50.000Z</time>
                <name>Position 1378</name>
            </trkpt>
            <trkpt lon="9.74624" lat="47.834817">
                <ele>562.6715999999999</ele>
                <time>2012-05-19T23:21:55.000Z</time>
                <name>Position 1379</name>
            </trkpt>
            <trkpt lon="9.746337" lat="47.834905">
                <ele>563.0316000000033</ele>
                <time>2012-05-19T23:22:00.000Z</time>
                <name>Position 1380</name>
            </trkpt>
            <trkpt lon="9.746439" lat="47.835006">
                <ele>563.3070307200052</ele>
                <time>2012-05-19T23:22:05.000Z</time>
                <name>Position 1381</name>
            </trkpt>
            <trkpt lon="9.746532" lat="47.835109">
                <ele>562.1360390399587</ele>
                <time>2012-05-19T23:22:09.000Z</time>
                <name>Position 1382</name>
            </trkpt>
            <trkpt lon="9.746635" lat="47.835199">
                <ele>561.4188791999547</ele>
                <time>2012-05-19T23:22:14.000Z</time>
                <name>Position 1383</name>
            </trkpt>
            <trkpt lon="9.746801" lat="47.835334">
                <ele>561.1098627199557</ele>
                <time>2012-05-19T23:22:21.000Z</time>
                <name>Position 1384</name>
            </trkpt>
            <trkpt lon="9.74692" lat="47.835436">
                <ele>561.1589695999766</ele>
                <time>2012-05-19T23:22:26.000Z</time>
                <name>Position 1385</name>
            </trkpt>
            <trkpt lon="9.747002" lat="47.83553">
                <ele>561.0738848000185</ele>
                <time>2012-05-19T23:22:30.000Z</time>
                <name>Position 1386</name>
            </trkpt>
            <trkpt lon="9.747099" lat="47.835647">
                <ele>561.1155742399899</ele>
                <time>2012-05-19T23:22:36.000Z</time>
                <name>Position 1387</name>
            </trkpt>
            <trkpt lon="9.747186" lat="47.835795">
                <ele>560.9529296000125</ele>
                <time>2012-05-19T23:22:42.000Z</time>
                <name>Position 1388</name>
            </trkpt>
            <trkpt lon="9.74731" lat="47.835927">
                <ele>561.5756544000291</ele>
                <time>2012-05-19T23:22:48.000Z</time>
                <name>Position 1389</name>
            </trkpt>
            <trkpt lon="9.747445" lat="47.836064">
                <ele>562.1873376000086</ele>
                <time>2012-05-19T23:22:55.000Z</time>
                <name>Position 1390</name>
            </trkpt>
            <trkpt lon="9.747542" lat="47.836235">
                <ele>561.9198143999643</ele>
                <time>2012-05-19T23:23:02.000Z</time>
                <name>Position 1391</name>
            </trkpt>
            <trkpt lon="9.747605" lat="47.836422">
                <ele>560.9803872000138</ele>
                <time>2012-05-19T23:23:10.000Z</time>
                <name>Position 1392</name>
            </trkpt>
            <trkpt lon="9.747672" lat="47.836629">
                <ele>559.8150585599712</ele>
                <time>2012-05-19T23:23:18.000Z</time>
                <name>Position 1393</name>
            </trkpt>
            <trkpt lon="9.747739" lat="47.836817">
                <ele>559.7922289599712</ele>
                <time>2012-05-19T23:23:26.000Z</time>
                <name>Position 1394</name>
            </trkpt>
            <trkpt lon="9.747764" lat="47.837015">
                <ele>559.1722431999957</ele>
                <time>2012-05-19T23:23:34.000Z</time>
                <name>Position 1395</name>
            </trkpt>
            <trkpt lon="9.747855" lat="47.837212">
                <ele>559.2037791999879</ele>
                <time>2012-05-19T23:23:42.000Z</time>
                <name>Position 1396</name>
            </trkpt>
            <trkpt lon="9.747946" lat="47.837386">
                <ele>559.0325075199908</ele>
                <time>2012-05-19T23:23:50.000Z</time>
                <name>Position 1397</name>
            </trkpt>
            <trkpt lon="9.748029" lat="47.837598">
                <ele>558.8075603200044</ele>
                <time>2012-05-19T23:23:59.000Z</time>
                <name>Position 1398</name>
            </trkpt>
            <trkpt lon="9.74817" lat="47.837803">
                <ele>558.7230495999956</ele>
                <time>2012-05-19T23:24:08.000Z</time>
                <name>Position 1399</name>
            </trkpt>
            <trkpt lon="9.748338" lat="47.837993">
                <ele>557.3949222400253</ele>
                <time>2012-05-19T23:24:16.000Z</time>
                <name>Position 1400</name>
            </trkpt>
            <trkpt lon="9.748514" lat="47.838133">
                <ele>557.3627123200092</ele>
                <time>2012-05-19T23:24:24.000Z</time>
                <name>Position 1401</name>
            </trkpt>
            <trkpt lon="9.74869" lat="47.838238">
                <ele>557.3065792000343</ele>
                <time>2012-05-19T23:24:30.000Z</time>
                <name>Position 1402</name>
            </trkpt>
            <trkpt lon="9.748803" lat="47.838356">
                <ele>556.6980307200087</ele>
                <time>2012-05-19T23:24:36.000Z</time>
                <name>Position 1403</name>
            </trkpt>
            <trkpt lon="9.748959" lat="47.838496">
                <ele>556.7697945600015</ele>
                <time>2012-05-19T23:24:43.000Z</time>
                <name>Position 1404</name>
            </trkpt>
            <trkpt lon="9.749158" lat="47.83862">
                <ele>556.4265984000082</ele>
                <time>2012-05-19T23:24:50.000Z</time>
                <name>Position 1405</name>
            </trkpt>
            <trkpt lon="9.749365" lat="47.838724">
                <ele>557.0481792000021</ele>
                <time>2012-05-19T23:24:57.000Z</time>
                <name>Position 1406</name>
            </trkpt>
            <trkpt lon="9.7496" lat="47.838821">
                <ele>557.5386719999611</ele>
                <time>2012-05-19T23:25:04.000Z</time>
                <name>Position 1407</name>
            </trkpt>
            <trkpt lon="9.749872" lat="47.838867">
                <ele>558.4809580799927</ele>
                <time>2012-05-19T23:25:12.000Z</time>
                <name>Position 1408</name>
            </trkpt>
            <trkpt lon="9.750094" lat="47.838906">
                <ele>558.778103039978</ele>
                <time>2012-05-19T23:25:18.000Z</time>
                <name>Position 1409</name>
            </trkpt>
            <trkpt lon="9.750305" lat="47.838958">
                <ele>558.3050784000371</ele>
                <time>2012-05-19T23:25:24.000Z</time>
                <name>Position 1410</name>
            </trkpt>
            <trkpt lon="9.750512" lat="47.838974">
                <ele>558.3578956799951</ele>
                <time>2012-05-19T23:25:30.000Z</time>
                <name>Position 1411</name>
            </trkpt>
            <trkpt lon="9.750694" lat="47.839016">
                <ele>557.7538214399812</ele>
                <time>2012-05-19T23:25:35.000Z</time>
                <name>Position 1412</name>
            </trkpt>
            <trkpt lon="9.750916" lat="47.839049">
                <ele>556.4755436799383</ele>
                <time>2012-05-19T23:25:41.000Z</time>
                <name>Position 1413</name>
            </trkpt>
            <trkpt lon="9.751136" lat="47.839015">
                <ele>555.2499807999292</ele>
                <time>2012-05-19T23:25:47.000Z</time>
                <name>Position 1414</name>
            </trkpt>
            <trkpt lon="9.751333" lat="47.838903">
                <ele>555.3962924799605</ele>
                <time>2012-05-19T23:25:54.000Z</time>
                <name>Position 1415</name>
            </trkpt>
            <trkpt lon="9.751484" lat="47.838781">
                <ele>555.7175660800464</ele>
                <time>2012-05-19T23:26:00.000Z</time>
                <name>Position 1416</name>
            </trkpt>
            <trkpt lon="9.751652" lat="47.838671">
                <ele>555.2321478400285</ele>
                <time>2012-05-19T23:26:07.000Z</time>
                <name>Position 1417</name>
            </trkpt>
            <trkpt lon="9.751841" lat="47.83861">
                <ele>554.9400719999646</ele>
                <time>2012-05-19T23:26:12.000Z</time>
                <name>Position 1418</name>
            </trkpt>
            <trkpt lon="9.752047" lat="47.838548">
                <ele>554.515843199974</ele>
                <time>2012-05-19T23:26:18.000Z</time>
                <name>Position 1419</name>
            </trkpt>
            <trkpt lon="9.752216" lat="47.838533">
                <ele>553.6989216000135</ele>
                <time>2012-05-19T23:26:23.000Z</time>
                <name>Position 1420</name>
            </trkpt>
            <trkpt lon="9.752347" lat="47.83854">
                <ele>552.8859359999835</ele>
                <time>2012-05-19T23:26:27.000Z</time>
                <name>Position 1421</name>
            </trkpt>
            <trkpt lon="9.752385" lat="47.838542">
                <ele>552.6528240000247</ele>
                <time>2012-05-19T23:26:28.000Z</time>
                <name>Position 1422</name>
            </trkpt>
            <trkpt lon="9.752448" lat="47.838536">
                <ele>552.3393216000215</ele>
                <time>2012-05-19T23:26:29.000Z</time>
                <name>Position 1423</name>
            </trkpt>
            <trkpt lon="9.752509" lat="47.838523">
                <ele>552.2512646399829</ele>
                <time>2012-05-19T23:26:31.000Z</time>
                <name>Position 1424</name>
            </trkpt>
            <trkpt lon="9.752529" lat="47.838507">
                <ele>552.6208185599891</ele>
                <time>2012-05-19T23:26:32.000Z</time>
                <name>Position 1425</name>
            </trkpt>
            <trkpt lon="9.752586" lat="47.838469">
                <ele>553.5864076799888</ele>
                <time>2012-05-19T23:26:34.000Z</time>
                <name>Position 1426</name>
            </trkpt>
            <trkpt lon="9.752664" lat="47.838386">
                <ele>554.9915020799928</ele>
                <time>2012-05-19T23:26:38.000Z</time>
                <name>Position 1427</name>
            </trkpt>
            <trkpt lon="9.752732" lat="47.838328">
                <ele>556.0474918400221</ele>
                <time>2012-05-19T23:26:41.000Z</time>
                <name>Position 1428</name>
            </trkpt>
            <trkpt lon="9.752808" lat="47.838262">
                <ele>557.2617958399971</ele>
                <time>2012-05-19T23:26:44.000Z</time>
                <name>Position 1429</name>
            </trkpt>
            <trkpt lon="9.752843" lat="47.838245">
                <ele>557.6723263999999</ele>
                <time>2012-05-19T23:26:45.000Z</time>
                <name>Position 1430</name>
            </trkpt>
            <trkpt lon="9.752952" lat="47.838102">
                <ele>559.0260761600047</ele>
                <time>2012-05-19T23:26:52.000Z</time>
                <name>Position 1431</name>
            </trkpt>
            <trkpt lon="9.753022" lat="47.838045">
                <ele>559.4758495999971</ele>
                <time>2012-05-19T23:26:55.000Z</time>
                <name>Position 1432</name>
            </trkpt>
            <trkpt lon="9.753147" lat="47.837943">
                <ele>559.821347840005</ele>
                <time>2012-05-19T23:27:00.000Z</time>
                <name>Position 1433</name>
            </trkpt>
            <trkpt lon="9.753258" lat="47.837818">
                <ele>559.4888537599934</ele>
                <time>2012-05-19T23:27:06.000Z</time>
                <name>Position 1434</name>
            </trkpt>
            <trkpt lon="9.753365" lat="47.837686">
                <ele>558.8358527999897</ele>
                <time>2012-05-19T23:27:12.000Z</time>
                <name>Position 1435</name>
            </trkpt>
            <trkpt lon="9.753454" lat="47.837583">
                <ele>558.6925766400134</ele>
                <time>2012-05-19T23:27:17.000Z</time>
                <name>Position 1436</name>
            </trkpt>
            <trkpt lon="9.753487" lat="47.837542">
                <ele>558.5639500799915</ele>
                <time>2012-05-19T23:27:18.000Z</time>
                <name>Position 1437</name>
            </trkpt>
            <trkpt lon="9.753537" lat="47.837472">
                <ele>558.7314816000144</ele>
                <time>2012-05-19T23:27:22.000Z</time>
                <name>Position 1438</name>
            </trkpt>
            <trkpt lon="9.753602" lat="47.837384">
                <ele>559.7328192000011</ele>
                <time>2012-05-19T23:27:26.000Z</time>
                <name>Position 1439</name>
            </trkpt>
            <trkpt lon="9.753633" lat="47.837354">
                <ele>560.0603808000192</ele>
                <time>2012-05-19T23:27:27.000Z</time>
                <name>Position 1440</name>
            </trkpt>
            <trkpt lon="9.75365" lat="47.83736">
                <ele>560.0616000000248</ele>
                <time>2012-05-19T23:27:28.000Z</time>
                <name>Position 1441</name>
            </trkpt>
            <trkpt lon="9.753672" lat="47.837314">
                <ele>560.4505152000052</ele>
                <time>2012-05-19T23:27:29.000Z</time>
                <name>Position 1442</name>
            </trkpt>
            <trkpt lon="9.753694" lat="47.837293">
                <ele>560.6401247999818</ele>
                <time>2012-05-19T23:27:30.000Z</time>
                <name>Position 1443</name>
            </trkpt>
            <trkpt lon="9.753714" lat="47.837253">
                <ele>560.9372448000205</ele>
                <time>2012-05-19T23:27:32.000Z</time>
                <name>Position 1444</name>
            </trkpt>
            <trkpt lon="9.753711" lat="47.83724">
                <ele>561.0188159999904</ele>
                <time>2012-05-19T23:27:33.000Z</time>
                <name>Position 1445</name>
            </trkpt>
            <trkpt lon="9.75375" lat="47.837154">
                <ele>561.5760000000109</ele>
                <time>2012-05-19T23:27:36.000Z</time>
                <name>Position 1446</name>
            </trkpt>
            <trkpt lon="9.753754" lat="47.837096">
                <ele>561.9199295999845</ele>
                <time>2012-05-19T23:27:39.000Z</time>
                <name>Position 1447</name>
            </trkpt>
            <trkpt lon="9.75377" lat="47.837031">
                <ele>562.2749279999831</ele>
                <time>2012-05-19T23:27:41.000Z</time>
                <name>Position 1448</name>
            </trkpt>
            <trkpt lon="9.753789" lat="47.83692">
                <ele>562.8414720000068</ele>
                <time>2012-05-19T23:27:46.000Z</time>
                <name>Position 1449</name>
            </trkpt>
            <trkpt lon="9.753746" lat="47.836794">
                <ele>563.7574656000172</ele>
                <time>2012-05-19T23:27:51.000Z</time>
                <name>Position 1450</name>
            </trkpt>
            <trkpt lon="9.753759" lat="47.836716">
                <ele>564.1455935999815</ele>
                <time>2012-05-19T23:27:54.000Z</time>
                <name>Position 1451</name>
            </trkpt>
            <trkpt lon="9.753741" lat="47.836674">
                <ele>564.519849599989</ele>
                <time>2012-05-19T23:27:56.000Z</time>
                <name>Position 1452</name>
            </trkpt>
            <trkpt lon="9.75371" lat="47.836639">
                <ele>564.8725936000075</ele>
                <time>2012-05-19T23:27:57.000Z</time>
                <name>Position 1453</name>
            </trkpt>
            <trkpt lon="9.753675" lat="47.836603">
                <ele>565.2378760000154</ele>
                <time>2012-05-19T23:27:59.000Z</time>
                <name>Position 1454</name>
            </trkpt>
            <trkpt lon="9.753642" lat="47.836579">
                <ele>565.554233920005</ele>
                <time>2012-05-19T23:28:00.000Z</time>
                <name>Position 1455</name>
            </trkpt>
            <trkpt lon="9.753595" lat="47.836545">
                <ele>566.0081559999927</ele>
                <time>2012-05-19T23:28:02.000Z</time>
                <name>Position 1456</name>
            </trkpt>
            <trkpt lon="9.753494" lat="47.836484">
                <ele>566.9585382400062</ele>
                <time>2012-05-19T23:28:06.000Z</time>
                <name>Position 1457</name>
            </trkpt>
            <trkpt lon="9.753417" lat="47.836451">
                <ele>567.6480164800073</ele>
                <time>2012-05-19T23:28:08.000Z</time>
                <name>Position 1458</name>
            </trkpt>
            <trkpt lon="9.75332" lat="47.836415">
                <ele>568.5116639999889</ele>
                <time>2012-05-19T23:28:11.000Z</time>
                <name>Position 1459</name>
            </trkpt>
            <trkpt lon="9.753243" lat="47.836376">
                <ele>569.2724198400001</ele>
                <time>2012-05-19T23:28:14.000Z</time>
                <name>Position 1460</name>
            </trkpt>
            <trkpt lon="9.753168" lat="47.83635">
                <ele>569.9811839999844</ele>
                <time>2012-05-19T23:28:16.000Z</time>
                <name>Position 1461</name>
            </trkpt>
            <trkpt lon="9.753107" lat="47.836322">
                <ele>570.5950675199897</ele>
                <time>2012-05-19T23:28:18.000Z</time>
                <name>Position 1462</name>
            </trkpt>
            <trkpt lon="9.753045" lat="47.836294">
                <ele>571.2270623999891</ele>
                <time>2012-05-19T23:28:20.000Z</time>
                <name>Position 1463</name>
            </trkpt>
            <trkpt lon="9.752939" lat="47.836256">
                <ele>572.2839859200102</ele>
                <time>2012-05-19T23:28:23.000Z</time>
                <name>Position 1464</name>
            </trkpt>
            <trkpt lon="9.752807" lat="47.836233">
                <ele>573.5081692799953</ele>
                <time>2012-05-19T23:28:27.000Z</time>
                <name>Position 1465</name>
            </trkpt>
            <trkpt lon="9.752715" lat="47.836213">
                <ele>574.3930895999948</ele>
                <time>2012-05-19T23:28:30.000Z</time>
                <name>Position 1466</name>
            </trkpt>
            <trkpt lon="9.752622" lat="47.836192">
                <ele>575.3028211200135</ele>
                <time>2012-05-19T23:28:32.000Z</time>
                <name>Position 1467</name>
            </trkpt>
            <trkpt lon="9.752499" lat="47.836136">
                <ele>576.6976358399777</ele>
                <time>2012-05-19T23:28:36.000Z</time>
                <name>Position 1468</name>
            </trkpt>
            <trkpt lon="9.752428" lat="47.83607">
                <ele>578.0549376000032</ele>
                <time>2012-05-19T23:28:40.000Z</time>
                <name>Position 1469</name>
            </trkpt>
            <trkpt lon="9.752368" lat="47.835996">
                <ele>579.2973196799843</ele>
                <time>2012-05-19T23:28:43.000Z</time>
                <name>Position 1470</name>
            </trkpt>
            <trkpt lon="9.752313" lat="47.835948">
                <ele>580.3112774400018</ele>
                <time>2012-05-19T23:28:45.000Z</time>
                <name>Position 1471</name>
            </trkpt>
            <trkpt lon="9.752244" lat="47.835894">
                <ele>581.5375641599928</ele>
                <time>2012-05-19T23:28:48.000Z</time>
                <name>Position 1472</name>
            </trkpt>
            <trkpt lon="9.752214" lat="47.835859">
                <ele>582.1317705600002</ele>
                <time>2012-05-19T23:28:50.000Z</time>
                <name>Position 1473</name>
            </trkpt>
            <trkpt lon="9.752134" lat="47.835795">
                <ele>583.5521840000177</ele>
                <time>2012-05-19T23:28:53.000Z</time>
                <name>Position 1474</name>
            </trkpt>
            <trkpt lon="9.752132" lat="47.835777">
                <ele>583.6815392000051</ele>
                <time>2012-05-19T23:28:54.000Z</time>
                <name>Position 1475</name>
            </trkpt>
            <trkpt lon="9.752106" lat="47.835755">
                <ele>584.1365840000134</ele>
                <time>2012-05-19T23:28:55.000Z</time>
                <name>Position 1476</name>
            </trkpt>
            <trkpt lon="9.752088" lat="47.835725">
                <ele>584.5270400000134</ele>
                <time>2012-05-19T23:28:56.000Z</time>
                <name>Position 1477</name>
            </trkpt>
            <trkpt lon="9.752081" lat="47.835699">
                <ele>584.7539432000052</ele>
                <time>2012-05-19T23:28:57.000Z</time>
                <name>Position 1478</name>
            </trkpt>
            <trkpt lon="9.75203" lat="47.835621">
                <ele>585.7690639999898</ele>
                <time>2012-05-19T23:29:01.000Z</time>
                <name>Position 1479</name>
            </trkpt>
            <trkpt lon="9.752015" lat="47.83561">
                <ele>585.9981199999868</ele>
                <time>2012-05-19T23:29:01.000Z</time>
                <name>Position 1480</name>
            </trkpt>
            <trkpt lon="9.751986" lat="47.835587">
                <ele>586.4423696000106</ele>
                <time>2012-05-19T23:29:03.000Z</time>
                <name>Position 1481</name>
            </trkpt>
            <trkpt lon="9.751973" lat="47.835588">
                <ele>586.5863071999997</ele>
                <time>2012-05-19T23:29:03.000Z</time>
                <name>Position 1482</name>
            </trkpt>
            <trkpt lon="9.751931" lat="47.835573">
                <ele>587.1310664000066</ele>
                <time>2012-05-19T23:29:04.000Z</time>
                <name>Position 1483</name>
            </trkpt>
            <trkpt lon="9.751909" lat="47.835542">
                <ele>587.5087184000201</ele>
                <time>2012-05-19T23:29:06.000Z</time>
                <name>Position 1484</name>
            </trkpt>
            <trkpt lon="9.751907" lat="47.835535">
                <ele>587.5598360000089</ele>
                <time>2012-05-19T23:29:06.000Z</time>
                <name>Position 1485</name>
            </trkpt>
            <trkpt lon="9.751871" lat="47.835475">
                <ele>588.1899799999966</ele>
                <time>2012-05-19T23:29:09.000Z</time>
                <name>Position 1486</name>
            </trkpt>
            <trkpt lon="9.751836" lat="47.835403">
                <ele>588.8222623999942</ele>
                <time>2012-05-19T23:29:12.000Z</time>
                <name>Position 1487</name>
            </trkpt>
            <trkpt lon="9.751821" lat="47.835385">
                <ele>589.0369879999964</ele>
                <time>2012-05-19T23:29:12.000Z</time>
                <name>Position 1488</name>
            </trkpt>
            <trkpt lon="9.751779" lat="47.835352">
                <ele>589.5617023999912</ele>
                <time>2012-05-19T23:29:14.000Z</time>
                <name>Position 1489</name>
            </trkpt>
            <trkpt lon="9.751752" lat="47.835243">
                <ele>590.1531008000077</ele>
                <time>2012-05-19T23:29:19.000Z</time>
                <name>Position 1490</name>
            </trkpt>
            <trkpt lon="9.751745" lat="47.835217">
                <ele>590.2928120000032</ele>
                <time>2012-05-19T23:29:20.000Z</time>
                <name>Position 1491</name>
            </trkpt>
            <trkpt lon="9.751743" lat="47.835205">
                <ele>590.3457320000001</ele>
                <time>2012-05-19T23:29:20.000Z</time>
                <name>Position 1492</name>
            </trkpt>
            <trkpt lon="9.751746" lat="47.835112">
                <ele>590.5960255999883</ele>
                <time>2012-05-19T23:29:24.000Z</time>
                <name>Position 1493</name>
            </trkpt>
            <trkpt lon="9.751722" lat="47.835063">
                <ele>590.9253008000127</ele>
                <time>2012-05-19T23:29:26.000Z</time>
                <name>Position 1494</name>
            </trkpt>
            <trkpt lon="9.751717" lat="47.835068">
                <ele>590.9497568000068</ele>
                <time>2012-05-19T23:29:26.000Z</time>
                <name>Position 1495</name>
            </trkpt>
            <trkpt lon="9.751756" lat="47.834947">
                <ele>591.0612358399997</ele>
                <time>2012-05-19T23:29:31.000Z</time>
                <name>Position 1496</name>
            </trkpt>
            <trkpt lon="9.751812" lat="47.834796">
                <ele>591.2733862400166</ele>
                <time>2012-05-19T23:29:37.000Z</time>
                <name>Position 1497</name>
            </trkpt>
            <trkpt lon="9.751924" lat="47.834665">
                <ele>591.1014751999913</ele>
                <time>2012-05-19T23:29:43.000Z</time>
                <name>Position 1498</name>
            </trkpt>
            <trkpt lon="9.752009" lat="47.834537">
                <ele>591.1584809600166</ele>
                <time>2012-05-19T23:29:49.000Z</time>
                <name>Position 1499</name>
            </trkpt>
            <trkpt lon="9.752089" lat="47.834442">
                <ele>591.1467065599883</ele>
                <time>2012-05-19T23:29:53.000Z</time>
                <name>Position 1500</name>
            </trkpt>
            <trkpt lon="9.752194" lat="47.834374">
                <ele>590.9075187200201</ele>
                <time>2012-05-19T23:29:57.000Z</time>
                <name>Position 1501</name>
            </trkpt>
            <trkpt lon="9.752282" lat="47.834282">
                <ele>590.9268108799951</ele>
                <time>2012-05-19T23:30:02.000Z</time>
                <name>Position 1502</name>
            </trkpt>
            <trkpt lon="9.752376" lat="47.83418">
                <ele>591.0199615999812</ele>
                <time>2012-05-19T23:30:06.000Z</time>
                <name>Position 1503</name>
            </trkpt>
            <trkpt lon="9.752523" lat="47.834083">
                <ele>590.422139360001</ele>
                <time>2012-05-19T23:30:12.000Z</time>
                <name>Position 1504</name>
            </trkpt>
            <trkpt lon="9.752628" lat="47.83398">
                <ele>589.5680576000176</ele>
                <time>2012-05-19T23:30:17.000Z</time>
                <name>Position 1505</name>
            </trkpt>
            <trkpt lon="9.752693" lat="47.833891">
                <ele>589.3035195199876</ele>
                <time>2012-05-19T23:30:21.000Z</time>
                <name>Position 1506</name>
            </trkpt>
            <trkpt lon="9.752774" lat="47.833784">
                <ele>589.1604646399882</ele>
                <time>2012-05-19T23:30:26.000Z</time>
                <name>Position 1507</name>
            </trkpt>
            <trkpt lon="9.75285" lat="47.833688">
                <ele>589.2000319999821</ele>
                <time>2012-05-19T23:30:30.000Z</time>
                <name>Position 1508</name>
            </trkpt>
            <trkpt lon="9.752946" lat="47.833628">
                <ele>589.0191795200242</ele>
                <time>2012-05-19T23:30:34.000Z</time>
                <name>Position 1509</name>
            </trkpt>
            <trkpt lon="9.752999" lat="47.833583">
                <ele>589.0885956800197</ele>
                <time>2012-05-19T23:30:36.000Z</time>
                <name>Position 1510</name>
            </trkpt>
            <trkpt lon="9.753075" lat="47.833564">
                <ele>588.8474719999703</ele>
                <time>2012-05-19T23:30:38.000Z</time>
                <name>Position 1511</name>
            </trkpt>
            <trkpt lon="9.753146" lat="47.833577">
                <ele>588.3247836800241</ele>
                <time>2012-05-19T23:30:40.000Z</time>
                <name>Position 1512</name>
            </trkpt>
            <trkpt lon="9.75324" lat="47.833499">
                <ele>588.7375903999613</ele>
                <time>2012-05-19T23:30:44.000Z</time>
                <name>Position 1513</name>
            </trkpt>
            <trkpt lon="9.753349" lat="47.833439">
                <ele>588.9828646400208</ele>
                <time>2012-05-19T23:30:48.000Z</time>
                <name>Position 1514</name>
            </trkpt>
            <trkpt lon="9.753483" lat="47.833375">
                <ele>588.8364800000539</ele>
                <time>2012-05-19T23:30:52.000Z</time>
                <name>Position 1515</name>
            </trkpt>
            <trkpt lon="9.753631" lat="47.833323">
                <ele>588.4861171199976</ele>
                <time>2012-05-19T23:30:57.000Z</time>
                <name>Position 1516</name>
            </trkpt>
            <trkpt lon="9.753809" lat="47.83331">
                <ele>587.3911296000341</ele>
                <time>2012-05-19T23:31:02.000Z</time>
                <name>Position 1517</name>
            </trkpt>
            <trkpt lon="9.754035" lat="47.833168">
                <ele>587.9018111999922</ele>
                <time>2012-05-19T23:31:10.000Z</time>
                <name>Position 1518</name>
            </trkpt>
            <trkpt lon="9.754245" lat="47.833126">
                <ele>586.959012800009</ele>
                <time>2012-05-19T23:31:16.000Z</time>
                <name>Position 1519</name>
            </trkpt>
            <trkpt lon="9.754446" lat="47.832902">
                <ele>588.3737004800474</ele>
                <time>2012-05-19T23:31:26.000Z</time>
                <name>Position 1520</name>
            </trkpt>
            <trkpt lon="9.754583" lat="47.832705">
                <ele>589.9285016000417</ele>
                <time>2012-05-19T23:31:35.000Z</time>
                <name>Position 1521</name>
            </trkpt>
            <trkpt lon="9.754727" lat="47.832492">
                <ele>591.557310079965</ele>
                <time>2012-05-19T23:31:44.000Z</time>
                <name>Position 1522</name>
            </trkpt>
            <trkpt lon="9.754941" lat="47.832358">
                <ele>591.157871360006</ele>
                <time>2012-05-19T23:31:52.000Z</time>
                <name>Position 1523</name>
            </trkpt>
            <trkpt lon="9.755063" lat="47.832231">
                <ele>591.7176036799996</ele>
                <time>2012-05-19T23:31:58.000Z</time>
                <name>Position 1524</name>
            </trkpt>
            <trkpt lon="9.755237" lat="47.832223">
                <ele>590.0237345600217</ele>
                <time>2012-05-19T23:32:03.000Z</time>
                <name>Position 1525</name>
            </trkpt>
            <trkpt lon="9.755408" lat="47.832132">
                <ele>589.609007359987</ele>
                <time>2012-05-19T23:32:09.000Z</time>
                <name>Position 1526</name>
            </trkpt>
            <trkpt lon="9.75559" lat="47.832067">
                <ele>588.7310767999703</ele>
                <time>2012-05-19T23:32:14.000Z</time>
                <name>Position 1527</name>
            </trkpt>
            <trkpt lon="9.755734" lat="47.831972">
                <ele>588.7340748799907</ele>
                <time>2012-05-19T23:32:20.000Z</time>
                <name>Position 1528</name>
            </trkpt>
            <trkpt lon="9.755905" lat="47.831909">
                <ele>588.1676175999501</ele>
                <time>2012-05-19T23:32:25.000Z</time>
                <name>Position 1529</name>
            </trkpt>
            <trkpt lon="9.75603" lat="47.831836">
                <ele>588.302310399953</ele>
                <time>2012-05-19T23:32:29.000Z</time>
                <name>Position 1530</name>
            </trkpt>
            <trkpt lon="9.756163" lat="47.831772">
                <ele>588.1876076799813</ele>
                <time>2012-05-19T23:32:34.000Z</time>
                <name>Position 1531</name>
            </trkpt>
            <trkpt lon="9.756275" lat="47.831724">
                <ele>587.9685279999785</ele>
                <time>2012-05-19T23:32:37.000Z</time>
                <name>Position 1532</name>
            </trkpt>
            <trkpt lon="9.756435" lat="47.831742">
                <ele>586.4013376000241</ele>
                <time>2012-05-19T23:32:42.000Z</time>
                <name>Position 1533</name>
            </trkpt>
            <trkpt lon="9.756514" lat="47.831747">
                <ele>585.6866790400062</ele>
                <time>2012-05-19T23:32:44.000Z</time>
                <name>Position 1534</name>
            </trkpt>
            <trkpt lon="9.756619" lat="47.831768">
                <ele>584.548888960039</ele>
                <time>2012-05-19T23:32:47.000Z</time>
                <name>Position 1535</name>
            </trkpt>
            <trkpt lon="9.756725" lat="47.831777">
                <ele>584.1414039999675</ele>
                <time>2012-05-19T23:32:50.000Z</time>
                <name>Position 1536</name>
            </trkpt>
            <trkpt lon="9.756852" lat="47.831747">
                <ele>584.7263180800003</ele>
                <time>2012-05-19T23:32:53.000Z</time>
                <name>Position 1537</name>
            </trkpt>
            <trkpt lon="9.756961" lat="47.831698">
                <ele>585.4794409599655</ele>
                <time>2012-05-19T23:32:57.000Z</time>
                <name>Position 1538</name>
            </trkpt>
            <trkpt lon="9.757051" lat="47.831702">
                <ele>585.5534646400014</ele>
                <time>2012-05-19T23:32:59.000Z</time>
                <name>Position 1539</name>
            </trkpt>
            <trkpt lon="9.757092" lat="47.83167">
                <ele>585.9725247999709</ele>
                <time>2012-05-19T23:33:01.000Z</time>
                <name>Position 1540</name>
            </trkpt>
            <trkpt lon="9.757136" lat="47.83164">
                <ele>586.9492671999966</ele>
                <time>2012-05-19T23:33:03.000Z</time>
                <name>Position 1541</name>
            </trkpt>
            <trkpt lon="9.757285" lat="47.831646">
                <ele>586.9420048000289</ele>
                <time>2012-05-19T23:33:07.000Z</time>
                <name>Position 1542</name>
            </trkpt>
            <trkpt lon="9.75749" lat="47.831655">
                <ele>586.89349600008</ele>
                <time>2012-05-19T23:33:12.000Z</time>
                <name>Position 1543</name>
            </trkpt>
            <trkpt lon="9.757672" lat="47.831667">
                <ele>586.9093523199671</ele>
                <time>2012-05-19T23:33:17.000Z</time>
                <name>Position 1544</name>
            </trkpt>
            <trkpt lon="9.757852" lat="47.831667">
                <ele>587.3410931199654</ele>
                <time>2012-05-19T23:33:22.000Z</time>
                <name>Position 1545</name>
            </trkpt>
            <trkpt lon="9.75805" lat="47.831632">
                <ele>588.9714880000366</ele>
                <time>2012-05-19T23:33:27.000Z</time>
                <name>Position 1546</name>
            </trkpt>
            <trkpt lon="9.758455" lat="47.831842">
                <ele>586.6235999999755</ele>
                <time>2012-05-19T23:33:41.000Z</time>
                <name>Position 1547</name>
            </trkpt>
            <trkpt lon="9.758776" lat="47.831934">
                <ele>586.5648000000386</ele>
                <time>2012-05-19T23:33:51.000Z</time>
                <name>Position 1548</name>
            </trkpt>
            <trkpt lon="9.759091" lat="47.832034">
                <ele>586.3787999999967</ele>
                <time>2012-05-19T23:34:00.000Z</time>
                <name>Position 1549</name>
            </trkpt>
            <trkpt lon="9.75945" lat="47.832186">
                <ele>582.0085760000064</ele>
                <time>2012-05-19T23:34:11.000Z</time>
                <name>Position 1550</name>
            </trkpt>
            <trkpt lon="9.75978" lat="47.832251">
                <ele>578.1949664000147</ele>
                <time>2012-05-19T23:34:21.000Z</time>
                <name>Position 1551</name>
            </trkpt>
            <trkpt lon="9.760061" lat="47.832274">
                <ele>576.0673481600202</ele>
                <time>2012-05-19T23:34:28.000Z</time>
                <name>Position 1552</name>
            </trkpt>
            <trkpt lon="9.760224" lat="47.832315">
                <ele>575.975926399985</ele>
                <time>2012-05-19T23:34:33.000Z</time>
                <name>Position 1553</name>
            </trkpt>
            <trkpt lon="9.760337" lat="47.832372">
                <ele>575.6290841600053</ele>
                <time>2012-05-19T23:34:37.000Z</time>
                <name>Position 1554</name>
            </trkpt>
            <trkpt lon="9.760434" lat="47.83243">
                <ele>575.2538527999775</ele>
                <time>2012-05-19T23:34:40.000Z</time>
                <name>Position 1555</name>
            </trkpt>
            <trkpt lon="9.760518" lat="47.832495">
                <ele>574.793470399983</ele>
                <time>2012-05-19T23:34:44.000Z</time>
                <name>Position 1556</name>
            </trkpt>
            <trkpt lon="9.760648" lat="47.832594">
                <ele>574.4913804799982</ele>
                <time>2012-05-19T23:34:49.000Z</time>
                <name>Position 1557</name>
            </trkpt>
            <trkpt lon="9.760789" lat="47.832674">
                <ele>574.0319734400217</ele>
                <time>2012-05-19T23:34:54.000Z</time>
                <name>Position 1558</name>
            </trkpt>
            <trkpt lon="9.760963" lat="47.832694">
                <ele>574.2285289600322</ele>
                <time>2012-05-19T23:34:59.000Z</time>
                <name>Position 1559</name>
            </trkpt>
            <trkpt lon="9.761039" lat="47.832675">
                <ele>574.6149159999837</ele>
                <time>2012-05-19T23:35:01.000Z</time>
                <name>Position 1560</name>
            </trkpt>
            <trkpt lon="9.761077" lat="47.832659">
                <ele>574.8742302400045</ele>
                <time>2012-05-19T23:35:02.000Z</time>
                <name>Position 1561</name>
            </trkpt>
            <trkpt lon="9.761087" lat="47.832627">
                <ele>575.2072283199784</ele>
                <time>2012-05-19T23:35:03.000Z</time>
                <name>Position 1562</name>
            </trkpt>
            <trkpt lon="9.761077" lat="47.83261">
                <ele>575.337409599977</ele>
                <time>2012-05-19T23:35:04.000Z</time>
                <name>Position 1563</name>
            </trkpt>
            <trkpt lon="9.761063" lat="47.832612">
                <ele>575.274878080024</ele>
                <time>2012-05-19T23:35:04.000Z</time>
                <name>Position 1564</name>
            </trkpt>
            <trkpt lon="9.761129" lat="47.8326">
                <ele>575.5966720000076</ele>
                <time>2012-05-19T23:35:06.000Z</time>
                <name>Position 1565</name>
            </trkpt>
            <trkpt lon="9.761201" lat="47.832567">
                <ele>576.1543825600254</ele>
                <time>2012-05-19T23:35:09.000Z</time>
                <name>Position 1566</name>
            </trkpt>
            <trkpt lon="9.761294" lat="47.832523">
                <ele>576.9194281599785</ele>
                <time>2012-05-19T23:35:12.000Z</time>
                <name>Position 1567</name>
            </trkpt>
            <trkpt lon="9.761326" lat="47.832482">
                <ele>577.4974796800159</ele>
                <time>2012-05-19T23:35:13.000Z</time>
                <name>Position 1568</name>
            </trkpt>
            <trkpt lon="9.76139" lat="47.83244">
                <ele>578.2723840000235</ele>
                <time>2012-05-19T23:35:16.000Z</time>
                <name>Position 1569</name>
            </trkpt>
            <trkpt lon="9.761425" lat="47.832411">
                <ele>578.7877119999904</ele>
                <time>2012-05-19T23:35:17.000Z</time>
                <name>Position 1570</name>
            </trkpt>
            <trkpt lon="9.76146" lat="47.832395">
                <ele>579.1430080000216</ele>
                <time>2012-05-19T23:35:19.000Z</time>
                <name>Position 1571</name>
            </trkpt>
            <trkpt lon="9.761471" lat="47.832393">
                <ele>579.2158067199574</ele>
                <time>2012-05-19T23:35:19.000Z</time>
                <name>Position 1572</name>
            </trkpt>
            <trkpt lon="9.76149" lat="47.832347">
                <ele>579.9115072000194</ele>
                <time>2012-05-19T23:35:21.000Z</time>
                <name>Position 1573</name>
            </trkpt>
            <trkpt lon="9.761486" lat="47.832328">
                <ele>580.1474099200404</ele>
                <time>2012-05-19T23:35:21.000Z</time>
                <name>Position 1574</name>
            </trkpt>
            <trkpt lon="9.761487" lat="47.832263">
                <ele>581.0207334400362</ele>
                <time>2012-05-19T23:35:24.000Z</time>
                <name>Position 1575</name>
            </trkpt>
            <trkpt lon="9.761443" lat="47.832153">
                <ele>582.2445529600235</ele>
                <time>2012-05-19T23:35:29.000Z</time>
                <name>Position 1576</name>
            </trkpt>
            <trkpt lon="9.761441" lat="47.83214">
                <ele>582.4036575999642</ele>
                <time>2012-05-19T23:35:29.000Z</time>
                <name>Position 1577</name>
            </trkpt>
            <trkpt lon="9.761409" lat="47.832053">
                <ele>583.3457804799776</ele>
                <time>2012-05-19T23:35:33.000Z</time>
                <name>Position 1578</name>
            </trkpt>
            <trkpt lon="9.761431" lat="47.832031">
                <ele>583.7685606399914</ele>
                <time>2012-05-19T23:35:34.000Z</time>
                <name>Position 1579</name>
            </trkpt>
            <trkpt lon="9.761438" lat="47.832022">
                <ele>583.9304166399735</ele>
                <time>2012-05-19T23:35:34.000Z</time>
                <name>Position 1580</name>
            </trkpt>
            <trkpt lon="9.761481" lat="47.831998">
                <ele>584.5235411200164</ele>
                <time>2012-05-19T23:35:36.000Z</time>
                <name>Position 1581</name>
            </trkpt>
            <trkpt lon="9.761509" lat="47.831955">
                <ele>585.2854527999923</ele>
                <time>2012-05-19T23:35:38.000Z</time>
                <name>Position 1582</name>
            </trkpt>
            <trkpt lon="9.761557" lat="47.831873">
                <ele>586.7379366399759</ele>
                <time>2012-05-19T23:35:41.000Z</time>
                <name>Position 1583</name>
            </trkpt>
            <trkpt lon="9.761594" lat="47.831816">
                <ele>587.8017049599558</ele>
                <time>2012-05-19T23:35:44.000Z</time>
                <name>Position 1584</name>
            </trkpt>
            <trkpt lon="9.761659" lat="47.831752">
                <ele>589.2105683199757</ele>
                <time>2012-05-19T23:35:47.000Z</time>
                <name>Position 1585</name>
            </trkpt>
            <trkpt lon="9.761692" lat="47.831729">
                <ele>589.6708607999582</ele>
                <time>2012-05-19T23:35:48.000Z</time>
                <name>Position 1586</name>
            </trkpt>
            <trkpt lon="9.761749" lat="47.831661">
                <ele>590.9242563200723</ele>
                <time>2012-05-19T23:35:51.000Z</time>
                <name>Position 1587</name>
            </trkpt>
            <trkpt lon="9.761808" lat="47.831587">
                <ele>592.7927724800259</ele>
                <time>2012-05-19T23:35:54.000Z</time>
                <name>Position 1588</name>
            </trkpt>
            <trkpt lon="9.761869" lat="47.831556">
                <ele>593.687112320025</ele>
                <time>2012-05-19T23:35:57.000Z</time>
                <name>Position 1589</name>
            </trkpt>
            <trkpt lon="9.761919" lat="47.831533">
                <ele>594.3588617599974</ele>
                <time>2012-05-19T23:35:58.000Z</time>
                <name>Position 1590</name>
            </trkpt>
            <trkpt lon="9.761972" lat="47.831517">
                <ele>594.8799891200446</ele>
                <time>2012-05-19T23:36:00.000Z</time>
                <name>Position 1591</name>
            </trkpt>
            <trkpt lon="9.762038" lat="47.831505">
                <ele>595.3499072000045</ele>
                <time>2012-05-19T23:36:02.000Z</time>
                <name>Position 1592</name>
            </trkpt>
            <trkpt lon="9.762073" lat="47.831464">
                <ele>596.3464313600667</ele>
                <time>2012-05-19T23:36:03.000Z</time>
                <name>Position 1593</name>
            </trkpt>
            <trkpt lon="9.76213" lat="47.831426">
                <ele>597.3340543999948</ele>
                <time>2012-05-19T23:36:06.000Z</time>
                <name>Position 1594</name>
            </trkpt>
            <trkpt lon="9.762184" lat="47.831416">
                <ele>597.7041267200586</ele>
                <time>2012-05-19T23:36:07.000Z</time>
                <name>Position 1595</name>
            </trkpt>
            <trkpt lon="9.762224" lat="47.831425">
                <ele>597.6284959999383</ele>
                <time>2012-05-19T23:36:08.000Z</time>
                <name>Position 1596</name>
            </trkpt>
            <trkpt lon="9.762224" lat="47.831419">
                <ele>597.755665280069</ele>
                <time>2012-05-19T23:36:09.000Z</time>
                <name>Position 1597</name>
            </trkpt>
            <trkpt lon="9.762237" lat="47.831424">
                <ele>597.687405440038</ele>
                <time>2012-05-19T23:36:09.000Z</time>
                <name>Position 1598</name>
            </trkpt>
            <trkpt lon="9.76225" lat="47.831352">
                <ele>599.245759999948</ele>
                <time>2012-05-19T23:36:12.000Z</time>
                <name>Position 1599</name>
            </trkpt>
            <trkpt lon="9.762263" lat="47.831351">
                <ele>599.3018614400471</ele>
                <time>2012-05-19T23:36:12.000Z</time>
                <name>Position 1600</name>
            </trkpt>
            <trkpt lon="9.762267" lat="47.831317">
                <ele>600.0290403200316</ele>
                <time>2012-05-19T23:36:14.000Z</time>
                <name>Position 1601</name>
            </trkpt>
            <trkpt lon="9.762311" lat="47.831256">
                <ele>601.420734079933</ele>
                <time>2012-05-19T23:36:16.000Z</time>
                <name>Position 1602</name>
            </trkpt>
            <trkpt lon="9.762343" lat="47.831239">
                <ele>601.8525737600735</ele>
                <time>2012-05-19T23:36:17.000Z</time>
                <name>Position 1603</name>
            </trkpt>
            <trkpt lon="9.762405" lat="47.831184">
                <ele>603.1364575999927</ele>
                <time>2012-05-19T23:36:20.000Z</time>
                <name>Position 1604</name>
            </trkpt>
            <trkpt lon="9.762431" lat="47.831182">
                <ele>603.2351129600353</ele>
                <time>2012-05-19T23:36:21.000Z</time>
                <name>Position 1605</name>
            </trkpt>
            <trkpt lon="9.76246" lat="47.83121">
                <ele>602.7246080000308</ele>
                <time>2012-05-19T23:36:22.000Z</time>
                <name>Position 1606</name>
            </trkpt>
            <trkpt lon="9.762471" lat="47.831215">
                <ele>602.6473231999956</ele>
                <time>2012-05-19T23:36:23.000Z</time>
                <name>Position 1607</name>
            </trkpt>
            <trkpt lon="9.762499" lat="47.831231">
                <ele>602.3852547199509</ele>
                <time>2012-05-19T23:36:24.000Z</time>
                <name>Position 1608</name>
            </trkpt>
            <trkpt lon="9.762512" lat="47.831218">
                <ele>602.5774707200117</ele>
                <time>2012-05-19T23:36:24.000Z</time>
                <name>Position 1609</name>
            </trkpt>
            <trkpt lon="9.762618" lat="47.831112">
                <ele>604.2005427200593</ele>
                <time>2012-05-19T23:36:29.000Z</time>
                <name>Position 1610</name>
            </trkpt>
            <trkpt lon="9.762642" lat="47.831104">
                <ele>604.2501785599302</ele>
                <time>2012-05-19T23:36:30.000Z</time>
                <name>Position 1611</name>
            </trkpt>
            <trkpt lon="9.762655" lat="47.831102">
                <ele>604.2274351999702</ele>
                <time>2012-05-19T23:36:30.000Z</time>
                <name>Position 1612</name>
            </trkpt>
            <trkpt lon="9.762655" lat="47.83109">
                <ele>604.4909839999291</ele>
                <time>2012-05-19T23:36:31.000Z</time>
                <name>Position 1613</name>
            </trkpt>
            <trkpt lon="9.762639" lat="47.831085">
                <ele>604.6797847999665</ele>
                <time>2012-05-19T23:36:31.000Z</time>
                <name>Position 1614</name>
            </trkpt>
            <trkpt lon="9.762642" lat="47.831085">
                <ele>604.6649743999687</ele>
                <time>2012-05-19T23:36:31.000Z</time>
                <name>Position 1615</name>
            </trkpt>
            <trkpt lon="9.762622" lat="47.831079">
                <ele>604.893488959945</ele>
                <time>2012-05-19T23:36:32.000Z</time>
                <name>Position 1616</name>
            </trkpt>
            <trkpt lon="9.762632" lat="47.831055">
                <ele>605.3662592000195</ele>
                <time>2012-05-19T23:36:33.000Z</time>
                <name>Position 1617</name>
            </trkpt>
            <trkpt lon="9.76263" lat="47.831036">
                <ele>605.7880256000591</ele>
                <time>2012-05-19T23:36:34.000Z</time>
                <name>Position 1618</name>
            </trkpt>
            <trkpt lon="9.762639" lat="47.831022">
                <ele>606.0532553600616</ele>
                <time>2012-05-19T23:36:34.000Z</time>
                <name>Position 1619</name>
            </trkpt>
            <trkpt lon="9.762604" lat="47.831026">
                <ele>606.1180236799744</ele>
                <time>2012-05-19T23:36:35.000Z</time>
                <name>Position 1620</name>
            </trkpt>
            <trkpt lon="9.762549" lat="47.831029">
                <ele>606.2941563199836</ele>
                <time>2012-05-19T23:36:37.000Z</time>
                <name>Position 1621</name>
            </trkpt>
            <trkpt lon="9.762538" lat="47.831042">
                <ele>606.0720723200781</ele>
                <time>2012-05-19T23:36:37.000Z</time>
                <name>Position 1622</name>
            </trkpt>
            <trkpt lon="9.762523" lat="47.831031">
                <ele>606.3665729599418</ele>
                <time>2012-05-19T23:36:38.000Z</time>
                <name>Position 1623</name>
            </trkpt>
            <trkpt lon="9.76251" lat="47.831038">
                <ele>606.2801696000093</ele>
                <time>2012-05-19T23:36:38.000Z</time>
                <name>Position 1624</name>
            </trkpt>
            <trkpt lon="9.762494" lat="47.831039">
                <ele>606.2936460800639</ele>
                <time>2012-05-19T23:36:39.000Z</time>
                <name>Position 1625</name>
            </trkpt>
            <trkpt lon="9.76249" lat="47.83102">
                <ele>606.674623999954</ele>
                <time>2012-05-19T23:36:40.000Z</time>
                <name>Position 1626</name>
            </trkpt>
            <trkpt lon="9.762503" lat="47.831018">
                <ele>606.7200156799943</ele>
                <time>2012-05-19T23:36:40.000Z</time>
                <name>Position 1627</name>
            </trkpt>
            <trkpt lon="9.762542" lat="47.831021">
                <ele>606.4913494400073</ele>
                <time>2012-05-19T23:36:41.000Z</time>
                <name>Position 1628</name>
            </trkpt>
            <trkpt lon="9.762555" lat="47.83102">
                <ele>606.4565119999504</ele>
                <time>2012-05-19T23:36:41.000Z</time>
                <name>Position 1629</name>
            </trkpt>
            <trkpt lon="9.762555" lat="47.831032">
                <ele>606.2050591999897</ele>
                <time>2012-05-19T23:36:42.000Z</time>
                <name>Position 1630</name>
            </trkpt>
            <trkpt lon="9.762553" lat="47.831025">
                <ele>606.3604040000672</ele>
                <time>2012-05-19T23:36:42.000Z</time>
                <name>Position 1631</name>
            </trkpt>
            <trkpt lon="9.76254" lat="47.831033">
                <ele>606.2502944000476</ele>
                <time>2012-05-19T23:36:43.000Z</time>
                <name>Position 1632</name>
            </trkpt>
            <trkpt lon="9.762535" lat="47.831032">
                <ele>606.2931103999942</ele>
                <time>2012-05-19T23:36:43.000Z</time>
                <name>Position 1633</name>
            </trkpt>
            <trkpt lon="9.762533" lat="47.831025">
                <ele>606.447044000071</ele>
                <time>2012-05-19T23:36:43.000Z</time>
                <name>Position 1634</name>
            </trkpt>
            <trkpt lon="9.762544" lat="47.831029">
                <ele>606.3160179199828</ele>
                <time>2012-05-19T23:36:43.000Z</time>
                <name>Position 1635</name>
            </trkpt>
            <trkpt lon="9.762634" lat="47.831027">
                <ele>605.9660105600261</ele>
                <time>2012-05-19T23:36:46.000Z</time>
                <name>Position 1636</name>
            </trkpt>
            <trkpt lon="9.76279" lat="47.83109">
                <ele>603.8177119999237</ele>
                <time>2012-05-19T23:36:51.000Z</time>
                <name>Position 1637</name>
            </trkpt>
            <trkpt lon="9.762856" lat="47.831102">
                <ele>603.2006950399739</ele>
                <time>2012-05-19T23:36:53.000Z</time>
                <name>Position 1638</name>
            </trkpt>
            <trkpt lon="9.762884" lat="47.831112">
                <ele>602.8149593600672</ele>
                <time>2012-05-19T23:36:53.000Z</time>
                <name>Position 1639</name>
            </trkpt>
            <trkpt lon="9.762955" lat="47.831126">
                <ele>602.0953136000637</ele>
                <time>2012-05-19T23:36:55.000Z</time>
                <name>Position 1640</name>
            </trkpt>
            <trkpt lon="9.763181" lat="47.83122">
                <ele>598.323334399956</ele>
                <time>2012-05-19T23:37:03.000Z</time>
                <name>Position 1641</name>
            </trkpt>
            <trkpt lon="9.763322" lat="47.831308">
                <ele>594.9110259200013</ele>
                <time>2012-05-19T23:37:08.000Z</time>
                <name>Position 1642</name>
            </trkpt>
            <trkpt lon="9.763403" lat="47.831313">
                <ele>594.5791604799589</ele>
                <time>2012-05-19T23:37:10.000Z</time>
                <name>Position 1643</name>
            </trkpt>
            <trkpt lon="9.763513" lat="47.831336">
                <ele>593.7665497599949</ele>
                <time>2012-05-19T23:37:13.000Z</time>
                <name>Position 1644</name>
            </trkpt>
            <trkpt lon="9.763704" lat="47.83134">
                <ele>593.384915200075</ele>
                <time>2012-05-19T23:37:18.000Z</time>
                <name>Position 1645</name>
            </trkpt>
            <trkpt lon="9.763921" lat="47.831287">
                <ele>594.4705326399182</ele>
                <time>2012-05-19T23:37:24.000Z</time>
                <name>Position 1646</name>
            </trkpt>
            <trkpt lon="9.764154" lat="47.831264">
                <ele>594.6692339200704</ele>
                <time>2012-05-19T23:37:31.000Z</time>
                <name>Position 1647</name>
            </trkpt>
            <trkpt lon="9.764334" lat="47.831223">
                <ele>595.868188159968</ele>
                <time>2012-05-19T23:37:36.000Z</time>
                <name>Position 1648</name>
            </trkpt>
            <trkpt lon="9.764521" lat="47.831219">
                <ele>596.1747651200685</ele>
                <time>2012-05-19T23:37:41.000Z</time>
                <name>Position 1649</name>
            </trkpt>
            <trkpt lon="9.764665" lat="47.831207">
                <ele>596.6198864000235</ele>
                <time>2012-05-19T23:37:45.000Z</time>
                <name>Position 1650</name>
            </trkpt>
            <trkpt lon="9.764792" lat="47.831183">
                <ele>597.3181356799344</ele>
                <time>2012-05-19T23:37:48.000Z</time>
                <name>Position 1651</name>
            </trkpt>
            <trkpt lon="9.7649" lat="47.831174">
                <ele>597.6346880000676</ele>
                <time>2012-05-19T23:37:51.000Z</time>
                <name>Position 1652</name>
            </trkpt>
            <trkpt lon="9.764986" lat="47.831193">
                <ele>597.2850982400262</ele>
                <time>2012-05-19T23:37:54.000Z</time>
                <name>Position 1653</name>
            </trkpt>
            <trkpt lon="9.765052" lat="47.831181">
                <ele>597.7967667199861</ele>
                <time>2012-05-19T23:37:55.000Z</time>
                <name>Position 1654</name>
            </trkpt>
            <trkpt lon="9.765082" lat="47.831121">
                <ele>599.300832319929</ele>
                <time>2012-05-19T23:37:58.000Z</time>
                <name>Position 1655</name>
            </trkpt>
            <trkpt lon="9.765111" lat="47.83112">
                <ele>599.4509792000324</ele>
                <time>2012-05-19T23:37:59.000Z</time>
                <name>Position 1656</name>
            </trkpt>
            <trkpt lon="9.765137" lat="47.831105">
                <ele>599.9100055999788</ele>
                <time>2012-05-19T23:38:00.000Z</time>
                <name>Position 1657</name>
            </trkpt>
            <trkpt lon="9.765192" lat="47.831083">
                <ele>600.6601721600152</ele>
                <time>2012-05-19T23:38:01.000Z</time>
                <name>Position 1658</name>
            </trkpt>
            <trkpt lon="9.765271" lat="47.831052">
                <ele>601.7298675200105</ele>
                <time>2012-05-19T23:38:04.000Z</time>
                <name>Position 1659</name>
            </trkpt>
            <trkpt lon="9.765323" lat="47.83103">
                <ele>602.4749264000416</ele>
                <time>2012-05-19T23:38:05.000Z</time>
                <name>Position 1660</name>
            </trkpt>
            <trkpt lon="9.76535" lat="47.831034">
                <ele>602.5036639999428</ele>
                <time>2012-05-19T23:38:06.000Z</time>
                <name>Position 1661</name>
            </trkpt>
            <trkpt lon="9.765398" lat="47.831022">
                <ele>603.000671360063</ele>
                <time>2012-05-19T23:38:08.000Z</time>
                <name>Position 1662</name>
            </trkpt>
            <trkpt lon="9.765466" lat="47.831035">
                <ele>603.0034736000027</ele>
                <time>2012-05-19T23:38:10.000Z</time>
                <name>Position 1663</name>
            </trkpt>
            <trkpt lon="9.765503" lat="47.831031">
                <ele>603.2644260799356</ele>
                <time>2012-05-19T23:38:11.000Z</time>
                <name>Position 1664</name>
            </trkpt>
            <trkpt lon="9.765516" lat="47.83103">
                <ele>603.3466688000395</ele>
                <time>2012-05-19T23:38:11.000Z</time>
                <name>Position 1665</name>
            </trkpt>
            <trkpt lon="9.765575" lat="47.830992">
                <ele>604.5110239999565</ele>
                <time>2012-05-19T23:38:13.000Z</time>
                <name>Position 1666</name>
            </trkpt>
            <trkpt lon="9.765641" lat="47.830999">
                <ele>604.64668304004</ele>
                <time>2012-05-19T23:38:15.000Z</time>
                <name>Position 1667</name>
            </trkpt>
            <trkpt lon="9.765769" lat="47.831081">
                <ele>603.2701438400641</ele>
                <time>2012-05-19T23:38:20.000Z</time>
                <name>Position 1668</name>
            </trkpt>
            <trkpt lon="9.765922" lat="47.831119">
                <ele>603.2124739199753</ele>
                <time>2012-05-19T23:38:24.000Z</time>
                <name>Position 1669</name>
            </trkpt>
            <trkpt lon="9.765964" lat="47.831141">
                <ele>602.9578905599479</ele>
                <time>2012-05-19T23:38:25.000Z</time>
                <name>Position 1670</name>
            </trkpt>
            <trkpt lon="9.766083" lat="47.831143">
                <ele>603.6773313600662</ele>
                <time>2012-05-19T23:38:29.000Z</time>
                <name>Position 1671</name>
            </trkpt>
            <trkpt lon="9.766199" lat="47.831162">
                <ele>603.9790627200257</ele>
                <time>2012-05-19T23:38:32.000Z</time>
                <name>Position 1672</name>
            </trkpt>
            <trkpt lon="9.766286" lat="47.831147">
                <ele>604.8924604799633</ele>
                <time>2012-05-19T23:38:34.000Z</time>
                <name>Position 1673</name>
            </trkpt>
            <trkpt lon="9.766363" lat="47.831116">
                <ele>606.1095955199673</ele>
                <time>2012-05-19T23:38:37.000Z</time>
                <name>Position 1674</name>
            </trkpt>
            <trkpt lon="9.766442" lat="47.831097">
                <ele>607.0550985600051</ele>
                <time>2012-05-19T23:38:39.000Z</time>
                <name>Position 1675</name>
            </trkpt>
            <trkpt lon="9.766482" lat="47.831081">
                <ele>607.6793404800584</ele>
                <time>2012-05-19T23:38:40.000Z</time>
                <name>Position 1676</name>
            </trkpt>
            <trkpt lon="9.76653" lat="47.831051">
                <ele>608.674363199948</ele>
                <time>2012-05-19T23:38:42.000Z</time>
                <name>Position 1677</name>
            </trkpt>
            <trkpt lon="9.766543" lat="47.83105">
                <ele>608.7794160000591</ele>
                <time>2012-05-19T23:38:42.000Z</time>
                <name>Position 1678</name>
            </trkpt>
            <trkpt lon="9.766556" lat="47.831049">
                <ele>608.8844313599957</ele>
                <time>2012-05-19T23:38:43.000Z</time>
                <name>Position 1679</name>
            </trkpt>
            <trkpt lon="9.76658" lat="47.83104">
                <ele>609.2422079999623</ele>
                <time>2012-05-19T23:38:43.000Z</time>
                <name>Position 1680</name>
            </trkpt>
            <trkpt lon="9.766668" lat="47.831066">
                <ele>609.2063999999984</ele>
                <time>2012-05-19T23:38:46.000Z</time>
                <name>Position 1681</name>
            </trkpt>
            <trkpt lon="9.766743" lat="47.831135">
                <ele>608.2631999999262</ele>
                <time>2012-05-19T23:38:49.000Z</time>
                <name>Position 1682</name>
            </trkpt>
            <trkpt lon="9.766798" lat="47.831155">
                <ele>608.269199999941</ele>
                <time>2012-05-19T23:38:51.000Z</time>
                <name>Position 1683</name>
            </trkpt>
            <trkpt lon="9.766963" lat="47.831244">
                <ele>607.6260000000493</ele>
                <time>2012-05-19T23:38:57.000Z</time>
                <name>Position 1684</name>
            </trkpt>
            <trkpt lon="9.76706" lat="47.831261">
                <ele>608.0532000000578</ele>
                <time>2012-05-19T23:38:59.000Z</time>
                <name>Position 1685</name>
            </trkpt>
            <trkpt lon="9.76717" lat="47.831259">
                <ele>609.0227999999375</ele>
                <time>2012-05-19T23:39:02.000Z</time>
                <name>Position 1686</name>
            </trkpt>
            <trkpt lon="9.767253" lat="47.83126">
                <ele>609.6971999999956</ele>
                <time>2012-05-19T23:39:05.000Z</time>
                <name>Position 1687</name>
            </trkpt>
            <trkpt lon="9.767304" lat="47.831236">
                <ele>610.6728000000649</ele>
                <time>2012-05-19T23:39:06.000Z</time>
                <name>Position 1688</name>
            </trkpt>
            <trkpt lon="9.767382" lat="47.831236">
                <ele>611.3280000000668</ele>
                <time>2012-05-19T23:39:08.000Z</time>
                <name>Position 1689</name>
            </trkpt>
            <trkpt lon="9.767545" lat="47.831199">
                <ele>613.5237144000481</ele>
                <time>2012-05-19T23:39:13.000Z</time>
                <name>Position 1690</name>
            </trkpt>
            <trkpt lon="9.767809" lat="47.8313">
                <ele>613.2034560000282</ele>
                <time>2012-05-19T23:39:21.000Z</time>
                <name>Position 1691</name>
            </trkpt>
            <trkpt lon="9.768084" lat="47.831369">
                <ele>613.5417772799449</ele>
                <time>2012-05-19T23:39:29.000Z</time>
                <name>Position 1692</name>
            </trkpt>
            <trkpt lon="9.768242" lat="47.831384">
                <ele>614.3028710400099</ele>
                <time>2012-05-19T23:39:33.000Z</time>
                <name>Position 1693</name>
            </trkpt>
            <trkpt lon="9.76848" lat="47.831547">
                <ele>611.8659263999913</ele>
                <time>2012-05-19T23:39:42.000Z</time>
                <name>Position 1694</name>
            </trkpt>
            <trkpt lon="9.768709" lat="47.831688">
                <ele>610.2344595199991</ele>
                <time>2012-05-19T23:39:51.000Z</time>
                <name>Position 1695</name>
            </trkpt>
            <trkpt lon="9.768821" lat="47.831699">
                <ele>610.9528942399983</ele>
                <time>2012-05-19T23:39:54.000Z</time>
                <name>Position 1696</name>
            </trkpt>
            <trkpt lon="9.76898" lat="47.83172">
                <ele>611.8583360000645</ele>
                <time>2012-05-19T23:39:58.000Z</time>
                <name>Position 1697</name>
            </trkpt>
            <trkpt lon="9.769019" lat="47.831716">
                <ele>612.2636902399978</ele>
                <time>2012-05-19T23:39:59.000Z</time>
                <name>Position 1698</name>
            </trkpt>
            <trkpt lon="9.769127" lat="47.831702">
                <ele>613.448018239994</ele>
                <time>2012-05-19T23:40:02.000Z</time>
                <name>Position 1699</name>
            </trkpt>
            <trkpt lon="9.769186" lat="47.831717">
                <ele>613.6517936000446</ele>
                <time>2012-05-19T23:40:04.000Z</time>
                <name>Position 1700</name>
            </trkpt>
            <trkpt lon="9.769224" lat="47.831701">
                <ele>614.3358271999437</ele>
                <time>2012-05-19T23:40:05.000Z</time>
                <name>Position 1701</name>
            </trkpt>
            <trkpt lon="9.769309" lat="47.831708">
                <ele>614.9808416000195</ele>
                <time>2012-05-19T23:40:07.000Z</time>
                <name>Position 1702</name>
            </trkpt>
            <trkpt lon="9.769382" lat="47.831704">
                <ele>615.7477183999583</ele>
                <time>2012-05-19T23:40:09.000Z</time>
                <name>Position 1703</name>
            </trkpt>
            <trkpt lon="9.769468" lat="47.831693">
                <ele>616.7984671999678</ele>
                <time>2012-05-19T23:40:12.000Z</time>
                <name>Position 1704</name>
            </trkpt>
            <trkpt lon="9.76958" lat="47.831691">
                <ele>617.8991840000117</ele>
                <time>2012-05-19T23:40:15.000Z</time>
                <name>Position 1705</name>
            </trkpt>
            <trkpt lon="9.769672" lat="47.831754">
                <ele>617.2518464000821</ele>
                <time>2012-05-19T23:40:18.000Z</time>
                <name>Position 1706</name>
            </trkpt>
            <trkpt lon="9.769725" lat="47.831762">
                <ele>617.531960000051</ele>
                <time>2012-05-19T23:40:20.000Z</time>
                <name>Position 1707</name>
            </trkpt>
            <trkpt lon="9.76978" lat="47.831752">
                <ele>618.2703679999674</ele>
                <time>2012-05-19T23:40:21.000Z</time>
                <name>Position 1708</name>
            </trkpt>
            <trkpt lon="9.769795" lat="47.831751">
                <ele>618.4300760000764</ele>
                <time>2012-05-19T23:40:22.000Z</time>
                <name>Position 1709</name>
            </trkpt>
            <trkpt lon="9.769883" lat="47.831813">
                <ele>617.6368712000825</ele>
                <time>2012-05-19T23:40:25.000Z</time>
                <name>Position 1710</name>
            </trkpt>
            <trkpt lon="9.769899" lat="47.831818">
                <ele>617.645249600046</ele>
                <time>2012-05-19T23:40:26.000Z</time>
                <name>Position 1711</name>
            </trkpt>
            <trkpt lon="9.769912" lat="47.831817">
                <ele>617.7816511999739</ele>
                <time>2012-05-19T23:40:26.000Z</time>
                <name>Position 1712</name>
            </trkpt>
            <trkpt lon="9.769971" lat="47.831786">
                <ele>619.0961167999728</ele>
                <time>2012-05-19T23:40:28.000Z</time>
                <name>Position 1713</name>
            </trkpt>
            <trkpt lon="9.770006" lat="47.831769">
                <ele>619.8345267199676</ele>
                <time>2012-05-19T23:40:29.000Z</time>
                <name>Position 1714</name>
            </trkpt>
            <trkpt lon="9.770109" lat="47.831766">
                <ele>620.5376691199489</ele>
                <time>2012-05-19T23:40:32.000Z</time>
                <name>Position 1715</name>
            </trkpt>
            <trkpt lon="9.770195" lat="47.831797">
                <ele>620.1704191999479</ele>
                <time>2012-05-19T23:40:35.000Z</time>
                <name>Position 1716</name>
            </trkpt>
            <trkpt lon="9.770261" lat="47.831815">
                <ele>620.0172032000314</ele>
                <time>2012-05-19T23:40:36.000Z</time>
                <name>Position 1717</name>
            </trkpt>
            <trkpt lon="9.770302" lat="47.831855">
                <ele>619.0471808000749</ele>
                <time>2012-05-19T23:40:38.000Z</time>
                <name>Position 1718</name>
            </trkpt>
            <trkpt lon="9.770418" lat="47.831874">
                <ele>619.0376153600246</ele>
                <time>2012-05-19T23:40:42.000Z</time>
                <name>Position 1719</name>
            </trkpt>
            <trkpt lon="9.770445" lat="47.83189">
                <ele>618.6631039999596</ele>
                <time>2012-05-19T23:40:43.000Z</time>
                <name>Position 1720</name>
            </trkpt>
            <trkpt lon="9.770458" lat="47.831895">
                <ele>618.5648767999053</ele>
                <time>2012-05-19T23:40:43.000Z</time>
                <name>Position 1721</name>
            </trkpt>
            <trkpt lon="9.770544" lat="47.831914">
                <ele>618.337191680075</ele>
                <time>2012-05-19T23:40:45.000Z</time>
                <name>Position 1722</name>
            </trkpt>
            <trkpt lon="9.770557" lat="47.831913">
                <ele>618.4265676799965</ele>
                <time>2012-05-19T23:40:46.000Z</time>
                <name>Position 1723</name>
            </trkpt>
            <trkpt lon="9.770592" lat="47.831902">
                <ele>618.9446643200201</ele>
                <time>2012-05-19T23:40:47.000Z</time>
                <name>Position 1724</name>
            </trkpt>
            <trkpt lon="9.770739" lat="47.831872">
                <ele>620.6519398401061</ele>
                <time>2012-05-19T23:40:51.000Z</time>
                <name>Position 1725</name>
            </trkpt>
            <trkpt lon="9.770859" lat="47.831804">
                <ele>623.6277516800634</ele>
                <time>2012-05-19T23:40:55.000Z</time>
                <name>Position 1726</name>
            </trkpt>
            <trkpt lon="9.770894" lat="47.831811">
                <ele>623.474817919934</ele>
                <time>2012-05-19T23:40:56.000Z</time>
                <name>Position 1727</name>
            </trkpt>
            <trkpt lon="9.770905" lat="47.83181">
                <ele>623.5415840000999</ele>
                <time>2012-05-19T23:40:56.000Z</time>
                <name>Position 1728</name>
            </trkpt>
            <trkpt lon="9.770981" lat="47.831738">
                <ele>626.3167366399515</ele>
                <time>2012-05-19T23:41:00.000Z</time>
                <name>Position 1729</name>
            </trkpt>
            <trkpt lon="9.771043" lat="47.831707">
                <ele>627.5755548799473</ele>
                <time>2012-05-19T23:41:02.000Z</time>
                <name>Position 1730</name>
            </trkpt>
            <trkpt lon="9.771093" lat="47.831696">
                <ele>628.0891366399701</ele>
                <time>2012-05-19T23:41:03.000Z</time>
                <name>Position 1731</name>
            </trkpt>
            <trkpt lon="9.771159" lat="47.831708">
                <ele>627.8323673600369</ele>
                <time>2012-05-19T23:41:05.000Z</time>
                <name>Position 1732</name>
            </trkpt>
            <trkpt lon="9.771185" lat="47.8317">
                <ele>628.1777600000717</ele>
                <time>2012-05-19T23:41:06.000Z</time>
                <name>Position 1733</name>
            </trkpt>
            <trkpt lon="9.771196" lat="47.831692">
                <ele>628.4848601601124</ele>
                <time>2012-05-19T23:41:07.000Z</time>
                <name>Position 1734</name>
            </trkpt>
            <trkpt lon="9.771251" lat="47.831676">
                <ele>629.1776268799417</ele>
                <time>2012-05-19T23:41:08.000Z</time>
                <name>Position 1735</name>
            </trkpt>
            <trkpt lon="9.771343" lat="47.831638">
                <ele>630.363439040044</ele>
                <time>2012-05-19T23:41:11.000Z</time>
                <name>Position 1736</name>
            </trkpt>
            <trkpt lon="9.771459" lat="47.831579">
                <ele>631.9741841600506</ele>
                <time>2012-05-19T23:41:15.000Z</time>
                <name>Position 1737</name>
            </trkpt>
            <trkpt lon="9.771536" lat="47.831548">
                <ele>632.8696716800464</ele>
                <time>2012-05-19T23:41:17.000Z</time>
                <name>Position 1738</name>
            </trkpt>
            <trkpt lon="9.77163" lat="47.83154">
                <ele>633.293312000074</ele>
                <time>2012-05-19T23:41:20.000Z</time>
                <name>Position 1739</name>
            </trkpt>
            <trkpt lon="9.771753" lat="47.831549">
                <ele>632.5002831999388</ele>
                <time>2012-05-19T23:41:23.000Z</time>
                <name>Position 1740</name>
            </trkpt>
            <trkpt lon="9.771848" lat="47.831536">
                <ele>632.0795968000047</ele>
                <time>2012-05-19T23:41:26.000Z</time>
                <name>Position 1741</name>
            </trkpt>
            <trkpt lon="9.771889" lat="47.831545">
                <ele>631.5291280000451</ele>
                <time>2012-05-19T23:41:27.000Z</time>
                <name>Position 1742</name>
            </trkpt>
            <trkpt lon="9.771957" lat="47.831505">
                <ele>632.0746960000013</ele>
                <time>2012-05-19T23:41:29.000Z</time>
                <name>Position 1743</name>
            </trkpt>
            <trkpt lon="9.772047" lat="47.831491">
                <ele>631.8160912000056</ele>
                <time>2012-05-19T23:41:32.000Z</time>
                <name>Position 1744</name>
            </trkpt>
            <trkpt lon="9.772097" lat="47.831492">
                <ele>631.4335744000799</ele>
                <time>2012-05-19T23:41:33.000Z</time>
                <name>Position 1745</name>
            </trkpt>
            <trkpt lon="9.772137" lat="47.831482">
                <ele>631.4459103999635</ele>
                <time>2012-05-19T23:41:34.000Z</time>
                <name>Position 1746</name>
            </trkpt>
            <trkpt lon="9.77224" lat="47.831418">
                <ele>632.7185920000239</ele>
                <time>2012-05-19T23:41:38.000Z</time>
                <name>Position 1747</name>
            </trkpt>
            <trkpt lon="9.772303" lat="47.831388">
                <ele>633.2982784000974</ele>
                <time>2012-05-19T23:41:40.000Z</time>
                <name>Position 1748</name>
            </trkpt>
            <trkpt lon="9.772317" lat="47.831393">
                <ele>633.0592336000559</ele>
                <time>2012-05-19T23:41:41.000Z</time>
                <name>Position 1749</name>
            </trkpt>
            <trkpt lon="9.772325" lat="47.831379">
                <ele>633.4658800000557</ele>
                <time>2012-05-19T23:41:41.000Z</time>
                <name>Position 1750</name>
            </trkpt>
            <trkpt lon="9.772327" lat="47.831379">
                <ele>633.4549648000542</ele>
                <time>2012-05-19T23:41:41.000Z</time>
                <name>Position 1751</name>
            </trkpt>
            <trkpt lon="9.77233" lat="47.831392">
                <ele>633.0180159999693</ele>
                <time>2012-05-19T23:41:42.000Z</time>
                <name>Position 1752</name>
            </trkpt>
            <trkpt lon="9.772341" lat="47.831384">
                <ele>633.2160064000019</ele>
                <time>2012-05-19T23:41:42.000Z</time>
                <name>Position 1753</name>
            </trkpt>
            <trkpt lon="9.772341" lat="47.831366">
                <ele>633.8011935999107</ele>
                <time>2012-05-19T23:41:43.000Z</time>
                <name>Position 1754</name>
            </trkpt>
            <trkpt lon="9.772354" lat="47.831347">
                <ele>634.3539327999724</ele>
                <time>2012-05-19T23:41:44.000Z</time>
                <name>Position 1755</name>
            </trkpt>
            <trkpt lon="9.772367" lat="47.831334">
                <ele>634.7164768000653</ele>
                <time>2012-05-19T23:41:44.000Z</time>
                <name>Position 1756</name>
            </trkpt>
            <trkpt lon="9.772395" lat="47.831332">
                <ele>634.6483839998962</ele>
                <time>2012-05-19T23:41:45.000Z</time>
                <name>Position 1757</name>
            </trkpt>
            <trkpt lon="9.772446" lat="47.831303">
                <ele>635.3912128000577</ele>
                <time>2012-05-19T23:41:47.000Z</time>
                <name>Position 1758</name>
            </trkpt>
            <trkpt lon="9.77252" lat="47.831259">
                <ele>636.6046143999042</ele>
                <time>2012-05-19T23:41:50.000Z</time>
                <name>Position 1759</name>
            </trkpt>
            <trkpt lon="9.772597" lat="47.831245">
                <ele>636.7617111999158</ele>
                <time>2012-05-19T23:41:52.000Z</time>
                <name>Position 1760</name>
            </trkpt>
            <trkpt lon="9.772643" lat="47.831221">
                <ele>637.3667982400242</ele>
                <time>2012-05-19T23:41:53.000Z</time>
                <name>Position 1761</name>
            </trkpt>
            <trkpt lon="9.772656" lat="47.83122">
                <ele>637.341625599944</ele>
                <time>2012-05-19T23:41:54.000Z</time>
                <name>Position 1762</name>
            </trkpt>
            <trkpt lon="9.772709" lat="47.831209">
                <ele>637.4626244799607</ele>
                <time>2012-05-19T23:41:55.000Z</time>
                <name>Position 1763</name>
            </trkpt>
            <trkpt lon="9.772781" lat="47.831177">
                <ele>638.1534289601072</ele>
                <time>2012-05-19T23:41:58.000Z</time>
                <name>Position 1764</name>
            </trkpt>
            <trkpt lon="9.772851" lat="47.831132">
                <ele>639.2147065601117</ele>
                <time>2012-05-19T23:42:00.000Z</time>
                <name>Position 1765</name>
            </trkpt>
            <trkpt lon="9.772936" lat="47.831086">
                <ele>640.1552396800327</ele>
                <time>2012-05-19T23:42:03.000Z</time>
                <name>Position 1766</name>
            </trkpt>
            <trkpt lon="9.773024" lat="47.831077">
                <ele>639.9058278399912</ele>
                <time>2012-05-19T23:42:05.000Z</time>
                <name>Position 1767</name>
            </trkpt>
            <trkpt lon="9.7731" lat="47.831064">
                <ele>639.8278720000695</ele>
                <time>2012-05-19T23:42:08.000Z</time>
                <name>Position 1768</name>
            </trkpt>
            <trkpt lon="9.773241" lat="47.83099">
                <ele>640.9937872000023</ele>
                <time>2012-05-19T23:42:12.000Z</time>
                <name>Position 1769</name>
            </trkpt>
            <trkpt lon="9.773403" lat="47.83087">
                <ele>642.8752384000659</ele>
                <time>2012-05-19T23:42:19.000Z</time>
                <name>Position 1770</name>
            </trkpt>
            <trkpt lon="9.773545" lat="47.830827">
                <ele>642.2938608000065</ele>
                <time>2012-05-19T23:42:23.000Z</time>
                <name>Position 1771</name>
            </trkpt>
            <trkpt lon="9.773664" lat="47.830811">
                <ele>641.2180684800384</ele>
                <time>2012-05-19T23:42:26.000Z</time>
                <name>Position 1772</name>
            </trkpt>
            <trkpt lon="9.773784" lat="47.830759">
                <ele>640.6212787200049</ele>
                <time>2012-05-19T23:42:30.000Z</time>
                <name>Position 1773</name>
            </trkpt>
            <trkpt lon="9.773874" lat="47.830732">
                <ele>640.0345881600423</ele>
                <time>2012-05-19T23:42:33.000Z</time>
                <name>Position 1774</name>
            </trkpt>
            <trkpt lon="9.773966" lat="47.8307">
                <ele>639.510144000002</ele>
                <time>2012-05-19T23:42:36.000Z</time>
                <name>Position 1775</name>
            </trkpt>
            <trkpt lon="9.774065" lat="47.830653">
                <ele>639.1419984000266</ele>
                <time>2012-05-19T23:42:39.000Z</time>
                <name>Position 1776</name>
            </trkpt>
            <trkpt lon="9.774152" lat="47.83059">
                <ele>639.1521215999816</ele>
                <time>2012-05-19T23:42:42.000Z</time>
                <name>Position 1777</name>
            </trkpt>
            <trkpt lon="9.77424" lat="47.830533">
                <ele>640.690508799973</ele>
                <time>2012-05-19T23:42:46.000Z</time>
                <name>Position 1778</name>
            </trkpt>
            <trkpt lon="9.774325" lat="47.830463">
                <ele>642.6061839999701</ele>
                <time>2012-05-19T23:42:49.000Z</time>
                <name>Position 1779</name>
            </trkpt>
            <trkpt lon="9.774395" lat="47.830394">
                <ele>644.2476832000237</ele>
                <time>2012-05-19T23:42:53.000Z</time>
                <name>Position 1780</name>
            </trkpt>
            <trkpt lon="9.774471" lat="47.830304">
                <ele>646.1129497600238</ele>
                <time>2012-05-19T23:42:57.000Z</time>
                <name>Position 1781</name>
            </trkpt>
            <trkpt lon="9.77453" lat="47.830236">
                <ele>647.4584512000121</ele>
                <time>2012-05-19T23:43:00.000Z</time>
                <name>Position 1782</name>
            </trkpt>
            <trkpt lon="9.774583" lat="47.830155">
                <ele>648.8231536000233</ele>
                <time>2012-05-19T23:43:03.000Z</time>
                <name>Position 1783</name>
            </trkpt>
            <trkpt lon="9.774648" lat="47.830084">
                <ele>650.10533248</ele>
                <time>2012-05-19T23:43:07.000Z</time>
                <name>Position 1784</name>
            </trkpt>
            <trkpt lon="9.774683" lat="47.830032">
                <ele>650.8995558399699</ele>
                <time>2012-05-19T23:43:09.000Z</time>
                <name>Position 1785</name>
            </trkpt>
            <trkpt lon="9.774733" lat="47.830002">
                <ele>651.5585862399934</ele>
                <time>2012-05-19T23:43:11.000Z</time>
                <name>Position 1786</name>
            </trkpt>
            <trkpt lon="9.77472" lat="47.830016">
                <ele>651.3300927999978</ele>
                <time>2012-05-19T23:43:11.000Z</time>
                <name>Position 1787</name>
            </trkpt>
            <trkpt lon="9.7747" lat="47.830033">
                <ele>651.0168639999929</ele>
                <time>2012-05-19T23:43:12.000Z</time>
                <name>Position 1788</name>
            </trkpt>
            <trkpt lon="9.774713" lat="47.830044">
                <ele>651.0076940799936</ele>
                <time>2012-05-19T23:43:13.000Z</time>
                <name>Position 1789</name>
            </trkpt>
            <trkpt lon="9.774709" lat="47.830037">
                <ele>651.0453731200247</ele>
                <time>2012-05-19T23:43:13.000Z</time>
                <name>Position 1790</name>
            </trkpt>
            <trkpt lon="9.774726" lat="47.830009">
                <ele>651.4410937600258</ele>
                <time>2012-05-19T23:43:14.000Z</time>
                <name>Position 1791</name>
            </trkpt>
            <trkpt lon="9.774724" lat="47.830002">
                <ele>651.4936307200035</ele>
                <time>2012-05-19T23:43:15.000Z</time>
                <name>Position 1792</name>
            </trkpt>
            <trkpt lon="9.774726" lat="47.830009">
                <ele>651.4410937600258</ele>
                <time>2012-05-19T23:43:15.000Z</time>
                <name>Position 1793</name>
            </trkpt>
            <trkpt lon="9.774713" lat="47.830022">
                <ele>651.220647040006</ele>
                <time>2012-05-19T23:43:16.000Z</time>
                <name>Position 1794</name>
            </trkpt>
            <trkpt lon="9.774691" lat="47.830049">
                <ele>650.7915817599813</ele>
                <time>2012-05-19T23:43:17.000Z</time>
                <name>Position 1795</name>
            </trkpt>
            <trkpt lon="9.774665" lat="47.830058">
                <ele>650.5025247999945</ele>
                <time>2012-05-19T23:43:18.000Z</time>
                <name>Position 1796</name>
            </trkpt>
            <trkpt lon="9.774639" lat="47.830072">
                <ele>650.1578291199918</ele>
                <time>2012-05-19T23:43:18.000Z</time>
                <name>Position 1797</name>
            </trkpt>
            <trkpt lon="9.774625" lat="47.830073">
                <ele>650.0378800000167</ele>
                <time>2012-05-19T23:43:19.000Z</time>
                <name>Position 1798</name>
            </trkpt>
            <trkpt lon="9.774612" lat="47.83008">
                <ele>649.862214399971</ele>
                <time>2012-05-19T23:43:19.000Z</time>
                <name>Position 1799</name>
            </trkpt>
            <trkpt lon="9.774597" lat="47.830087">
                <ele>649.6690729600122</ele>
                <time>2012-05-19T23:43:20.000Z</time>
                <name>Position 1800</name>
            </trkpt>
            <trkpt lon="9.774592" lat="47.830086">
                <ele>649.6400396799867</ele>
                <time>2012-05-19T23:43:20.000Z</time>
                <name>Position 1801</name>
            </trkpt>
            <trkpt lon="9.774577" lat="47.830098">
                <ele>649.3906374400115</ele>
                <time>2012-05-19T23:43:21.000Z</time>
                <name>Position 1802</name>
            </trkpt>
            <trkpt lon="9.774588" lat="47.830097">
                <ele>649.4899110399751</ele>
                <time>2012-05-19T23:43:21.000Z</time>
                <name>Position 1803</name>
            </trkpt>
            <trkpt lon="9.774577" lat="47.830098">
                <ele>649.3906374400115</ele>
                <time>2012-05-19T23:43:21.000Z</time>
                <name>Position 1804</name>
            </trkpt>
            <trkpt lon="9.774577" lat="47.830092">
                <ele>649.4557657600012</ele>
                <time>2012-05-19T23:43:21.000Z</time>
                <name>Position 1805</name>
            </trkpt>
            <trkpt lon="9.774577" lat="47.830086">
                <ele>649.520894079991</ele>
                <time>2012-05-19T23:43:22.000Z</time>
                <name>Position 1806</name>
            </trkpt>
            <trkpt lon="9.774577" lat="47.830092">
                <ele>649.4557657600012</ele>
                <time>2012-05-19T23:43:22.000Z</time>
                <name>Position 1807</name>
            </trkpt>
            <trkpt lon="9.774561" lat="47.830099">
                <ele>649.2508969600356</ele>
                <time>2012-05-19T23:43:22.000Z</time>
                <name>Position 1808</name>
            </trkpt>
            <trkpt lon="9.774559" lat="47.830092">
                <ele>649.3118579199953</ele>
                <time>2012-05-19T23:43:23.000Z</time>
                <name>Position 1809</name>
            </trkpt>
            <trkpt lon="9.774557" lat="47.830086">
                <ele>649.3620332799827</ele>
                <time>2012-05-19T23:43:23.000Z</time>
                <name>Position 1810</name>
            </trkpt>
            <trkpt lon="9.774557" lat="47.83008">
                <ele>649.4281983999723</ele>
                <time>2012-05-19T23:43:23.000Z</time>
                <name>Position 1811</name>
            </trkpt>
            <trkpt lon="9.77457" lat="47.830073">
                <ele>649.6071904000197</ele>
                <time>2012-05-19T23:43:24.000Z</time>
                <name>Position 1812</name>
            </trkpt>
            <trkpt lon="9.774572" lat="47.830079">
                <ele>649.5574643200181</ele>
                <time>2012-05-19T23:43:24.000Z</time>
                <name>Position 1813</name>
            </trkpt>
            <trkpt lon="9.774557" lat="47.830068">
                <ele>649.5605286400302</ele>
                <time>2012-05-19T23:43:24.000Z</time>
                <name>Position 1814</name>
            </trkpt>
            <trkpt lon="9.77457" lat="47.830067">
                <ele>649.6726816000095</ele>
                <time>2012-05-19T23:43:25.000Z</time>
                <name>Position 1815</name>
            </trkpt>
            <trkpt lon="9.774557" lat="47.830068">
                <ele>649.5605286400302</ele>
                <time>2012-05-19T23:43:25.000Z</time>
                <name>Position 1816</name>
            </trkpt>
            <trkpt lon="9.774555" lat="47.830055">
                <ele>649.6885359999794</ele>
                <time>2012-05-19T23:43:26.000Z</time>
                <name>Position 1817</name>
            </trkpt>
            <trkpt lon="9.774555" lat="47.830049">
                <ele>649.7548047999691</ele>
                <time>2012-05-19T23:43:26.000Z</time>
                <name>Position 1818</name>
            </trkpt>
            <trkpt lon="9.774555" lat="47.830043">
                <ele>649.8210735999587</ele>
                <time>2012-05-19T23:43:26.000Z</time>
                <name>Position 1819</name>
            </trkpt>
            <trkpt lon="9.774552" lat="47.830036">
                <ele>649.8758540800026</ele>
                <time>2012-05-19T23:43:26.000Z</time>
                <name>Position 1820</name>
            </trkpt>
            <trkpt lon="9.774563" lat="47.830029">
                <ele>650.0353052799694</ele>
                <time>2012-05-19T23:43:27.000Z</time>
                <name>Position 1821</name>
            </trkpt>
            <trkpt lon="9.774563" lat="47.830023">
                <ele>650.1011593600371</ele>
                <time>2012-05-19T23:43:27.000Z</time>
                <name>Position 1822</name>
            </trkpt>
            <trkpt lon="9.774563" lat="47.830017">
                <ele>650.1670134400267</ele>
                <time>2012-05-19T23:43:27.000Z</time>
                <name>Position 1823</name>
            </trkpt>
            <trkpt lon="9.774563" lat="47.830011">
                <ele>650.2328675200164</ele>
                <time>2012-05-19T23:43:28.000Z</time>
                <name>Position 1824</name>
            </trkpt>
            <trkpt lon="9.774563" lat="47.830017">
                <ele>650.1670134400267</ele>
                <time>2012-05-19T23:43:28.000Z</time>
                <name>Position 1825</name>
            </trkpt>
            <trkpt lon="9.774565" lat="47.830023">
                <ele>650.115956800039</ele>
                <time>2012-05-19T23:43:28.000Z</time>
                <name>Position 1826</name>
            </trkpt>
            <trkpt lon="9.774565" lat="47.830029">
                <ele>650.0502063999714</ele>
                <time>2012-05-19T23:43:28.000Z</time>
                <name>Position 1827</name>
            </trkpt>
            <trkpt lon="9.774568" lat="47.830036">
                <ele>649.9960307200059</ele>
                <time>2012-05-19T23:43:29.000Z</time>
                <name>Position 1828</name>
            </trkpt>
            <trkpt lon="9.774568" lat="47.83003">
                <ele>650.0616255999956</ele>
                <time>2012-05-19T23:43:29.000Z</time>
                <name>Position 1829</name>
            </trkpt>
            <trkpt lon="9.77457" lat="47.830036">
                <ele>650.0110528000081</ele>
                <time>2012-05-19T23:43:29.000Z</time>
                <name>Position 1830</name>
            </trkpt>
            <trkpt lon="9.77457" lat="47.83003">
                <ele>650.0765439999977</ele>
                <time>2012-05-19T23:43:29.000Z</time>
                <name>Position 1831</name>
            </trkpt>
            <trkpt lon="9.774572" lat="47.830037">
                <ele>650.0151769600243</ele>
                <time>2012-05-19T23:43:30.000Z</time>
                <name>Position 1832</name>
            </trkpt>
            <trkpt lon="9.774601" lat="47.830053">
                <ele>650.0628899200103</ele>
                <time>2012-05-19T23:43:31.000Z</time>
                <name>Position 1833</name>
            </trkpt>
            <trkpt lon="9.774629" lat="47.830058">
                <ele>650.2252844799827</ele>
                <time>2012-05-19T23:43:31.000Z</time>
                <name>Position 1834</name>
            </trkpt>
            <trkpt lon="9.774627" lat="47.830057">
                <ele>650.220304960042</ele>
                <time>2012-05-19T23:43:31.000Z</time>
                <name>Position 1835</name>
            </trkpt>
            <trkpt lon="9.774627" lat="47.830063">
                <ele>650.1577686399778</ele>
                <time>2012-05-19T23:43:32.000Z</time>
                <name>Position 1836</name>
            </trkpt>
            <trkpt lon="9.77464" lat="47.830062">
                <ele>650.2687552000187</ele>
                <time>2012-05-19T23:43:32.000Z</time>
                <name>Position 1837</name>
            </trkpt>
            <trkpt lon="9.77464" lat="47.830068">
                <ele>650.2068928000284</ele>
                <time>2012-05-19T23:43:32.000Z</time>
                <name>Position 1838</name>
            </trkpt>
            <trkpt lon="9.774616" lat="47.830089">
                <ele>649.7991193599903</ele>
                <time>2012-05-19T23:43:33.000Z</time>
                <name>Position 1839</name>
            </trkpt>
            <trkpt lon="9.774649" lat="47.830112">
                <ele>649.8267443200045</ele>
                <time>2012-05-19T23:43:35.000Z</time>
                <name>Position 1840</name>
            </trkpt>
            <trkpt lon="9.774654" lat="47.83015">
                <ele>649.4803839999669</ele>
                <time>2012-05-19T23:43:36.000Z</time>
                <name>Position 1841</name>
            </trkpt>
            <trkpt lon="9.774669" lat="47.830161">
                <ele>649.4971657600274</ele>
                <time>2012-05-19T23:43:37.000Z</time>
                <name>Position 1842</name>
            </trkpt>
            <trkpt lon="9.774676" lat="47.830193">
                <ele>649.2373235199831</ele>
                <time>2012-05-19T23:43:38.000Z</time>
                <name>Position 1843</name>
            </trkpt>
            <trkpt lon="9.774716" lat="47.830236">
                <ele>649.1769126400048</ele>
                <time>2012-05-19T23:43:40.000Z</time>
                <name>Position 1844</name>
            </trkpt>
            <trkpt lon="9.774727" lat="47.830293">
                <ele>648.7336950400282</ele>
                <time>2012-05-19T23:43:42.000Z</time>
                <name>Position 1845</name>
            </trkpt>
            <trkpt lon="9.77475" lat="47.83033">
                <ele>648.6112000000253</ele>
                <time>2012-05-19T23:43:44.000Z</time>
                <name>Position 1846</name>
            </trkpt>
            <trkpt lon="9.774798" lat="47.830396">
                <ele>648.5032691200031</ele>
                <time>2012-05-19T23:43:47.000Z</time>
                <name>Position 1847</name>
            </trkpt>
            <trkpt lon="9.774856" lat="47.830463">
                <ele>648.5535539199833</ele>
                <time>2012-05-19T23:43:50.000Z</time>
                <name>Position 1848</name>
            </trkpt>
            <trkpt lon="9.774889" lat="47.830539">
                <ele>648.303077439986</ele>
                <time>2012-05-19T23:43:53.000Z</time>
                <name>Position 1849</name>
            </trkpt>
            <trkpt lon="9.774928" lat="47.830646">
                <ele>647.9285363199778</ele>
                <time>2012-05-19T23:43:58.000Z</time>
                <name>Position 1850</name>
            </trkpt>
            <trkpt lon="9.774957" lat="47.830786">
                <ele>647.2391852799828</ele>
                <time>2012-05-19T23:44:03.000Z</time>
                <name>Position 1851</name>
            </trkpt>
            <trkpt lon="9.774947" lat="47.830882">
                <ele>647.0250857600025</ele>
                <time>2012-05-19T23:44:07.000Z</time>
                <name>Position 1852</name>
            </trkpt>
            <trkpt lon="9.774939" lat="47.830996">
                <ele>647.5833113599906</ele>
                <time>2012-05-19T23:44:12.000Z</time>
                <name>Position 1853</name>
            </trkpt>
            <trkpt lon="9.774911" lat="47.831073">
                <ele>647.625684320012</ele>
                <time>2012-05-19T23:44:15.000Z</time>
                <name>Position 1854</name>
            </trkpt>
            <trkpt lon="9.774887" lat="47.831152">
                <ele>647.7329465600119</ele>
                <time>2012-05-19T23:44:18.000Z</time>
                <name>Position 1855</name>
            </trkpt>
            <trkpt lon="9.774853" lat="47.831229">
                <ele>647.6734452800055</ele>
                <time>2012-05-19T23:44:21.000Z</time>
                <name>Position 1856</name>
            </trkpt>
            <trkpt lon="9.774715" lat="47.831314">
                <ele>646.0827344000012</ele>
                <time>2012-05-19T23:44:26.000Z</time>
                <name>Position 1857</name>
            </trkpt>
            <trkpt lon="9.774623" lat="47.831405">
                <ele>645.1908535999819</ele>
                <time>2012-05-19T23:44:31.000Z</time>
                <name>Position 1858</name>
            </trkpt>
            <trkpt lon="9.774484" lat="47.831471">
                <ele>643.4217881599913</ele>
                <time>2012-05-19T23:44:35.000Z</time>
                <name>Position 1859</name>
            </trkpt>
            <trkpt lon="9.77435" lat="47.831546">
                <ele>641.7489440000161</ele>
                <time>2012-05-19T23:44:40.000Z</time>
                <name>Position 1860</name>
            </trkpt>
            <trkpt lon="9.774197" lat="47.831662">
                <ele>639.9505961599931</ele>
                <time>2012-05-19T23:44:46.000Z</time>
                <name>Position 1861</name>
            </trkpt>
            <trkpt lon="9.774073" lat="47.83177">
                <ele>638.8974495999736</ele>
                <time>2012-05-19T23:44:52.000Z</time>
                <name>Position 1862</name>
            </trkpt>
            <trkpt lon="9.774005" lat="47.831839">
                <ele>638.3163232000405</ele>
                <time>2012-05-19T23:44:55.000Z</time>
                <name>Position 1863</name>
            </trkpt>
            <trkpt lon="9.773918" lat="47.831867">
                <ele>636.7846585600306</ele>
                <time>2012-05-19T23:44:58.000Z</time>
                <name>Position 1864</name>
            </trkpt>
            <trkpt lon="9.773856" lat="47.831946">
                <ele>636.3497497600287</ele>
                <time>2012-05-19T23:45:01.000Z</time>
                <name>Position 1865</name>
            </trkpt>
            <trkpt lon="9.773813" lat="47.832043">
                <ele>636.4861638399959</ele>
                <time>2012-05-19T23:45:05.000Z</time>
                <name>Position 1866</name>
            </trkpt>
            <trkpt lon="9.773756" lat="47.832129">
                <ele>636.1315782400311</ele>
                <time>2012-05-19T23:45:09.000Z</time>
                <name>Position 1867</name>
            </trkpt>
            <trkpt lon="9.773723" lat="47.832195">
                <ele>636.0730335999928</ele>
                <time>2012-05-19T23:45:12.000Z</time>
                <name>Position 1868</name>
            </trkpt>
            <trkpt lon="9.773697" lat="47.832249">
                <ele>636.0302252799771</ele>
                <time>2012-05-19T23:45:14.000Z</time>
                <name>Position 1869</name>
            </trkpt>
            <trkpt lon="9.773691" lat="47.832359">
                <ele>637.0383174399504</ele>
                <time>2012-05-19T23:45:18.000Z</time>
                <name>Position 1870</name>
            </trkpt>
            <trkpt lon="9.773694" lat="47.832448">
                <ele>638.0439731200106</ele>
                <time>2012-05-19T23:45:22.000Z</time>
                <name>Position 1871</name>
            </trkpt>
            <trkpt lon="9.773699" lat="47.832556">
                <ele>638.2821126400374</ele>
                <time>2012-05-19T23:45:26.000Z</time>
                <name>Position 1872</name>
            </trkpt>
            <trkpt lon="9.773737" lat="47.832629">
                <ele>638.6686148800338</ele>
                <time>2012-05-19T23:45:29.000Z</time>
                <name>Position 1873</name>
            </trkpt>
            <trkpt lon="9.773816" lat="47.832736">
                <ele>639.7999705600226</ele>
                <time>2012-05-19T23:45:34.000Z</time>
                <name>Position 1874</name>
            </trkpt>
            <trkpt lon="9.773885" lat="47.832819">
                <ele>640.851786399991</ele>
                <time>2012-05-19T23:45:38.000Z</time>
                <name>Position 1875</name>
            </trkpt>
            <trkpt lon="9.773982" lat="47.832913">
                <ele>642.4870249600199</ele>
                <time>2012-05-19T23:45:43.000Z</time>
                <name>Position 1876</name>
            </trkpt>
            <trkpt lon="9.774145" lat="47.833091">
                <ele>645.0080391999899</ele>
                <time>2012-05-19T23:45:51.000Z</time>
                <name>Position 1877</name>
            </trkpt>
            <trkpt lon="9.774269" lat="47.833188">
                <ele>646.0016531200054</ele>
                <time>2012-05-19T23:45:56.000Z</time>
                <name>Position 1878</name>
            </trkpt>
            <trkpt lon="9.774374" lat="47.833274">
                <ele>646.8245689599818</ele>
                <time>2012-05-19T23:46:01.000Z</time>
                <name>Position 1879</name>
            </trkpt>
            <trkpt lon="9.774403" lat="47.833278">
                <ele>647.1985206399935</ele>
                <time>2012-05-19T23:46:01.000Z</time>
                <name>Position 1880</name>
            </trkpt>
            <trkpt lon="9.774418" lat="47.833284">
                <ele>647.3729075200149</ele>
                <time>2012-05-19T23:46:02.000Z</time>
                <name>Position 1881</name>
            </trkpt>
            <trkpt lon="9.774505" lat="47.833343">
                <ele>648.2074192000065</ele>
                <time>2012-05-19T23:46:05.000Z</time>
                <name>Position 1882</name>
            </trkpt>
            <trkpt lon="9.774538" lat="47.833444">
                <ele>646.9735513599953</ele>
                <time>2012-05-19T23:46:09.000Z</time>
                <name>Position 1883</name>
            </trkpt>
            <trkpt lon="9.774514" lat="47.833465">
                <ele>646.263308800054</ele>
                <time>2012-05-19T23:46:10.000Z</time>
                <name>Position 1884</name>
            </trkpt>
            <trkpt lon="9.774519" lat="47.833466">
                <ele>646.3202195199734</ele>
                <time>2012-05-19T23:46:10.000Z</time>
                <name>Position 1885</name>
            </trkpt>
            <trkpt lon="9.77456" lat="47.833481">
                <ele>646.6732768000059</ele>
                <time>2012-05-19T23:46:12.000Z</time>
                <name>Position 1886</name>
            </trkpt>
            <trkpt lon="9.774587" lat="47.833497">
                <ele>646.8049283199847</ele>
                <time>2012-05-19T23:46:13.000Z</time>
                <name>Position 1887</name>
            </trkpt>
            <trkpt lon="9.774598" lat="47.833513">
                <ele>646.7003891199305</ele>
                <time>2012-05-19T23:46:13.000Z</time>
                <name>Position 1888</name>
            </trkpt>
            <trkpt lon="9.774626" lat="47.833536">
                <ele>646.7345036799566</ele>
                <time>2012-05-19T23:46:15.000Z</time>
                <name>Position 1889</name>
            </trkpt>
            <trkpt lon="9.774655" lat="47.833552">
                <ele>646.9035328000317</ele>
                <time>2012-05-19T23:46:16.000Z</time>
                <name>Position 1890</name>
            </trkpt>
            <trkpt lon="9.774657" lat="47.833559">
                <ele>646.8174774399754</ele>
                <time>2012-05-19T23:46:16.000Z</time>
                <name>Position 1891</name>
            </trkpt>
            <trkpt lon="9.774672" lat="47.833564">
                <ele>646.9605030399674</ele>
                <time>2012-05-19T23:46:16.000Z</time>
                <name>Position 1892</name>
            </trkpt>
            <trkpt lon="9.77469" lat="47.833582">
                <ele>646.9347903999983</ele>
                <time>2012-05-19T23:46:17.000Z</time>
                <name>Position 1893</name>
            </trkpt>
            <trkpt lon="9.774703" lat="47.833587">
                <ele>647.0490236799862</ele>
                <time>2012-05-19T23:46:18.000Z</time>
                <name>Position 1894</name>
            </trkpt>
            <trkpt lon="9.774717" lat="47.833598">
                <ele>647.0802860799784</ele>
                <time>2012-05-19T23:46:18.000Z</time>
                <name>Position 1895</name>
            </trkpt>
            <trkpt lon="9.774727" lat="47.833602">
                <ele>647.1663635200217</ele>
                <time>2012-05-19T23:46:18.000Z</time>
                <name>Position 1896</name>
            </trkpt>
            <trkpt lon="9.774738" lat="47.833607">
                <ele>647.2515020799786</ele>
                <time>2012-05-19T23:46:19.000Z</time>
                <name>Position 1897</name>
            </trkpt>
            <trkpt lon="9.774738" lat="47.833619">
                <ele>647.0552473600093</ele>
                <time>2012-05-19T23:46:19.000Z</time>
                <name>Position 1898</name>
            </trkpt>
            <trkpt lon="9.774749" lat="47.833617">
                <ele>647.2553430400527</ele>
                <time>2012-05-19T23:46:20.000Z</time>
                <name>Position 1899</name>
            </trkpt>
            <trkpt lon="9.774765" lat="47.833616">
                <ele>647.5150912000184</ele>
                <time>2012-05-19T23:46:20.000Z</time>
                <name>Position 1900</name>
            </trkpt>
            <trkpt lon="9.774778" lat="47.833615">
                <ele>647.7291135999645</ele>
                <time>2012-05-19T23:46:20.000Z</time>
                <name>Position 1901</name>
            </trkpt>
            <trkpt lon="9.774778" lat="47.833609">
                <ele>647.8265497599493</ele>
                <time>2012-05-19T23:46:21.000Z</time>
                <name>Position 1902</name>
            </trkpt>
            <trkpt lon="9.774776" lat="47.833609">
                <ele>647.796161919945</ele>
                <time>2012-05-19T23:46:21.000Z</time>
                <name>Position 1903</name>
            </trkpt>
            <trkpt lon="9.774776" lat="47.833603">
                <ele>647.8936326400452</ele>
                <time>2012-05-19T23:46:21.000Z</time>
                <name>Position 1904</name>
            </trkpt>
            <trkpt lon="9.774791" lat="47.833608">
                <ele>648.0402726400378</ele>
                <time>2012-05-19T23:46:21.000Z</time>
                <name>Position 1905</name>
            </trkpt>
            <trkpt lon="9.774804" lat="47.833607">
                <ele>648.253920639984</ele>
                <time>2012-05-19T23:46:22.000Z</time>
                <name>Position 1906</name>
            </trkpt>
            <trkpt lon="9.774804" lat="47.833613">
                <ele>648.1569337599991</ele>
                <time>2012-05-19T23:46:22.000Z</time>
                <name>Position 1907</name>
            </trkpt>
            <trkpt lon="9.774817" lat="47.833612">
                <ele>648.3707315199725</ele>
                <time>2012-05-19T23:46:22.000Z</time>
                <name>Position 1908</name>
            </trkpt>
            <trkpt lon="9.77482" lat="47.833612">
                <ele>648.4163391999654</ele>
                <time>2012-05-19T23:46:22.000Z</time>
                <name>Position 1909</name>
            </trkpt>
            <trkpt lon="9.774806" lat="47.833614">
                <ele>648.1711859200442</ele>
                <time>2012-05-19T23:46:23.000Z</time>
                <name>Position 1910</name>
            </trkpt>
            <trkpt lon="9.77483" lat="47.833599">
                <ele>648.7775296000033</ele>
                <time>2012-05-19T23:46:24.000Z</time>
                <name>Position 1911</name>
            </trkpt>
            <trkpt lon="9.77487" lat="47.833607">
                <ele>649.2563391999893</ele>
                <time>2012-05-19T23:46:25.000Z</time>
                <name>Position 1912</name>
            </trkpt>
            <trkpt lon="9.774909" lat="47.833616">
                <ele>649.70591872</ele>
                <time>2012-05-19T23:46:26.000Z</time>
                <name>Position 1913</name>
            </trkpt>
            <trkpt lon="9.774947" lat="47.833606">
                <ele>650.4415801599378</ele>
                <time>2012-05-19T23:46:27.000Z</time>
                <name>Position 1914</name>
            </trkpt>
            <trkpt lon="9.775026" lat="47.833611">
                <ele>651.2723958400386</ele>
                <time>2012-05-19T23:46:29.000Z</time>
                <name>Position 1915</name>
            </trkpt>
            <trkpt lon="9.775149" lat="47.833626">
                <ele>651.5335945599662</ele>
                <time>2012-05-19T23:46:32.000Z</time>
                <name>Position 1916</name>
            </trkpt>
            <trkpt lon="9.775245" lat="47.833626">
                <ele>651.9196527999634</ele>
                <time>2012-05-19T23:46:35.000Z</time>
                <name>Position 1917</name>
            </trkpt>
            <trkpt lon="9.775311" lat="47.833626">
                <ele>652.1850678399651</ele>
                <time>2012-05-19T23:46:37.000Z</time>
                <name>Position 1918</name>
            </trkpt>
            <trkpt lon="9.775348" lat="47.83361">
                <ele>652.5754431999948</ele>
                <time>2012-05-19T23:46:38.000Z</time>
                <name>Position 1919</name>
            </trkpt>
            <trkpt lon="9.775412" lat="47.833604">
                <ele>652.921381119981</ele>
                <time>2012-05-19T23:46:40.000Z</time>
                <name>Position 1920</name>
            </trkpt>
            <trkpt lon="9.77548" lat="47.833605">
                <ele>653.1777760000211</ele>
                <time>2012-05-19T23:46:42.000Z</time>
                <name>Position 1921</name>
            </trkpt>
            <trkpt lon="9.775533" lat="47.833582">
                <ele>653.7304566400006</ele>
                <time>2012-05-19T23:46:43.000Z</time>
                <name>Position 1922</name>
            </trkpt>
            <trkpt lon="9.775603" lat="47.833602">
                <ele>653.7128886400153</ele>
                <time>2012-05-19T23:46:45.000Z</time>
                <name>Position 1923</name>
            </trkpt>
            <trkpt lon="9.775616" lat="47.833606">
                <ele>653.7058662399514</ele>
                <time>2012-05-19T23:46:46.000Z</time>
                <name>Position 1924</name>
            </trkpt>
            <trkpt lon="9.775689" lat="47.833621">
                <ele>653.7782113599877</ele>
                <time>2012-05-19T23:46:48.000Z</time>
                <name>Position 1925</name>
            </trkpt>
            <trkpt lon="9.775744" lat="47.833635">
                <ele>653.7955935999839</ele>
                <time>2012-05-19T23:46:49.000Z</time>
                <name>Position 1926</name>
            </trkpt>
            <trkpt lon="9.775772" lat="47.833651">
                <ele>653.676743679953</ele>
                <time>2012-05-19T23:46:50.000Z</time>
                <name>Position 1927</name>
            </trkpt>
            <trkpt lon="9.775814" lat="47.833672">
                <ele>653.5441715200028</ele>
                <time>2012-05-19T23:46:52.000Z</time>
                <name>Position 1928</name>
            </trkpt>
            <trkpt lon="9.775873" lat="47.833718">
                <ele>653.0194051200363</ele>
                <time>2012-05-19T23:46:54.000Z</time>
                <name>Position 1929</name>
            </trkpt>
            <trkpt lon="9.775891" lat="47.83373">
                <ele>652.880174399962</ele>
                <time>2012-05-19T23:46:55.000Z</time>
                <name>Position 1930</name>
            </trkpt>
            <trkpt lon="9.776028" lat="47.833778">
                <ele>652.5021427199715</ele>
                <time>2012-05-19T23:46:59.000Z</time>
                <name>Position 1931</name>
            </trkpt>
            <trkpt lon="9.776056" lat="47.833794">
                <ele>652.3659571200321</ele>
                <time>2012-05-19T23:47:00.000Z</time>
                <name>Position 1932</name>
            </trkpt>
            <trkpt lon="9.776083" lat="47.833798">
                <ele>652.3789987199812</ele>
                <time>2012-05-19T23:47:01.000Z</time>
                <name>Position 1933</name>
            </trkpt>
            <trkpt lon="9.776109" lat="47.833808">
                <ele>652.3221657600274</ele>
                <time>2012-05-19T23:47:02.000Z</time>
                <name>Position 1934</name>
            </trkpt>
            <trkpt lon="9.776133" lat="47.833805">
                <ele>652.413535200021</ele>
                <time>2012-05-19T23:47:02.000Z</time>
                <name>Position 1935</name>
            </trkpt>
            <trkpt lon="9.776197" lat="47.833799">
                <ele>652.6286222400099</ele>
                <time>2012-05-19T23:47:04.000Z</time>
                <name>Position 1936</name>
            </trkpt>
            <trkpt lon="9.776207" lat="47.833791">
                <ele>652.7366289600209</ele>
                <time>2012-05-19T23:47:04.000Z</time>
                <name>Position 1937</name>
            </trkpt>
            <trkpt lon="9.77631" lat="47.833788">
                <ele>652.9933824000166</ele>
                <time>2012-05-19T23:47:07.000Z</time>
                <name>Position 1938</name>
            </trkpt>
            <trkpt lon="9.776411" lat="47.833778">
                <ele>653.2996406399791</ele>
                <time>2012-05-19T23:47:10.000Z</time>
                <name>Position 1939</name>
            </trkpt>
            <trkpt lon="9.776589" lat="47.833783">
                <ele>653.6363649600206</ele>
                <time>2012-05-19T23:47:15.000Z</time>
                <name>Position 1940</name>
            </trkpt>
            <trkpt lon="9.776796" lat="47.83382">
                <ele>654.1623103999804</ele>
                <time>2012-05-19T23:47:20.000Z</time>
                <name>Position 1941</name>
            </trkpt>
            <trkpt lon="9.776949" lat="47.833806">
                <ele>654.9181020799874</ele>
                <time>2012-05-19T23:47:25.000Z</time>
                <name>Position 1942</name>
            </trkpt>
            <trkpt lon="9.776974" lat="47.833797">
                <ele>655.0712009600102</ele>
                <time>2012-05-19T23:47:25.000Z</time>
                <name>Position 1943</name>
            </trkpt>
            <trkpt lon="9.776987" lat="47.833796">
                <ele>655.1330566400025</ele>
                <time>2012-05-19T23:47:26.000Z</time>
                <name>Position 1944</name>
            </trkpt>
            <trkpt lon="9.776995" lat="47.833788">
                <ele>655.2048992000047</ele>
                <time>2012-05-19T23:47:26.000Z</time>
                <name>Position 1945</name>
            </trkpt>
            <trkpt lon="9.777006" lat="47.83378">
                <ele>655.2891776000125</ele>
                <time>2012-05-19T23:47:26.000Z</time>
                <name>Position 1946</name>
            </trkpt>
            <trkpt lon="9.777028" lat="47.833777">
                <ele>655.3977459200081</ele>
                <time>2012-05-19T23:47:27.000Z</time>
                <name>Position 1947</name>
            </trkpt>
            <trkpt lon="9.777116" lat="47.833762">
                <ele>655.8384934399973</ele>
                <time>2012-05-19T23:47:30.000Z</time>
                <name>Position 1948</name>
            </trkpt>
            <trkpt lon="9.777166" lat="47.833744">
                <ele>656.1202572799859</ele>
                <time>2012-05-19T23:47:31.000Z</time>
                <name>Position 1949</name>
            </trkpt>
            <trkpt lon="9.777342" lat="47.833701">
                <ele>656.9874454400101</ele>
                <time>2012-05-19T23:47:36.000Z</time>
                <name>Position 1950</name>
            </trkpt>
            <trkpt lon="9.777392" lat="47.833683">
                <ele>657.238459520001</ele>
                <time>2012-05-19T23:47:38.000Z</time>
                <name>Position 1951</name>
            </trkpt>
            <trkpt lon="9.777453" lat="47.833665">
                <ele>657.5238583999891</ele>
                <time>2012-05-19T23:47:39.000Z</time>
                <name>Position 1952</name>
            </trkpt>
            <trkpt lon="9.777451" lat="47.833658">
                <ele>657.5344745599975</ele>
                <time>2012-05-19T23:47:40.000Z</time>
                <name>Position 1953</name>
            </trkpt>
            <trkpt lon="9.777488" lat="47.83363">
                <ele>657.7438208000011</ele>
                <time>2012-05-19T23:47:41.000Z</time>
                <name>Position 1954</name>
            </trkpt>
            <trkpt lon="9.777486" lat="47.833623">
                <ele>657.7536809599916</ele>
                <time>2012-05-19T23:47:41.000Z</time>
                <name>Position 1955</name>
            </trkpt>
            <trkpt lon="9.777549" lat="47.833593">
                <ele>658.3182233600024</ele>
                <time>2012-05-19T23:47:44.000Z</time>
                <name>Position 1956</name>
            </trkpt>
            <trkpt lon="9.777608" lat="47.833574">
                <ele>658.918972160011</ele>
                <time>2012-05-19T23:47:45.000Z</time>
                <name>Position 1957</name>
            </trkpt>
            <trkpt lon="9.777623" lat="47.833433">
                <ele>659.5955763200034</ele>
                <time>2012-05-19T23:47:51.000Z</time>
                <name>Position 1958</name>
            </trkpt>
            <trkpt lon="9.777643" lat="47.833325">
                <ele>660.2711479999783</ele>
                <time>2012-05-19T23:47:55.000Z</time>
                <name>Position 1959</name>
            </trkpt>
            <trkpt lon="9.777636" lat="47.833277">
                <ele>660.5030969599745</ele>
                <time>2012-05-19T23:47:57.000Z</time>
                <name>Position 1960</name>
            </trkpt>
            <trkpt lon="9.777642" lat="47.833209">
                <ele>661.0262710400241</ele>
                <time>2012-05-19T23:48:00.000Z</time>
                <name>Position 1961</name>
            </trkpt>
            <trkpt lon="9.777635" lat="47.833095">
                <ele>661.6889959999992</ele>
                <time>2012-05-19T23:48:05.000Z</time>
                <name>Position 1962</name>
            </trkpt>
            <trkpt lon="9.777643" lat="47.832986">
                <ele>662.514568640003</ele>
                <time>2012-05-19T23:48:09.000Z</time>
                <name>Position 1963</name>
            </trkpt>
            <trkpt lon="9.777702" lat="47.832775">
                <ele>664.7612240000077</ele>
                <time>2012-05-19T23:48:18.000Z</time>
                <name>Position 1964</name>
            </trkpt>
            <trkpt lon="9.777677" lat="47.832713">
                <ele>664.8203316800198</ele>
                <time>2012-05-19T23:48:20.000Z</time>
                <name>Position 1965</name>
            </trkpt>
            <trkpt lon="9.777681" lat="47.832607">
                <ele>665.5979345599696</ele>
                <time>2012-05-19T23:48:24.000Z</time>
                <name>Position 1966</name>
            </trkpt>
            <trkpt lon="9.777679" lat="47.8326">
                <ele>665.61507199999</ele>
                <time>2012-05-19T23:48:25.000Z</time>
                <name>Position 1967</name>
            </trkpt>
            <trkpt lon="9.777679" lat="47.832594">
                <ele>665.6557116799837</ele>
                <time>2012-05-19T23:48:25.000Z</time>
                <name>Position 1968</name>
            </trkpt>
            <trkpt lon="9.77769" lat="47.832575">
                <ele>665.9524400000056</ele>
                <time>2012-05-19T23:48:26.000Z</time>
                <name>Position 1969</name>
            </trkpt>
            <trkpt lon="9.777675" lat="47.8324">
                <ele>667.3856000000063</ele>
                <time>2012-05-19T23:48:33.000Z</time>
                <name>Position 1970</name>
            </trkpt>
            <trkpt lon="9.777686" lat="47.832392">
                <ele>667.6547801600012</ele>
                <time>2012-05-19T23:48:33.000Z</time>
                <name>Position 1971</name>
            </trkpt>
            <trkpt lon="9.777694" lat="47.832134">
                <ele>670.7859372799637</ele>
                <time>2012-05-19T23:48:43.000Z</time>
                <name>Position 1972</name>
            </trkpt>
            <trkpt lon="9.777656" lat="47.832032">
                <ele>671.3033945600264</ele>
                <time>2012-05-19T23:48:48.000Z</time>
                <name>Position 1973</name>
            </trkpt>
            <trkpt lon="9.777651" lat="47.83193">
                <ele>672.3834224000101</ele>
                <time>2012-05-19T23:48:52.000Z</time>
                <name>Position 1974</name>
            </trkpt>
            <trkpt lon="9.77769" lat="47.83179">
                <ele>674.7147680000171</ele>
                <time>2012-05-19T23:48:57.000Z</time>
                <name>Position 1975</name>
            </trkpt>
            <trkpt lon="9.777672" lat="47.831683">
                <ele>675.613863680035</ele>
                <time>2012-05-19T23:49:02.000Z</time>
                <name>Position 1976</name>
            </trkpt>
            <trkpt lon="9.777654" lat="47.831659">
                <ele>675.5075987199876</ele>
                <time>2012-05-19T23:49:03.000Z</time>
                <name>Position 1977</name>
            </trkpt>
            <trkpt lon="9.777583" lat="47.831545">
                <ele>674.9992672000095</ele>
                <time>2012-05-19T23:49:08.000Z</time>
                <name>Position 1978</name>
            </trkpt>
            <trkpt lon="9.777532" lat="47.831497">
                <ele>674.4770540800223</ele>
                <time>2012-05-19T23:49:10.000Z</time>
                <name>Position 1979</name>
            </trkpt>
            <trkpt lon="9.777519" lat="47.831445">
                <ele>674.6782815999788</ele>
                <time>2012-05-19T23:49:12.000Z</time>
                <name>Position 1980</name>
            </trkpt>
            <trkpt lon="9.777472" lat="47.831352">
                <ele>674.7280115199704</ele>
                <time>2012-05-19T23:49:16.000Z</time>
                <name>Position 1981</name>
            </trkpt>
            <trkpt lon="9.777379" lat="47.831195">
                <ele>674.8592823999879</ele>
                <time>2012-05-19T23:49:23.000Z</time>
                <name>Position 1982</name>
            </trkpt>
            <trkpt lon="9.777345" lat="47.831088">
                <ele>675.4749087999935</ele>
                <time>2012-05-19T23:49:27.000Z</time>
                <name>Position 1983</name>
            </trkpt>
            <trkpt lon="9.777327" lat="47.830976">
                <ele>676.3920121599994</ele>
                <time>2012-05-19T23:49:32.000Z</time>
                <name>Position 1984</name>
            </trkpt>
            <trkpt lon="9.777309" lat="47.830881">
                <ele>677.1742283200282</ele>
                <time>2012-05-19T23:49:36.000Z</time>
                <name>Position 1985</name>
            </trkpt>
            <trkpt lon="9.777309" lat="47.830774">
                <ele>678.1366332800211</ele>
                <time>2012-05-19T23:49:40.000Z</time>
                <name>Position 1986</name>
            </trkpt>
            <trkpt lon="9.777288" lat="47.83066">
                <ele>678.8752063999893</ele>
                <time>2012-05-19T23:49:45.000Z</time>
                <name>Position 1987</name>
            </trkpt>
            <trkpt lon="9.777283" lat="47.830589">
                <ele>679.4172449599771</ele>
                <time>2012-05-19T23:49:47.000Z</time>
                <name>Position 1988</name>
            </trkpt>
            <trkpt lon="9.777261" lat="47.830475">
                <ele>680.2188679999974</ele>
                <time>2012-05-19T23:49:52.000Z</time>
                <name>Position 1989</name>
            </trkpt>
            <trkpt lon="9.777236" lat="47.830354">
                <ele>681.1171635200031</ele>
                <time>2012-05-19T23:49:57.000Z</time>
                <name>Position 1990</name>
            </trkpt>
            <trkpt lon="9.777226" lat="47.830239">
                <ele>682.0771011200129</ele>
                <time>2012-05-19T23:50:02.000Z</time>
                <name>Position 1991</name>
            </trkpt>
            <trkpt lon="9.777234" lat="47.830124">
                <ele>683.104321280019</ele>
                <time>2012-05-19T23:50:06.000Z</time>
                <name>Position 1992</name>
            </trkpt>
            <trkpt lon="9.777251" lat="47.830006">
                <ele>684.1501404800226</ele>
                <time>2012-05-19T23:50:11.000Z</time>
                <name>Position 1993</name>
            </trkpt>
            <trkpt lon="9.777235" lat="47.829936">
                <ele>684.5171552000177</ele>
                <time>2012-05-19T23:50:14.000Z</time>
                <name>Position 1994</name>
            </trkpt>
            <trkpt lon="9.777242" lat="47.829903">
                <ele>684.7003251199908</ele>
                <time>2012-05-19T23:50:15.000Z</time>
                <name>Position 1995</name>
            </trkpt>
            <trkpt lon="9.777255" lat="47.829902">
                <ele>684.7248512000164</ele>
                <time>2012-05-19T23:50:15.000Z</time>
                <name>Position 1996</name>
            </trkpt>
            <trkpt lon="9.777266" lat="47.829888">
                <ele>684.8157209600157</ele>
                <time>2012-05-19T23:50:16.000Z</time>
                <name>Position 1997</name>
            </trkpt>
            <trkpt lon="9.777277" lat="47.829863">
                <ele>684.9664131199831</ele>
                <time>2012-05-19T23:50:17.000Z</time>
                <name>Position 1998</name>
            </trkpt>
            <trkpt lon="9.77729" lat="47.829849">
                <ele>685.0626751999855</ele>
                <time>2012-05-19T23:50:18.000Z</time>
                <name>Position 1999</name>
            </trkpt>
            <trkpt lon="9.77729" lat="47.829837">
                <ele>685.1274176000137</ele>
                <time>2012-05-19T23:50:18.000Z</time>
                <name>Position 2000</name>
            </trkpt>
            <trkpt lon="9.777303" lat="47.829824">
                <ele>685.2197446399884</ele>
                <time>2012-05-19T23:50:19.000Z</time>
                <name>Position 2001</name>
            </trkpt>
            <trkpt lon="9.777301" lat="47.829812">
                <ele>685.2814534400163</ele>
                <time>2012-05-19T23:50:19.000Z</time>
                <name>Position 2002</name>
            </trkpt>
            <trkpt lon="9.777301" lat="47.829818">
                <ele>685.2488921599829</ele>
                <time>2012-05-19T23:50:20.000Z</time>
                <name>Position 2003</name>
            </trkpt>
            <trkpt lon="9.777298" lat="47.829805">
                <ele>685.3141567999984</ele>
                <time>2012-05-19T23:50:20.000Z</time>
                <name>Position 2004</name>
            </trkpt>
            <trkpt lon="9.777285" lat="47.829806">
                <ele>685.2858752000103</ele>
                <time>2012-05-19T23:50:20.000Z</time>
                <name>Position 2005</name>
            </trkpt>
            <trkpt lon="9.777283" lat="47.8298">
                <ele>685.314608000008</ele>
                <time>2012-05-19T23:50:21.000Z</time>
                <name>Position 2006</name>
            </trkpt>
            <trkpt lon="9.777281" lat="47.829793">
                <ele>685.3486409599889</ele>
                <time>2012-05-19T23:50:21.000Z</time>
                <name>Position 2007</name>
            </trkpt>
            <trkpt lon="9.777278" lat="47.829792">
                <ele>685.3486131200143</ele>
                <time>2012-05-19T23:50:21.000Z</time>
                <name>Position 2008</name>
            </trkpt>
            <trkpt lon="9.777281" lat="47.829799">
                <ele>685.3164252799938</ele>
                <time>2012-05-19T23:50:21.000Z</time>
                <name>Position 2009</name>
            </trkpt>
            <trkpt lon="9.777283" lat="47.829806">
                <ele>685.2823577600129</ele>
                <time>2012-05-19T23:50:22.000Z</time>
                <name>Position 2010</name>
            </trkpt>
            <trkpt lon="9.777283" lat="47.8298">
                <ele>685.314608000008</ele>
                <time>2012-05-19T23:50:22.000Z</time>
                <name>Position 2011</name>
            </trkpt>
            <trkpt lon="9.777296" lat="47.829798">
                <ele>685.3485209600176</ele>
                <time>2012-05-19T23:50:22.000Z</time>
                <name>Position 2012</name>
            </trkpt>
            <trkpt lon="9.777281" lat="47.829787">
                <ele>685.3808566399838</ele>
                <time>2012-05-19T23:50:23.000Z</time>
                <name>Position 2013</name>
            </trkpt>
            <trkpt lon="9.777289" lat="47.829773">
                <ele>685.4708566399835</ele>
                <time>2012-05-19T23:50:23.000Z</time>
                <name>Position 2014</name>
            </trkpt>
            <trkpt lon="9.777289" lat="47.829767">
                <ele>685.5032105600168</ele>
                <time>2012-05-19T23:50:24.000Z</time>
                <name>Position 2015</name>
            </trkpt>
            <trkpt lon="9.777296" lat="47.829746">
                <ele>685.6299699199992</ele>
                <time>2012-05-19T23:50:25.000Z</time>
                <name>Position 2016</name>
            </trkpt>
            <trkpt lon="9.777291" lat="47.829727">
                <ele>685.7228758400091</ele>
                <time>2012-05-19T23:50:25.000Z</time>
                <name>Position 2017</name>
            </trkpt>
            <trkpt lon="9.777298" lat="47.829706">
                <ele>685.8505625599915</ele>
                <time>2012-05-19T23:50:26.000Z</time>
                <name>Position 2018</name>
            </trkpt>
            <trkpt lon="9.777354" lat="47.82965">
                <ele>686.277631999997</ele>
                <time>2012-05-19T23:50:29.000Z</time>
                <name>Position 2019</name>
            </trkpt>
            <trkpt lon="9.777393" lat="47.829582">
                <ele>686.7507891199886</ele>
                <time>2012-05-19T23:50:32.000Z</time>
                <name>Position 2020</name>
            </trkpt>
            <trkpt lon="9.777439" lat="47.829539">
                <ele>687.1118115200164</ele>
                <time>2012-05-19T23:50:34.000Z</time>
                <name>Position 2021</name>
            </trkpt>
            <trkpt lon="9.777483" lat="47.82949">
                <ele>687.5146304000016</ele>
                <time>2012-05-19T23:50:36.000Z</time>
                <name>Position 2022</name>
            </trkpt>
            <trkpt lon="9.777511" lat="47.829436">
                <ele>687.8793324799932</ele>
                <time>2012-05-19T23:50:38.000Z</time>
                <name>Position 2023</name>
            </trkpt>
            <trkpt lon="9.777544" lat="47.829401">
                <ele>688.0708947200167</ele>
                <time>2012-05-19T23:50:40.000Z</time>
                <name>Position 2024</name>
            </trkpt>
            <trkpt lon="9.777583" lat="47.829333">
                <ele>688.4421603200101</ele>
                <time>2012-05-19T23:50:43.000Z</time>
                <name>Position 2025</name>
            </trkpt>
            <trkpt lon="9.777613" lat="47.829273">
                <ele>688.7610051199965</ele>
                <time>2012-05-19T23:50:46.000Z</time>
                <name>Position 2026</name>
            </trkpt>
            <trkpt lon="9.777663" lat="47.829244">
                <ele>688.8767033599847</ele>
                <time>2012-05-19T23:50:47.000Z</time>
                <name>Position 2027</name>
            </trkpt>
            <trkpt lon="9.777714" lat="47.829214">
                <ele>688.988372479999</ele>
                <time>2012-05-19T23:50:49.000Z</time>
                <name>Position 2028</name>
            </trkpt>
            <trkpt lon="9.777749" lat="47.82918">
                <ele>689.1307615999955</ele>
                <time>2012-05-19T23:50:51.000Z</time>
                <name>Position 2029</name>
            </trkpt>
            <trkpt lon="9.777803" lat="47.829099">
                <ele>689.2176000000003</ele>
                <time>2012-05-19T23:50:54.000Z</time>
                <name>Position 2030</name>
            </trkpt>
            <trkpt lon="9.777877" lat="47.828978">
                <ele>689.2740000000007</ele>
                <time>2012-05-19T23:51:00.000Z</time>
                <name>Position 2031</name>
            </trkpt>
            <trkpt lon="9.777922" lat="47.828853">
                <ele>689.369999999997</ele>
                <time>2012-05-19T23:51:05.000Z</time>
                <name>Position 2032</name>
            </trkpt>
            <trkpt lon="9.777996" lat="47.828732">
                <ele>689.4263999999976</ele>
                <time>2012-05-19T23:51:10.000Z</time>
                <name>Position 2033</name>
            </trkpt>
            <trkpt lon="9.778077" lat="47.828649">
                <ele>689.4288000000021</ele>
                <time>2012-05-19T23:51:14.000Z</time>
                <name>Position 2034</name>
            </trkpt>
            <trkpt lon="9.778182" lat="47.828557">
                <ele>689.4131999999968</ele>
                <time>2012-05-19T23:51:19.000Z</time>
                <name>Position 2035</name>
            </trkpt>
            <trkpt lon="9.778272" lat="47.82846">
                <ele>689.4216000000011</ele>
                <time>2012-05-19T23:51:23.000Z</time>
                <name>Position 2036</name>
            </trkpt>
            <trkpt lon="9.778374" lat="47.828368">
                <ele>689.5031398400025</ele>
                <time>2012-05-19T23:51:28.000Z</time>
                <name>Position 2037</name>
            </trkpt>
            <trkpt lon="9.778477" lat="47.828281">
                <ele>690.122826720027</ele>
                <time>2012-05-19T23:51:32.000Z</time>
                <name>Position 2038</name>
            </trkpt>
            <trkpt lon="9.77859" lat="47.828175">
                <ele>691.1965199999846</ele>
                <time>2012-05-19T23:51:37.000Z</time>
                <name>Position 2039</name>
            </trkpt>
            <trkpt lon="9.77873" lat="47.828061">
                <ele>692.4191568000157</ele>
                <time>2012-05-19T23:51:43.000Z</time>
                <name>Position 2040</name>
            </trkpt>
            <trkpt lon="9.778883" lat="47.827939">
                <ele>693.7841227199948</ele>
                <time>2012-05-19T23:51:50.000Z</time>
                <name>Position 2041</name>
            </trkpt>
            <trkpt lon="9.779023" lat="47.827825">
                <ele>695.1024360000276</ele>
                <time>2012-05-19T23:51:56.000Z</time>
                <name>Position 2042</name>
            </trkpt>
            <trkpt lon="9.779178" lat="47.82771">
                <ele>696.5044543999686</ele>
                <time>2012-05-19T23:52:02.000Z</time>
                <name>Position 2043</name>
            </trkpt>
            <trkpt lon="9.779318" lat="47.827601">
                <ele>697.7560198399875</ele>
                <time>2012-05-19T23:52:08.000Z</time>
                <name>Position 2044</name>
            </trkpt>
            <trkpt lon="9.779321" lat="47.827479">
                <ele>698.9082603200353</ele>
                <time>2012-05-19T23:52:13.000Z</time>
                <name>Position 2045</name>
            </trkpt>
            <trkpt lon="9.779255" lat="47.82742">
                <ele>699.5850080000448</ele>
                <time>2012-05-19T23:52:15.000Z</time>
                <name>Position 2046</name>
            </trkpt>
            <trkpt lon="9.779165" lat="47.82737">
                <ele>700.3714319999738</ele>
                <time>2012-05-19T23:52:19.000Z</time>
                <name>Position 2047</name>
            </trkpt>
            <trkpt lon="9.779077" lat="47.827344">
                <ele>700.7527699200566</ele>
                <time>2012-05-19T23:52:21.000Z</time>
                <name>Position 2048</name>
            </trkpt>
            <trkpt lon="9.779013" lat="47.82731">
                <ele>701.32967520005</ele>
                <time>2012-05-19T23:52:23.000Z</time>
                <name>Position 2049</name>
            </trkpt>
            <trkpt lon="9.77896" lat="47.827268">
                <ele>702.1042752000632</ele>
                <time>2012-05-19T23:52:26.000Z</time>
                <name>Position 2050</name>
            </trkpt>
            <trkpt lon="9.778896" lat="47.827234">
                <ele>702.8212377600563</ele>
                <time>2012-05-19T23:52:28.000Z</time>
                <name>Position 2051</name>
            </trkpt>
            <trkpt lon="9.778803" lat="47.827207">
                <ele>703.5342206399752</ele>
                <time>2012-05-19T23:52:31.000Z</time>
                <name>Position 2052</name>
            </trkpt>
            <trkpt lon="9.778713" lat="47.827163">
                <ele>704.6857089600301</ele>
                <time>2012-05-19T23:52:34.000Z</time>
                <name>Position 2053</name>
            </trkpt>
            <trkpt lon="9.778653" lat="47.827142">
                <ele>705.3352598399558</ele>
                <time>2012-05-19T23:52:35.000Z</time>
                <name>Position 2054</name>
            </trkpt>
            <trkpt lon="9.77862" lat="47.827124">
                <ele>705.8582592000544</ele>
                <time>2012-05-19T23:52:36.000Z</time>
                <name>Position 2055</name>
            </trkpt>
            <trkpt lon="9.778538" lat="47.82709">
                <ele>706.9780128000467</ele>
                <time>2012-05-19T23:52:39.000Z</time>
                <name>Position 2056</name>
            </trkpt>
            <trkpt lon="9.778474" lat="47.827056">
                <ele>708.1026969600346</ele>
                <time>2012-05-19T23:52:41.000Z</time>
                <name>Position 2057</name>
            </trkpt>
            <trkpt lon="9.77843" lat="47.827034">
                <ele>708.8800608000648</ele>
                <time>2012-05-19T23:52:43.000Z</time>
                <name>Position 2058</name>
            </trkpt>
            <trkpt lon="9.778395" lat="47.827016">
                <ele>709.5336287999937</ele>
                <time>2012-05-19T23:52:44.000Z</time>
                <name>Position 2059</name>
            </trkpt>
            <trkpt lon="9.778347" lat="47.826975">
                <ele>710.9091480000753</ele>
                <time>2012-05-19T23:52:46.000Z</time>
                <name>Position 2060</name>
            </trkpt>
            <trkpt lon="9.778258" lat="47.826931">
                <ele>711.8714748799481</ele>
                <time>2012-05-19T23:52:49.000Z</time>
                <name>Position 2061</name>
            </trkpt>
            <trkpt lon="9.778185" lat="47.826919">
                <ele>711.8774984000975</ele>
                <time>2012-05-19T23:52:51.000Z</time>
                <name>Position 2062</name>
            </trkpt>
            <trkpt lon="9.778126" lat="47.826916">
                <ele>711.6976409600832</ele>
                <time>2012-05-19T23:52:53.000Z</time>
                <name>Position 2063</name>
            </trkpt>
            <trkpt lon="9.778036" lat="47.826894">
                <ele>711.8957350399244</ele>
                <time>2012-05-19T23:52:55.000Z</time>
                <name>Position 2064</name>
            </trkpt>
            <trkpt lon="9.778016" lat="47.826875">
                <ele>712.3219999999678</ele>
                <time>2012-05-19T23:52:56.000Z</time>
                <name>Position 2065</name>
            </trkpt>
            <trkpt lon="9.777898" lat="47.826855">
                <ele>712.3304623999533</ele>
                <time>2012-05-19T23:52:59.000Z</time>
                <name>Position 2066</name>
            </trkpt>
            <trkpt lon="9.777882" lat="47.82685">
                <ele>712.3927519999941</ele>
                <time>2012-05-19T23:53:00.000Z</time>
                <name>Position 2067</name>
            </trkpt>
            <trkpt lon="9.777819" lat="47.826838">
                <ele>712.42929631994</ele>
                <time>2012-05-19T23:53:02.000Z</time>
                <name>Position 2068</name>
            </trkpt>
            <trkpt lon="9.777731" lat="47.826794">
                <ele>713.2048438400102</ele>
                <time>2012-05-19T23:53:05.000Z</time>
                <name>Position 2069</name>
            </trkpt>
            <trkpt lon="9.777728" lat="47.826788">
                <ele>713.3513638399874</ele>
                <time>2012-05-19T23:53:05.000Z</time>
                <name>Position 2070</name>
            </trkpt>
            <trkpt lon="9.777583" lat="47.826796">
                <ele>712.4685420799585</ele>
                <time>2012-05-19T23:53:09.000Z</time>
                <name>Position 2071</name>
            </trkpt>
            <trkpt lon="9.777429" lat="47.826808">
                <ele>711.5709996800078</ele>
                <time>2012-05-19T23:53:13.000Z</time>
                <name>Position 2072</name>
            </trkpt>
            <trkpt lon="9.777253" lat="47.826799">
                <ele>711.3054732799731</ele>
                <time>2012-05-19T23:53:18.000Z</time>
                <name>Position 2073</name>
            </trkpt>
            <trkpt lon="9.777147" lat="47.826792">
                <ele>711.1752377600608</ele>
                <time>2012-05-19T23:53:20.000Z</time>
                <name>Position 2074</name>
            </trkpt>
            <trkpt lon="9.777061" lat="47.826775">
                <ele>711.3335360000538</ele>
                <time>2012-05-19T23:53:23.000Z</time>
                <name>Position 2075</name>
            </trkpt>
            <trkpt lon="9.776988" lat="47.826768">
                <ele>711.2804441599703</ele>
                <time>2012-05-19T23:53:25.000Z</time>
                <name>Position 2076</name>
            </trkpt>
            <trkpt lon="9.776913" lat="47.826737">
                <ele>711.7678054399715</ele>
                <time>2012-05-19T23:53:27.000Z</time>
                <name>Position 2077</name>
            </trkpt>
            <trkpt lon="9.77678" lat="47.826746">
                <ele>711.142611200004</ele>
                <time>2012-05-19T23:53:31.000Z</time>
                <name>Position 2078</name>
            </trkpt>
            <trkpt lon="9.776714" lat="47.826754">
                <ele>710.7601894399785</ele>
                <time>2012-05-19T23:53:33.000Z</time>
                <name>Position 2079</name>
            </trkpt>
            <trkpt lon="9.776641" lat="47.82677">
                <ele>710.3334191999312</ele>
                <time>2012-05-19T23:53:35.000Z</time>
                <name>Position 2080</name>
            </trkpt>
            <trkpt lon="9.776582" lat="47.826785">
                <ele>710.1616271999825</ele>
                <time>2012-05-19T23:53:36.000Z</time>
                <name>Position 2081</name>
            </trkpt>
            <trkpt lon="9.776497" lat="47.82677">
                <ele>710.7004463999289</ele>
                <time>2012-05-19T23:53:39.000Z</time>
                <name>Position 2082</name>
            </trkpt>
            <trkpt lon="9.776309" lat="47.826757">
                <ele>711.4537252799904</ele>
                <time>2012-05-19T23:53:44.000Z</time>
                <name>Position 2083</name>
            </trkpt>
            <trkpt lon="9.77616" lat="47.826723">
                <ele>712.5403007999751</ele>
                <time>2012-05-19T23:53:48.000Z</time>
                <name>Position 2084</name>
            </trkpt>
            <trkpt lon="9.776016" lat="47.826655">
                <ele>714.1049439999911</ele>
                <time>2012-05-19T23:53:53.000Z</time>
                <name>Position 2085</name>
            </trkpt>
            <trkpt lon="9.775961" lat="47.826635">
                <ele>714.2987079999888</ele>
                <time>2012-05-19T23:53:54.000Z</time>
                <name>Position 2086</name>
            </trkpt>
            <trkpt lon="9.77586" lat="47.826592">
                <ele>714.6295360000059</ele>
                <time>2012-05-19T23:53:58.000Z</time>
                <name>Position 2087</name>
            </trkpt>
            <trkpt lon="9.775737" lat="47.826553">
                <ele>714.5206070400086</ele>
                <time>2012-05-19T23:54:01.000Z</time>
                <name>Position 2088</name>
            </trkpt>
            <trkpt lon="9.775598" lat="47.826509">
                <ele>714.3517804799948</ele>
                <time>2012-05-19T23:54:05.000Z</time>
                <name>Position 2089</name>
            </trkpt>
            <trkpt lon="9.775451" lat="47.826466">
                <ele>714.2680742399813</ele>
                <time>2012-05-19T23:54:10.000Z</time>
                <name>Position 2090</name>
            </trkpt>
            <trkpt lon="9.775278" lat="47.826414">
                <ele>714.3195148800025</ele>
                <time>2012-05-19T23:54:15.000Z</time>
                <name>Position 2091</name>
            </trkpt>
            <trkpt lon="9.775175" lat="47.826365">
                <ele>714.5698799999798</ele>
                <time>2012-05-19T23:54:18.000Z</time>
                <name>Position 2092</name>
            </trkpt>
            <trkpt lon="9.775084" lat="47.826327">
                <ele>714.816683520008</ele>
                <time>2012-05-19T23:54:21.000Z</time>
                <name>Position 2093</name>
            </trkpt>
            <trkpt lon="9.774968" lat="47.826285">
                <ele>714.9590976000111</ele>
                <time>2012-05-19T23:54:25.000Z</time>
                <name>Position 2094</name>
            </trkpt>
            <trkpt lon="9.774873" lat="47.826234">
                <ele>714.9150086400037</ele>
                <time>2012-05-19T23:54:28.000Z</time>
                <name>Position 2095</name>
            </trkpt>
            <trkpt lon="9.774769" lat="47.826197">
                <ele>714.7638393599901</ele>
                <time>2012-05-19T23:54:31.000Z</time>
                <name>Position 2096</name>
            </trkpt>
            <trkpt lon="9.774677" lat="47.826146">
                <ele>714.9473798399852</ele>
                <time>2012-05-19T23:54:34.000Z</time>
                <name>Position 2097</name>
            </trkpt>
            <trkpt lon="9.774584" lat="47.826083">
                <ele>715.4075174400475</ele>
                <time>2012-05-19T23:54:38.000Z</time>
                <name>Position 2098</name>
            </trkpt>
            <trkpt lon="9.774483" lat="47.826029">
                <ele>715.8358406400272</ele>
                <time>2012-05-19T23:54:41.000Z</time>
                <name>Position 2099</name>
            </trkpt>
            <trkpt lon="9.774404" lat="47.825959">
                <ele>716.7155827200448</ele>
                <time>2012-05-19T23:54:45.000Z</time>
                <name>Position 2100</name>
            </trkpt>
            <trkpt lon="9.774278" lat="47.82586">
                <ele>718.1558016000257</ele>
                <time>2012-05-19T23:54:50.000Z</time>
                <name>Position 2101</name>
            </trkpt>
            <trkpt lon="9.774152" lat="47.825756">
                <ele>718.591432960009</ele>
                <time>2012-05-19T23:54:55.000Z</time>
                <name>Position 2102</name>
            </trkpt>
            <trkpt lon="9.774055" lat="47.825674">
                <ele>718.2577456000054</ele>
                <time>2012-05-19T23:55:00.000Z</time>
                <name>Position 2103</name>
            </trkpt>
            <trkpt lon="9.773947" lat="47.825612">
                <ele>717.9396851200004</ele>
                <time>2012-05-19T23:55:03.000Z</time>
                <name>Position 2104</name>
            </trkpt>
            <trkpt lon="9.77387" lat="47.82556">
                <ele>717.8373759999862</ele>
                <time>2012-05-19T23:55:06.000Z</time>
                <name>Position 2105</name>
            </trkpt>
            <trkpt lon="9.773855" lat="47.825549">
                <ele>717.831661599984</ele>
                <time>2012-05-19T23:55:07.000Z</time>
                <name>Position 2106</name>
            </trkpt>
            <trkpt lon="9.773839" lat="47.825531">
                <ele>717.8649707200138</ele>
                <time>2012-05-19T23:55:08.000Z</time>
                <name>Position 2107</name>
            </trkpt>
            <trkpt lon="9.773793" lat="47.825503">
                <ele>717.8466203200126</ele>
                <time>2012-05-19T23:55:09.000Z</time>
                <name>Position 2108</name>
            </trkpt>
            <trkpt lon="9.77378" lat="47.825504">
                <ele>717.7900095999873</ele>
                <time>2012-05-19T23:55:10.000Z</time>
                <name>Position 2109</name>
            </trkpt>
            <trkpt lon="9.773703" lat="47.825493">
                <ele>717.5690363199865</ele>
                <time>2012-05-19T23:55:12.000Z</time>
                <name>Position 2110</name>
            </trkpt>
            <trkpt lon="9.773692" lat="47.825495">
                <ele>717.5132032000269</ele>
                <time>2012-05-19T23:55:12.000Z</time>
                <name>Position 2111</name>
            </trkpt>
            <trkpt lon="9.77369" lat="47.825494">
                <ele>717.5128288000076</ele>
                <time>2012-05-19T23:55:12.000Z</time>
                <name>Position 2112</name>
            </trkpt>
            <trkpt lon="9.773688" lat="47.825494">
                <ele>717.5052697600066</ele>
                <time>2012-05-19T23:55:12.000Z</time>
                <name>Position 2113</name>
            </trkpt>
            <trkpt lon="9.773688" lat="47.8255">
                <ele>717.4619200000134</ele>
                <time>2012-05-19T23:55:13.000Z</time>
                <name>Position 2114</name>
            </trkpt>
            <trkpt lon="9.773675" lat="47.825501">
                <ele>717.4046439999831</ele>
                <time>2012-05-19T23:55:13.000Z</time>
                <name>Position 2115</name>
            </trkpt>
            <trkpt lon="9.773675" lat="47.825495">
                <ele>717.4487800000285</ele>
                <time>2012-05-19T23:55:13.000Z</time>
                <name>Position 2116</name>
            </trkpt>
            <trkpt lon="9.773661" lat="47.82549">
                <ele>717.4332111999869</ele>
                <time>2012-05-19T23:55:14.000Z</time>
                <name>Position 2117</name>
            </trkpt>
            <trkpt lon="9.773646" lat="47.825485">
                <ele>717.4153647999943</ele>
                <time>2012-05-19T23:55:14.000Z</time>
                <name>Position 2118</name>
            </trkpt>
            <trkpt lon="9.773646" lat="47.825491">
                <ele>717.3694748800015</ele>
                <time>2012-05-19T23:55:14.000Z</time>
                <name>Position 2119</name>
            </trkpt>
            <trkpt lon="9.773644" lat="47.825484">
                <ele>717.4156556799804</ele>
                <time>2012-05-19T23:55:15.000Z</time>
                <name>Position 2120</name>
            </trkpt>
            <trkpt lon="9.773631" lat="47.825485">
                <ele>717.3600327999964</ele>
                <time>2012-05-19T23:55:15.000Z</time>
                <name>Position 2121</name>
            </trkpt>
            <trkpt lon="9.773633" lat="47.825492">
                <ele>717.3129548800243</ele>
                <time>2012-05-19T23:55:15.000Z</time>
                <name>Position 2122</name>
            </trkpt>
            <trkpt lon="9.773635" lat="47.825498">
                <ele>717.2739183999774</ele>
                <time>2012-05-19T23:55:16.000Z</time>
                <name>Position 2123</name>
            </trkpt>
            <trkpt lon="9.773648" lat="47.825497">
                <ele>717.3312044800095</ele>
                <time>2012-05-19T23:55:16.000Z</time>
                <name>Position 2124</name>
            </trkpt>
            <trkpt lon="9.773635" lat="47.825498">
                <ele>717.2739183999774</ele>
                <time>2012-05-19T23:55:16.000Z</time>
                <name>Position 2125</name>
            </trkpt>
            <trkpt lon="9.773648" lat="47.825497">
                <ele>717.3312044800095</ele>
                <time>2012-05-19T23:55:17.000Z</time>
                <name>Position 2126</name>
            </trkpt>
            <trkpt lon="9.773646" lat="47.825491">
                <ele>717.3694748800015</ele>
                <time>2012-05-19T23:55:17.000Z</time>
                <name>Position 2127</name>
            </trkpt>
            <trkpt lon="9.773648" lat="47.825497">
                <ele>717.3312044800095</ele>
                <time>2012-05-19T23:55:17.000Z</time>
                <name>Position 2128</name>
            </trkpt>
            <trkpt lon="9.773646" lat="47.825491">
                <ele>717.3694748800015</ele>
                <time>2012-05-19T23:55:17.000Z</time>
                <name>Position 2129</name>
            </trkpt>
            <trkpt lon="9.773661" lat="47.825496">
                <ele>717.388228479994</ele>
                <time>2012-05-19T23:55:18.000Z</time>
                <name>Position 2130</name>
            </trkpt>
            <trkpt lon="9.773664" lat="47.825503">
                <ele>717.3473593600181</ele>
                <time>2012-05-19T23:55:18.000Z</time>
                <name>Position 2131</name>
            </trkpt>
            <trkpt lon="9.773677" lat="47.825508">
                <ele>717.3609932800028</ele>
                <time>2012-05-19T23:55:18.000Z</time>
                <name>Position 2132</name>
            </trkpt>
            <trkpt lon="9.773677" lat="47.825502">
                <ele>717.405008319996</ele>
                <time>2012-05-19T23:55:19.000Z</time>
                <name>Position 2133</name>
            </trkpt>
            <trkpt lon="9.773677" lat="47.825508">
                <ele>717.3609932800028</ele>
                <time>2012-05-19T23:55:19.000Z</time>
                <name>Position 2134</name>
            </trkpt>
            <trkpt lon="9.773664" lat="47.825509">
                <ele>717.302558080025</ele>
                <time>2012-05-19T23:55:19.000Z</time>
                <name>Position 2135</name>
            </trkpt>
            <trkpt lon="9.773677" lat="47.825508">
                <ele>717.3609932800028</ele>
                <time>2012-05-19T23:55:20.000Z</time>
                <name>Position 2136</name>
            </trkpt>
            <trkpt lon="9.773664" lat="47.825509">
                <ele>717.302558080025</ele>
                <time>2012-05-19T23:55:20.000Z</time>
                <name>Position 2137</name>
            </trkpt>
            <trkpt lon="9.773677" lat="47.825508">
                <ele>717.3609932800028</ele>
                <time>2012-05-19T23:55:20.000Z</time>
                <name>Position 2138</name>
            </trkpt>
            <trkpt lon="9.773664" lat="47.825509">
                <ele>717.302558080025</ele>
                <time>2012-05-19T23:55:21.000Z</time>
                <name>Position 2139</name>
            </trkpt>
            <trkpt lon="9.773677" lat="47.825508">
                <ele>717.3609932800028</ele>
                <time>2012-05-19T23:55:21.000Z</time>
                <name>Position 2140</name>
            </trkpt>
            <trkpt lon="9.773677" lat="47.825502">
                <ele>717.405008319996</ele>
                <time>2012-05-19T23:55:21.000Z</time>
                <name>Position 2141</name>
            </trkpt>
            <trkpt lon="9.773677" lat="47.825508">
                <ele>717.3609932800028</ele>
                <time>2012-05-19T23:55:22.000Z</time>
                <name>Position 2142</name>
            </trkpt>
            <trkpt lon="9.773679" lat="47.825514">
                <ele>717.3249404800107</ele>
                <time>2012-05-19T23:55:22.000Z</time>
                <name>Position 2143</name>
            </trkpt>
            <trkpt lon="9.773677" lat="47.825508">
                <ele>717.3609932800028</ele>
                <time>2012-05-19T23:55:22.000Z</time>
                <name>Position 2144</name>
            </trkpt>
            <trkpt lon="9.773679" lat="47.825514">
                <ele>717.3249404800107</ele>
                <time>2012-05-19T23:55:22.000Z</time>
                <name>Position 2145</name>
            </trkpt>
            <trkpt lon="9.773677" lat="47.825508">
                <ele>717.3609932800028</ele>
                <time>2012-05-19T23:55:22.000Z</time>
                <name>Position 2146</name>
            </trkpt>
            <trkpt lon="9.773664" lat="47.825509">
                <ele>717.302558080025</ele>
                <time>2012-05-19T23:55:23.000Z</time>
                <name>Position 2147</name>
            </trkpt>
            <trkpt lon="9.773666" lat="47.825515">
                <ele>717.2657391999802</ele>
                <time>2012-05-19T23:55:23.000Z</time>
                <name>Position 2148</name>
            </trkpt>
            <trkpt lon="9.773664" lat="47.825509">
                <ele>717.302558080025</ele>
                <time>2012-05-19T23:55:23.000Z</time>
                <name>Position 2149</name>
            </trkpt>
            <trkpt lon="9.773666" lat="47.825509">
                <ele>717.3104195200261</ele>
                <time>2012-05-19T23:55:23.000Z</time>
                <name>Position 2150</name>
            </trkpt>
            <trkpt lon="9.773666" lat="47.825515">
                <ele>717.2657391999802</ele>
                <time>2012-05-19T23:55:24.000Z</time>
                <name>Position 2151</name>
            </trkpt>
            <trkpt lon="9.773664" lat="47.825509">
                <ele>717.302558080025</ele>
                <time>2012-05-19T23:55:24.000Z</time>
                <name>Position 2152</name>
            </trkpt>
            <trkpt lon="9.773651" lat="47.82551">
                <ele>717.243860799987</ele>
                <time>2012-05-19T23:55:24.000Z</time>
                <name>Position 2153</name>
            </trkpt>
            <trkpt lon="9.773664" lat="47.825509">
                <ele>717.302558080025</ele>
                <time>2012-05-19T23:55:25.000Z</time>
                <name>Position 2154</name>
            </trkpt>
            <trkpt lon="9.773651" lat="47.82551">
                <ele>717.243860799987</ele>
                <time>2012-05-19T23:55:25.000Z</time>
                <name>Position 2155</name>
            </trkpt>
            <trkpt lon="9.773664" lat="47.825509">
                <ele>717.302558080025</ele>
                <time>2012-05-19T23:55:25.000Z</time>
                <name>Position 2156</name>
            </trkpt>
            <trkpt lon="9.773651" lat="47.82551">
                <ele>717.243860799987</ele>
                <time>2012-05-19T23:55:26.000Z</time>
                <name>Position 2157</name>
            </trkpt>
            <trkpt lon="9.773664" lat="47.825509">
                <ele>717.302558080025</ele>
                <time>2012-05-19T23:55:26.000Z</time>
                <name>Position 2158</name>
            </trkpt>
            <trkpt lon="9.773651" lat="47.82551">
                <ele>717.243860799987</ele>
                <time>2012-05-19T23:55:26.000Z</time>
                <name>Position 2159</name>
            </trkpt>
            <trkpt lon="9.773651" lat="47.825504">
                <ele>717.28944831998</ele>
                <time>2012-05-19T23:55:27.000Z</time>
                <name>Position 2160</name>
            </trkpt>
            <trkpt lon="9.773646" lat="47.825485">
                <ele>717.4153647999943</ele>
                <time>2012-05-19T23:55:27.000Z</time>
                <name>Position 2161</name>
            </trkpt>
            <trkpt lon="9.773633" lat="47.825486">
                <ele>717.359631040017</ele>
                <time>2012-05-19T23:55:28.000Z</time>
                <name>Position 2162</name>
            </trkpt>
            <trkpt lon="9.773584" lat="47.825457">
                <ele>717.418311039998</ele>
                <time>2012-05-19T23:55:29.000Z</time>
                <name>Position 2163</name>
            </trkpt>
            <trkpt lon="9.773474" lat="47.825394">
                <ele>717.6346604799742</ele>
                <time>2012-05-19T23:55:33.000Z</time>
                <name>Position 2164</name>
            </trkpt>
            <trkpt lon="9.773348" lat="47.82532">
                <ele>718.0737088000243</ele>
                <time>2012-05-19T23:55:38.000Z</time>
                <name>Position 2165</name>
            </trkpt>
            <trkpt lon="9.773227" lat="47.825259">
                <ele>718.8649030399672</ele>
                <time>2012-05-19T23:55:42.000Z</time>
                <name>Position 2166</name>
            </trkpt>
            <trkpt lon="9.77313" lat="47.825189">
                <ele>720.0147295999761</ele>
                <time>2012-05-19T23:55:46.000Z</time>
                <name>Position 2167</name>
            </trkpt>
            <trkpt lon="9.773022" lat="47.825121">
                <ele>721.4102393599578</ele>
                <time>2012-05-19T23:55:50.000Z</time>
                <name>Position 2168</name>
            </trkpt>
            <trkpt lon="9.772927" lat="47.825045">
                <ele>723.1360351999535</ele>
                <time>2012-05-19T23:55:54.000Z</time>
                <name>Position 2169</name>
            </trkpt>
            <trkpt lon="9.772841" lat="47.82495">
                <ele>724.4894480000017</ele>
                <time>2012-05-19T23:55:58.000Z</time>
                <name>Position 2170</name>
            </trkpt>
            <trkpt lon="9.772755" lat="47.824854">
                <ele>725.0915887999984</ele>
                <time>2012-05-19T23:56:03.000Z</time>
                <name>Position 2171</name>
            </trkpt>
            <trkpt lon="9.772656" lat="47.824765">
                <ele>725.7932096000039</ele>
                <time>2012-05-19T23:56:07.000Z</time>
                <name>Position 2172</name>
            </trkpt>
            <trkpt lon="9.772591" lat="47.824672">
                <ele>726.3046188799993</ele>
                <time>2012-05-19T23:56:11.000Z</time>
                <name>Position 2173</name>
            </trkpt>
            <trkpt lon="9.772553" lat="47.824624">
                <ele>726.6045036799987</ele>
                <time>2012-05-19T23:56:13.000Z</time>
                <name>Position 2174</name>
            </trkpt>
            <trkpt lon="9.772496" lat="47.824544">
                <ele>727.0306265599975</ele>
                <time>2012-05-19T23:56:17.000Z</time>
                <name>Position 2175</name>
            </trkpt>
            <trkpt lon="9.772469" lat="47.824494">
                <ele>726.9809878399947</ele>
                <time>2012-05-19T23:56:19.000Z</time>
                <name>Position 2176</name>
            </trkpt>
            <trkpt lon="9.772418" lat="47.824394">
                <ele>726.9051564800026</ele>
                <time>2012-05-19T23:56:23.000Z</time>
                <name>Position 2177</name>
            </trkpt>
            <trkpt lon="9.772386" lat="47.824278">
                <ele>726.9377235199971</ele>
                <time>2012-05-19T23:56:28.000Z</time>
                <name>Position 2178</name>
            </trkpt>
            <trkpt lon="9.772346" lat="47.824158">
                <ele>726.9267219199957</ele>
                <time>2012-05-19T23:56:33.000Z</time>
                <name>Position 2179</name>
            </trkpt>
            <trkpt lon="9.772334" lat="47.824036">
                <ele>726.6200345600013</ele>
                <time>2012-05-19T23:56:38.000Z</time>
                <name>Position 2180</name>
            </trkpt>
            <trkpt lon="9.772344" lat="47.823883">
                <ele>726.3213228800056</ele>
                <time>2012-05-19T23:56:44.000Z</time>
                <name>Position 2181</name>
            </trkpt>
            <trkpt lon="9.772331" lat="47.823739">
                <ele>725.9692769600052</ele>
                <time>2012-05-19T23:56:50.000Z</time>
                <name>Position 2182</name>
            </trkpt>
            <trkpt lon="9.772307" lat="47.823671">
                <ele>725.7533556799931</ele>
                <time>2012-05-19T23:56:53.000Z</time>
                <name>Position 2183</name>
            </trkpt>
            <trkpt lon="9.772294" lat="47.823672">
                <ele>725.7179379200053</ele>
                <time>2012-05-19T23:56:53.000Z</time>
                <name>Position 2184</name>
            </trkpt>
            <trkpt lon="9.772291" lat="47.823659">
                <ele>725.6819873599958</ele>
                <time>2012-05-19T23:56:53.000Z</time>
                <name>Position 2185</name>
            </trkpt>
            <trkpt lon="9.772258" lat="47.823624">
                <ele>725.5155084800068</ele>
                <time>2012-05-19T23:56:55.000Z</time>
                <name>Position 2186</name>
            </trkpt>
            <trkpt lon="9.772241" lat="47.823605">
                <ele>725.429079199999</ele>
                <time>2012-05-19T23:56:56.000Z</time>
                <name>Position 2187</name>
            </trkpt>
            <trkpt lon="9.772142" lat="47.823384">
                <ele>724.7362803199959</ele>
                <time>2012-05-19T23:57:05.000Z</time>
                <name>Position 2188</name>
            </trkpt>
            <trkpt lon="9.77208" lat="47.823279">
                <ele>725.0136000000073</ele>
                <time>2012-05-19T23:57:10.000Z</time>
                <name>Position 2189</name>
            </trkpt>
            <trkpt lon="9.772062" lat="47.823243">
                <ele>725.3160000000197</ele>
                <time>2012-05-19T23:57:11.000Z</time>
                <name>Position 2190</name>
            </trkpt>
            <trkpt lon="9.772023" lat="47.82321">
                <ele>725.5391999999721</ele>
                <time>2012-05-19T23:57:13.000Z</time>
                <name>Position 2191</name>
            </trkpt>
            <trkpt lon="9.772007" lat="47.823169">
                <ele>725.8944000000004</ele>
                <time>2012-05-19T23:57:15.000Z</time>
                <name>Position 2192</name>
            </trkpt>
            <trkpt lon="9.771994" lat="47.823115">
                <ele>726.3815999999854</ele>
                <time>2012-05-19T23:57:17.000Z</time>
                <name>Position 2193</name>
            </trkpt>
            <trkpt lon="9.771989" lat="47.823038">
                <ele>727.1088000000294</ele>
                <time>2012-05-19T23:57:20.000Z</time>
                <name>Position 2194</name>
            </trkpt>
            <trkpt lon="9.771976" lat="47.822968">
                <ele>727.7495999999719</ele>
                <time>2012-05-19T23:57:23.000Z</time>
                <name>Position 2195</name>
            </trkpt>
            <trkpt lon="9.771956" lat="47.822931">
                <ele>728.0568000000277</ele>
                <time>2012-05-19T23:57:24.000Z</time>
                <name>Position 2196</name>
            </trkpt>
            <trkpt lon="9.771938" lat="47.82283">
                <ele>728.9831999999695</ele>
                <time>2012-05-19T23:57:28.000Z</time>
                <name>Position 2197</name>
            </trkpt>
            <trkpt lon="9.771911" lat="47.822738">
                <ele>729.8015999999881</ele>
                <time>2012-05-19T23:57:32.000Z</time>
                <name>Position 2198</name>
            </trkpt>
            <trkpt lon="9.77189" lat="47.822636">
                <ele>730.730399999975</ele>
                <time>2012-05-19T23:57:36.000Z</time>
                <name>Position 2199</name>
            </trkpt>
            <trkpt lon="9.771879" lat="47.822573">
                <ele>731.3088000000154</ele>
                <time>2012-05-19T23:57:39.000Z</time>
                <name>Position 2200</name>
            </trkpt>
            <trkpt lon="9.771875" lat="47.822536">
                <ele>731.654400000004</ele>
                <time>2012-05-19T23:57:40.000Z</time>
                <name>Position 2201</name>
            </trkpt>
            <trkpt lon="9.771845" lat="47.822344">
                <ele>731.0990784000066</ele>
                <time>2012-05-19T23:57:48.000Z</time>
                <name>Position 2202</name>
            </trkpt>
            <trkpt lon="9.771828" lat="47.822185">
                <ele>730.2288383999852</ele>
                <time>2012-05-19T23:57:54.000Z</time>
                <name>Position 2203</name>
            </trkpt>
            <trkpt lon="9.771776" lat="47.821949">
                <ele>728.9441011199808</ele>
                <time>2012-05-19T23:58:04.000Z</time>
                <name>Position 2204</name>
            </trkpt>
            <trkpt lon="9.771747" lat="47.821803">
                <ele>728.185942080013</ele>
                <time>2012-05-19T23:58:10.000Z</time>
                <name>Position 2205</name>
            </trkpt>
            <trkpt lon="9.771774" lat="47.821602">
                <ele>727.2948255999951</ele>
                <time>2012-05-19T23:58:18.000Z</time>
                <name>Position 2206</name>
            </trkpt>
            <trkpt lon="9.77175" lat="47.821504">
                <ele>727.0119999999908</ele>
                <time>2012-05-19T23:58:22.000Z</time>
                <name>Position 2207</name>
            </trkpt>
            <trkpt lon="9.771723" lat="47.821399">
                <ele>726.7490343999991</ele>
                <time>2012-05-19T23:58:26.000Z</time>
                <name>Position 2208</name>
            </trkpt>
            <trkpt lon="9.771833" lat="47.821086">
                <ele>725.4109936000002</ele>
                <time>2012-05-19T23:58:39.000Z</time>
                <name>Position 2209</name>
            </trkpt>
            <trkpt lon="9.771729" lat="47.820714">
                <ele>723.5186659200281</ele>
                <time>2012-05-19T23:58:54.000Z</time>
                <name>Position 2210</name>
            </trkpt>
            <trkpt lon="9.771568" lat="47.820503">
                <ele>722.3865414400198</ele>
                <time>2012-05-19T23:59:04.000Z</time>
                <name>Position 2211</name>
            </trkpt>
            <trkpt lon="9.771418" lat="47.820361">
                <ele>723.3739292799796</ele>
                <time>2012-05-19T23:59:11.000Z</time>
                <name>Position 2212</name>
            </trkpt>
            <trkpt lon="9.771349" lat="47.820283">
                <ele>724.1623451200022</ele>
                <time>2012-05-19T23:59:14.000Z</time>
                <name>Position 2213</name>
            </trkpt>
            <trkpt lon="9.771234" lat="47.820183">
                <ele>726.1716899200061</ele>
                <time>2012-05-19T23:59:19.000Z</time>
                <name>Position 2214</name>
            </trkpt>
            <trkpt lon="9.771164" lat="47.820081">
                <ele>727.7256102399848</ele>
                <time>2012-05-19T23:59:24.000Z</time>
                <name>Position 2215</name>
            </trkpt>
            <trkpt lon="9.771095" lat="47.819967">
                <ele>728.9515095999483</ele>
                <time>2012-05-19T23:59:29.000Z</time>
                <name>Position 2216</name>
            </trkpt>
            <trkpt lon="9.770985" lat="47.819838">
                <ele>729.1208271999512</ele>
                <time>2012-05-19T23:59:35.000Z</time>
                <name>Position 2217</name>
            </trkpt>
            <trkpt lon="9.77085" lat="47.819659">
                <ele>728.3588560000469</ele>
                <time>2012-05-19T23:59:43.000Z</time>
                <name>Position 2218</name>
            </trkpt>
            <trkpt lon="9.770711" lat="47.819454">
                <ele>725.9039334400014</ele>
                <time>2012-05-19T23:59:52.000Z</time>
                <name>Position 2219</name>
            </trkpt>
            <trkpt lon="9.7706" lat="47.819267">
                <ele>723.5727520000756</ele>
                <time>2012-05-20T00:00:00.000Z</time>
                <name>Position 2220</name>
            </trkpt>
            <trkpt lon="9.770494" lat="47.81911">
                <ele>722.4906624000357</ele>
                <time>2012-05-20T00:00:07.000Z</time>
                <name>Position 2221</name>
            </trkpt>
            <trkpt lon="9.770349" lat="47.818963">
                <ele>722.8293283199598</ele>
                <time>2012-05-20T00:00:14.000Z</time>
                <name>Position 2222</name>
            </trkpt>
            <trkpt lon="9.770183" lat="47.818868">
                <ele>723.8802278400377</ele>
                <time>2012-05-20T00:00:20.000Z</time>
                <name>Position 2223</name>
            </trkpt>
            <trkpt lon="9.769988" lat="47.818839">
                <ele>725.989048319949</ele>
                <time>2012-05-20T00:00:25.000Z</time>
                <name>Position 2224</name>
            </trkpt>
            <trkpt lon="9.769788" lat="47.818873">
                <ele>726.4162022400544</ele>
                <time>2012-05-20T00:00:31.000Z</time>
                <name>Position 2225</name>
            </trkpt>
            <trkpt lon="9.769569" lat="47.81893">
                <ele>727.0771392000247</ele>
                <time>2012-05-20T00:00:37.000Z</time>
                <name>Position 2226</name>
            </trkpt>
            <trkpt lon="9.769367" lat="47.81897">
                <ele>727.3938624000033</ele>
                <time>2012-05-20T00:00:42.000Z</time>
                <name>Position 2227</name>
            </trkpt>
            <trkpt lon="9.769205" lat="47.819019">
                <ele>727.7873951999657</ele>
                <time>2012-05-20T00:00:47.000Z</time>
                <name>Position 2228</name>
            </trkpt>
            <trkpt lon="9.769036" lat="47.819064">
                <ele>726.9727065599684</ele>
                <time>2012-05-20T00:00:52.000Z</time>
                <name>Position 2229</name>
            </trkpt>
            <trkpt lon="9.768874" lat="47.819117">
                <ele>725.8687891199879</ele>
                <time>2012-05-20T00:00:57.000Z</time>
                <name>Position 2230</name>
            </trkpt>
            <trkpt lon="9.768736" lat="47.81918">
                <ele>725.2018752000805</ele>
                <time>2012-05-20T00:01:01.000Z</time>
                <name>Position 2231</name>
            </trkpt>
            <trkpt lon="9.768576" lat="47.819217">
                <ele>724.5000460800434</ele>
                <time>2012-05-20T00:01:06.000Z</time>
                <name>Position 2232</name>
            </trkpt>
            <trkpt lon="9.768497" lat="47.819242">
                <ele>724.3661817600727</ele>
                <time>2012-05-20T00:01:08.000Z</time>
                <name>Position 2233</name>
            </trkpt>
            <trkpt lon="9.768471" lat="47.81925">
                <ele>724.3207199999046</ele>
                <time>2012-05-20T00:01:09.000Z</time>
                <name>Position 2234</name>
            </trkpt>
            <trkpt lon="9.768359" lat="47.819275">
                <ele>723.8811839999296</ele>
                <time>2012-05-20T00:01:12.000Z</time>
                <name>Position 2235</name>
            </trkpt>
            <trkpt lon="9.768218" lat="47.819363">
                <ele>725.1609648000674</ele>
                <time>2012-05-20T00:01:18.000Z</time>
                <name>Position 2236</name>
            </trkpt>
            <trkpt lon="9.76804" lat="47.819431">
                <ele>725.4425280000327</ele>
                <time>2012-05-20T00:01:23.000Z</time>
                <name>Position 2237</name>
            </trkpt>
            <trkpt lon="9.767922" lat="47.819465">
                <ele>725.2468560000281</ele>
                <time>2012-05-20T00:01:26.000Z</time>
                <name>Position 2238</name>
            </trkpt>
            <trkpt lon="9.76774" lat="47.819536">
                <ele>725.2870079999816</ele>
                <time>2012-05-20T00:01:32.000Z</time>
                <name>Position 2239</name>
            </trkpt>
            <trkpt lon="9.767562" lat="47.819583">
                <ele>724.6246512000317</ele>
                <time>2012-05-20T00:01:37.000Z</time>
                <name>Position 2240</name>
            </trkpt>
            <trkpt lon="9.767275" lat="47.819679">
                <ele>725.5612800000099</ele>
                <time>2012-05-20T00:01:46.000Z</time>
                <name>Position 2241</name>
            </trkpt>
            <trkpt lon="9.767044" lat="47.819759">
                <ele>725.6982047999783</ele>
                <time>2012-05-20T00:01:53.000Z</time>
                <name>Position 2242</name>
            </trkpt>
            <trkpt lon="9.766831" lat="47.819812">
                <ele>724.8078335999943</ele>
                <time>2012-05-20T00:01:59.000Z</time>
                <name>Position 2243</name>
            </trkpt>
            <trkpt lon="9.766665" lat="47.819922">
                <ele>723.5890976000012</ele>
                <time>2012-05-20T00:02:05.000Z</time>
                <name>Position 2244</name>
            </trkpt>
            <trkpt lon="9.766553" lat="47.82">
                <ele>723.0907999999996</ele>
                <time>2012-05-20T00:02:10.000Z</time>
                <name>Position 2245</name>
            </trkpt>
            <trkpt lon="9.766481" lat="47.820063">
                <ele>722.6717816000089</ele>
                <time>2012-05-20T00:02:13.000Z</time>
                <name>Position 2246</name>
            </trkpt>
            <trkpt lon="9.766287" lat="47.820218">
                <ele>721.2756752000128</ele>
                <time>2012-05-20T00:02:21.000Z</time>
                <name>Position 2247</name>
            </trkpt>
            <trkpt lon="9.76609" lat="47.82033">
                <ele>719.6578400000094</ele>
                <time>2012-05-20T00:02:28.000Z</time>
                <name>Position 2248</name>
            </trkpt>
            <trkpt lon="9.765908" lat="47.820382">
                <ele>718.2237631999832</ele>
                <time>2012-05-20T00:02:33.000Z</time>
                <name>Position 2249</name>
            </trkpt>
            <trkpt lon="9.765769" lat="47.820368">
                <ele>717.6438745599885</ele>
                <time>2012-05-20T00:02:37.000Z</time>
                <name>Position 2250</name>
            </trkpt>
            <trkpt lon="9.765567" lat="47.820315">
                <ele>717.3160263999982</ele>
                <time>2012-05-20T00:02:43.000Z</time>
                <name>Position 2251</name>
            </trkpt>
            <trkpt lon="9.765427" lat="47.820251">
                <ele>717.1829953600088</ele>
                <time>2012-05-20T00:02:47.000Z</time>
                <name>Position 2252</name>
            </trkpt>
            <trkpt lon="9.765329" lat="47.820257">
                <ele>716.7887310400083</ele>
                <time>2012-05-20T00:02:50.000Z</time>
                <name>Position 2253</name>
            </trkpt>
            <trkpt lon="9.765078" lat="47.820229">
                <ele>715.9728361600125</ele>
                <time>2012-05-20T00:02:57.000Z</time>
                <name>Position 2254</name>
            </trkpt>
            <trkpt lon="9.764678" lat="47.820286">
                <ele>715.3377875199883</ele>
                <time>2012-05-20T00:03:08.000Z</time>
                <name>Position 2255</name>
            </trkpt>
            <trkpt lon="9.764315" lat="47.820346">
                <ele>714.9131055999972</ele>
                <time>2012-05-20T00:03:18.000Z</time>
                <name>Position 2256</name>
            </trkpt>
            <trkpt lon="9.764006" lat="47.820374">
                <ele>713.3749427199957</ele>
                <time>2012-05-20T00:03:26.000Z</time>
                <name>Position 2257</name>
            </trkpt>
            <trkpt lon="9.763865" lat="47.820333">
                <ele>712.440289600004</ele>
                <time>2012-05-20T00:03:30.000Z</time>
                <name>Position 2258</name>
            </trkpt>
            <trkpt lon="9.763567" lat="47.820425">
                <ele>709.4084079999994</ele>
                <time>2012-05-20T00:03:39.000Z</time>
                <name>Position 2259</name>
            </trkpt>
            <trkpt lon="9.763243" lat="47.820531">
                <ele>705.5832174399728</ele>
                <time>2012-05-20T00:03:49.000Z</time>
                <name>Position 2260</name>
            </trkpt>
            <trkpt lon="9.762968" lat="47.820777">
                <ele>700.87109248001</ele>
                <time>2012-05-20T00:04:01.000Z</time>
                <name>Position 2261</name>
            </trkpt>
            <trkpt lon="9.762625" lat="47.820971">
                <ele>696.9160799999983</ele>
                <time>2012-05-20T00:04:13.000Z</time>
                <name>Position 2262</name>
            </trkpt>
            <trkpt lon="9.76231" lat="47.82114">
                <ele>694.6678079999951</ele>
                <time>2012-05-20T00:04:24.000Z</time>
                <name>Position 2263</name>
            </trkpt>
            <trkpt lon="9.761912" lat="47.8213">
                <ele>692.6166720000052</ele>
                <time>2012-05-20T00:04:36.000Z</time>
                <name>Position 2264</name>
            </trkpt>
            <trkpt lon="9.761586" lat="47.821412">
                <ele>691.5751462400069</ele>
                <time>2012-05-20T00:04:46.000Z</time>
                <name>Position 2265</name>
            </trkpt>
            <trkpt lon="9.761198" lat="47.821516">
                <ele>691.700245760004</ele>
                <time>2012-05-20T00:04:58.000Z</time>
                <name>Position 2266</name>
            </trkpt>
            <trkpt lon="9.760829" lat="47.821574">
                <ele>691.4901782399984</ele>
                <time>2012-05-20T00:05:08.000Z</time>
                <name>Position 2267</name>
            </trkpt>
            <trkpt lon="9.7604" lat="47.821663">
                <ele>690.462288000001</ele>
                <time>2012-05-20T00:05:20.000Z</time>
                <name>Position 2268</name>
            </trkpt>
            <trkpt lon="9.760041" lat="47.821756">
                <ele>690.2152288000023</ele>
                <time>2012-05-20T00:05:30.000Z</time>
                <name>Position 2269</name>
            </trkpt>
            <trkpt lon="9.759669" lat="47.821819">
                <ele>692.0403836799838</ele>
                <time>2012-05-20T00:05:40.000Z</time>
                <name>Position 2270</name>
            </trkpt>
            <trkpt lon="9.759399" lat="47.821828">
                <ele>693.2671513599798</ele>
                <time>2012-05-20T00:05:48.000Z</time>
                <name>Position 2271</name>
            </trkpt>
            <trkpt lon="9.7591" lat="47.821849">
                <ele>694.8552000000007</ele>
                <time>2012-05-20T00:05:56.000Z</time>
                <name>Position 2272</name>
            </trkpt>
            <trkpt lon="9.758741" lat="47.821859">
                <ele>697.4880000000127</ele>
                <time>2012-05-20T00:06:05.000Z</time>
                <name>Position 2273</name>
            </trkpt>
            <trkpt lon="9.758336" lat="47.821886">
                <ele>700.5335999999971</ele>
                <time>2012-05-20T00:06:16.000Z</time>
                <name>Position 2274</name>
            </trkpt>
            <trkpt lon="9.758007" lat="47.821897">
                <ele>700.9972</ele>
                <time>2012-05-20T00:06:25.000Z</time>
                <name>Position 2275</name>
            </trkpt>
            <trkpt lon="9.7577" lat="47.821891">
                <ele>701.3368000000038</ele>
                <time>2012-05-20T00:06:34.000Z</time>
                <name>Position 2276</name>
            </trkpt>
            <trkpt lon="9.757563" lat="47.821883">
                <ele>701.462799999999</ele>
                <time>2012-05-20T00:06:37.000Z</time>
                <name>Position 2277</name>
            </trkpt>
            <trkpt lon="9.757403" lat="47.821856">
                <ele>700.9167539199847</ele>
                <time>2012-05-20T00:06:42.000Z</time>
                <name>Position 2278</name>
            </trkpt>
            <trkpt lon="9.757258" lat="47.821822">
                <ele>700.0298694399888</ele>
                <time>2012-05-20T00:06:46.000Z</time>
                <name>Position 2279</name>
            </trkpt>
            <trkpt lon="9.756998" lat="47.821764">
                <ele>698.4872396800034</ele>
                <time>2012-05-20T00:06:53.000Z</time>
                <name>Position 2280</name>
            </trkpt>
            <trkpt lon="9.756761" lat="47.821732">
                <ele>697.1968748799849</ele>
                <time>2012-05-20T00:07:00.000Z</time>
                <name>Position 2281</name>
            </trkpt>
            <trkpt lon="9.756639" lat="47.821676">
                <ele>696.3672281599862</ele>
                <time>2012-05-20T00:07:04.000Z</time>
                <name>Position 2282</name>
            </trkpt>
            <trkpt lon="9.756443" lat="47.821695">
                <ele>695.2508743999991</ele>
                <time>2012-05-20T00:07:09.000Z</time>
                <name>Position 2283</name>
            </trkpt>
            <trkpt lon="9.756309" lat="47.821706">
                <ele>694.4753417599957</ele>
                <time>2012-05-20T00:07:13.000Z</time>
                <name>Position 2284</name>
            </trkpt>
            <trkpt lon="9.756072" lat="47.82171">
                <ele>693.0508928000057</ele>
                <time>2012-05-20T00:07:19.000Z</time>
                <name>Position 2285</name>
            </trkpt>
            <trkpt lon="9.755725" lat="47.821708">
                <ele>690.5334080000014</ele>
                <time>2012-05-20T00:07:28.000Z</time>
                <name>Position 2286</name>
            </trkpt>
            <trkpt lon="9.755381" lat="47.821735">
                <ele>687.1435615999992</ele>
                <time>2012-05-20T00:07:38.000Z</time>
                <name>Position 2287</name>
            </trkpt>
            <trkpt lon="9.755068" lat="47.821803">
                <ele>683.8789990399908</ele>
                <time>2012-05-20T00:07:46.000Z</time>
                <name>Position 2288</name>
            </trkpt>
            <trkpt lon="9.755022" lat="47.821805">
                <ele>683.3967296000086</ele>
                <time>2012-05-20T00:07:48.000Z</time>
                <name>Position 2289</name>
            </trkpt>
            <trkpt lon="9.7548" lat="47.821863">
                <ele>681.5887999999946</ele>
                <time>2012-05-20T00:07:54.000Z</time>
                <name>Position 2290</name>
            </trkpt>
            <trkpt lon="9.754473" lat="47.821948">
                <ele>679.030400000008</ele>
                <time>2012-05-20T00:08:03.000Z</time>
                <name>Position 2291</name>
            </trkpt>
            <trkpt lon="9.754181" lat="47.822097">
                <ele>676.5704000000072</ele>
                <time>2012-05-20T00:08:13.000Z</time>
                <name>Position 2292</name>
            </trkpt>
            <trkpt lon="9.753812" lat="47.82228">
                <ele>675.3776832000009</ele>
                <time>2012-05-20T00:08:26.000Z</time>
                <name>Position 2293</name>
            </trkpt>
            <trkpt lon="9.75348" lat="47.822451">
                <ele>674.6966975999992</ele>
                <time>2012-05-20T00:08:37.000Z</time>
                <name>Position 2294</name>
            </trkpt>
            <trkpt lon="9.753275" lat="47.82264">
                <ele>673.9988000000026</ele>
                <time>2012-05-20T00:08:46.000Z</time>
                <name>Position 2295</name>
            </trkpt>
            <trkpt lon="9.753107" lat="47.822809">
                <ele>672.8307463999985</ele>
                <time>2012-05-20T00:08:54.000Z</time>
                <name>Position 2296</name>
            </trkpt>
            <trkpt lon="9.752983" lat="47.822969">
                <ele>672.3198056000034</ele>
                <time>2012-05-20T00:09:02.000Z</time>
                <name>Position 2297</name>
            </trkpt>
            <trkpt lon="9.752859" lat="47.823107">
                <ele>672.0194264000049</ele>
                <time>2012-05-20T00:09:08.000Z</time>
                <name>Position 2298</name>
            </trkpt>
            <trkpt lon="9.752754" lat="47.823189">
                <ele>671.8123567999943</ele>
                <time>2012-05-20T00:09:12.000Z</time>
                <name>Position 2299</name>
            </trkpt>
            <trkpt lon="9.752681" lat="47.823258">
                <ele>671.7977744000159</ele>
                <time>2012-05-20T00:09:16.000Z</time>
                <name>Position 2300</name>
            </trkpt>
            <trkpt lon="9.752666" lat="47.823276">
                <ele>671.8221247999977</ele>
                <time>2012-05-20T00:09:17.000Z</time>
                <name>Position 2301</name>
            </trkpt>
            <trkpt lon="9.752666" lat="47.823288">
                <ele>671.8797823999887</ele>
                <time>2012-05-20T00:09:17.000Z</time>
                <name>Position 2302</name>
            </trkpt>
            <trkpt lon="9.75264" lat="47.823313">
                <ele>671.9024959999923</ele>
                <time>2012-05-20T00:09:18.000Z</time>
                <name>Position 2303</name>
            </trkpt>
            <trkpt lon="9.752629" lat="47.823327">
                <ele>671.9322823999972</ele>
                <time>2012-05-20T00:09:19.000Z</time>
                <name>Position 2304</name>
            </trkpt>
            <trkpt lon="9.752579" lat="47.823338">
                <ele>671.7889382400023</ele>
                <time>2012-05-20T00:09:20.000Z</time>
                <name>Position 2305</name>
            </trkpt>
            <trkpt lon="9.75252" lat="47.823357">
                <ele>671.5990368000033</ele>
                <time>2012-05-20T00:09:22.000Z</time>
                <name>Position 2306</name>
            </trkpt>
            <trkpt lon="9.752441" lat="47.823376">
                <ele>671.7399244800099</ele>
                <time>2012-05-20T00:09:24.000Z</time>
                <name>Position 2307</name>
            </trkpt>
            <trkpt lon="9.752417" lat="47.823391">
                <ele>671.8580001600044</ele>
                <time>2012-05-20T00:09:25.000Z</time>
                <name>Position 2308</name>
            </trkpt>
            <trkpt lon="9.752351" lat="47.823397">
                <ele>672.1115841599966</ele>
                <time>2012-05-20T00:09:27.000Z</time>
                <name>Position 2309</name>
            </trkpt>
            <trkpt lon="9.752322" lat="47.823398">
                <ele>672.2202796799901</ele>
                <time>2012-05-20T00:09:28.000Z</time>
                <name>Position 2310</name>
            </trkpt>
            <trkpt lon="9.752259" lat="47.823429">
                <ele>672.6248020799827</ele>
                <time>2012-05-20T00:09:30.000Z</time>
                <name>Position 2311</name>
            </trkpt>
            <trkpt lon="9.752164" lat="47.823436">
                <ele>673.0753651200049</ele>
                <time>2012-05-20T00:09:32.000Z</time>
                <name>Position 2312</name>
            </trkpt>
            <trkpt lon="9.752112" lat="47.823447">
                <ele>673.393201920012</ele>
                <time>2012-05-20T00:09:34.000Z</time>
                <name>Position 2313</name>
            </trkpt>
            <trkpt lon="9.752037" lat="47.823438">
                <ele>673.6439836800312</ele>
                <time>2012-05-20T00:09:36.000Z</time>
                <name>Position 2314</name>
            </trkpt>
            <trkpt lon="9.751945" lat="47.823452">
                <ele>674.2072992000404</ele>
                <time>2012-05-20T00:09:39.000Z</time>
                <name>Position 2315</name>
            </trkpt>
            <trkpt lon="9.751752" lat="47.82346">
                <ele>675.2208575999583</ele>
                <time>2012-05-20T00:09:44.000Z</time>
                <name>Position 2316</name>
            </trkpt>
            <trkpt lon="9.751657" lat="47.823461">
                <ele>675.7277771200313</ele>
                <time>2012-05-20T00:09:46.000Z</time>
                <name>Position 2317</name>
            </trkpt>
            <trkpt lon="9.751514" lat="47.823457">
                <ele>676.8871868799579</ele>
                <time>2012-05-20T00:09:50.000Z</time>
                <name>Position 2318</name>
            </trkpt>
            <trkpt lon="9.751433" lat="47.823458">
                <ele>677.5991478400342</ele>
                <time>2012-05-20T00:09:52.000Z</time>
                <name>Position 2319</name>
            </trkpt>
            <trkpt lon="9.751279" lat="47.823456">
                <ele>678.8856774400008</ele>
                <time>2012-05-20T00:09:56.000Z</time>
                <name>Position 2320</name>
            </trkpt>
            <trkpt lon="9.751187" lat="47.82347">
                <ele>679.9195984000077</ele>
                <time>2012-05-20T00:09:59.000Z</time>
                <name>Position 2321</name>
            </trkpt>
            <trkpt lon="9.750989" lat="47.82347">
                <ele>681.6217648000013</ele>
                <time>2012-05-20T00:10:04.000Z</time>
                <name>Position 2322</name>
            </trkpt>
            <trkpt lon="9.75087" lat="47.823446">
                <ele>682.2140511999391</ele>
                <time>2012-05-20T00:10:08.000Z</time>
                <name>Position 2323</name>
            </trkpt>
            <trkpt lon="9.750771" lat="47.82344">
                <ele>682.7922047999624</ele>
                <time>2012-05-20T00:10:10.000Z</time>
                <name>Position 2324</name>
            </trkpt>
            <trkpt lon="9.750571" lat="47.823434">
                <ele>683.8965772799784</ele>
                <time>2012-05-20T00:10:16.000Z</time>
                <name>Position 2325</name>
            </trkpt>
            <trkpt lon="9.750462" lat="47.823448">
                <ele>684.7470835199832</ele>
                <time>2012-05-20T00:10:19.000Z</time>
                <name>Position 2326</name>
            </trkpt>
            <trkpt lon="9.750169" lat="47.823452">
                <ele>686.5110297600347</ele>
                <time>2012-05-20T00:10:27.000Z</time>
                <name>Position 2327</name>
            </trkpt>
            <trkpt lon="9.749859" lat="47.82346">
                <ele>687.5531711999803</ele>
                <time>2012-05-20T00:10:35.000Z</time>
                <name>Position 2328</name>
            </trkpt>
            <trkpt lon="9.749516" lat="47.82345">
                <ele>687.4916160000039</ele>
                <time>2012-05-20T00:10:44.000Z</time>
                <name>Position 2329</name>
            </trkpt>
            <trkpt lon="9.749167" lat="47.823468">
                <ele>687.50005248</ele>
                <time>2012-05-20T00:10:54.000Z</time>
                <name>Position 2330</name>
            </trkpt>
            <trkpt lon="9.748735" lat="47.823421">
                <ele>685.7825191999933</ele>
                <time>2012-05-20T00:11:05.000Z</time>
                <name>Position 2331</name>
            </trkpt>
            <trkpt lon="9.748452" lat="47.82331">
                <ele>685.0272384000039</ele>
                <time>2012-05-20T00:11:14.000Z</time>
                <name>Position 2332</name>
            </trkpt>
            <trkpt lon="9.748267" lat="47.823193">
                <ele>684.7747721599868</ele>
                <time>2012-05-20T00:11:21.000Z</time>
                <name>Position 2333</name>
            </trkpt>
            <trkpt lon="9.748109" lat="47.823122">
                <ele>684.0279852800021</ele>
                <time>2012-05-20T00:11:26.000Z</time>
                <name>Position 2334</name>
            </trkpt>
            <trkpt lon="9.74803" lat="47.823081">
                <ele>683.5938847999952</ele>
                <time>2012-05-20T00:11:29.000Z</time>
                <name>Position 2335</name>
            </trkpt>
            <trkpt lon="9.74796" lat="47.823055">
                <ele>683.1462080000111</ele>
                <time>2012-05-20T00:11:31.000Z</time>
                <name>Position 2336</name>
            </trkpt>
            <trkpt lon="9.747903" lat="47.823034">
                <ele>682.7582547200062</ele>
                <time>2012-05-20T00:11:33.000Z</time>
                <name>Position 2337</name>
            </trkpt>
            <trkpt lon="9.747819" lat="47.822935">
                <ele>682.1730703999974</ele>
                <time>2012-05-20T00:11:37.000Z</time>
                <name>Position 2338</name>
            </trkpt>
            <trkpt lon="9.747584" lat="47.822741">
                <ele>679.9114918399986</ele>
                <time>2012-05-20T00:11:47.000Z</time>
                <name>Position 2339</name>
            </trkpt>
            <trkpt lon="9.747341" lat="47.822556">
                <ele>678.2656217599977</ele>
                <time>2012-05-20T00:11:57.000Z</time>
                <name>Position 2340</name>
            </trkpt>
            <trkpt lon="9.747076" lat="47.822381">
                <ele>677.8381433599998</ele>
                <time>2012-05-20T00:12:07.000Z</time>
                <name>Position 2341</name>
            </trkpt>
            <trkpt lon="9.746867" lat="47.822213">
                <ele>677.7523937600057</ele>
                <time>2012-05-20T00:12:16.000Z</time>
                <name>Position 2342</name>
            </trkpt>
            <trkpt lon="9.74655" lat="47.821973">
                <ele>677.7277280000003</ele>
                <time>2012-05-20T00:12:29.000Z</time>
                <name>Position 2343</name>
            </trkpt>
            <trkpt lon="9.746261" lat="47.821812">
                <ele>677.8341958399989</ele>
                <time>2012-05-20T00:12:39.000Z</time>
                <name>Position 2344</name>
            </trkpt>
            <trkpt lon="9.746043" lat="47.821687">
                <ele>677.739321920002</ele>
                <time>2012-05-20T00:12:46.000Z</time>
                <name>Position 2345</name>
            </trkpt>
            <trkpt lon="9.745741" lat="47.821598">
                <ele>677.3874102399977</ele>
                <time>2012-05-20T00:12:55.000Z</time>
                <name>Position 2346</name>
            </trkpt>
            <trkpt lon="9.745435" lat="47.821549">
                <ele>676.2871192000072</ele>
                <time>2012-05-20T00:13:04.000Z</time>
                <name>Position 2347</name>
            </trkpt>
            <trkpt lon="9.745405" lat="47.82158">
                <ele>676.1096320000044</ele>
                <time>2012-05-20T00:13:05.000Z</time>
                <name>Position 2348</name>
            </trkpt>
            <trkpt lon="9.745482" lat="47.821683">
                <ele>676.2599900800031</ele>
                <time>2012-05-20T00:13:10.000Z</time>
                <name>Position 2349</name>
            </trkpt>
            <trkpt lon="9.745593" lat="47.821846">
                <ele>676.8209910399993</ele>
                <time>2012-05-20T00:13:17.000Z</time>
                <name>Position 2350</name>
            </trkpt>
            <trkpt lon="9.744954" lat="47.822053">
                <ele>675.3267443199845</ele>
                <time>2012-05-20T00:13:36.000Z</time>
                <name>Position 2351</name>
            </trkpt>
            <trkpt lon="9.74448" lat="47.822294">
                <ele>671.4648831999871</ele>
                <time>2012-05-20T00:13:52.000Z</time>
                <name>Position 2352</name>
            </trkpt>
            <trkpt lon="9.744072" lat="47.822477">
                <ele>668.6706060799761</ele>
                <time>2012-05-20T00:14:05.000Z</time>
                <name>Position 2353</name>
            </trkpt>
            <trkpt lon="9.743746" lat="47.822611">
                <ele>664.5035148800148</ele>
                <time>2012-05-20T00:14:16.000Z</time>
                <name>Position 2354</name>
            </trkpt>
            <trkpt lon="9.743365" lat="47.822682">
                <ele>659.5864064000145</ele>
                <time>2012-05-20T00:14:26.000Z</time>
                <name>Position 2355</name>
            </trkpt>
            <trkpt lon="9.74298" lat="47.822741">
                <ele>655.7303999999998</ele>
                <time>2012-05-20T00:14:37.000Z</time>
                <name>Position 2356</name>
            </trkpt>
            <trkpt lon="9.742585" lat="47.822779">
                <ele>651.5375999999573</ele>
                <time>2012-05-20T00:14:48.000Z</time>
                <name>Position 2357</name>
            </trkpt>
            <trkpt lon="9.742204" lat="47.82284">
                <ele>650.1201215999866</ele>
                <time>2012-05-20T00:14:58.000Z</time>
                <name>Position 2358</name>
            </trkpt>
            <trkpt lon="9.741772" lat="47.822888">
                <ele>648.9995481599802</ele>
                <time>2012-05-20T00:15:10.000Z</time>
                <name>Position 2359</name>
            </trkpt>
            <trkpt lon="9.741347" lat="47.822891">
                <ele>648.0123851199743</ele>
                <time>2012-05-20T00:15:21.000Z</time>
                <name>Position 2360</name>
            </trkpt>
            <trkpt lon="9.741035" lat="47.822879">
                <ele>647.241138400006</ele>
                <time>2012-05-20T00:15:30.000Z</time>
                <name>Position 2361</name>
            </trkpt>
            <trkpt lon="9.740894" lat="47.822884">
                <ele>647.063253760034</ele>
                <time>2012-05-20T00:15:33.000Z</time>
                <name>Position 2362</name>
            </trkpt>
            <trkpt lon="9.7406" lat="47.822837">
                <ele>645.440991999998</ele>
                <time>2012-05-20T00:15:42.000Z</time>
                <name>Position 2363</name>
            </trkpt>
            <trkpt lon="9.740388" lat="47.822749">
                <ele>642.9692723200327</ele>
                <time>2012-05-20T00:15:48.000Z</time>
                <name>Position 2364</name>
            </trkpt>
            <trkpt lon="9.74012" lat="47.822658">
                <ele>639.8481855999269</ele>
                <time>2012-05-20T00:15:56.000Z</time>
                <name>Position 2365</name>
            </trkpt>
            <trkpt lon="9.739911" lat="47.822589">
                <ele>637.6588124800165</ele>
                <time>2012-05-20T00:16:03.000Z</time>
                <name>Position 2366</name>
            </trkpt>
            <trkpt lon="9.739601" lat="47.822466">
                <ele>635.3367999999928</ele>
                <time>2012-05-20T00:16:12.000Z</time>
                <name>Position 2367</name>
            </trkpt>
            <trkpt lon="9.739243" lat="47.822312">
                <ele>634.5975999999832</ele>
                <time>2012-05-20T00:16:24.000Z</time>
                <name>Position 2368</name>
            </trkpt>
            <trkpt lon="9.73888" lat="47.822139">
                <ele>634.3521375999993</ele>
                <time>2012-05-20T00:16:36.000Z</time>
                <name>Position 2369</name>
            </trkpt>
            <trkpt lon="9.738427" lat="47.821997">
                <ele>634.1411339200253</ele>
                <time>2012-05-20T00:16:49.000Z</time>
                <name>Position 2370</name>
            </trkpt>
            <trkpt lon="9.738071" lat="47.82185">
                <ele>635.0358319999856</ele>
                <time>2012-05-20T00:17:00.000Z</time>
                <name>Position 2371</name>
            </trkpt>
            <trkpt lon="9.737741" lat="47.821713">
                <ele>636.7462385600169</ele>
                <time>2012-05-20T00:17:11.000Z</time>
                <name>Position 2372</name>
            </trkpt>
            <trkpt lon="9.737432" lat="47.821594">
                <ele>637.5677465599697</ele>
                <time>2012-05-20T00:17:20.000Z</time>
                <name>Position 2373</name>
            </trkpt>
            <trkpt lon="9.737122" lat="47.821481">
                <ele>636.1215862399841</ele>
                <time>2012-05-20T00:17:30.000Z</time>
                <name>Position 2374</name>
            </trkpt>
            <trkpt lon="9.736819" lat="47.821388">
                <ele>635.1586150399893</ele>
                <time>2012-05-20T00:17:39.000Z</time>
                <name>Position 2375</name>
            </trkpt>
            <trkpt lon="9.73654" lat="47.821292">
                <ele>634.1018175999964</ele>
                <time>2012-05-20T00:17:47.000Z</time>
                <name>Position 2376</name>
            </trkpt>
            <trkpt lon="9.736403" lat="47.821225">
                <ele>633.3438759999859</ele>
                <time>2012-05-20T00:17:52.000Z</time>
                <name>Position 2377</name>
            </trkpt>
            <trkpt lon="9.736286" lat="47.821214">
                <ele>633.0716012799834</ele>
                <time>2012-05-20T00:17:55.000Z</time>
                <name>Position 2378</name>
            </trkpt>
            <trkpt lon="9.736166" lat="47.821259">
                <ele>633.1549340799868</ele>
                <time>2012-05-20T00:17:59.000Z</time>
                <name>Position 2379</name>
            </trkpt>
            <trkpt lon="9.736045" lat="47.821335">
                <ele>633.366723999988</ele>
                <time>2012-05-20T00:18:03.000Z</time>
                <name>Position 2380</name>
            </trkpt>
            <trkpt lon="9.735868" lat="47.821425">
                <ele>633.4286079999889</ele>
                <time>2012-05-20T00:18:09.000Z</time>
                <name>Position 2381</name>
            </trkpt>
            <trkpt lon="9.735686" lat="47.821514">
                <ele>633.189559039999</ele>
                <time>2012-05-20T00:18:15.000Z</time>
                <name>Position 2382</name>
            </trkpt>
            <trkpt lon="9.735466" lat="47.821601">
                <ele>632.5605401600052</ele>
                <time>2012-05-20T00:18:22.000Z</time>
                <name>Position 2383</name>
            </trkpt>
            <trkpt lon="9.735249" lat="47.821676">
                <ele>631.7836396799637</ele>
                <time>2012-05-20T00:18:29.000Z</time>
                <name>Position 2384</name>
            </trkpt>
            <trkpt lon="9.735013" lat="47.821773">
                <ele>631.4615716800032</ele>
                <time>2012-05-20T00:18:36.000Z</time>
                <name>Position 2385</name>
            </trkpt>
            <trkpt lon="9.734884" lat="47.821827">
                <ele>631.5789791999905</ele>
                <time>2012-05-20T00:18:40.000Z</time>
                <name>Position 2386</name>
            </trkpt>
            <trkpt lon="9.734728" lat="47.821915">
                <ele>631.6133279999879</ele>
                <time>2012-05-20T00:18:46.000Z</time>
                <name>Position 2387</name>
            </trkpt>
            <trkpt lon="9.734677" lat="47.821946">
                <ele>631.5471647999863</ele>
                <time>2012-05-20T00:18:47.000Z</time>
                <name>Position 2388</name>
            </trkpt>
            <trkpt lon="9.734545" lat="47.822048">
                <ele>631.2047040000074</ele>
                <time>2012-05-20T00:18:53.000Z</time>
                <name>Position 2389</name>
            </trkpt>
            <trkpt lon="9.734358" lat="47.822113">
                <ele>630.1229376</ele>
                <time>2012-05-20T00:18:58.000Z</time>
                <name>Position 2390</name>
            </trkpt>
            <trkpt lon="9.734128" lat="47.822191">
                <ele>628.6400358400141</ele>
                <time>2012-05-20T00:19:05.000Z</time>
                <name>Position 2391</name>
            </trkpt>
            <trkpt lon="9.733832" lat="47.82232">
                <ele>627.9520192000164</ele>
                <time>2012-05-20T00:19:15.000Z</time>
                <name>Position 2392</name>
            </trkpt>
            <trkpt lon="9.733624" lat="47.822392">
                <ele>627.1771686399957</ele>
                <time>2012-05-20T00:19:21.000Z</time>
                <name>Position 2393</name>
            </trkpt>
            <trkpt lon="9.733444" lat="47.822458">
                <ele>626.2227481600294</ele>
                <time>2012-05-20T00:19:27.000Z</time>
                <name>Position 2394</name>
            </trkpt>
            <trkpt lon="9.733222" lat="47.822479">
                <ele>625.3646668799835</ele>
                <time>2012-05-20T00:19:33.000Z</time>
                <name>Position 2395</name>
            </trkpt>
            <trkpt lon="9.732849" lat="47.822516">
                <ele>623.735886719999</ele>
                <time>2012-05-20T00:19:43.000Z</time>
                <name>Position 2396</name>
            </trkpt>
            <trkpt lon="9.732433" lat="47.822535">
                <ele>622.3353767999905</ele>
                <time>2012-05-20T00:19:54.000Z</time>
                <name>Position 2397</name>
            </trkpt>
            <trkpt lon="9.732222" lat="47.822528">
                <ele>622.3768089600071</ele>
                <time>2012-05-20T00:20:00.000Z</time>
                <name>Position 2398</name>
            </trkpt>
            <trkpt lon="9.732047" lat="47.822504">
                <ele>622.4834092799912</ele>
                <time>2012-05-20T00:20:05.000Z</time>
                <name>Position 2399</name>
            </trkpt>
            <trkpt lon="9.731911" lat="47.822448">
                <ele>623.1971827199827</ele>
                <time>2012-05-20T00:20:09.000Z</time>
                <name>Position 2400</name>
            </trkpt>
            <trkpt lon="9.731856" lat="47.822428">
                <ele>623.4425203199734</ele>
                <time>2012-05-20T00:20:10.000Z</time>
                <name>Position 2401</name>
            </trkpt>
            <trkpt lon="9.731796" lat="47.822394">
                <ele>623.850965759966</ele>
                <time>2012-05-20T00:20:13.000Z</time>
                <name>Position 2402</name>
            </trkpt>
            <trkpt lon="9.731689" lat="47.822332">
                <ele>624.5376115199649</ele>
                <time>2012-05-20T00:20:16.000Z</time>
                <name>Position 2403</name>
            </trkpt>
            <trkpt lon="9.731585" lat="47.822289">
                <ele>625.1535592000253</ele>
                <time>2012-05-20T00:20:20.000Z</time>
                <name>Position 2404</name>
            </trkpt>
            <trkpt lon="9.731479" lat="47.822239">
                <ele>625.8708020799643</ele>
                <time>2012-05-20T00:20:23.000Z</time>
                <name>Position 2405</name>
            </trkpt>
            <trkpt lon="9.73138" lat="47.822181">
                <ele>626.6209503999961</ele>
                <time>2012-05-20T00:20:27.000Z</time>
                <name>Position 2406</name>
            </trkpt>
            <trkpt lon="9.73124" lat="47.822148">
                <ele>627.0991936000161</ele>
                <time>2012-05-20T00:20:31.000Z</time>
                <name>Position 2407</name>
            </trkpt>
            <trkpt lon="9.731114" lat="47.822114">
                <ele>627.5368172800095</ele>
                <time>2012-05-20T00:20:34.000Z</time>
                <name>Position 2408</name>
            </trkpt>
            <trkpt lon="9.730955" lat="47.822119">
                <ele>627.6086535999947</ele>
                <time>2012-05-20T00:20:39.000Z</time>
                <name>Position 2409</name>
            </trkpt>
            <trkpt lon="9.730773" lat="47.822087">
                <ele>628.0793927999757</ele>
                <time>2012-05-20T00:20:44.000Z</time>
                <name>Position 2410</name>
            </trkpt>
            <trkpt lon="9.730647" lat="47.82206">
                <ele>628.5000959999986</ele>
                <time>2012-05-20T00:20:47.000Z</time>
                <name>Position 2411</name>
            </trkpt>
            <trkpt lon="9.730538" lat="47.822043">
                <ele>628.7846351999972</ele>
                <time>2012-05-20T00:20:50.000Z</time>
                <name>Position 2412</name>
            </trkpt>
            <trkpt lon="9.730421" lat="47.822008">
                <ele>629.1513504000186</ele>
                <time>2012-05-20T00:20:54.000Z</time>
                <name>Position 2413</name>
            </trkpt>
            <trkpt lon="9.730256" lat="47.821971">
                <ele>629.5158528000092</ele>
                <time>2012-05-20T00:20:58.000Z</time>
                <name>Position 2414</name>
            </trkpt>
            <trkpt lon="9.730151" lat="47.821928">
                <ele>629.7698784000016</ele>
                <time>2012-05-20T00:21:02.000Z</time>
                <name>Position 2415</name>
            </trkpt>
            <trkpt lon="9.730091" lat="47.821912">
                <ele>629.859657600008</ele>
                <time>2012-05-20T00:21:03.000Z</time>
                <name>Position 2416</name>
            </trkpt>
            <trkpt lon="9.730036" lat="47.821892">
                <ele>629.9439936000048</ele>
                <time>2012-05-20T00:21:05.000Z</time>
                <name>Position 2417</name>
            </trkpt>
            <trkpt lon="9.729997" lat="47.821896">
                <ele>629.969944320001</ele>
                <time>2012-05-20T00:21:06.000Z</time>
                <name>Position 2418</name>
            </trkpt>
            <trkpt lon="9.729933" lat="47.821867">
                <ele>630.4567689599999</ele>
                <time>2012-05-20T00:21:08.000Z</time>
                <name>Position 2419</name>
            </trkpt>
            <trkpt lon="9.729858" lat="47.821841">
                <ele>630.9770860800008</ele>
                <time>2012-05-20T00:21:10.000Z</time>
                <name>Position 2420</name>
            </trkpt>
            <trkpt lon="9.729796" lat="47.821813">
                <ele>631.3859212799993</ele>
                <time>2012-05-20T00:21:12.000Z</time>
                <name>Position 2421</name>
            </trkpt>
            <trkpt lon="9.729766" lat="47.821802">
                <ele>631.572011520003</ele>
                <time>2012-05-20T00:21:13.000Z</time>
                <name>Position 2422</name>
            </trkpt>
            <trkpt lon="9.729763" lat="47.821795">
                <ele>631.5923855999989</ele>
                <time>2012-05-20T00:21:14.000Z</time>
                <name>Position 2423</name>
            </trkpt>
            <trkpt lon="9.729724" lat="47.821799">
                <ele>631.8227673600055</ele>
                <time>2012-05-20T00:21:15.000Z</time>
                <name>Position 2424</name>
            </trkpt>
            <trkpt lon="9.72968" lat="47.821789">
                <ele>632.0806272000007</ele>
                <time>2012-05-20T00:21:16.000Z</time>
                <name>Position 2425</name>
            </trkpt>
            <trkpt lon="9.729651" lat="47.821779">
                <ele>632.2443254399972</ele>
                <time>2012-05-20T00:21:17.000Z</time>
                <name>Position 2426</name>
            </trkpt>
            <trkpt lon="9.72964" lat="47.821786">
                <ele>632.3127744000034</ele>
                <time>2012-05-20T00:21:17.000Z</time>
                <name>Position 2427</name>
            </trkpt>
            <trkpt lon="9.729599" lat="47.821777">
                <ele>632.5422652799956</ele>
                <time>2012-05-20T00:21:18.000Z</time>
                <name>Position 2428</name>
            </trkpt>
            <trkpt lon="9.729572" lat="47.821779">
                <ele>632.700199680004</ele>
                <time>2012-05-20T00:21:19.000Z</time>
                <name>Position 2429</name>
            </trkpt>
            <trkpt lon="9.729469" lat="47.82176">
                <ele>633.2529983999954</ele>
                <time>2012-05-20T00:21:22.000Z</time>
                <name>Position 2430</name>
            </trkpt>
            <trkpt lon="9.729295" lat="47.821781">
                <ele>634.3060272000026</ele>
                <time>2012-05-20T00:21:27.000Z</time>
                <name>Position 2431</name>
            </trkpt>
            <trkpt lon="9.729201" lat="47.821776">
                <ele>634.8275673600007</ele>
                <time>2012-05-20T00:21:29.000Z</time>
                <name>Position 2432</name>
            </trkpt>
            <trkpt lon="9.729148" lat="47.821768">
                <ele>635.073276159992</ele>
                <time>2012-05-20T00:21:31.000Z</time>
                <name>Position 2433</name>
            </trkpt>
            <trkpt lon="9.728905" lat="47.821775">
                <ele>636.2351800000138</ele>
                <time>2012-05-20T00:21:37.000Z</time>
                <name>Position 2434</name>
            </trkpt>
            <trkpt lon="9.728824" lat="47.821775">
                <ele>636.6113440000125</ele>
                <time>2012-05-20T00:21:39.000Z</time>
                <name>Position 2435</name>
            </trkpt>
            <trkpt lon="9.728714" lat="47.821783">
                <ele>637.1553692800139</ele>
                <time>2012-05-20T00:21:42.000Z</time>
                <name>Position 2436</name>
            </trkpt>
            <trkpt lon="9.728615" lat="47.821771">
                <ele>637.5659175999949</ele>
                <time>2012-05-20T00:21:45.000Z</time>
                <name>Position 2437</name>
            </trkpt>
            <trkpt lon="9.72854" lat="47.821791">
                <ele>637.9926015999872</ele>
                <time>2012-05-20T00:21:47.000Z</time>
                <name>Position 2438</name>
            </trkpt>
            <trkpt lon="9.728444" lat="47.821786">
                <ele>638.4174169600128</ele>
                <time>2012-05-20T00:21:50.000Z</time>
                <name>Position 2439</name>
            </trkpt>
            <trkpt lon="9.728303" lat="47.821783">
                <ele>639.0229185600109</ele>
                <time>2012-05-20T00:21:54.000Z</time>
                <name>Position 2440</name>
            </trkpt>
            <trkpt lon="9.728202" lat="47.82177">
                <ele>639.325257600004</ele>
                <time>2012-05-20T00:21:56.000Z</time>
                <name>Position 2441</name>
            </trkpt>
            <trkpt lon="9.728129" lat="47.821756">
                <ele>639.5309145600048</ele>
                <time>2012-05-20T00:21:59.000Z</time>
                <name>Position 2442</name>
            </trkpt>
            <trkpt lon="9.728035" lat="47.821717">
                <ele>639.7335767999978</ele>
                <time>2012-05-20T00:22:02.000Z</time>
                <name>Position 2443</name>
            </trkpt>
            <trkpt lon="9.728002" lat="47.821734">
                <ele>639.9030739199975</ele>
                <time>2012-05-20T00:22:03.000Z</time>
                <name>Position 2444</name>
            </trkpt>
            <trkpt lon="9.727901" lat="47.82171">
                <ele>640.1854224000116</ele>
                <time>2012-05-20T00:22:05.000Z</time>
                <name>Position 2445</name>
            </trkpt>
            <trkpt lon="9.727802" lat="47.821698">
                <ele>640.5016262399919</ele>
                <time>2012-05-20T00:22:08.000Z</time>
                <name>Position 2446</name>
            </trkpt>
            <trkpt lon="9.727611" lat="47.821676">
                <ele>641.1242918399926</ele>
                <time>2012-05-20T00:22:13.000Z</time>
                <name>Position 2447</name>
            </trkpt>
            <trkpt lon="9.727353" lat="47.821603">
                <ele>641.0022769600318</ele>
                <time>2012-05-20T00:22:21.000Z</time>
                <name>Position 2448</name>
            </trkpt>
            <trkpt lon="9.727272" lat="47.821633">
                <ele>641.4210534399843</ele>
                <time>2012-05-20T00:22:23.000Z</time>
                <name>Position 2449</name>
            </trkpt>
            <trkpt lon="9.727094" lat="47.821587">
                <ele>641.1733763200099</ele>
                <time>2012-05-20T00:22:29.000Z</time>
                <name>Position 2450</name>
            </trkpt>
            <trkpt lon="9.726951" lat="47.821578">
                <ele>641.2712963200232</ele>
                <time>2012-05-20T00:22:32.000Z</time>
                <name>Position 2451</name>
            </trkpt>
            <trkpt lon="9.726793" lat="47.821533">
                <ele>641.0408833600206</ele>
                <time>2012-05-20T00:22:37.000Z</time>
                <name>Position 2452</name>
            </trkpt>
            <trkpt lon="9.726658" lat="47.821509">
                <ele>641.0215353599871</ele>
                <time>2012-05-20T00:22:41.000Z</time>
                <name>Position 2453</name>
            </trkpt>
            <trkpt lon="9.726568" lat="47.821473">
                <ele>641.0510323199742</ele>
                <time>2012-05-20T00:22:44.000Z</time>
                <name>Position 2454</name>
            </trkpt>
            <trkpt lon="9.726434" lat="47.821449">
                <ele>641.3938540800127</ele>
                <time>2012-05-20T00:22:47.000Z</time>
                <name>Position 2455</name>
            </trkpt>
            <trkpt lon="9.726324" lat="47.821467">
                <ele>642.0138470399855</ele>
                <time>2012-05-20T00:22:50.000Z</time>
                <name>Position 2456</name>
            </trkpt>
            <trkpt lon="9.726252" lat="47.821475">
                <ele>642.3816959999929</ele>
                <time>2012-05-20T00:22:52.000Z</time>
                <name>Position 2457</name>
            </trkpt>
            <trkpt lon="9.726173" lat="47.821482">
                <ele>642.766951680028</ele>
                <time>2012-05-20T00:22:54.000Z</time>
                <name>Position 2458</name>
            </trkpt>
            <trkpt lon="9.726147" lat="47.821472">
                <ele>642.7933459200025</ele>
                <time>2012-05-20T00:22:55.000Z</time>
                <name>Position 2459</name>
            </trkpt>
            <trkpt lon="9.726081" lat="47.821478">
                <ele>643.1154278399891</ele>
                <time>2012-05-20T00:22:57.000Z</time>
                <name>Position 2460</name>
            </trkpt>
            <trkpt lon="9.725958" lat="47.821493">
                <ele>643.7384467199731</ele>
                <time>2012-05-20T00:23:00.000Z</time>
                <name>Position 2461</name>
            </trkpt>
            <trkpt lon="9.725804" lat="47.821481">
                <ele>644.1358425599892</ele>
                <time>2012-05-20T00:23:05.000Z</time>
                <name>Position 2462</name>
            </trkpt>
            <trkpt lon="9.725696" lat="47.821483">
                <ele>644.049121920003</ele>
                <time>2012-05-20T00:23:07.000Z</time>
                <name>Position 2463</name>
            </trkpt>
            <trkpt lon="9.725488" lat="47.821532">
                <ele>644.1829670399844</ele>
                <time>2012-05-20T00:23:13.000Z</time>
                <name>Position 2464</name>
            </trkpt>
            <trkpt lon="9.725348" lat="47.821552">
                <ele>644.17213823998</ele>
                <time>2012-05-20T00:23:17.000Z</time>
                <name>Position 2465</name>
            </trkpt>
            <trkpt lon="9.725183" lat="47.821574">
                <ele>644.1391804799879</ele>
                <time>2012-05-20T00:23:22.000Z</time>
                <name>Position 2466</name>
            </trkpt>
            <trkpt lon="9.725092" lat="47.821622">
                <ele>644.3364825599864</ele>
                <time>2012-05-20T00:23:25.000Z</time>
                <name>Position 2467</name>
            </trkpt>
            <trkpt lon="9.724932" lat="47.821668">
                <ele>644.583722240003</ele>
                <time>2012-05-20T00:23:30.000Z</time>
                <name>Position 2468</name>
            </trkpt>
            <trkpt lon="9.724773" lat="47.821708">
                <ele>644.8760441600012</ele>
                <time>2012-05-20T00:23:34.000Z</time>
                <name>Position 2469</name>
            </trkpt>
            <trkpt lon="9.724762" lat="47.821709">
                <ele>644.8944339199958</ele>
                <time>2012-05-20T00:23:34.000Z</time>
                <name>Position 2470</name>
            </trkpt>
            <trkpt lon="9.724735" lat="47.821712">
                <ele>644.9415967999932</ele>
                <time>2012-05-20T00:23:35.000Z</time>
                <name>Position 2471</name>
            </trkpt>
            <trkpt lon="9.72469" lat="47.821718">
                <ele>645.02526079999</ele>
                <time>2012-05-20T00:23:36.000Z</time>
                <name>Position 2472</name>
            </trkpt>
            <trkpt lon="9.724615" lat="47.821738">
                <ele>645.2057888000114</ele>
                <time>2012-05-20T00:23:39.000Z</time>
                <name>Position 2473</name>
            </trkpt>
            <trkpt lon="9.724481" lat="47.82176">
                <ele>645.5138143999883</ele>
                <time>2012-05-20T00:23:42.000Z</time>
                <name>Position 2474</name>
            </trkpt>
            <trkpt lon="9.724435" lat="47.82175">
                <ele>645.549200000007</ele>
                <time>2012-05-20T00:23:44.000Z</time>
                <name>Position 2475</name>
            </trkpt>
            <trkpt lon="9.724352" lat="47.821744">
                <ele>645.6590451200124</ele>
                <time>2012-05-20T00:23:46.000Z</time>
                <name>Position 2476</name>
            </trkpt>
            <trkpt lon="9.724303" lat="47.821727">
                <ele>645.6510214400128</ele>
                <time>2012-05-20T00:23:47.000Z</time>
                <name>Position 2477</name>
            </trkpt>
            <trkpt lon="9.724206" lat="47.821734">
                <ele>645.8415449599946</ele>
                <time>2012-05-20T00:23:50.000Z</time>
                <name>Position 2478</name>
            </trkpt>
            <trkpt lon="9.724092" lat="47.821722">
                <ele>646.1008000000044</ele>
                <time>2012-05-20T00:23:53.000Z</time>
                <name>Position 2479</name>
            </trkpt>
            <trkpt lon="9.723855" lat="47.82172">
                <ele>646.9419999999931</ele>
                <time>2012-05-20T00:23:59.000Z</time>
                <name>Position 2480</name>
            </trkpt>
            <trkpt lon="9.723727" lat="47.82171">
                <ele>647.3428000000171</ele>
                <time>2012-05-20T00:24:03.000Z</time>
                <name>Position 2481</name>
            </trkpt>
            <trkpt lon="9.723549" lat="47.821711">
                <ele>647.9896000000019</ele>
                <time>2012-05-20T00:24:08.000Z</time>
                <name>Position 2482</name>
            </trkpt>
            <trkpt lon="9.723442" lat="47.821685">
                <ele>648.2188000000116</ele>
                <time>2012-05-20T00:24:11.000Z</time>
                <name>Position 2483</name>
            </trkpt>
            <trkpt lon="9.723373" lat="47.82165">
                <ele>648.3371999999962</ele>
                <time>2012-05-20T00:24:13.000Z</time>
                <name>Position 2484</name>
            </trkpt>
            <trkpt lon="9.723192" lat="47.821563">
                <ele>649.0540000000011</ele>
                <time>2012-05-20T00:24:19.000Z</time>
                <name>Position 2485</name>
            </trkpt>
            <trkpt lon="9.723087" lat="47.821525">
                <ele>649.5124000000034</ele>
                <time>2012-05-20T00:24:22.000Z</time>
                <name>Position 2486</name>
            </trkpt>
            <trkpt lon="9.723027" lat="47.821498">
                <ele>649.7679999999975</ele>
                <time>2012-05-20T00:24:24.000Z</time>
                <name>Position 2487</name>
            </trkpt>
            <trkpt lon="9.72277" lat="47.821395">
                <ele>650.8780000000003</ele>
                <time>2012-05-20T00:24:32.000Z</time>
                <name>Position 2488</name>
            </trkpt>
            <trkpt lon="9.722547" lat="47.821291">
                <ele>651.8236000000003</ele>
                <time>2012-05-20T00:24:40.000Z</time>
                <name>Position 2489</name>
            </trkpt>
            <trkpt lon="9.722369" lat="47.821205">
                <ele>651.5105559999994</ele>
                <time>2012-05-20T00:24:45.000Z</time>
                <name>Position 2490</name>
            </trkpt>
            <trkpt lon="9.72214" lat="47.821099">
                <ele>650.3474079999853</ele>
                <time>2012-05-20T00:24:53.000Z</time>
                <name>Position 2491</name>
            </trkpt>
            <trkpt lon="9.721845" lat="47.82101">
                <ele>648.6151600000064</ele>
                <time>2012-05-20T00:25:02.000Z</time>
                <name>Position 2492</name>
            </trkpt>
            <trkpt lon="9.721656" lat="47.820954">
                <ele>647.3797465600029</ele>
                <time>2012-05-20T00:25:07.000Z</time>
                <name>Position 2493</name>
            </trkpt>
            <trkpt lon="9.721498" lat="47.820875">
                <ele>646.9922800000053</ele>
                <time>2012-05-20T00:25:12.000Z</time>
                <name>Position 2494</name>
            </trkpt>
            <trkpt lon="9.721374" lat="47.820813">
                <ele>646.9718921599928</ele>
                <time>2012-05-20T00:25:17.000Z</time>
                <name>Position 2495</name>
            </trkpt>
            <trkpt lon="9.721268" lat="47.820705">
                <ele>647.6813792000183</ele>
                <time>2012-05-20T00:25:22.000Z</time>
                <name>Position 2496</name>
            </trkpt>
            <trkpt lon="9.721202" lat="47.820652">
                <ele>647.9991987199869</ele>
                <time>2012-05-20T00:25:25.000Z</time>
                <name>Position 2497</name>
            </trkpt>
            <trkpt lon="9.721015" lat="47.820491">
                <ele>648.7830632000134</ele>
                <time>2012-05-20T00:25:33.000Z</time>
                <name>Position 2498</name>
            </trkpt>
            <trkpt lon="9.720849" lat="47.820337">
                <ele>649.301591839992</ele>
                <time>2012-05-20T00:25:40.000Z</time>
                <name>Position 2499</name>
            </trkpt>
            <trkpt lon="9.720437" lat="47.820289">
                <ele>652.4781380799899</ele>
                <time>2012-05-20T00:25:52.000Z</time>
                <name>Position 2500</name>
            </trkpt>
            <trkpt lon="9.720209" lat="47.820198">
                <ele>654.4604099200028</ele>
                <time>2012-05-20T00:25:59.000Z</time>
                <name>Position 2501</name>
            </trkpt>
            <trkpt lon="9.720059" lat="47.820097">
                <ele>655.8341588800148</ele>
                <time>2012-05-20T00:26:04.000Z</time>
                <name>Position 2502</name>
            </trkpt>
            <trkpt lon="9.719884" lat="47.819985">
                <ele>655.9949056000163</ele>
                <time>2012-05-20T00:26:11.000Z</time>
                <name>Position 2503</name>
            </trkpt>
            <trkpt lon="9.719594" lat="47.819889">
                <ele>654.4372950400206</ele>
                <time>2012-05-20T00:26:20.000Z</time>
                <name>Position 2504</name>
            </trkpt>
            <trkpt lon="9.719407" lat="47.819779">
                <ele>653.2279163199848</ele>
                <time>2012-05-20T00:26:26.000Z</time>
                <name>Position 2505</name>
            </trkpt>
            <trkpt lon="9.719223" lat="47.819688">
                <ele>652.1798905599946</ele>
                <time>2012-05-20T00:26:32.000Z</time>
                <name>Position 2506</name>
            </trkpt>
            <trkpt lon="9.719121" lat="47.819587">
                <ele>651.4623177599921</ele>
                <time>2012-05-20T00:26:37.000Z</time>
                <name>Position 2507</name>
            </trkpt>
            <trkpt lon="9.719053" lat="47.819521">
                <ele>651.084805440008</ele>
                <time>2012-05-20T00:26:40.000Z</time>
                <name>Position 2508</name>
            </trkpt>
            <trkpt lon="9.718953" lat="47.819404">
                <ele>650.4931545599949</ele>
                <time>2012-05-20T00:26:46.000Z</time>
                <name>Position 2509</name>
            </trkpt>
            <trkpt lon="9.718855" lat="47.819271">
                <ele>649.9071504000017</ele>
                <time>2012-05-20T00:26:52.000Z</time>
                <name>Position 2510</name>
            </trkpt>
            <trkpt lon="9.718826" lat="47.819157">
                <ele>649.5464000000144</ele>
                <time>2012-05-20T00:26:56.000Z</time>
                <name>Position 2511</name>
            </trkpt>
            <trkpt lon="9.718695" lat="47.818995">
                <ele>650.3239999999952</ele>
                <time>2012-05-20T00:27:04.000Z</time>
                <name>Position 2512</name>
            </trkpt>
            <trkpt lon="9.718615" lat="47.818891">
                <ele>650.8231999999967</ele>
                <time>2012-05-20T00:27:09.000Z</time>
                <name>Position 2513</name>
            </trkpt>
            <trkpt lon="9.718494" lat="47.818759">
                <ele>651.4568</ele>
                <time>2012-05-20T00:27:15.000Z</time>
                <name>Position 2514</name>
            </trkpt>
            <trkpt lon="9.718238" lat="47.818601">
                <ele>652.2561094399952</ele>
                <time>2012-05-20T00:27:24.000Z</time>
                <name>Position 2515</name>
            </trkpt>
            <trkpt lon="9.717997" lat="47.818489">
                <ele>653.0056150400022</ele>
                <time>2012-05-20T00:27:32.000Z</time>
                <name>Position 2516</name>
            </trkpt>
            <trkpt lon="9.717731" lat="47.818398">
                <ele>653.8002214399869</ele>
                <time>2012-05-20T00:27:40.000Z</time>
                <name>Position 2517</name>
            </trkpt>
            <trkpt lon="9.717496" lat="47.818336">
                <ele>654.4807999999846</ele>
                <time>2012-05-20T00:27:47.000Z</time>
                <name>Position 2518</name>
            </trkpt>
            <trkpt lon="9.717281" lat="47.818293">
                <ele>654.4745609599981</ele>
                <time>2012-05-20T00:27:53.000Z</time>
                <name>Position 2519</name>
            </trkpt>
            <trkpt lon="9.716882" lat="47.818298">
                <ele>654.4371123199976</ele>
                <time>2012-05-20T00:28:04.000Z</time>
                <name>Position 2520</name>
            </trkpt>
            <trkpt lon="9.716555" lat="47.818296">
                <ele>654.0023967999895</ele>
                <time>2012-05-20T00:28:12.000Z</time>
                <name>Position 2521</name>
            </trkpt>
            <trkpt lon="9.716218" lat="47.81829">
                <ele>652.7528031999906</ele>
                <time>2012-05-20T00:28:21.000Z</time>
                <name>Position 2522</name>
            </trkpt>
            <trkpt lon="9.715902" lat="47.818281">
                <ele>651.5639747199951</ele>
                <time>2012-05-20T00:28:30.000Z</time>
                <name>Position 2523</name>
            </trkpt>
            <trkpt lon="9.715538" lat="47.818271">
                <ele>649.5036000000125</ele>
                <time>2012-05-20T00:28:40.000Z</time>
                <name>Position 2524</name>
            </trkpt>
            <trkpt lon="9.715189" lat="47.818245">
                <ele>647.3159999999934</ele>
                <time>2012-05-20T00:28:49.000Z</time>
                <name>Position 2525</name>
            </trkpt>
            <trkpt lon="9.714851" lat="47.818216">
                <ele>644.8763500799939</ele>
                <time>2012-05-20T00:28:58.000Z</time>
                <name>Position 2526</name>
            </trkpt>
            <trkpt lon="9.714491" lat="47.818197">
                <ele>641.9334537600001</ele>
                <time>2012-05-20T00:29:08.000Z</time>
                <name>Position 2527</name>
            </trkpt>
            <trkpt lon="9.714157" lat="47.81816">
                <ele>639.2615615999989</ele>
                <time>2012-05-20T00:29:17.000Z</time>
                <name>Position 2528</name>
            </trkpt>
            <trkpt lon="9.713863" lat="47.818135">
                <ele>638.2730183999947</ele>
                <time>2012-05-20T00:29:25.000Z</time>
                <name>Position 2529</name>
            </trkpt>
            <trkpt lon="9.713541" lat="47.818118">
                <ele>637.1579798399911</ele>
                <time>2012-05-20T00:29:34.000Z</time>
                <name>Position 2530</name>
            </trkpt>
            <trkpt lon="9.713161" lat="47.818093">
                <ele>635.1334766399825</ele>
                <time>2012-05-20T00:29:44.000Z</time>
                <name>Position 2531</name>
            </trkpt>
            <trkpt lon="9.712838" lat="47.818118">
                <ele>633.0336211199858</ele>
                <time>2012-05-20T00:29:53.000Z</time>
                <name>Position 2532</name>
            </trkpt>
            <trkpt lon="9.712537" lat="47.818134">
                <ele>631.0794614399999</ele>
                <time>2012-05-20T00:30:01.000Z</time>
                <name>Position 2533</name>
            </trkpt>
            <trkpt lon="9.7123" lat="47.818114">
                <ele>629.7102720000136</ele>
                <time>2012-05-20T00:30:07.000Z</time>
                <name>Position 2534</name>
            </trkpt>
            <trkpt lon="9.712124" lat="47.818057">
                <ele>628.5212716800165</ele>
                <time>2012-05-20T00:30:13.000Z</time>
                <name>Position 2535</name>
            </trkpt>
            <trkpt lon="9.711911" lat="47.818009">
                <ele>627.3419462400203</ele>
                <time>2012-05-20T00:30:19.000Z</time>
                <name>Position 2536</name>
            </trkpt>
            <trkpt lon="9.711731" lat="47.817963">
                <ele>626.4155692799968</ele>
                <time>2012-05-20T00:30:24.000Z</time>
                <name>Position 2537</name>
            </trkpt>
            <trkpt lon="9.711557" lat="47.817914">
                <ele>625.7272000000083</ele>
                <time>2012-05-20T00:30:29.000Z</time>
                <name>Position 2538</name>
            </trkpt>
            <trkpt lon="9.711363" lat="47.817898">
                <ele>625.2039999999993</ele>
                <time>2012-05-20T00:30:34.000Z</time>
                <name>Position 2539</name>
            </trkpt>
            <trkpt lon="9.711161" lat="47.817883">
                <ele>624.6652000000081</ele>
                <time>2012-05-20T00:30:40.000Z</time>
                <name>Position 2540</name>
            </trkpt>
            <trkpt lon="9.710944" lat="47.817864">
                <ele>624.0759999999993</ele>
                <time>2012-05-20T00:30:45.000Z</time>
                <name>Position 2541</name>
            </trkpt>
            <trkpt lon="9.710729" lat="47.817856">
                <ele>623.7463436799972</ele>
                <time>2012-05-20T00:30:51.000Z</time>
                <name>Position 2542</name>
            </trkpt>
            <trkpt lon="9.710514" lat="47.817855">
                <ele>623.6714704000034</ele>
                <time>2012-05-20T00:30:57.000Z</time>
                <name>Position 2543</name>
            </trkpt>
            <trkpt lon="9.710351" lat="47.817856">
                <ele>623.6186099199982</ele>
                <time>2012-05-20T00:31:01.000Z</time>
                <name>Position 2544</name>
            </trkpt>
            <trkpt lon="9.710194" lat="47.817875">
                <ele>623.5814800000004</ele>
                <time>2012-05-20T00:31:06.000Z</time>
                <name>Position 2545</name>
            </trkpt>
            <trkpt lon="9.710092" lat="47.817881">
                <ele>623.5410246399997</ele>
                <time>2012-05-20T00:31:08.000Z</time>
                <name>Position 2546</name>
            </trkpt>
            <trkpt lon="9.709956" lat="47.817897">
                <ele>623.6835539200002</ele>
                <time>2012-05-20T00:31:12.000Z</time>
                <name>Position 2547</name>
            </trkpt>
            <trkpt lon="9.709766" lat="47.817934">
                <ele>624.4886406400001</ele>
                <time>2012-05-20T00:31:17.000Z</time>
                <name>Position 2548</name>
            </trkpt>
            <trkpt lon="9.709595" lat="47.817942">
                <ele>625.2157744000007</ele>
                <time>2012-05-20T00:31:22.000Z</time>
                <name>Position 2549</name>
            </trkpt>
            <trkpt lon="9.709498" lat="47.817955">
                <ele>625.6361103999988</ele>
                <time>2012-05-20T00:31:25.000Z</time>
                <name>Position 2550</name>
            </trkpt>
            <trkpt lon="9.709406" lat="47.817981">
                <ele>626.049828160005</ele>
                <time>2012-05-20T00:31:27.000Z</time>
                <name>Position 2551</name>
            </trkpt>
            <trkpt lon="9.709316" lat="47.818014">
                <ele>626.4686694400009</ele>
                <time>2012-05-20T00:31:30.000Z</time>
                <name>Position 2552</name>
            </trkpt>
            <trkpt lon="9.709156" lat="47.818045">
                <ele>627.2603423999966</ele>
                <time>2012-05-20T00:31:35.000Z</time>
                <name>Position 2553</name>
            </trkpt>
            <trkpt lon="9.708969" lat="47.818084">
                <ele>629.1936595200011</ele>
                <time>2012-05-20T00:31:40.000Z</time>
                <name>Position 2554</name>
            </trkpt>
            <trkpt lon="9.7087" lat="47.818133">
                <ele>632.0303520000049</ele>
                <time>2012-05-20T00:31:47.000Z</time>
                <name>Position 2555</name>
            </trkpt>
            <trkpt lon="9.708401" lat="47.818166">
                <ele>635.1994099199906</ele>
                <time>2012-05-20T00:31:55.000Z</time>
                <name>Position 2556</name>
            </trkpt>
            <trkpt lon="9.708068" lat="47.818169">
                <ele>635.7739078399991</ele>
                <time>2012-05-20T00:32:04.000Z</time>
                <name>Position 2557</name>
            </trkpt>
            <trkpt lon="9.707745" lat="47.81817">
                <ele>635.607007999993</ele>
                <time>2012-05-20T00:32:13.000Z</time>
                <name>Position 2558</name>
            </trkpt>
            <trkpt lon="9.707418" lat="47.818159">
                <ele>635.1729852799939</ele>
                <time>2012-05-20T00:32:22.000Z</time>
                <name>Position 2559</name>
            </trkpt>
            <trkpt lon="9.70708" lat="47.818142">
                <ele>633.7477183999864</ele>
                <time>2012-05-20T00:32:31.000Z</time>
                <name>Position 2560</name>
            </trkpt>
            <trkpt lon="9.706801" lat="47.818095">
                <ele>632.814696800005</ele>
                <time>2012-05-20T00:32:39.000Z</time>
                <name>Position 2561</name>
            </trkpt>
            <trkpt lon="9.706522" lat="47.818053">
                <ele>631.7072019200041</ele>
                <time>2012-05-20T00:32:46.000Z</time>
                <name>Position 2562</name>
            </trkpt>
            <trkpt lon="9.706237" lat="47.818026">
                <ele>630.2700934399788</ele>
                <time>2012-05-20T00:32:54.000Z</time>
                <name>Position 2563</name>
            </trkpt>
            <trkpt lon="9.705923" lat="47.817995">
                <ele>628.6417711999842</ele>
                <time>2012-05-20T00:33:03.000Z</time>
                <name>Position 2564</name>
            </trkpt>
            <trkpt lon="9.705635" lat="47.817998">
                <ele>627.302684799979</ele>
                <time>2012-05-20T00:33:10.000Z</time>
                <name>Position 2565</name>
            </trkpt>
            <trkpt lon="9.705315" lat="47.818024">
                <ele>625.7983455999929</ele>
                <time>2012-05-20T00:33:19.000Z</time>
                <name>Position 2566</name>
            </trkpt>
            <trkpt lon="9.705023" lat="47.818024">
                <ele>624.566619519991</ele>
                <time>2012-05-20T00:33:27.000Z</time>
                <name>Position 2567</name>
            </trkpt>
            <trkpt lon="9.704788" lat="47.818004">
                <ele>622.4131110399827</ele>
                <time>2012-05-20T00:33:33.000Z</time>
                <name>Position 2568</name>
            </trkpt>
            <trkpt lon="9.704573" lat="47.81795">
                <ele>620.9168319999508</ele>
                <time>2012-05-20T00:33:40.000Z</time>
                <name>Position 2569</name>
            </trkpt>
            <trkpt lon="9.704344" lat="47.817922">
                <ele>619.1108953599567</ele>
                <time>2012-05-20T00:33:46.000Z</time>
                <name>Position 2570</name>
            </trkpt>
            <trkpt lon="9.704065" lat="47.817908">
                <ele>616.5658623999473</ele>
                <time>2012-05-20T00:33:53.000Z</time>
                <name>Position 2571</name>
            </trkpt>
            <trkpt lon="9.703821" lat="47.817899">
                <ele>614.0884124800491</ele>
                <time>2012-05-20T00:34:00.000Z</time>
                <name>Position 2572</name>
            </trkpt>
            <trkpt lon="9.703583" lat="47.817935">
                <ele>610.8752176000264</ele>
                <time>2012-05-20T00:34:06.000Z</time>
                <name>Position 2573</name>
            </trkpt>
            <trkpt lon="9.703195" lat="47.818047">
                <ele>605.906023999998</ele>
                <time>2012-05-20T00:34:18.000Z</time>
                <name>Position 2574</name>
            </trkpt>
            <trkpt lon="9.702858" lat="47.818172">
                <ele>603.6765056000307</ele>
                <time>2012-05-20T00:34:28.000Z</time>
                <name>Position 2575</name>
            </trkpt>
            <trkpt lon="9.702516" lat="47.818284">
                <ele>602.7289664000082</ele>
                <time>2012-05-20T00:34:38.000Z</time>
                <name>Position 2576</name>
            </trkpt>
            <trkpt lon="9.702187" lat="47.818395">
                <ele>606.3668224000003</ele>
                <time>2012-05-20T00:34:48.000Z</time>
                <name>Position 2577</name>
            </trkpt>
            <trkpt lon="9.701871" lat="47.81847">
                <ele>610.0448511999934</ele>
                <time>2012-05-20T00:34:57.000Z</time>
                <name>Position 2578</name>
            </trkpt>
            <trkpt lon="9.701634" lat="47.818532">
                <ele>612.6032358400001</ele>
                <time>2012-05-20T00:35:04.000Z</time>
                <name>Position 2579</name>
            </trkpt>
            <trkpt lon="9.701522" lat="47.81857">
                <ele>613.7527071999934</ele>
                <time>2012-05-20T00:35:07.000Z</time>
                <name>Position 2580</name>
            </trkpt>
            <trkpt lon="9.701406" lat="47.818582">
                <ele>614.9840185599965</ele>
                <time>2012-05-20T00:35:11.000Z</time>
                <name>Position 2581</name>
            </trkpt>
            <trkpt lon="9.701342" lat="47.818602">
                <ele>615.6712211199969</ele>
                <time>2012-05-20T00:35:13.000Z</time>
                <name>Position 2582</name>
            </trkpt>
            <trkpt lon="9.701267" lat="47.818624">
                <ele>616.4898534400047</ele>
                <time>2012-05-20T00:35:15.000Z</time>
                <name>Position 2583</name>
            </trkpt>
            <trkpt lon="9.701166" lat="47.818666">
                <ele>617.6267180799944</ele>
                <time>2012-05-20T00:35:18.000Z</time>
                <name>Position 2584</name>
            </trkpt>
            <trkpt lon="9.701126" lat="47.818675">
                <ele>618.0784239999957</ele>
                <time>2012-05-20T00:35:19.000Z</time>
                <name>Position 2585</name>
            </trkpt>
            <trkpt lon="9.7011" lat="47.818684">
                <ele>618.3776319999947</ele>
                <time>2012-05-20T00:35:20.000Z</time>
                <name>Position 2586</name>
            </trkpt>
            <trkpt lon="9.701087" lat="47.818685">
                <ele>618.5234296000109</ele>
                <time>2012-05-20T00:35:20.000Z</time>
                <name>Position 2587</name>
            </trkpt>
            <trkpt lon="9.701047" lat="47.818694">
                <ele>618.9814902399922</ele>
                <time>2012-05-20T00:35:21.000Z</time>
                <name>Position 2588</name>
            </trkpt>
            <trkpt lon="9.701008" lat="47.818704">
                <ele>619.4331097599973</ele>
                <time>2012-05-20T00:35:22.000Z</time>
                <name>Position 2589</name>
            </trkpt>
            <trkpt lon="9.700986" lat="47.818719">
                <ele>619.7056451199998</ele>
                <time>2012-05-20T00:35:23.000Z</time>
                <name>Position 2590</name>
            </trkpt>
            <trkpt lon="9.700896" lat="47.818752">
                <ele>620.7898585600062</ele>
                <time>2012-05-20T00:35:26.000Z</time>
                <name>Position 2591</name>
            </trkpt>
            <trkpt lon="9.700857" lat="47.818767">
                <ele>621.269261920013</ele>
                <time>2012-05-20T00:35:27.000Z</time>
                <name>Position 2592</name>
            </trkpt>
            <trkpt lon="9.700778" lat="47.818786">
                <ele>621.7798630400079</ele>
                <time>2012-05-20T00:35:30.000Z</time>
                <name>Position 2593</name>
            </trkpt>
            <trkpt lon="9.700738" lat="47.818801">
                <ele>621.9515974400034</ele>
                <time>2012-05-20T00:35:31.000Z</time>
                <name>Position 2594</name>
            </trkpt>
            <trkpt lon="9.700672" lat="47.818813">
                <ele>622.2027276799947</ele>
                <time>2012-05-20T00:35:33.000Z</time>
                <name>Position 2595</name>
            </trkpt>
            <trkpt lon="9.700607" lat="47.818837">
                <ele>622.4668899200046</ele>
                <time>2012-05-20T00:35:35.000Z</time>
                <name>Position 2596</name>
            </trkpt>
            <trkpt lon="9.700552" lat="47.818841">
                <ele>622.6574681599985</ele>
                <time>2012-05-20T00:35:36.000Z</time>
                <name>Position 2597</name>
            </trkpt>
            <trkpt lon="9.700515" lat="47.81885">
                <ele>622.794319999999</ele>
                <time>2012-05-20T00:35:37.000Z</time>
                <name>Position 2598</name>
            </trkpt>
            <trkpt lon="9.700425" lat="47.818871">
                <ele>623.1181040000047</ele>
                <time>2012-05-20T00:35:40.000Z</time>
                <name>Position 2599</name>
            </trkpt>
            <trkpt lon="9.700333" lat="47.818891">
                <ele>623.4364246399991</ele>
                <time>2012-05-20T00:35:42.000Z</time>
                <name>Position 2600</name>
            </trkpt>
            <trkpt lon="9.700295" lat="47.818901">
                <ele>623.5662895999957</ele>
                <time>2012-05-20T00:35:43.000Z</time>
                <name>Position 2601</name>
            </trkpt>
            <trkpt lon="9.700245" lat="47.818924">
                <ele>623.7407744</ele>
                <time>2012-05-20T00:35:45.000Z</time>
                <name>Position 2602</name>
            </trkpt>
            <trkpt lon="9.700177" lat="47.818941">
                <ele>623.9601641600012</ele>
                <time>2012-05-20T00:35:47.000Z</time>
                <name>Position 2603</name>
            </trkpt>
            <trkpt lon="9.700052" lat="47.819008">
                <ele>624.3514380800012</ele>
                <time>2012-05-20T00:35:51.000Z</time>
                <name>Position 2604</name>
            </trkpt>
            <trkpt lon="9.70001" lat="47.819023">
                <ele>624.4718623999983</ele>
                <time>2012-05-20T00:35:53.000Z</time>
                <name>Position 2605</name>
            </trkpt>
            <trkpt lon="9.699927" lat="47.819035">
                <ele>624.7074367999982</ele>
                <time>2012-05-20T00:35:55.000Z</time>
                <name>Position 2606</name>
            </trkpt>
            <trkpt lon="9.699705" lat="47.819074">
                <ele>625.4045408000017</ele>
                <time>2012-05-20T00:36:01.000Z</time>
                <name>Position 2607</name>
            </trkpt>
            <trkpt lon="9.699413" lat="47.819141">
                <ele>626.526417920007</ele>
                <time>2012-05-20T00:36:09.000Z</time>
                <name>Position 2608</name>
            </trkpt>
            <trkpt lon="9.699174" lat="47.819203">
                <ele>627.2143020799908</ele>
                <time>2012-05-20T00:36:16.000Z</time>
                <name>Position 2609</name>
            </trkpt>
            <trkpt lon="9.698977" lat="47.819256">
                <ele>627.4420051199788</ele>
                <time>2012-05-20T00:36:22.000Z</time>
                <name>Position 2610</name>
            </trkpt>
            <trkpt lon="9.698766" lat="47.81931">
                <ele>627.5796095999834</ele>
                <time>2012-05-20T00:36:28.000Z</time>
                <name>Position 2611</name>
            </trkpt>
            <trkpt lon="9.698597" lat="47.819361">
                <ele>627.5139379199949</ele>
                <time>2012-05-20T00:36:33.000Z</time>
                <name>Position 2612</name>
            </trkpt>
            <trkpt lon="9.698409" lat="47.819453">
                <ele>626.9163955199676</ele>
                <time>2012-05-20T00:36:39.000Z</time>
                <name>Position 2613</name>
            </trkpt>
            <trkpt lon="9.698297" lat="47.819525">
                <ele>626.4180000000149</ele>
                <time>2012-05-20T00:36:43.000Z</time>
                <name>Position 2614</name>
            </trkpt>
            <trkpt lon="9.698201" lat="47.81956">
                <ele>626.5739999999728</ele>
                <time>2012-05-20T00:36:46.000Z</time>
                <name>Position 2615</name>
            </trkpt>
            <trkpt lon="9.698094" lat="47.819619">
                <ele>626.5079999999689</ele>
                <time>2012-05-20T00:36:50.000Z</time>
                <name>Position 2616</name>
            </trkpt>
            <trkpt lon="9.698015" lat="47.819655">
                <ele>626.5500000000334</ele>
                <time>2012-05-20T00:36:53.000Z</time>
                <name>Position 2617</name>
            </trkpt>
            <trkpt lon="9.69798" lat="47.819677">
                <ele>626.4960000000204</ele>
                <time>2012-05-20T00:36:54.000Z</time>
                <name>Position 2618</name>
            </trkpt>
            <trkpt lon="9.697969" lat="47.819685">
                <ele>626.4660000000002</ele>
                <time>2012-05-20T00:36:54.000Z</time>
                <name>Position 2619</name>
            </trkpt>
            <trkpt lon="9.697958" lat="47.819693">
                <ele>626.4359999999907</ele>
                <time>2012-05-20T00:36:55.000Z</time>
                <name>Position 2620</name>
            </trkpt>
            <trkpt lon="9.697948" lat="47.819694">
                <ele>626.4840000000188</ele>
                <time>2012-05-20T00:36:55.000Z</time>
                <name>Position 2621</name>
            </trkpt>
            <trkpt lon="9.697934" lat="47.819695">
                <ele>626.5559999999649</ele>
                <time>2012-05-20T00:36:55.000Z</time>
                <name>Position 2622</name>
            </trkpt>
            <trkpt lon="9.69789" lat="47.81971">
                <ele>626.6399999999979</ele>
                <time>2012-05-20T00:36:57.000Z</time>
                <name>Position 2623</name>
            </trkpt>
            <trkpt lon="9.697864" lat="47.819724">
                <ele>626.6279999999963</ele>
                <time>2012-05-20T00:36:58.000Z</time>
                <name>Position 2624</name>
            </trkpt>
            <trkpt lon="9.697723" lat="47.819782">
                <ele>626.7780000000439</ele>
                <time>2012-05-20T00:37:02.000Z</time>
                <name>Position 2625</name>
            </trkpt>
            <trkpt lon="9.697638" lat="47.819823">
                <ele>626.7960000000091</ele>
                <time>2012-05-20T00:37:05.000Z</time>
                <name>Position 2626</name>
            </trkpt>
            <trkpt lon="9.697587" lat="47.819828">
                <ele>627.0419999999849</ele>
                <time>2012-05-20T00:37:06.000Z</time>
                <name>Position 2627</name>
            </trkpt>
            <trkpt lon="9.69755" lat="47.819844">
                <ele>627.0719999999624</ele>
                <time>2012-05-20T00:37:07.000Z</time>
                <name>Position 2628</name>
            </trkpt>
            <trkpt lon="9.697491" lat="47.819893">
                <ele>626.8512796799997</ele>
                <time>2012-05-20T00:37:10.000Z</time>
                <name>Position 2629</name>
            </trkpt>
            <trkpt lon="9.697456" lat="47.819922">
                <ele>626.7759475200149</ele>
                <time>2012-05-20T00:37:11.000Z</time>
                <name>Position 2630</name>
            </trkpt>
            <trkpt lon="9.697401" lat="47.819997">
                <ele>626.3650339199982</ele>
                <time>2012-05-20T00:37:15.000Z</time>
                <name>Position 2631</name>
            </trkpt>
            <trkpt lon="9.697347" lat="47.820089">
                <ele>626.01799151997</ele>
                <time>2012-05-20T00:37:19.000Z</time>
                <name>Position 2632</name>
            </trkpt>
            <trkpt lon="9.697205" lat="47.820304">
                <ele>625.2952607999969</ele>
                <time>2012-05-20T00:37:28.000Z</time>
                <name>Position 2633</name>
            </trkpt>
            <trkpt lon="9.697035" lat="47.820496">
                <ele>624.9074784000164</ele>
                <time>2012-05-20T00:37:37.000Z</time>
                <name>Position 2634</name>
            </trkpt>
            <trkpt lon="9.69693" lat="47.820707">
                <ele>623.7688944000117</ele>
                <time>2012-05-20T00:37:46.000Z</time>
                <name>Position 2635</name>
            </trkpt>
            <trkpt lon="9.696747" lat="47.820933">
                <ele>623.4662588800143</ele>
                <time>2012-05-20T00:37:56.000Z</time>
                <name>Position 2636</name>
            </trkpt>
            <trkpt lon="9.696682" lat="47.821046">
                <ele>623.3781913599936</ele>
                <time>2012-05-20T00:38:01.000Z</time>
                <name>Position 2637</name>
            </trkpt>
            <trkpt lon="9.696667" lat="47.821111">
                <ele>623.165066559993</ele>
                <time>2012-05-20T00:38:04.000Z</time>
                <name>Position 2638</name>
            </trkpt>
            <trkpt lon="9.696658" lat="47.821172">
                <ele>622.9017062400163</ele>
                <time>2012-05-20T00:38:06.000Z</time>
                <name>Position 2639</name>
            </trkpt>
            <trkpt lon="9.696669" lat="47.821211">
                <ele>622.6729379200093</ele>
                <time>2012-05-20T00:38:08.000Z</time>
                <name>Position 2640</name>
            </trkpt>
            <trkpt lon="9.696624" lat="47.821342">
                <ele>622.2346099199949</ele>
                <time>2012-05-20T00:38:13.000Z</time>
                <name>Position 2641</name>
            </trkpt>
            <trkpt lon="9.696545" lat="47.821486">
                <ele>621.970588799998</ele>
                <time>2012-05-20T00:38:19.000Z</time>
                <name>Position 2642</name>
            </trkpt>
            <trkpt lon="9.696396" lat="47.82161">
                <ele>622.3076544000015</ele>
                <time>2012-05-20T00:38:26.000Z</time>
                <name>Position 2643</name>
            </trkpt>
            <trkpt lon="9.696156" lat="47.821759">
                <ele>622.677599999999</ele>
                <time>2012-05-20T00:38:35.000Z</time>
                <name>Position 2644</name>
            </trkpt>
            <trkpt lon="9.695851" lat="47.821913">
                <ele>623.0291999999852</ele>
                <time>2012-05-20T00:38:45.000Z</time>
                <name>Position 2645</name>
            </trkpt>
            <trkpt lon="9.695522" lat="47.822055">
                <ele>621.0248000000128</ele>
                <time>2012-05-20T00:38:55.000Z</time>
                <name>Position 2646</name>
            </trkpt>
            <trkpt lon="9.695144" lat="47.822223">
                <ele>618.5047999999929</ele>
                <time>2012-05-20T00:39:07.000Z</time>
                <name>Position 2647</name>
            </trkpt>
            <trkpt lon="9.694778" lat="47.822402">
                <ele>615.9080000000308</ele>
                <time>2012-05-20T00:39:20.000Z</time>
                <name>Position 2648</name>
            </trkpt>
            <trkpt lon="9.694412" lat="47.822606">
                <ele>612.3977523199933</ele>
                <time>2012-05-20T00:39:32.000Z</time>
                <name>Position 2649</name>
            </trkpt>
            <trkpt lon="9.694095" lat="47.822798">
                <ele>608.599460800021</ele>
                <time>2012-05-20T00:39:44.000Z</time>
                <name>Position 2650</name>
            </trkpt>
            <trkpt lon="9.693789" lat="47.823023">
                <ele>604.3816849600133</ele>
                <time>2012-05-20T00:39:56.000Z</time>
                <name>Position 2651</name>
            </trkpt>
            <trkpt lon="9.69352" lat="47.823238">
                <ele>600.9448767999548</ele>
                <time>2012-05-20T00:40:07.000Z</time>
                <name>Position 2652</name>
            </trkpt>
            <trkpt lon="9.693375" lat="47.823342">
                <ele>599.5198400000112</ele>
                <time>2012-05-20T00:40:13.000Z</time>
                <name>Position 2653</name>
            </trkpt>
            <trkpt lon="9.693238" lat="47.823451">
                <ele>598.7332000000021</ele>
                <time>2012-05-20T00:40:19.000Z</time>
                <name>Position 2654</name>
            </trkpt>
            <trkpt lon="9.693075" lat="47.823748">
                <ele>597.0771999999944</ele>
                <time>2012-05-20T00:40:31.000Z</time>
                <name>Position 2655</name>
            </trkpt>
            <trkpt lon="9.692967" lat="47.823961">
                <ele>595.9216000000087</ele>
                <time>2012-05-20T00:40:40.000Z</time>
                <name>Position 2656</name>
            </trkpt>
            <trkpt lon="9.692806" lat="47.824141">
                <ele>594.6940000000066</ele>
                <time>2012-05-20T00:40:49.000Z</time>
                <name>Position 2657</name>
            </trkpt>
            <trkpt lon="9.69254" lat="47.824347">
                <ele>596.8900000000514</ele>
                <time>2012-05-20T00:41:00.000Z</time>
                <name>Position 2658</name>
            </trkpt>
            <trkpt lon="9.692282" lat="47.82447">
                <ele>597.7943103999686</ele>
                <time>2012-05-20T00:41:08.000Z</time>
                <name>Position 2659</name>
            </trkpt>
            <trkpt lon="9.692019" lat="47.824533">
                <ele>597.3474515200362</ele>
                <time>2012-05-20T00:41:16.000Z</time>
                <name>Position 2660</name>
            </trkpt>
            <trkpt lon="9.691834" lat="47.824549">
                <ele>596.5177081599643</ele>
                <time>2012-05-20T00:41:21.000Z</time>
                <name>Position 2661</name>
            </trkpt>
            <trkpt lon="9.691641" lat="47.82452">
                <ele>595.0016223999988</ele>
                <time>2012-05-20T00:41:26.000Z</time>
                <name>Position 2662</name>
            </trkpt>
            <trkpt lon="9.691375" lat="47.824471">
                <ele>592.7337400000347</ele>
                <time>2012-05-20T00:41:33.000Z</time>
                <name>Position 2663</name>
            </trkpt>
            <trkpt lon="9.691217" lat="47.824444">
                <ele>591.4636633599957</ele>
                <time>2012-05-20T00:41:38.000Z</time>
                <name>Position 2664</name>
            </trkpt>
            <trkpt lon="9.690958" lat="47.824423">
                <ele>589.6972508800308</ele>
                <time>2012-05-20T00:41:45.000Z</time>
                <name>Position 2665</name>
            </trkpt>
            <trkpt lon="9.69077" lat="47.824393">
                <ele>588.3763088000072</ele>
                <time>2012-05-20T00:41:50.000Z</time>
                <name>Position 2666</name>
            </trkpt>
            <trkpt lon="9.6906" lat="47.824341">
                <ele>587.2035679999763</ele>
                <time>2012-05-20T00:41:55.000Z</time>
                <name>Position 2667</name>
            </trkpt>
            <trkpt lon="9.690236" lat="47.824292">
                <ele>585.5149529600009</ele>
                <time>2012-05-20T00:42:05.000Z</time>
                <name>Position 2668</name>
            </trkpt>
            <trkpt lon="9.689887" lat="47.824282">
                <ele>584.7322351999927</ele>
                <time>2012-05-20T00:42:14.000Z</time>
                <name>Position 2669</name>
            </trkpt>
            <trkpt lon="9.689556" lat="47.824265">
                <ele>584.9323519999865</ele>
                <time>2012-05-20T00:42:23.000Z</time>
                <name>Position 2670</name>
            </trkpt>
            <trkpt lon="9.689194" lat="47.82428">
                <ele>585.293696000011</ele>
                <time>2012-05-20T00:42:33.000Z</time>
                <name>Position 2671</name>
            </trkpt>
            <trkpt lon="9.689044" lat="47.824241">
                <ele>584.9273907200055</ele>
                <time>2012-05-20T00:42:37.000Z</time>
                <name>Position 2672</name>
            </trkpt>
            <trkpt lon="9.688637" lat="47.824326">
                <ele>585.3761801599923</ele>
                <time>2012-05-20T00:42:49.000Z</time>
                <name>Position 2673</name>
            </trkpt>
            <trkpt lon="9.688249" lat="47.824384">
                <ele>585.719607040022</ele>
                <time>2012-05-20T00:43:00.000Z</time>
                <name>Position 2674</name>
            </trkpt>
            <trkpt lon="9.687914" lat="47.824391">
                <ele>585.2841385599835</ele>
                <time>2012-05-20T00:43:09.000Z</time>
                <name>Position 2675</name>
            </trkpt>
            <trkpt lon="9.687582" lat="47.824346">
                <ele>584.3411756799858</ele>
                <time>2012-05-20T00:43:18.000Z</time>
                <name>Position 2676</name>
            </trkpt>
            <trkpt lon="9.687249" lat="47.824288">
                <ele>582.0272358400199</ele>
                <time>2012-05-20T00:43:27.000Z</time>
                <name>Position 2677</name>
            </trkpt>
            <trkpt lon="9.686904" lat="47.824204">
                <ele>579.1862771200122</ele>
                <time>2012-05-20T00:43:37.000Z</time>
                <name>Position 2678</name>
            </trkpt>
            <trkpt lon="9.686555" lat="47.824106">
                <ele>577.7007343999979</ele>
                <time>2012-05-20T00:43:47.000Z</time>
                <name>Position 2679</name>
            </trkpt>
            <trkpt lon="9.686212" lat="47.823988">
                <ele>577.675470079999</ele>
                <time>2012-05-20T00:43:57.000Z</time>
                <name>Position 2680</name>
            </trkpt>
            <trkpt lon="9.685823" lat="47.823888">
                <ele>577.131560320005</ele>
                <time>2012-05-20T00:44:09.000Z</time>
                <name>Position 2681</name>
            </trkpt>
            <trkpt lon="9.685419" lat="47.823812">
                <ele>575.7219750400002</ele>
                <time>2012-05-20T00:44:20.000Z</time>
                <name>Position 2682</name>
            </trkpt>
            <trkpt lon="9.685015" lat="47.823743">
                <ele>574.0550535999998</ele>
                <time>2012-05-20T00:44:31.000Z</time>
                <name>Position 2683</name>
            </trkpt>
            <trkpt lon="9.684573" lat="47.823665">
                <ele>572.0523351999981</ele>
                <time>2012-05-20T00:44:43.000Z</time>
                <name>Position 2684</name>
            </trkpt>
            <trkpt lon="9.684197" lat="47.823535">
                <ele>570.1207911999958</ele>
                <time>2012-05-20T00:44:55.000Z</time>
                <name>Position 2685</name>
            </trkpt>
            <trkpt lon="9.683909" lat="47.823342">
                <ele>568.5835529599951</ele>
                <time>2012-05-20T00:45:06.000Z</time>
                <name>Position 2686</name>
            </trkpt>
            <trkpt lon="9.683735" lat="47.823114">
                <ele>568.735600000013</ele>
                <time>2012-05-20T00:45:16.000Z</time>
                <name>Position 2687</name>
            </trkpt>
            <trkpt lon="9.683536" lat="47.822907">
                <ele>568.7643999999979</ele>
                <time>2012-05-20T00:45:26.000Z</time>
                <name>Position 2688</name>
            </trkpt>
            <trkpt lon="9.683338" lat="47.822735">
                <ele>568.6707999999912</ele>
                <time>2012-05-20T00:45:34.000Z</time>
                <name>Position 2689</name>
            </trkpt>
            <trkpt lon="9.68312" lat="47.822598">
                <ele>569.6893056000008</ele>
                <time>2012-05-20T00:45:42.000Z</time>
                <name>Position 2690</name>
            </trkpt>
            <trkpt lon="9.682893" lat="47.822469">
                <ele>570.7603435200131</ele>
                <time>2012-05-20T00:45:50.000Z</time>
                <name>Position 2691</name>
            </trkpt>
            <trkpt lon="9.682706" lat="47.822355">
                <ele>571.9186127999907</ele>
                <time>2012-05-20T00:45:57.000Z</time>
                <name>Position 2692</name>
            </trkpt>
            <trkpt lon="9.682541" lat="47.822284">
                <ele>572.7103526399792</ele>
                <time>2012-05-20T00:46:02.000Z</time>
                <name>Position 2693</name>
            </trkpt>
            <trkpt lon="9.682424" lat="47.822195">
                <ele>573.4122623999976</ele>
                <time>2012-05-20T00:46:07.000Z</time>
                <name>Position 2694</name>
            </trkpt>
            <trkpt lon="9.682323" lat="47.822118">
                <ele>573.9247075199835</ele>
                <time>2012-05-20T00:46:11.000Z</time>
                <name>Position 2695</name>
            </trkpt>
            <trkpt lon="9.682195" lat="47.822044">
                <ele>574.3671744000088</ele>
                <time>2012-05-20T00:46:16.000Z</time>
                <name>Position 2696</name>
            </trkpt>
            <trkpt lon="9.682024" lat="47.822006">
                <ele>574.5905779199933</ele>
                <time>2012-05-20T00:46:21.000Z</time>
                <name>Position 2697</name>
            </trkpt>
            <trkpt lon="9.681828" lat="47.821982">
                <ele>574.7170252800053</ele>
                <time>2012-05-20T00:46:26.000Z</time>
                <name>Position 2698</name>
            </trkpt>
            <trkpt lon="9.681622" lat="47.821973">
                <ele>574.7167100800013</ele>
                <time>2012-05-20T00:46:32.000Z</time>
                <name>Position 2699</name>
            </trkpt>
            <trkpt lon="9.681391" lat="47.821966">
                <ele>574.4764700799957</ele>
                <time>2012-05-20T00:46:38.000Z</time>
                <name>Position 2700</name>
            </trkpt>
            <trkpt lon="9.681161" lat="47.821953">
                <ele>574.2246894399992</ele>
                <time>2012-05-20T00:46:44.000Z</time>
                <name>Position 2701</name>
            </trkpt>
            <trkpt lon="9.680919" lat="47.821948">
                <ele>573.9390841599983</ele>
                <time>2012-05-20T00:46:51.000Z</time>
                <name>Position 2702</name>
            </trkpt>
            <trkpt lon="9.680678" lat="47.821937">
                <ele>573.8243999999979</ele>
                <time>2012-05-20T00:46:57.000Z</time>
                <name>Position 2703</name>
            </trkpt>
            <trkpt lon="9.68046" lat="47.821923">
                <ele>573.8075999999977</ele>
                <time>2012-05-20T00:47:03.000Z</time>
                <name>Position 2704</name>
            </trkpt>
            <trkpt lon="9.680232" lat="47.821923">
                <ele>573.8075999999977</ele>
                <time>2012-05-20T00:47:09.000Z</time>
                <name>Position 2705</name>
            </trkpt>
            <trkpt lon="9.680004" lat="47.821923">
                <ele>573.8075999999977</ele>
                <time>2012-05-20T00:47:15.000Z</time>
                <name>Position 2706</name>
            </trkpt>
            <trkpt lon="9.679806" lat="47.82194">
                <ele>573.8317247999992</ele>
                <time>2012-05-20T00:47:21.000Z</time>
                <name>Position 2707</name>
            </trkpt>
            <trkpt lon="9.679607" lat="47.821956">
                <ele>573.82758144</ele>
                <time>2012-05-20T00:47:26.000Z</time>
                <name>Position 2708</name>
            </trkpt>
            <trkpt lon="9.679409" lat="47.821979">
                <ele>573.7865755200015</ele>
                <time>2012-05-20T00:47:31.000Z</time>
                <name>Position 2709</name>
            </trkpt>
            <trkpt lon="9.679183" lat="47.821998">
                <ele>573.7085788799986</ele>
                <time>2012-05-20T00:47:37.000Z</time>
                <name>Position 2710</name>
            </trkpt>
            <trkpt lon="9.678957" lat="47.822016">
                <ele>573.3858464000093</ele>
                <time>2012-05-20T00:47:44.000Z</time>
                <name>Position 2711</name>
            </trkpt>
            <trkpt lon="9.678718" lat="47.822036">
                <ele>572.9589056000167</ele>
                <time>2012-05-20T00:47:50.000Z</time>
                <name>Position 2712</name>
            </trkpt>
            <trkpt lon="9.678481" lat="47.822062">
                <ele>572.4223183999817</ele>
                <time>2012-05-20T00:47:57.000Z</time>
                <name>Position 2713</name>
            </trkpt>
            <trkpt lon="9.678242" lat="47.822088">
                <ele>572.0716275199952</ele>
                <time>2012-05-20T00:48:03.000Z</time>
                <name>Position 2714</name>
            </trkpt>
            <trkpt lon="9.67799" lat="47.822108">
                <ele>572.229190400001</ele>
                <time>2012-05-20T00:48:10.000Z</time>
                <name>Position 2715</name>
            </trkpt>
            <trkpt lon="9.677735" lat="47.822117">
                <ele>572.4932144000094</ele>
                <time>2012-05-20T00:48:17.000Z</time>
                <name>Position 2716</name>
            </trkpt>
            <trkpt lon="9.677489" lat="47.822098">
                <ele>572.9315676800202</ele>
                <time>2012-05-20T00:48:23.000Z</time>
                <name>Position 2717</name>
            </trkpt>
            <trkpt lon="9.677265" lat="47.822053">
                <ele>573.6152648000206</ele>
                <time>2012-05-20T00:48:30.000Z</time>
                <name>Position 2718</name>
            </trkpt>
            <trkpt lon="9.67705" lat="47.821987">
                <ele>574.4504240000016</ele>
                <time>2012-05-20T00:48:36.000Z</time>
                <name>Position 2719</name>
            </trkpt>
            <trkpt lon="9.676867" lat="47.821886">
                <ele>575.5032732800069</ele>
                <time>2012-05-20T00:48:42.000Z</time>
                <name>Position 2720</name>
            </trkpt>
            <trkpt lon="9.676724" lat="47.821775">
                <ele>576.5913439999838</ele>
                <time>2012-05-20T00:48:48.000Z</time>
                <name>Position 2721</name>
            </trkpt>
            <trkpt lon="9.676603" lat="47.821655">
                <ele>577.4397392000004</ele>
                <time>2012-05-20T00:48:54.000Z</time>
                <name>Position 2722</name>
            </trkpt>
            <trkpt lon="9.67649" lat="47.821562">
                <ele>577.4668543999993</ele>
                <time>2012-05-20T00:48:59.000Z</time>
                <name>Position 2723</name>
            </trkpt>
            <trkpt lon="9.676362" lat="47.821457">
                <ele>577.5699699199948</ele>
                <time>2012-05-20T00:49:04.000Z</time>
                <name>Position 2724</name>
            </trkpt>
            <trkpt lon="9.676243" lat="47.821344">
                <ele>577.7725049599918</ele>
                <time>2012-05-20T00:49:10.000Z</time>
                <name>Position 2725</name>
            </trkpt>
            <trkpt lon="9.676116" lat="47.821232">
                <ele>578.0501465599948</ele>
                <time>2012-05-20T00:49:15.000Z</time>
                <name>Position 2726</name>
            </trkpt>
            <trkpt lon="9.675999" lat="47.821114">
                <ele>578.4247116799961</ele>
                <time>2012-05-20T00:49:21.000Z</time>
                <name>Position 2727</name>
            </trkpt>
            <trkpt lon="9.67588" lat="47.821">
                <ele>578.866400000008</ele>
                <time>2012-05-20T00:49:27.000Z</time>
                <name>Position 2728</name>
            </trkpt>
            <trkpt lon="9.675772" lat="47.820873">
                <ele>579.1399033600052</ele>
                <time>2012-05-20T00:49:33.000Z</time>
                <name>Position 2729</name>
            </trkpt>
            <trkpt lon="9.675668" lat="47.82076">
                <ele>579.0102591999998</ele>
                <time>2012-05-20T00:49:38.000Z</time>
                <name>Position 2730</name>
            </trkpt>
            <trkpt lon="9.675564" lat="47.82064">
                <ele>578.8373824000029</ele>
                <time>2012-05-20T00:49:43.000Z</time>
                <name>Position 2731</name>
            </trkpt>
            <trkpt lon="9.67545" lat="47.820528">
                <ele>578.6549439999936</ele>
                <time>2012-05-20T00:49:49.000Z</time>
                <name>Position 2732</name>
            </trkpt>
            <trkpt lon="9.675368" lat="47.820404">
                <ele>578.6276876799953</ele>
                <time>2012-05-20T00:49:54.000Z</time>
                <name>Position 2733</name>
            </trkpt>
            <trkpt lon="9.67526" lat="47.820289">
                <ele>578.5386015999942</ele>
                <time>2012-05-20T00:50:00.000Z</time>
                <name>Position 2734</name>
            </trkpt>
            <trkpt lon="9.675149" lat="47.820162">
                <ele>578.5035587199908</ele>
                <time>2012-05-20T00:50:06.000Z</time>
                <name>Position 2735</name>
            </trkpt>
            <trkpt lon="9.67503" lat="47.820037">
                <ele>578.4847984000007</ele>
                <time>2012-05-20T00:50:12.000Z</time>
                <name>Position 2736</name>
            </trkpt>
            <trkpt lon="9.674869" lat="47.819896">
                <ele>578.0283999999973</ele>
                <time>2012-05-20T00:50:19.000Z</time>
                <name>Position 2737</name>
            </trkpt>
            <trkpt lon="9.674704" lat="47.81973">
                <ele>577.4344000000006</ele>
                <time>2012-05-20T00:50:27.000Z</time>
                <name>Position 2738</name>
            </trkpt>
            <trkpt lon="9.674563" lat="47.819561">
                <ele>576.9267999999968</ele>
                <time>2012-05-20T00:50:34.000Z</time>
                <name>Position 2739</name>
            </trkpt>
            <trkpt lon="9.674389" lat="47.819398">
                <ele>576.3003999999987</ele>
                <time>2012-05-20T00:50:42.000Z</time>
                <name>Position 2740</name>
            </trkpt>
            <trkpt lon="9.67425" lat="47.819218">
                <ele>575.8000000000023</ele>
                <time>2012-05-20T00:50:51.000Z</time>
                <name>Position 2741</name>
            </trkpt>
            <trkpt lon="9.674131" lat="47.819092">
                <ele>575.4648697599994</ele>
                <time>2012-05-20T00:50:57.000Z</time>
                <name>Position 2742</name>
            </trkpt>
            <trkpt lon="9.674045" lat="47.819061">
                <ele>575.3910256000004</ele>
                <time>2012-05-20T00:50:59.000Z</time>
                <name>Position 2743</name>
            </trkpt>
            <trkpt lon="9.674001" lat="47.819045">
                <ele>575.3592495999992</ele>
                <time>2012-05-20T00:51:01.000Z</time>
                <name>Position 2744</name>
            </trkpt>
            <trkpt lon="9.67397" lat="47.819028">
                <ele>575.3425407999988</ele>
                <time>2012-05-20T00:51:02.000Z</time>
                <name>Position 2745</name>
            </trkpt>
            <trkpt lon="9.673975" lat="47.819036">
                <ele>575.342128000002</ele>
                <time>2012-05-20T00:51:02.000Z</time>
                <name>Position 2746</name>
            </trkpt>
            <trkpt lon="9.673988" lat="47.819028">
                <ele>575.3569523199982</ele>
                <time>2012-05-20T00:51:02.000Z</time>
                <name>Position 2747</name>
            </trkpt>
            <trkpt lon="9.674004" lat="47.819034">
                <ele>575.366951679999</ele>
                <time>2012-05-20T00:51:03.000Z</time>
                <name>Position 2748</name>
            </trkpt>
            <trkpt lon="9.673977" lat="47.81903">
                <ele>575.3470528000017</ele>
                <time>2012-05-20T00:51:04.000Z</time>
                <name>Position 2749</name>
            </trkpt>
            <trkpt lon="9.673966" lat="47.819038">
                <ele>575.3335590400006</ele>
                <time>2012-05-20T00:51:04.000Z</time>
                <name>Position 2750</name>
            </trkpt>
            <trkpt lon="9.673955" lat="47.819045">
                <ele>575.3201679999978</ele>
                <time>2012-05-20T00:51:04.000Z</time>
                <name>Position 2751</name>
            </trkpt>
            <trkpt lon="9.673944" lat="47.819053">
                <ele>575.3056921600025</ele>
                <time>2012-05-20T00:51:05.000Z</time>
                <name>Position 2752</name>
            </trkpt>
            <trkpt lon="9.673929" lat="47.818971">
                <ele>575.3487299200011</ele>
                <time>2012-05-20T00:51:08.000Z</time>
                <name>Position 2753</name>
            </trkpt>
            <trkpt lon="9.673913" lat="47.818866">
                <ele>575.4152550400003</ele>
                <time>2012-05-20T00:51:12.000Z</time>
                <name>Position 2754</name>
            </trkpt>
            <trkpt lon="9.67387" lat="47.818764">
                <ele>575.4880383999987</ele>
                <time>2012-05-20T00:51:17.000Z</time>
                <name>Position 2755</name>
            </trkpt>
            <trkpt lon="9.673826" lat="47.818701">
                <ele>575.5480748800028</ele>
                <time>2012-05-20T00:51:19.000Z</time>
                <name>Position 2756</name>
            </trkpt>
            <trkpt lon="9.673731" lat="47.818598">
                <ele>575.6907174399981</ele>
                <time>2012-05-20T00:51:24.000Z</time>
                <name>Position 2757</name>
            </trkpt>
            <trkpt lon="9.67361" lat="47.818496">
                <ele>575.9072127999948</ele>
                <time>2012-05-20T00:51:30.000Z</time>
                <name>Position 2758</name>
            </trkpt>
            <trkpt lon="9.673493" lat="47.818425">
                <ele>576.130552000004</ele>
                <time>2012-05-20T00:51:34.000Z</time>
                <name>Position 2759</name>
            </trkpt>
            <trkpt lon="9.673401" lat="47.818375">
                <ele>576.3269199999928</ele>
                <time>2012-05-20T00:51:37.000Z</time>
                <name>Position 2760</name>
            </trkpt>
            <trkpt lon="9.67324" lat="47.818258">
                <ele>576.466924799999</ele>
                <time>2012-05-20T00:51:43.000Z</time>
                <name>Position 2761</name>
            </trkpt>
            <trkpt lon="9.673046" lat="47.818165">
                <ele>576.284049599997</ele>
                <time>2012-05-20T00:51:50.000Z</time>
                <name>Position 2762</name>
            </trkpt>
            <trkpt lon="9.672844" lat="47.818079">
                <ele>576.1152134400072</ele>
                <time>2012-05-20T00:51:56.000Z</time>
                <name>Position 2763</name>
            </trkpt>
            <trkpt lon="9.672675" lat="47.817971">
                <ele>576.1330919999997</ele>
                <time>2012-05-20T00:52:02.000Z</time>
                <name>Position 2764</name>
            </trkpt>
            <trkpt lon="9.672472" lat="47.81788">
                <ele>576.0830783999927</ele>
                <time>2012-05-20T00:52:09.000Z</time>
                <name>Position 2765</name>
            </trkpt>
            <trkpt lon="9.672296" lat="47.81778">
                <ele>576.1649472000024</ele>
                <time>2012-05-20T00:52:15.000Z</time>
                <name>Position 2766</name>
            </trkpt>
            <trkpt lon="9.672145" lat="47.817678">
                <ele>576.3422063999973</ele>
                <time>2012-05-20T00:52:21.000Z</time>
                <name>Position 2767</name>
            </trkpt>
            <trkpt lon="9.671962" lat="47.817612">
                <ele>576.3644313600144</ele>
                <time>2012-05-20T00:52:27.000Z</time>
                <name>Position 2768</name>
            </trkpt>
            <trkpt lon="9.671719" lat="47.817576">
                <ele>576.2037273599873</ele>
                <time>2012-05-20T00:52:33.000Z</time>
                <name>Position 2769</name>
            </trkpt>
            <trkpt lon="9.671475" lat="47.817469">
                <ele>575.6543999999894</ele>
                <time>2012-05-20T00:52:41.000Z</time>
                <name>Position 2770</name>
            </trkpt>
            <trkpt lon="9.671237" lat="47.817342">
                <ele>574.8168000000067</ele>
                <time>2012-05-20T00:52:49.000Z</time>
                <name>Position 2771</name>
            </trkpt>
            <trkpt lon="9.671011" lat="47.817201">
                <ele>574.0704000000069</ele>
                <time>2012-05-20T00:52:58.000Z</time>
                <name>Position 2772</name>
            </trkpt>
            <trkpt lon="9.670784" lat="47.81706">
                <ele>573.3471424000023</ele>
                <time>2012-05-20T00:53:06.000Z</time>
                <name>Position 2773</name>
            </trkpt>
            <trkpt lon="9.670573" lat="47.81693">
                <ele>572.717118399998</ele>
                <time>2012-05-20T00:53:14.000Z</time>
                <name>Position 2774</name>
            </trkpt>
            <trkpt lon="9.670406" lat="47.816816">
                <ele>572.1822937599941</ele>
                <time>2012-05-20T00:53:20.000Z</time>
                <name>Position 2775</name>
            </trkpt>
            <trkpt lon="9.670245" lat="47.816741">
                <ele>571.5605751999972</ele>
                <time>2012-05-20T00:53:25.000Z</time>
                <name>Position 2776</name>
            </trkpt>
            <trkpt lon="9.67001" lat="47.816709">
                <ele>570.4965903999941</ele>
                <time>2012-05-20T00:53:32.000Z</time>
                <name>Position 2777</name>
            </trkpt>
            <trkpt lon="9.669999763229384" lat="47.81648907013938">
                <ele>570.4178214399941</ele>
                <time>2012-05-20T00:53:39.000Z</time>
                <name>Position 2778</name>
            </trkpt>
            <trkpt lon="9.669797899475043" lat="47.816244730218365">
                <ele>570.4423648000087</ele>
                <time>2012-05-20T00:53:52.000Z</time>
                <name>Position 2779</name>
            </trkpt>
            <trkpt lon="9.66929213757328" lat="47.8157896360392">
                <ele>565.687999999992</ele>
                <time>2012-05-20T00:54:07.000Z</time>
                <name>Position 2780</name>
            </trkpt>
            <trkpt lon="9.668741222229073" lat="47.81539754150904">
                <ele>565.8261215999984</ele>
                <time>2012-05-20T00:54:47.000Z</time>
                <name>Position 2781</name>
            </trkpt>
            <trkpt lon="9.668341984130848" lat="47.81510399162319">
                <ele>565.9711622399934</ele>
                <time>2012-05-20T00:54:49.000Z</time>
                <name>Position 2782</name>
            </trkpt>
            <trkpt lon="9.667877153442419" lat="47.81478145509056">
                <ele>564.8930246399993</ele>
                <time>2012-05-20T00:55:47.000Z</time>
                <name>Position 2783</name>
            </trkpt>
            <trkpt lon="9.667605839286807" lat="47.81465217911861">
                <ele>564.9698409599958</ele>
                <time>2012-05-20T00:55:48.000Z</time>
                <name>Position 2784</name>
            </trkpt>
            <trkpt lon="9.667405720237753" lat="47.81461057627029">
                <ele>564.9892876800002</ele>
                <time>2012-05-20T00:55:24.000Z</time>
                <name>Position 2785</name>
            </trkpt>
            <trkpt lon="9.667183880950915" lat="47.81458703204495">
                <ele>564.8256182400032</ele>
                <time>2012-05-20T00:55:54.000Z</time>
                <name>Position 2786</name>
            </trkpt>
            <trkpt lon="9.667047863754306" lat="47.81458104368128">
                <ele>564.7916399999943</ele>
                <time>2012-05-20T00:55:56.000Z</time>
                <name>Position 2787</name>
            </trkpt>
            <trkpt lon="9.666943397483692" lat="47.814563464585945">
                <ele>564.7803599999978</ele>
                <time>2012-05-20T00:55:58.000Z</time>
                <name>Position 2788</name>
            </trkpt>
            <trkpt lon="9.666736" lat="47.814624">
                <ele>565.4567999999863</ele>
                <time>2012-05-20T00:56:22.000Z</time>
                <name>Position 2789</name>
            </trkpt>
            <trkpt lon="9.666521" lat="47.814616">
                <ele>564.3907999999903</ele>
                <time>2012-05-20T00:56:28.000Z</time>
                <name>Position 2790</name>
            </trkpt>
            <trkpt lon="9.666317" lat="47.814601">
                <ele>563.2747999999729</ele>
                <time>2012-05-20T00:56:34.000Z</time>
                <name>Position 2791</name>
            </trkpt>
            <trkpt lon="9.666165" lat="47.814594">
                <ele>562.4131999999995</ele>
                <time>2012-05-20T00:56:38.000Z</time>
                <name>Position 2792</name>
            </trkpt>
            <trkpt lon="9.666001" lat="47.814582">
                <ele>561.515599999987</ele>
                <time>2012-05-20T00:56:42.000Z</time>
                <name>Position 2793</name>
            </trkpt>
            <trkpt lon="9.665853" lat="47.814547">
                <ele>560.8796000000196</ele>
                <time>2012-05-20T00:56:46.000Z</time>
                <name>Position 2794</name>
            </trkpt>
            <trkpt lon="9.665748" lat="47.814509">
                <ele>560.3787340799976</ele>
                <time>2012-05-20T00:56:50.000Z</time>
                <name>Position 2795</name>
            </trkpt>
            <trkpt lon="9.665611" lat="47.814418">
                <ele>560.0091331199756</ele>
                <time>2012-05-20T00:56:55.000Z</time>
                <name>Position 2796</name>
            </trkpt>
            <trkpt lon="9.665403" lat="47.814301">
                <ele>559.3511563199935</ele>
                <time>2012-05-20T00:57:02.000Z</time>
                <name>Position 2797</name>
            </trkpt>
            <trkpt lon="9.665178" lat="47.814167">
                <ele>558.7788854400133</ele>
                <time>2012-05-20T00:57:10.000Z</time>
                <name>Position 2798</name>
            </trkpt>
            <trkpt lon="9.664917" lat="47.814054">
                <ele>557.9334659200222</ele>
                <time>2012-05-20T00:57:19.000Z</time>
                <name>Position 2799</name>
            </trkpt>
            <trkpt lon="9.664714" lat="47.813923">
                <ele>557.486351679971</ele>
                <time>2012-05-20T00:57:26.000Z</time>
                <name>Position 2800</name>
            </trkpt>
            <trkpt lon="9.66456" lat="47.813814">
                <ele>557.3082495999904</ele>
                <time>2012-05-20T00:57:32.000Z</time>
                <name>Position 2801</name>
            </trkpt>
            <trkpt lon="9.664452" lat="47.813733">
                <ele>557.2650150400162</ele>
                <time>2012-05-20T00:57:36.000Z</time>
                <name>Position 2802</name>
            </trkpt>
            <trkpt lon="9.664384" lat="47.813668">
                <ele>557.4143372800028</ele>
                <time>2012-05-20T00:57:40.000Z</time>
                <name>Position 2803</name>
            </trkpt>
            <trkpt lon="9.664333" lat="47.813614">
                <ele>557.596425279979</ele>
                <time>2012-05-20T00:57:42.000Z</time>
                <name>Position 2804</name>
            </trkpt>
            <trkpt lon="9.664238" lat="47.813522">
                <ele>557.8545798400056</ele>
                <time>2012-05-20T00:57:47.000Z</time>
                <name>Position 2805</name>
            </trkpt>
            <trkpt lon="9.664135" lat="47.813426">
                <ele>558.1009024000024</ele>
                <time>2012-05-20T00:57:51.000Z</time>
                <name>Position 2806</name>
            </trkpt>
            <trkpt lon="9.664033" lat="47.813331">
                <ele>558.2372982400161</ele>
                <time>2012-05-20T00:57:56.000Z</time>
                <name>Position 2807</name>
            </trkpt>
            <trkpt lon="9.663939" lat="47.81325">
                <ele>558.0690400000242</ele>
                <time>2012-05-20T00:58:00.000Z</time>
                <name>Position 2808</name>
            </trkpt>
            <trkpt lon="9.663866" lat="47.813147">
                <ele>558.3401497599979</ele>
                <time>2012-05-20T00:58:05.000Z</time>
                <name>Position 2809</name>
            </trkpt>
            <trkpt lon="9.663844" lat="47.813103">
                <ele>558.5512441600104</ele>
                <time>2012-05-20T00:58:07.000Z</time>
                <name>Position 2810</name>
            </trkpt>
            <trkpt lon="9.663734" lat="47.813041">
                <ele>558.1662707200144</ele>
                <time>2012-05-20T00:58:10.000Z</time>
                <name>Position 2811</name>
            </trkpt>
            <trkpt lon="9.663632" lat="47.81297">
                <ele>557.9786751999984</ele>
                <time>2012-05-20T00:58:14.000Z</time>
                <name>Position 2812</name>
            </trkpt>
            <trkpt lon="9.663516" lat="47.812887">
                <ele>557.8391929599607</ele>
                <time>2012-05-20T00:58:19.000Z</time>
                <name>Position 2813</name>
            </trkpt>
            <trkpt lon="9.66335" lat="47.8128">
                <ele>557.3943999999648</ele>
                <time>2012-05-20T00:58:25.000Z</time>
                <name>Position 2814</name>
            </trkpt>
            <trkpt lon="9.663211" lat="47.812668">
                <ele>556.8659846399829</ele>
                <time>2012-05-20T00:58:31.000Z</time>
                <name>Position 2815</name>
            </trkpt>
            <trkpt lon="9.663064" lat="47.812526">
                <ele>556.0478515200199</ele>
                <time>2012-05-20T00:58:38.000Z</time>
                <name>Position 2816</name>
            </trkpt>
            <trkpt lon="9.662877" lat="47.812418">
                <ele>553.9997030399911</ele>
                <time>2012-05-20T00:58:45.000Z</time>
                <name>Position 2817</name>
            </trkpt>
            <trkpt lon="9.662751" lat="47.812301">
                <ele>553.1332406400186</ele>
                <time>2012-05-20T00:58:50.000Z</time>
                <name>Position 2818</name>
            </trkpt>
            <trkpt lon="9.662593" lat="47.812163">
                <ele>552.3196137600092</ele>
                <time>2012-05-20T00:58:57.000Z</time>
                <name>Position 2819</name>
            </trkpt>
            <trkpt lon="9.662454" lat="47.811983">
                <ele>552.6496617600257</ele>
                <time>2012-05-20T00:59:06.000Z</time>
                <name>Position 2820</name>
            </trkpt>
            <trkpt lon="9.662308" lat="47.811789">
                <ele>553.2066681600203</ele>
                <time>2012-05-20T00:59:14.000Z</time>
                <name>Position 2821</name>
            </trkpt>
            <trkpt lon="9.66215" lat="47.811637">
                <ele>553.0966480000369</ele>
                <time>2012-05-20T00:59:22.000Z</time>
                <name>Position 2822</name>
            </trkpt>
            <trkpt lon="9.661982" lat="47.811493">
                <ele>553.0684585600172</ele>
                <time>2012-05-20T00:59:29.000Z</time>
                <name>Position 2823</name>
            </trkpt>
            <trkpt lon="9.661815" lat="47.811367">
                <ele>552.762008800044</ele>
                <time>2012-05-20T00:59:36.000Z</time>
                <name>Position 2824</name>
            </trkpt>
            <trkpt lon="9.661661" lat="47.811264">
                <ele>552.2749996799897</ele>
                <time>2012-05-20T00:59:42.000Z</time>
                <name>Position 2825</name>
            </trkpt>
            <trkpt lon="9.661474" lat="47.811136">
                <ele>551.6814028800253</ele>
                <time>2012-05-20T00:59:49.000Z</time>
                <name>Position 2826</name>
            </trkpt>
            <trkpt lon="9.661318" lat="47.811002">
                <ele>551.0479891199783</ele>
                <time>2012-05-20T00:59:56.000Z</time>
                <name>Position 2827</name>
            </trkpt>
            <trkpt lon="9.661212" lat="47.810876">
                <ele>550.6363430400082</ele>
                <time>2012-05-20T01:00:01.000Z</time>
                <name>Position 2828</name>
            </trkpt>
            <trkpt lon="9.661091" lat="47.810756">
                <ele>550.7238937600542</ele>
                <time>2012-05-20T01:00:07.000Z</time>
                <name>Position 2829</name>
            </trkpt>
            <trkpt lon="9.660891" lat="47.810631">
                <ele>550.2320017599774</ele>
                <time>2012-05-20T01:00:15.000Z</time>
                <name>Position 2830</name>
            </trkpt>
            <trkpt lon="9.660741" lat="47.810507">
                <ele>550.5320857599761</ele>
                <time>2012-05-20T01:00:21.000Z</time>
                <name>Position 2831</name>
            </trkpt>
            <trkpt lon="9.66058" lat="47.81036">
                <ele>550.7746239999464</ele>
                <time>2012-05-20T01:00:28.000Z</time>
                <name>Position 2832</name>
            </trkpt>
            <trkpt lon="9.660437" lat="47.810219">
                <ele>550.6855014400509</ele>
                <time>2012-05-20T01:00:35.000Z</time>
                <name>Position 2833</name>
            </trkpt>
            <trkpt lon="9.660314" lat="47.810105">
                <ele>550.1409855999923</ele>
                <time>2012-05-20T01:00:41.000Z</time>
                <name>Position 2834</name>
            </trkpt>
            <trkpt lon="9.660136" lat="47.809975">
                <ele>548.6665119999607</ele>
                <time>2012-05-20T01:00:48.000Z</time>
                <name>Position 2835</name>
            </trkpt>
            <trkpt lon="9.659979" lat="47.809853">
                <ele>548.5106641600706</ele>
                <time>2012-05-20T01:00:54.000Z</time>
                <name>Position 2836</name>
            </trkpt>
            <trkpt lon="9.659801" lat="47.809741">
                <ele>548.0781428799437</ele>
                <time>2012-05-20T01:01:01.000Z</time>
                <name>Position 2837</name>
            </trkpt>
            <trkpt lon="9.659511" lat="47.809671">
                <ele>544.6777940799708</ele>
                <time>2012-05-20T01:01:09.000Z</time>
                <name>Position 2838</name>
            </trkpt>
            <trkpt lon="9.659134" lat="47.809646">
                <ele>539.0234348799855</ele>
                <time>2012-05-20T01:01:19.000Z</time>
                <name>Position 2839</name>
            </trkpt>
            <trkpt lon="9.658763" lat="47.809646">
                <ele>535.9187881599928</ele>
                <time>2012-05-20T01:01:29.000Z</time>
                <name>Position 2840</name>
            </trkpt>
            <trkpt lon="9.658324" lat="47.80964">
                <ele>532.357446399983</ele>
                <time>2012-05-20T01:01:41.000Z</time>
                <name>Position 2841</name>
            </trkpt>
            <trkpt lon="9.657862" lat="47.809654">
                <ele>530.731851519984</ele>
                <time>2012-05-20T01:01:53.000Z</time>
                <name>Position 2842</name>
            </trkpt>
            <trkpt lon="9.657449" lat="47.809658">
                <ele>529.2679340800047</ele>
                <time>2012-05-20T01:02:05.000Z</time>
                <name>Position 2843</name>
            </trkpt>
            <trkpt lon="9.657087" lat="47.809638">
                <ele>527.3240454400047</ele>
                <time>2012-05-20T01:02:14.000Z</time>
                <name>Position 2844</name>
            </trkpt>
            <trkpt lon="9.656733" lat="47.809521">
                <ele>525.4966163199994</ele>
                <time>2012-05-20T01:02:25.000Z</time>
                <name>Position 2845</name>
            </trkpt>
            <trkpt lon="9.656505" lat="47.809367">
                <ele>524.5768751999952</ele>
                <time>2012-05-20T01:02:34.000Z</time>
                <name>Position 2846</name>
            </trkpt>
            <trkpt lon="9.656392" lat="47.809256">
                <ele>524.1450662400022</ele>
                <time>2012-05-20T01:02:39.000Z</time>
                <name>Position 2847</name>
            </trkpt>
            <trkpt lon="9.656234" lat="47.80921">
                <ele>523.4251967999976</ele>
                <time>2012-05-20T01:02:44.000Z</time>
                <name>Position 2848</name>
            </trkpt>
            <trkpt lon="9.655909" lat="47.809134">
                <ele>522.1803593599947</ele>
                <time>2012-05-20T01:02:53.000Z</time>
                <name>Position 2849</name>
            </trkpt>
            <trkpt lon="9.655555" lat="47.809048">
                <ele>521.5896384000254</ele>
                <time>2012-05-20T01:03:03.000Z</time>
                <name>Position 2850</name>
            </trkpt>
            <trkpt lon="9.655162" lat="47.808976">
                <ele>520.7292787199918</ele>
                <time>2012-05-20T01:03:14.000Z</time>
                <name>Position 2851</name>
            </trkpt>
            <trkpt lon="9.654763" lat="47.80892">
                <ele>520.0350527999982</ele>
                <time>2012-05-20T01:03:25.000Z</time>
                <name>Position 2852</name>
            </trkpt>
            <trkpt lon="9.654341" lat="47.808903">
                <ele>519.1733726399967</ele>
                <time>2012-05-20T01:03:36.000Z</time>
                <name>Position 2853</name>
            </trkpt>
            <trkpt lon="9.653946" lat="47.80892">
                <ele>518.2624383999969</ele>
                <time>2012-05-20T01:03:47.000Z</time>
                <name>Position 2854</name>
            </trkpt>
            <trkpt lon="9.653521" lat="47.808949">
                <ele>517.3652444800041</ele>
                <time>2012-05-20T01:03:58.000Z</time>
                <name>Position 2855</name>
            </trkpt>
            <trkpt lon="9.653099" lat="47.808985">
                <ele>516.7520951999995</ele>
                <time>2012-05-20T01:04:10.000Z</time>
                <name>Position 2856</name>
            </trkpt>
            <trkpt lon="9.652652" lat="47.809029">
                <ele>516.4251974400012</ele>
                <time>2012-05-20T01:04:22.000Z</time>
                <name>Position 2857</name>
            </trkpt>
            <trkpt lon="9.652187" lat="47.809043">
                <ele>513.8338780799972</ele>
                <time>2012-05-20T01:04:34.000Z</time>
                <name>Position 2858</name>
            </trkpt>
            <trkpt lon="9.651774" lat="47.808963">
                <ele>510.5830425599979</ele>
                <time>2012-05-20T01:04:46.000Z</time>
                <name>Position 2859</name>
            </trkpt>
            <trkpt lon="9.651361" lat="47.808825">
                <ele>508.009976</ele>
                <time>2012-05-20T01:04:58.000Z</time>
                <name>Position 2860</name>
            </trkpt>
            <trkpt lon="9.650992" lat="47.808644">
                <ele>506.2851622399992</ele>
                <time>2012-05-20T01:05:11.000Z</time>
                <name>Position 2861</name>
            </trkpt>
            <trkpt lon="9.650631" lat="47.808443">
                <ele>504.8912000000148</ele>
                <time>2012-05-20T01:05:23.000Z</time>
                <name>Position 2862</name>
            </trkpt>
            <trkpt lon="9.650249" lat="47.808269">
                <ele>503.23359791999286</ele>
                <time>2012-05-20T01:05:36.000Z</time>
                <name>Position 2863</name>
            </trkpt>
            <trkpt lon="9.649844" lat="47.808117">
                <ele>502.0253971199857</ele>
                <time>2012-05-20T01:05:48.000Z</time>
                <name>Position 2864</name>
            </trkpt>
            <trkpt lon="9.649385" lat="47.808033">
                <ele>500.9935751999922</ele>
                <time>2012-05-20T01:06:01.000Z</time>
                <name>Position 2865</name>
            </trkpt>
            <trkpt lon="9.648883" lat="47.808047">
                <ele>498.96287711998843</ele>
                <time>2012-05-20T01:06:15.000Z</time>
                <name>Position 2866</name>
            </trkpt>
            <trkpt lon="9.648457" lat="47.807999">
                <ele>497.26787615999297</ele>
                <time>2012-05-20T01:06:26.000Z</time>
                <name>Position 2867</name>
            </trkpt>
            <trkpt lon="9.64811" lat="47.808008">
                <ele>495.18069120000325</ele>
                <time>2012-05-20T01:06:35.000Z</time>
                <name>Position 2868</name>
            </trkpt>
            <trkpt lon="9.647895" lat="47.807918">
                <ele>493.8425663999995</ele>
                <time>2012-05-20T01:06:42.000Z</time>
                <name>Position 2869</name>
            </trkpt>
            <trkpt lon="9.647817" lat="47.807727">
                <ele>493.4011161599984</ele>
                <time>2012-05-20T01:06:50.000Z</time>
                <name>Position 2870</name>
            </trkpt>
            <trkpt lon="9.647597" lat="47.807553">
                <ele>491.465187839992</ele>
                <time>2012-05-20T01:06:59.000Z</time>
                <name>Position 2871</name>
            </trkpt>
            <trkpt lon="9.647333" lat="47.807345">
                <ele>488.3675999999849</ele>
                <time>2012-05-20T01:07:10.000Z</time>
                <name>Position 2872</name>
            </trkpt>
            <trkpt lon="9.647038" lat="47.807096">
                <ele>484.7496000000089</ele>
                <time>2012-05-20T01:07:23.000Z</time>
                <name>Position 2873</name>
            </trkpt>
            <trkpt lon="9.646772" lat="47.806817">
                <ele>481.1604000000156</ele>
                <time>2012-05-20T01:07:36.000Z</time>
                <name>Position 2874</name>
            </trkpt>
            <trkpt lon="9.646549" lat="47.806501">
                <ele>478.5937411199952</ele>
                <time>2012-05-20T01:07:50.000Z</time>
                <name>Position 2875</name>
            </trkpt>
            <trkpt lon="9.646298" lat="47.806203">
                <ele>477.1099027199944</ele>
                <time>2012-05-20T01:08:04.000Z</time>
                <name>Position 2876</name>
            </trkpt>
            <trkpt lon="9.646027" lat="47.805951">
                <ele>476.0304297600004</ele>
                <time>2012-05-20T01:08:16.000Z</time>
                <name>Position 2877</name>
            </trkpt>
            <trkpt lon="9.645768" lat="47.805697">
                <ele>475.58519999999794</ele>
                <time>2012-05-20T01:08:29.000Z</time>
                <name>Position 2878</name>
            </trkpt>
            <trkpt lon="9.645563" lat="47.805446">
                <ele>475.640399999995</ele>
                <time>2012-05-20T01:08:40.000Z</time>
                <name>Position 2879</name>
            </trkpt>
            <trkpt lon="9.645393" lat="47.805243">
                <ele>475.6800000000037</ele>
                <time>2012-05-20T01:08:50.000Z</time>
                <name>Position 2880</name>
            </trkpt>
            <trkpt lon="9.64516" lat="47.805211">
                <ele>475.4388000000009</ele>
                <time>2012-05-20T01:08:56.000Z</time>
                <name>Position 2881</name>
            </trkpt>
            <trkpt lon="9.644915" lat="47.80533">
                <ele>475.1252160000033</ele>
                <time>2012-05-20T01:09:04.000Z</time>
                <name>Position 2882</name>
            </trkpt>
            <trkpt lon="9.644632" lat="47.805453">
                <ele>474.91789248000015</ele>
                <time>2012-05-20T01:09:13.000Z</time>
                <name>Position 2883</name>
            </trkpt>
            <trkpt lon="9.644312" lat="47.805538">
                <ele>474.61398528000456</ele>
                <time>2012-05-20T01:09:22.000Z</time>
                <name>Position 2884</name>
            </trkpt>
            <trkpt lon="9.643996" lat="47.805576">
                <ele>474.00172671998996</ele>
                <time>2012-05-20T01:09:31.000Z</time>
                <name>Position 2885</name>
            </trkpt>
            <trkpt lon="9.643682" lat="47.805622">
                <ele>472.95848128000245</ele>
                <time>2012-05-20T01:09:40.000Z</time>
                <name>Position 2886</name>
            </trkpt>
            <trkpt lon="9.643432" lat="47.805673">
                <ele>471.9412595200105</ele>
                <time>2012-05-20T01:09:47.000Z</time>
                <name>Position 2887</name>
            </trkpt>
            <trkpt lon="9.643261" lat="47.805706">
                <ele>471.21667391999733</ele>
                <time>2012-05-20T01:09:51.000Z</time>
                <name>Position 2888</name>
            </trkpt>
            <trkpt lon="9.642983" lat="47.805747">
                <ele>470.1936931200186</ele>
                <time>2012-05-20T01:09:59.000Z</time>
                <name>Position 2889</name>
            </trkpt>
            <trkpt lon="9.642717" lat="47.80571">
                <ele>469.6898784000106</ele>
                <time>2012-05-20T01:10:06.000Z</time>
                <name>Position 2890</name>
            </trkpt>
            <trkpt lon="9.642467" lat="47.805642">
                <ele>469.3028313600049</ele>
                <time>2012-05-20T01:10:14.000Z</time>
                <name>Position 2891</name>
            </trkpt>
            <trkpt lon="9.64219" lat="47.805565">
                <ele>468.5648639999932</ele>
                <time>2012-05-20T01:10:22.000Z</time>
                <name>Position 2892</name>
            </trkpt>
            <trkpt lon="9.641922" lat="47.805485">
                <ele>467.62510080000027</ele>
                <time>2012-05-20T01:10:30.000Z</time>
                <name>Position 2893</name>
            </trkpt>
            <trkpt lon="9.641687" lat="47.80537">
                <ele>466.60306559999543</ele>
                <time>2012-05-20T01:10:37.000Z</time>
                <name>Position 2894</name>
            </trkpt>
            <trkpt lon="9.641441" lat="47.805275">
                <ele>466.68143599999917</ele>
                <time>2012-05-20T01:10:45.000Z</time>
                <name>Position 2895</name>
            </trkpt>
            <trkpt lon="9.641147" lat="47.805216">
                <ele>466.96196287999885</ele>
                <time>2012-05-20T01:10:53.000Z</time>
                <name>Position 2896</name>
            </trkpt>
            <trkpt lon="9.640829" lat="47.805236">
                <ele>467.2115999999993</ele>
                <time>2012-05-20T01:11:02.000Z</time>
                <name>Position 2897</name>
            </trkpt>
            <trkpt lon="9.640543" lat="47.80527">
                <ele>466.8275999999989</ele>
                <time>2012-05-20T01:11:10.000Z</time>
                <name>Position 2898</name>
            </trkpt>
            <trkpt lon="9.640238" lat="47.805337">
                <ele>466.38119999999833</ele>
                <time>2012-05-20T01:11:18.000Z</time>
                <name>Position 2899</name>
            </trkpt>
            <trkpt lon="9.640023" lat="47.80535">
                <ele>466.1076000000027</ele>
                <time>2012-05-20T01:11:24.000Z</time>
                <name>Position 2900</name>
            </trkpt>
            <trkpt lon="9.639714" lat="47.805331">
                <ele>465.138957119999</ele>
                <time>2012-05-20T01:11:32.000Z</time>
                <name>Position 2901</name>
            </trkpt>
            <trkpt lon="9.639369" lat="47.805271">
                <ele>463.8847243199974</ele>
                <time>2012-05-20T01:11:42.000Z</time>
                <name>Position 2902</name>
            </trkpt>
            <trkpt lon="9.639051" lat="47.805214">
                <ele>462.97795615999866</ele>
                <time>2012-05-20T01:11:51.000Z</time>
                <name>Position 2903</name>
            </trkpt>
            <trkpt lon="9.638757" lat="47.805184">
                <ele>462.8330547199945</ele>
                <time>2012-05-20T01:11:59.000Z</time>
                <name>Position 2904</name>
            </trkpt>
            <trkpt lon="9.638559" lat="47.8052">
                <ele>462.804991999999</ele>
                <time>2012-05-20T01:12:04.000Z</time>
                <name>Position 2905</name>
            </trkpt>
            <trkpt lon="9.638355" lat="47.805121">
                <ele>462.64897519999977</ele>
                <time>2012-05-20T01:12:11.000Z</time>
                <name>Position 2906</name>
            </trkpt>
            <trkpt lon="9.638168" lat="47.804994">
                <ele>461.88605696000275</ele>
                <time>2012-05-20T01:12:18.000Z</time>
                <name>Position 2907</name>
            </trkpt>
            <trkpt lon="9.63797" lat="47.804863">
                <ele>460.8421567999908</ele>
                <time>2012-05-20T01:12:25.000Z</time>
                <name>Position 2908</name>
            </trkpt>
            <trkpt lon="9.637765" lat="47.804701">
                <ele>459.86700320000233</ele>
                <time>2012-05-20T01:12:34.000Z</time>
                <name>Position 2909</name>
            </trkpt>
            <trkpt lon="9.637585" lat="47.804517">
                <ele>459.1081615999947</ele>
                <time>2012-05-20T01:12:43.000Z</time>
                <name>Position 2910</name>
            </trkpt>
            <trkpt lon="9.637378" lat="47.804348">
                <ele>458.8321433599973</ele>
                <time>2012-05-20T01:12:51.000Z</time>
                <name>Position 2911</name>
            </trkpt>
            <trkpt lon="9.637173" lat="47.80418">
                <ele>458.90212160000095</ele>
                <time>2012-05-20T01:13:00.000Z</time>
                <name>Position 2912</name>
            </trkpt>
            <trkpt lon="9.637013" lat="47.804045">
                <ele>458.8530776000045</ele>
                <time>2012-05-20T01:13:07.000Z</time>
                <name>Position 2913</name>
            </trkpt>
            <trkpt lon="9.63692" lat="47.803964">
                <ele>458.78353280000124</ele>
                <time>2012-05-20T01:13:11.000Z</time>
                <name>Position 2914</name>
            </trkpt>
            <trkpt lon="9.636931" lat="47.80395">
                <ele>458.7452720000003</ele>
                <time>2012-05-20T01:13:12.000Z</time>
                <name>Position 2915</name>
            </trkpt>
            <trkpt lon="9.636942" lat="47.803943">
                <ele>458.721479359994</ele>
                <time>2012-05-20T01:13:12.000Z</time>
                <name>Position 2916</name>
            </trkpt>
            <trkpt lon="9.636955" lat="47.803948">
                <ele>458.7199903999964</ele>
                <time>2012-05-20T01:13:12.000Z</time>
                <name>Position 2917</name>
            </trkpt>
            <trkpt lon="9.636968" lat="47.803946">
                <ele>458.7045516800071</ele>
                <time>2012-05-20T01:13:13.000Z</time>
                <name>Position 2918</name>
            </trkpt>
            <trkpt lon="9.636935" lat="47.803923">
                <ele>458.68735279999555</ele>
                <time>2012-05-20T01:13:14.000Z</time>
                <name>Position 2919</name>
            </trkpt>
            <trkpt lon="9.636871" lat="47.803818">
                <ele>458.5205916799999</ele>
                <time>2012-05-20T01:13:19.000Z</time>
                <name>Position 2920</name>
            </trkpt>
            <trkpt lon="9.636816" lat="47.803717">
                <ele>458.3382963199978</ele>
                <time>2012-05-20T01:13:23.000Z</time>
                <name>Position 2921</name>
            </trkpt>
            <trkpt lon="9.636787" lat="47.803591">
                <ele>458.07375151999395</ele>
                <time>2012-05-20T01:13:28.000Z</time>
                <name>Position 2922</name>
            </trkpt>
            <trkpt lon="9.636722" lat="47.803433">
                <ele>457.7312585599959</ele>
                <time>2012-05-20T01:13:35.000Z</time>
                <name>Position 2923</name>
            </trkpt>
            <trkpt lon="9.636663" lat="47.803258">
                <ele>457.6808000000012</ele>
                <time>2012-05-20T01:13:42.000Z</time>
                <name>Position 2924</name>
            </trkpt>
            <trkpt lon="9.636611" lat="47.803057">
                <ele>458.16319999999405</ele>
                <time>2012-05-20T01:13:50.000Z</time>
                <name>Position 2925</name>
            </trkpt>
            <trkpt lon="9.636499" lat="47.802917">
                <ele>458.4991999999984</ele>
                <time>2012-05-20T01:13:56.000Z</time>
                <name>Position 2926</name>
            </trkpt>
            <trkpt lon="9.636402" lat="47.802764">
                <ele>458.86639999999215</ele>
                <time>2012-05-20T01:14:03.000Z</time>
                <name>Position 2927</name>
            </trkpt>
            <trkpt lon="9.63625" lat="47.802611">
                <ele>459.233600000003</ele>
                <time>2012-05-20T01:14:10.000Z</time>
                <name>Position 2928</name>
            </trkpt>
            <trkpt lon="9.636049" lat="47.80239">
                <ele>459.30432320000443</ele>
                <time>2012-05-20T01:14:21.000Z</time>
                <name>Position 2929</name>
            </trkpt>
            <trkpt lon="9.636019" lat="47.802222">
                <ele>458.98145216</ele>
                <time>2012-05-20T01:14:27.000Z</time>
                <name>Position 2930</name>
            </trkpt>
            <trkpt lon="9.636063" lat="47.802096">
                <ele>458.7976217599978</ele>
                <time>2012-05-20T01:14:33.000Z</time>
                <name>Position 2931</name>
            </trkpt>
            <trkpt lon="9.636049" lat="47.801962">
                <ele>458.5429625600052</ele>
                <time>2012-05-20T01:14:38.000Z</time>
                <name>Position 2932</name>
            </trkpt>
            <trkpt lon="9.635985" lat="47.801756">
                <ele>458.03937919999436</ele>
                <time>2012-05-20T01:14:46.000Z</time>
                <name>Position 2933</name>
            </trkpt>
            <trkpt lon="9.635852" lat="47.801555">
                <ele>457.8308095999984</ele>
                <time>2012-05-20T01:14:55.000Z</time>
                <name>Position 2934</name>
            </trkpt>
            <trkpt lon="9.635716" lat="47.801387">
                <ele>457.84234752000503</ele>
                <time>2012-05-20T01:15:03.000Z</time>
                <name>Position 2935</name>
            </trkpt>
            <trkpt lon="9.63559" lat="47.80123">
                <ele>457.81099200000835</ele>
                <time>2012-05-20T01:15:10.000Z</time>
                <name>Position 2936</name>
            </trkpt>
            <trkpt lon="9.635462" lat="47.801036">
                <ele>457.7851699199951</ele>
                <time>2012-05-20T01:15:19.000Z</time>
                <name>Position 2937</name>
            </trkpt>
            <trkpt lon="9.635326" lat="47.800885">
                <ele>457.58734559999556</ele>
                <time>2012-05-20T01:15:26.000Z</time>
                <name>Position 2938</name>
            </trkpt>
            <trkpt lon="9.635174" lat="47.800681">
                <ele>457.7511372800081</ele>
                <time>2012-05-20T01:15:35.000Z</time>
                <name>Position 2939</name>
            </trkpt>
            <trkpt lon="9.635119" lat="47.800578">
                <ele>457.935107839992</ele>
                <time>2012-05-20T01:15:39.000Z</time>
                <name>Position 2940</name>
            </trkpt>
            <trkpt lon="9.635033" lat="47.800394">
                <ele>458.2421542400104</ele>
                <time>2012-05-20T01:15:47.000Z</time>
                <name>Position 2941</name>
            </trkpt>
            <trkpt lon="9.634962" lat="47.800214">
                <ele>458.569379840011</ele>
                <time>2012-05-20T01:15:54.000Z</time>
                <name>Position 2942</name>
            </trkpt>
            <trkpt lon="9.634931" lat="47.80002">
                <ele>459.1756255999866</ele>
                <time>2012-05-20T01:16:02.000Z</time>
                <name>Position 2943</name>
            </trkpt>
            <trkpt lon="9.634915" lat="47.799837">
                <ele>459.7808000000105</ele>
                <time>2012-05-20T01:16:09.000Z</time>
                <name>Position 2944</name>
            </trkpt>
            <trkpt lon="9.634829" lat="47.799656">
                <ele>460.12280000000396</ele>
                <time>2012-05-20T01:16:17.000Z</time>
                <name>Position 2945</name>
            </trkpt>
            <trkpt lon="9.634787" lat="47.799487">
                <ele>460.5800000000007</ele>
                <time>2012-05-20T01:16:24.000Z</time>
                <name>Position 2946</name>
            </trkpt>
            <trkpt lon="9.634784" lat="47.799321">
                <ele>461.1668000000028</ele>
                <time>2012-05-20T01:16:31.000Z</time>
                <name>Position 2947</name>
            </trkpt>
            <trkpt lon="9.634744" lat="47.799224">
                <ele>461.3719999999899</ele>
                <time>2012-05-20T01:16:35.000Z</time>
                <name>Position 2948</name>
            </trkpt>
            <trkpt lon="9.634685" lat="47.799107">
                <ele>461.4026591999981</ele>
                <time>2012-05-20T01:16:40.000Z</time>
                <name>Position 2949</name>
            </trkpt>
            <trkpt lon="9.634658" lat="47.798938">
                <ele>461.4448550400001</ele>
                <time>2012-05-20T01:16:46.000Z</time>
                <name>Position 2950</name>
            </trkpt>
            <trkpt lon="9.634607" lat="47.798808">
                <ele>461.4667065600001</ele>
                <time>2012-05-20T01:16:52.000Z</time>
                <name>Position 2951</name>
            </trkpt>
            <trkpt lon="9.634572" lat="47.798677">
                <ele>461.578765440003</ele>
                <time>2012-05-20T01:16:57.000Z</time>
                <name>Position 2952</name>
            </trkpt>
            <trkpt lon="9.634517" lat="47.798598">
                <ele>461.66087616000283</ele>
                <time>2012-05-20T01:17:01.000Z</time>
                <name>Position 2953</name>
            </trkpt>
            <trkpt lon="9.634463" lat="47.798503">
                <ele>461.82320064000635</ele>
                <time>2012-05-20T01:17:05.000Z</time>
                <name>Position 2954</name>
            </trkpt>
            <trkpt lon="9.634454" lat="47.798465">
                <ele>461.8991135999997</ele>
                <time>2012-05-20T01:17:06.000Z</time>
                <name>Position 2955</name>
            </trkpt>
            <trkpt lon="9.634371" lat="47.798341">
                <ele>462.2362233599987</ele>
                <time>2012-05-20T01:17:12.000Z</time>
                <name>Position 2956</name>
            </trkpt>
            <trkpt lon="9.634245" lat="47.79819">
                <ele>462.5941680000026</ele>
                <time>2012-05-20T01:17:19.000Z</time>
                <name>Position 2957</name>
            </trkpt>
            <trkpt lon="9.634084" lat="47.798061">
                <ele>463.05761856000527</ele>
                <time>2012-05-20T01:17:25.000Z</time>
                <name>Position 2958</name>
            </trkpt>
            <trkpt lon="9.63395" lat="47.79793">
                <ele>463.6298399999976</ele>
                <time>2012-05-20T01:17:32.000Z</time>
                <name>Position 2959</name>
            </trkpt>
            <trkpt lon="9.633803" lat="47.797801">
                <ele>464.2903723199998</ele>
                <time>2012-05-20T01:17:38.000Z</time>
                <name>Position 2960</name>
            </trkpt>
            <trkpt lon="9.633719" lat="47.797683">
                <ele>464.7740308800043</ele>
                <time>2012-05-20T01:17:43.000Z</time>
                <name>Position 2961</name>
            </trkpt>
            <trkpt lon="9.633569" lat="47.797605">
                <ele>465.43523280000755</ele>
                <time>2012-05-20T01:17:48.000Z</time>
                <name>Position 2962</name>
            </trkpt>
            <trkpt lon="9.633475" lat="47.797512">
                <ele>465.96364800000345</ele>
                <time>2012-05-20T01:17:53.000Z</time>
                <name>Position 2963</name>
            </trkpt>
            <trkpt lon="9.633353" lat="47.797392">
                <ele>466.44449280000106</ele>
                <time>2012-05-20T01:17:59.000Z</time>
                <name>Position 2964</name>
            </trkpt>
            <trkpt lon="9.633219" lat="47.797261">
                <ele>467.1466510399978</ele>
                <time>2012-05-20T01:18:05.000Z</time>
                <name>Position 2965</name>
            </trkpt>
            <trkpt lon="9.633043" lat="47.797127">
                <ele>468.0860561599979</ele>
                <time>2012-05-20T01:18:12.000Z</time>
                <name>Position 2966</name>
            </trkpt>
            <trkpt lon="9.632926" lat="47.796992">
                <ele>468.646027520005</ele>
                <time>2012-05-20T01:18:19.000Z</time>
                <name>Position 2967</name>
            </trkpt>
            <trkpt lon="9.632766" lat="47.796857">
                <ele>469.3786947200017</ele>
                <time>2012-05-20T01:18:25.000Z</time>
                <name>Position 2968</name>
            </trkpt>
            <trkpt lon="9.632599" lat="47.796743">
                <ele>470.1055179199956</ele>
                <time>2012-05-20T01:18:32.000Z</time>
                <name>Position 2969</name>
            </trkpt>
            <trkpt lon="9.632429" lat="47.796617">
                <ele>470.94984416000483</ele>
                <time>2012-05-20T01:18:39.000Z</time>
                <name>Position 2970</name>
            </trkpt>
            <trkpt lon="9.632321" lat="47.796484">
                <ele>471.70343168000437</ele>
                <time>2012-05-20T01:18:45.000Z</time>
                <name>Position 2971</name>
            </trkpt>
            <trkpt lon="9.63218" lat="47.796374">
                <ele>472.46867840000016</ele>
                <time>2012-05-20T01:18:51.000Z</time>
                <name>Position 2972</name>
            </trkpt>
            <trkpt lon="9.632053" lat="47.796269">
                <ele>473.08805983999446</ele>
                <time>2012-05-20T01:18:56.000Z</time>
                <name>Position 2973</name>
            </trkpt>
            <trkpt lon="9.631952" lat="47.796167">
                <ele>473.54100608000243</ele>
                <time>2012-05-20T01:19:01.000Z</time>
                <name>Position 2974</name>
            </trkpt>
            <trkpt lon="9.631886" lat="47.796096">
                <ele>473.80767872000195</ele>
                <time>2012-05-20T01:19:04.000Z</time>
                <name>Position 2975</name>
            </trkpt>
            <trkpt lon="9.631773" lat="47.795972">
                <ele>474.2023347199982</ele>
                <time>2012-05-20T01:19:10.000Z</time>
                <name>Position 2976</name>
            </trkpt>
            <trkpt lon="9.631661" lat="47.795796">
                <ele>474.62668607998916</ele>
                <time>2012-05-20T01:19:18.000Z</time>
                <name>Position 2977</name>
            </trkpt>
            <trkpt lon="9.631562" lat="47.795624">
                <ele>475.03334784001225</ele>
                <time>2012-05-20T01:19:25.000Z</time>
                <name>Position 2978</name>
            </trkpt>
            <trkpt lon="9.631458" lat="47.79541">
                <ele>475.3919904000095</ele>
                <time>2012-05-20T01:19:34.000Z</time>
                <name>Position 2979</name>
            </trkpt>
            <trkpt lon="9.631356" lat="47.795213">
                <ele>475.5278630400081</ele>
                <time>2012-05-20T01:19:42.000Z</time>
                <name>Position 2980</name>
            </trkpt>
            <trkpt lon="9.631277" lat="47.795002">
                <ele>475.62576672001</ele>
                <time>2012-05-20T01:19:51.000Z</time>
                <name>Position 2981</name>
            </trkpt>
            <trkpt lon="9.63121" lat="47.794801">
                <ele>474.76831199999685</ele>
                <time>2012-05-20T01:19:59.000Z</time>
                <name>Position 2982</name>
            </trkpt>
            <trkpt lon="9.63113" lat="47.79459">
                <ele>474.04823999999996</ele>
                <time>2012-05-20T01:20:08.000Z</time>
                <name>Position 2983</name>
            </trkpt>
            <trkpt lon="9.631055" lat="47.794403">
                <ele>473.6111880000041</ele>
                <time>2012-05-20T01:20:16.000Z</time>
                <name>Position 2984</name>
            </trkpt>
            <trkpt lon="9.63096" lat="47.794257">
                <ele>473.43038400000165</ele>
                <time>2012-05-20T01:20:22.000Z</time>
                <name>Position 2985</name>
            </trkpt>
            <trkpt lon="9.630905" lat="47.794096">
                <ele>473.2444000000075</ele>
                <time>2012-05-20T01:20:29.000Z</time>
                <name>Position 2986</name>
            </trkpt>
            <trkpt lon="9.630852" lat="47.794035">
                <ele>473.1616000000013</ele>
                <time>2012-05-20T01:20:32.000Z</time>
                <name>Position 2987</name>
            </trkpt>
            <trkpt lon="9.630797" lat="47.793962">
                <ele>473.05240000000197</ele>
                <time>2012-05-20T01:20:35.000Z</time>
                <name>Position 2988</name>
            </trkpt>
            <trkpt lon="9.630735" lat="47.793811">
                <ele>472.7643999999958</ele>
                <time>2012-05-20T01:20:41.000Z</time>
                <name>Position 2989</name>
            </trkpt>
            <trkpt lon="9.630675" lat="47.793649">
                <ele>472.4476000000048</ele>
                <time>2012-05-20T01:20:48.000Z</time>
                <name>Position 2990</name>
            </trkpt>
            <trkpt lon="9.630607" lat="47.793441">
                <ele>472.030000000004</ele>
                <time>2012-05-20T01:20:56.000Z</time>
                <name>Position 2991</name>
            </trkpt>
            <trkpt lon="9.630522" lat="47.793193">
                <ele>471.76811424000283</ele>
                <time>2012-05-20T01:21:07.000Z</time>
                <name>Position 2992</name>
            </trkpt>
            <trkpt lon="9.630467" lat="47.792954">
                <ele>471.68450592000204</ele>
                <time>2012-05-20T01:21:16.000Z</time>
                <name>Position 2993</name>
            </trkpt>
            <trkpt lon="9.630414" lat="47.792752">
                <ele>471.65663231999997</ele>
                <time>2012-05-20T01:21:25.000Z</time>
                <name>Position 2994</name>
            </trkpt>
            <trkpt lon="9.630341" lat="47.792591">
                <ele>471.72628464000167</ele>
                <time>2012-05-20T01:21:31.000Z</time>
                <name>Position 2995</name>
            </trkpt>
            <trkpt lon="9.630325" lat="47.792438">
                <ele>471.8524320000083</ele>
                <time>2012-05-20T01:21:37.000Z</time>
                <name>Position 2996</name>
            </trkpt>
            <trkpt lon="9.630282" lat="47.792198">
                <ele>472.43087232000306</ele>
                <time>2012-05-20T01:21:47.000Z</time>
                <name>Position 2997</name>
            </trkpt>
            <trkpt lon="9.630257" lat="47.791959">
                <ele>472.9328265600028</ele>
                <time>2012-05-20T01:21:57.000Z</time>
                <name>Position 2998</name>
            </trkpt>
            <trkpt lon="9.630261" lat="47.791824">
                <ele>473.1929356800031</ele>
                <time>2012-05-20T01:22:02.000Z</time>
                <name>Position 2999</name>
            </trkpt>
            <trkpt lon="9.630283" lat="47.791609">
                <ele>473.68540063999666</ele>
                <time>2012-05-20T01:22:11.000Z</time>
                <name>Position 3000</name>
            </trkpt>
            <trkpt lon="9.630295" lat="47.791377">
                <ele>474.4413008000098</ele>
                <time>2012-05-20T01:22:20.000Z</time>
                <name>Position 3001</name>
            </trkpt>
            <trkpt lon="9.630275" lat="47.791181">
                <ele>475.0502479999937</ele>
                <time>2012-05-20T01:22:28.000Z</time>
                <name>Position 3002</name>
            </trkpt>
            <trkpt lon="9.630224" lat="47.790968">
                <ele>475.6275238400021</ele>
                <time>2012-05-20T01:22:36.000Z</time>
                <name>Position 3003</name>
            </trkpt>
            <trkpt lon="9.630168" lat="47.790729">
                <ele>476.0536403200001</ele>
                <time>2012-05-20T01:22:46.000Z</time>
                <name>Position 3004</name>
            </trkpt>
            <trkpt lon="9.63015" lat="47.790628">
                <ele>476.1507520000039</ele>
                <time>2012-05-20T01:22:50.000Z</time>
                <name>Position 3005</name>
            </trkpt>
            <trkpt lon="9.630044" lat="47.790443">
                <ele>476.09873151999534</ele>
                <time>2012-05-20T01:22:58.000Z</time>
                <name>Position 3006</name>
            </trkpt>
            <trkpt lon="9.62984" lat="47.790244">
                <ele>475.35963519999774</ele>
                <time>2012-05-20T01:23:08.000Z</time>
                <name>Position 3007</name>
            </trkpt>
            <trkpt lon="9.629631" lat="47.790087">
                <ele>474.2740566399991</ele>
                <time>2012-05-20T01:23:16.000Z</time>
                <name>Position 3008</name>
            </trkpt>
            <trkpt lon="9.629411" lat="47.789913">
                <ele>473.4267798400038</ele>
                <time>2012-05-20T01:23:25.000Z</time>
                <name>Position 3009</name>
            </trkpt>
            <trkpt lon="9.629182" lat="47.789753">
                <ele>473.0630924800159</ele>
                <time>2012-05-20T01:23:34.000Z</time>
                <name>Position 3010</name>
            </trkpt>
            <trkpt lon="9.628978" lat="47.789584">
                <ele>473.0904000000129</ele>
                <time>2012-05-20T01:23:43.000Z</time>
                <name>Position 3011</name>
            </trkpt>
            <trkpt lon="9.628879" lat="47.789484">
                <ele>473.2151999999877</ele>
                <time>2012-05-20T01:23:48.000Z</time>
                <name>Position 3012</name>
            </trkpt>
            <trkpt lon="9.628762" lat="47.789294">
                <ele>473.793600000011</ele>
                <time>2012-05-20T01:23:56.000Z</time>
                <name>Position 3013</name>
            </trkpt>
            <trkpt lon="9.628557" lat="47.789115">
                <ele>473.80495919999197</ele>
                <time>2012-05-20T01:24:05.000Z</time>
                <name>Position 3014</name>
            </trkpt>
            <trkpt lon="9.628282" lat="47.788957">
                <ele>473.33709855998444</ele>
                <time>2012-05-20T01:24:15.000Z</time>
                <name>Position 3015</name>
            </trkpt>
            <trkpt lon="9.62808" lat="47.788797">
                <ele>473.49725439998934</ele>
                <time>2012-05-20T01:24:23.000Z</time>
                <name>Position 3016</name>
            </trkpt>
            <trkpt lon="9.627919" lat="47.788628">
                <ele>473.91539007998585</ele>
                <time>2012-05-20T01:24:31.000Z</time>
                <name>Position 3017</name>
            </trkpt>
            <trkpt lon="9.627773" lat="47.788464">
                <ele>474.42256768001187</ele>
                <time>2012-05-20T01:24:39.000Z</time>
                <name>Position 3018</name>
            </trkpt>
            <trkpt lon="9.627617" lat="47.788302">
                <ele>474.96879999999254</ele>
                <time>2012-05-20T01:24:47.000Z</time>
                <name>Position 3019</name>
            </trkpt>
            <trkpt lon="9.627463" lat="47.788134">
                <ele>475.5753385600054</ele>
                <time>2012-05-20T01:24:55.000Z</time>
                <name>Position 3020</name>
            </trkpt>
            <trkpt lon="9.627254" lat="47.788023">
                <ele>475.4418025599899</ele>
                <time>2012-05-20T01:25:02.000Z</time>
                <name>Position 3021</name>
            </trkpt>
            <trkpt lon="9.6271" lat="47.787868">
                <ele>475.5279039999888</ele>
                <time>2012-05-20T01:25:09.000Z</time>
                <name>Position 3022</name>
            </trkpt>
            <trkpt lon="9.626948" lat="47.787719">
                <ele>475.39623615999284</ele>
                <time>2012-05-20T01:25:16.000Z</time>
                <name>Position 3023</name>
            </trkpt>
            <trkpt lon="9.626726" lat="47.787579">
                <ele>474.6461507199957</ele>
                <time>2012-05-20T01:25:25.000Z</time>
                <name>Position 3024</name>
            </trkpt>
            <trkpt lon="9.626502" lat="47.78739">
                <ele>474.2652671999918</ele>
                <time>2012-05-20T01:25:34.000Z</time>
                <name>Position 3025</name>
            </trkpt>
            <trkpt lon="9.62633" lat="47.78718">
                <ele>474.1834559999988</ele>
                <time>2012-05-20T01:25:44.000Z</time>
                <name>Position 3026</name>
            </trkpt>
            <trkpt lon="9.62613" lat="47.78696">
                <ele>473.4947519999973</ele>
                <time>2012-05-20T01:25:54.000Z</time>
                <name>Position 3027</name>
            </trkpt>
            <trkpt lon="9.62588" lat="47.786727">
                <ele>471.8593824000053</ele>
                <time>2012-05-20T01:26:06.000Z</time>
                <name>Position 3028</name>
            </trkpt>
            <trkpt lon="9.625692" lat="47.786518">
                <ele>472.0489433599966</ele>
                <time>2012-05-20T01:26:15.000Z</time>
                <name>Position 3029</name>
            </trkpt>
            <trkpt lon="9.625541" lat="47.786332">
                <ele>472.81791871998666</ele>
                <time>2012-05-20T01:26:24.000Z</time>
                <name>Position 3030</name>
            </trkpt>
            <trkpt lon="9.625393" lat="47.786191">
                <ele>473.1227892799848</ele>
                <time>2012-05-20T01:26:31.000Z</time>
                <name>Position 3031</name>
            </trkpt>
            <trkpt lon="9.625329" lat="47.78612">
                <ele>473.3249888000333</ele>
                <time>2012-05-20T01:26:34.000Z</time>
                <name>Position 3032</name>
            </trkpt>
            <trkpt lon="9.625149" lat="47.785884">
                <ele>474.1363289599782</ele>
                <time>2012-05-20T01:26:45.000Z</time>
                <name>Position 3033</name>
            </trkpt>
            <trkpt lon="9.62499" lat="47.785638">
                <ele>475.3420128000135</ele>
                <time>2012-05-20T01:26:55.000Z</time>
                <name>Position 3034</name>
            </trkpt>
            <trkpt lon="9.624888" lat="47.78542">
                <ele>477.13146239998144</ele>
                <time>2012-05-20T01:27:05.000Z</time>
                <name>Position 3035</name>
            </trkpt>
            <trkpt lon="9.624798" lat="47.78524">
                <ele>478.6413887999836</ele>
                <time>2012-05-20T01:27:12.000Z</time>
                <name>Position 3036</name>
            </trkpt>
            <trkpt lon="9.624764" lat="47.785158">
                <ele>479.36310527997534</ele>
                <time>2012-05-20T01:27:16.000Z</time>
                <name>Position 3037</name>
            </trkpt>
            <trkpt lon="9.624751" lat="47.785159">
                <ele>479.318988959998</ele>
                <time>2012-05-20T01:27:16.000Z</time>
                <name>Position 3038</name>
            </trkpt>
            <trkpt lon="9.624708" lat="47.785202">
                <ele>478.77506304001844</ele>
                <time>2012-05-20T01:27:18.000Z</time>
                <name>Position 3039</name>
            </trkpt>
            <trkpt lon="9.624688" lat="47.785159">
                <ele>479.1533644800005</ele>
                <time>2012-05-20T01:27:20.000Z</time>
                <name>Position 3040</name>
            </trkpt>
            <trkpt lon="9.624694" lat="47.785203">
                <ele>478.727350079972</ele>
                <time>2012-05-20T01:27:22.000Z</time>
                <name>Position 3041</name>
            </trkpt>
            <trkpt lon="9.624684" lat="47.785294">
                <ele>477.7854182399969</ele>
                <time>2012-05-20T01:27:25.000Z</time>
                <name>Position 3042</name>
            </trkpt>
            <trkpt lon="9.624701" lat="47.785318">
                <ele>477.5926819200337</ele>
                <time>2012-05-20T01:27:26.000Z</time>
                <name>Position 3043</name>
            </trkpt>
            <trkpt lon="9.624706" lat="47.785331">
                <ele>477.47666784000603</ele>
                <time>2012-05-20T01:27:27.000Z</time>
                <name>Position 3044</name>
            </trkpt>
            <trkpt lon="9.624723" lat="47.785361">
                <ele>477.22560431998096</ele>
                <time>2012-05-20T01:27:28.000Z</time>
                <name>Position 3045</name>
            </trkpt>
            <trkpt lon="9.62475" lat="47.785341">
                <ele>477.5036399999767</ele>
                <time>2012-05-20T01:27:29.000Z</time>
                <name>Position 3046</name>
            </trkpt>
            <trkpt lon="9.624706" lat="47.785224">
                <ele>478.5491673600046</ele>
                <time>2012-05-20T01:27:34.000Z</time>
                <name>Position 3047</name>
            </trkpt>
            <trkpt lon="9.624626" lat="47.785089">
                <ele>479.7000681600056</ele>
                <time>2012-05-20T01:27:40.000Z</time>
                <name>Position 3048</name>
            </trkpt>
            <trkpt lon="9.624516" lat="47.785038">
                <ele>479.9471155199984</ele>
                <time>2012-05-20T01:27:44.000Z</time>
                <name>Position 3049</name>
            </trkpt>
            <trkpt lon="9.624426" lat="47.785024">
                <ele>479.87216255999994</ele>
                <time>2012-05-20T01:27:46.000Z</time>
                <name>Position 3050</name>
            </trkpt>
            <trkpt lon="9.62434" lat="47.785007">
                <ele>479.84214719999795</ele>
                <time>2012-05-20T01:27:48.000Z</time>
                <name>Position 3051</name>
            </trkpt>
            <trkpt lon="9.624259" lat="47.784968">
                <ele>480.0672000000091</ele>
                <time>2012-05-20T01:27:51.000Z</time>
                <name>Position 3052</name>
            </trkpt>
            <trkpt lon="9.624175" lat="47.784911">
                <ele>480.48119999998704</ele>
                <time>2012-05-20T01:27:54.000Z</time>
                <name>Position 3053</name>
            </trkpt>
            <trkpt lon="9.624034" lat="47.784892">
                <ele>480.16230912000646</ele>
                <time>2012-05-20T01:27:58.000Z</time>
                <name>Position 3054</name>
            </trkpt>
            <trkpt lon="9.623906" lat="47.784776">
                <ele>480.5368742399929</ele>
                <time>2012-05-20T01:28:04.000Z</time>
                <name>Position 3055</name>
            </trkpt>
            <trkpt lon="9.623347" lat="47.784694">
                <ele>477.5869987200041</ele>
                <time>2012-05-20T01:28:19.000Z</time>
                <name>Position 3056</name>
            </trkpt>
            <trkpt lon="9.622876" lat="47.784602">
                <ele>474.2071999999979</ele>
                <time>2012-05-20T01:28:33.000Z</time>
                <name>Position 3057</name>
            </trkpt>
            <trkpt lon="9.622538" lat="47.784467">
                <ele>471.77360000000306</ele>
                <time>2012-05-20T01:28:43.000Z</time>
                <name>Position 3058</name>
            </trkpt>
            <trkpt lon="9.622274" lat="47.784388">
                <ele>471.15676928000136</ele>
                <time>2012-05-20T01:28:51.000Z</time>
                <name>Position 3059</name>
            </trkpt>
            <trkpt lon="9.622076" lat="47.784299">
                <ele>470.91040256000144</ele>
                <time>2012-05-20T01:28:57.000Z</time>
                <name>Position 3060</name>
            </trkpt>
            <trkpt lon="9.621962" lat="47.784255">
                <ele>470.78596639999853</ele>
                <time>2012-05-20T01:29:01.000Z</time>
                <name>Position 3061</name>
            </trkpt>
            <trkpt lon="9.62183" lat="47.784193">
                <ele>470.6705935999971</ele>
                <time>2012-05-20T01:29:05.000Z</time>
                <name>Position 3062</name>
            </trkpt>
            <trkpt lon="9.621632" lat="47.784143">
                <ele>470.57399999999853</ele>
                <time>2012-05-20T01:29:11.000Z</time>
                <name>Position 3063</name>
            </trkpt>
            <trkpt lon="9.621513" lat="47.784102">
                <ele>470.49000000002513</ele>
                <time>2012-05-20T01:29:14.000Z</time>
                <name>Position 3064</name>
            </trkpt>
            <trkpt lon="9.621407" lat="47.784083">
                <ele>470.26799999997814</ele>
                <time>2012-05-20T01:29:17.000Z</time>
                <name>Position 3065</name>
            </trkpt>
            <trkpt lon="9.621221" lat="47.784027">
                <ele>470.06879999998654</ele>
                <time>2012-05-20T01:29:23.000Z</time>
                <name>Position 3066</name>
            </trkpt>
            <trkpt lon="9.621021" lat="47.783964">
                <ele>469.8780000000249</ele>
                <time>2012-05-20T01:29:29.000Z</time>
                <name>Position 3067</name>
            </trkpt>
            <trkpt lon="9.620876" lat="47.783894">
                <ele>469.94400000003304</ele>
                <time>2012-05-20T01:29:34.000Z</time>
                <name>Position 3068</name>
            </trkpt>
            <trkpt lon="9.620705" lat="47.783791">
                <ele>470.4321767999929</ele>
                <time>2012-05-20T01:29:40.000Z</time>
                <name>Position 3069</name>
            </trkpt>
            <trkpt lon="9.620498" lat="47.783711">
                <ele>470.70516768002597</ele>
                <time>2012-05-20T01:29:46.000Z</time>
                <name>Position 3070</name>
            </trkpt>
            <trkpt lon="9.620316" lat="47.783652">
                <ele>470.81899392002936</ele>
                <time>2012-05-20T01:29:52.000Z</time>
                <name>Position 3071</name>
            </trkpt>
            <trkpt lon="9.620179" lat="47.783514">
                <ele>471.58223136002584</ele>
                <time>2012-05-20T01:29:58.000Z</time>
                <name>Position 3072</name>
            </trkpt>
            <trkpt lon="9.620043" lat="47.783399">
                <ele>472.1263339199819</ele>
                <time>2012-05-20T01:30:04.000Z</time>
                <name>Position 3073</name>
            </trkpt>
            <trkpt lon="9.619937" lat="47.783315">
                <ele>472.2902103999988</ele>
                <time>2012-05-20T01:30:09.000Z</time>
                <name>Position 3074</name>
            </trkpt>
            <trkpt lon="9.619724" lat="47.783183">
                <ele>471.5075545599984</ele>
                <time>2012-05-20T01:30:16.000Z</time>
                <name>Position 3075</name>
            </trkpt>
            <trkpt lon="9.61959" lat="47.783093">
                <ele>470.88672160000255</ele>
                <time>2012-05-20T01:30:21.000Z</time>
                <name>Position 3076</name>
            </trkpt>
            <trkpt lon="9.619419" lat="47.783031">
                <ele>470.0123675200039</ele>
                <time>2012-05-20T01:30:27.000Z</time>
                <name>Position 3077</name>
            </trkpt>
            <trkpt lon="9.619244" lat="47.782978">
                <ele>469.0443097599999</ele>
                <time>2012-05-20T01:30:32.000Z</time>
                <name>Position 3078</name>
            </trkpt>
            <trkpt lon="9.619107" lat="47.782828">
                <ele>468.02898176000303</ele>
                <time>2012-05-20T01:30:39.000Z</time>
                <name>Position 3079</name>
            </trkpt>
            <trkpt lon="9.618802" lat="47.782692">
                <ele>466.3112230399938</ele>
                <time>2012-05-20T01:30:49.000Z</time>
                <name>Position 3080</name>
            </trkpt>
            <trkpt lon="9.618602" lat="47.782536">
                <ele>464.90527231999675</ele>
                <time>2012-05-20T01:30:57.000Z</time>
                <name>Position 3081</name>
            </trkpt>
            <trkpt lon="9.618372" lat="47.782416">
                <ele>463.68560000000355</ele>
                <time>2012-05-20T01:31:05.000Z</time>
                <name>Position 3082</name>
            </trkpt>
            <trkpt lon="9.618207" lat="47.782291">
                <ele>463.31037871999996</ele>
                <time>2012-05-20T01:31:12.000Z</time>
                <name>Position 3083</name>
            </trkpt>
            <trkpt lon="9.61806" lat="47.782196">
                <ele>463.0523455999992</ele>
                <time>2012-05-20T01:31:17.000Z</time>
                <name>Position 3084</name>
            </trkpt>
            <trkpt lon="9.617906" lat="47.782174">
                <ele>462.7865926399978</ele>
                <time>2012-05-20T01:31:21.000Z</time>
                <name>Position 3085</name>
            </trkpt>
            <trkpt lon="9.617836" lat="47.782189">
                <ele>462.68047424000247</ele>
                <time>2012-05-20T01:31:23.000Z</time>
                <name>Position 3086</name>
            </trkpt>
            <trkpt lon="9.61779" lat="47.782177">
                <ele>462.5952847999967</ele>
                <time>2012-05-20T01:31:25.000Z</time>
                <name>Position 3087</name>
            </trkpt>
            <trkpt lon="9.617744" lat="47.782177">
                <ele>462.51868927999766</ele>
                <time>2012-05-20T01:31:26.000Z</time>
                <name>Position 3088</name>
            </trkpt>
            <trkpt lon="9.617685" lat="47.782178">
                <ele>462.42138080000126</ele>
                <time>2012-05-20T01:31:27.000Z</time>
                <name>Position 3089</name>
            </trkpt>
            <trkpt lon="9.617677" lat="47.782186">
                <ele>462.41563232000345</ele>
                <time>2012-05-20T01:31:28.000Z</time>
                <name>Position 3090</name>
            </trkpt>
            <trkpt lon="9.617653" lat="47.782189">
                <ele>462.3789195200034</ele>
                <time>2012-05-20T01:31:28.000Z</time>
                <name>Position 3091</name>
            </trkpt>
            <trkpt lon="9.617653" lat="47.782183">
                <ele>462.37304144000433</ele>
                <time>2012-05-20T01:31:29.000Z</time>
                <name>Position 3092</name>
            </trkpt>
            <trkpt lon="9.617655" lat="47.782183">
                <ele>462.37635440000184</ele>
                <time>2012-05-20T01:31:29.000Z</time>
                <name>Position 3093</name>
            </trkpt>
            <trkpt lon="9.617642" lat="47.782184">
                <ele>462.3558156800008</ele>
                <time>2012-05-20T01:31:29.000Z</time>
                <name>Position 3094</name>
            </trkpt>
            <trkpt lon="9.617631" lat="47.782192">
                <ele>462.34570112000085</ele>
                <time>2012-05-20T01:31:29.000Z</time>
                <name>Position 3095</name>
            </trkpt>
            <trkpt lon="9.61762" lat="47.782194">
                <ele>462.32967679999757</ele>
                <time>2012-05-20T01:31:30.000Z</time>
                <name>Position 3096</name>
            </trkpt>
            <trkpt lon="9.617607" lat="47.782195">
                <ele>462.30939440000077</ele>
                <time>2012-05-20T01:31:30.000Z</time>
                <name>Position 3097</name>
            </trkpt>
            <trkpt lon="9.617523" lat="47.78213">
                <ele>462.0958544000029</ele>
                <time>2012-05-20T01:31:34.000Z</time>
                <name>Position 3098</name>
            </trkpt>
            <trkpt lon="9.617435" lat="47.782011">
                <ele>461.77074079999784</ele>
                <time>2012-05-20T01:31:39.000Z</time>
                <name>Position 3099</name>
            </trkpt>
            <trkpt lon="9.617342" lat="47.781968">
                <ele>461.5348812800007</ele>
                <time>2012-05-20T01:31:42.000Z</time>
                <name>Position 3100</name>
            </trkpt>
            <trkpt lon="9.617223" lat="47.781915">
                <ele>461.26748959999753</ele>
                <time>2012-05-20T01:31:46.000Z</time>
                <name>Position 3101</name>
            </trkpt>
            <trkpt lon="9.617116" lat="47.781857">
                <ele>461.057106559999</ele>
                <time>2012-05-20T01:31:49.000Z</time>
                <name>Position 3102</name>
            </trkpt>
            <trkpt lon="9.617019" lat="47.781835">
                <ele>460.89161120000125</ele>
                <time>2012-05-20T01:31:52.000Z</time>
                <name>Position 3103</name>
            </trkpt>
            <trkpt lon="9.61696" lat="47.781838">
                <ele>460.79114240000087</ele>
                <time>2012-05-20T01:31:54.000Z</time>
                <name>Position 3104</name>
            </trkpt>
            <trkpt lon="9.61683" lat="47.781791">
                <ele>460.60528640000155</ele>
                <time>2012-05-20T01:31:58.000Z</time>
                <name>Position 3105</name>
            </trkpt>
            <trkpt lon="9.616676" lat="47.781718">
                <ele>460.45097984000245</ele>
                <time>2012-05-20T01:32:03.000Z</time>
                <name>Position 3106</name>
            </trkpt>
            <trkpt lon="9.61647" lat="47.781602">
                <ele>460.7144864000019</ele>
                <time>2012-05-20T01:32:10.000Z</time>
                <name>Position 3107</name>
            </trkpt>
            <trkpt lon="9.616367" lat="47.781553">
                <ele>460.86015055999263</ele>
                <time>2012-05-20T01:32:13.000Z</time>
                <name>Position 3108</name>
            </trkpt>
            <trkpt lon="9.616288" lat="47.781519">
                <ele>460.95108031999126</ele>
                <time>2012-05-20T01:32:16.000Z</time>
                <name>Position 3109</name>
            </trkpt>
            <trkpt lon="9.616261" lat="47.781533">
                <ele>460.9031172799906</ele>
                <time>2012-05-20T01:32:17.000Z</time>
                <name>Position 3110</name>
            </trkpt>
            <trkpt lon="9.616228" lat="47.78151">
                <ele>460.96503680000814</ele>
                <time>2012-05-20T01:32:18.000Z</time>
                <name>Position 3111</name>
            </trkpt>
            <trkpt lon="9.616187" lat="47.7815">
                <ele>460.9848799999967</ele>
                <time>2012-05-20T01:32:19.000Z</time>
                <name>Position 3112</name>
            </trkpt>
            <trkpt lon="9.616134" lat="47.781499">
                <ele>460.9749929600099</ele>
                <time>2012-05-20T01:32:21.000Z</time>
                <name>Position 3113</name>
            </trkpt>
            <trkpt lon="9.616108" lat="47.781507">
                <ele>460.9463513600066</ele>
                <time>2012-05-20T01:32:22.000Z</time>
                <name>Position 3114</name>
            </trkpt>
            <trkpt lon="9.616064" lat="47.781559">
                <ele>460.79416255999615</ele>
                <time>2012-05-20T01:32:24.000Z</time>
                <name>Position 3115</name>
            </trkpt>
            <trkpt lon="9.615987" lat="47.781574">
                <ele>460.74290528000256</ele>
                <time>2012-05-20T01:32:26.000Z</time>
                <name>Position 3116</name>
            </trkpt>
            <trkpt lon="9.615855" lat="47.781592">
                <ele>460.68152959999185</ele>
                <time>2012-05-20T01:32:30.000Z</time>
                <name>Position 3117</name>
            </trkpt>
            <trkpt lon="9.615741" lat="47.781592">
                <ele>460.55847231999223</ele>
                <time>2012-05-20T01:32:33.000Z</time>
                <name>Position 3118</name>
            </trkpt>
            <trkpt lon="9.615243" lat="47.781573">
                <ele>459.9367758399969</ele>
                <time>2012-05-20T01:32:46.000Z</time>
                <name>Position 3119</name>
            </trkpt>
            <trkpt lon="9.615178" lat="47.781566">
                <ele>459.8602028800033</ele>
                <time>2012-05-20T01:32:48.000Z</time>
                <name>Position 3120</name>
            </trkpt>
            <trkpt lon="9.615127" lat="47.781525">
                <ele>459.84830799999634</ele>
                <time>2012-05-20T01:32:50.000Z</time>
                <name>Position 3121</name>
            </trkpt>
            <trkpt lon="9.615074" lat="47.781442">
                <ele>459.882340480002</ele>
                <time>2012-05-20T01:32:54.000Z</time>
                <name>Position 3122</name>
            </trkpt>
            <trkpt lon="9.615036" lat="47.781371">
                <ele>459.91332735999987</ele>
                <time>2012-05-20T01:32:57.000Z</time>
                <name>Position 3123</name>
            </trkpt>
            <trkpt lon="9.614992" lat="47.78125">
                <ele>459.9808000000019</ele>
                <time>2012-05-20T01:33:02.000Z</time>
                <name>Position 3124</name>
            </trkpt>
            <trkpt lon="9.614867" lat="47.781186">
                <ele>459.733085440002</ele>
                <time>2012-05-20T01:33:06.000Z</time>
                <name>Position 3125</name>
            </trkpt>
            <trkpt lon="9.614812" lat="47.781083">
                <ele>459.6587795199999</ele>
                <time>2012-05-20T01:33:10.000Z</time>
                <name>Position 3126</name>
            </trkpt>
            <trkpt lon="9.614545" lat="47.781129">
                <ele>458.89464159999886</ele>
                <time>2012-05-20T01:33:18.000Z</time>
                <name>Position 3127</name>
            </trkpt>
            <trkpt lon="9.614317" lat="47.781098">
                <ele>458.24420991999915</ele>
                <time>2012-05-20T01:33:24.000Z</time>
                <name>Position 3128</name>
            </trkpt>
            <trkpt lon="9.614229" lat="47.78098">
                <ele>457.87407039999897</ele>
                <time>2012-05-20T01:33:29.000Z</time>
                <name>Position 3129</name>
            </trkpt>
            <trkpt lon="9.614162" lat="47.780916">
                <ele>457.58351103999803</ele>
                <time>2012-05-20T01:33:32.000Z</time>
                <name>Position 3130</name>
            </trkpt>
            <trkpt lon="9.614123" lat="47.780861">
                <ele>457.3794793599994</ele>
                <time>2012-05-20T01:33:35.000Z</time>
                <name>Position 3131</name>
            </trkpt>
            <trkpt lon="9.614006" lat="47.780789">
                <ele>456.83762911999645</ele>
                <time>2012-05-20T01:33:39.000Z</time>
                <name>Position 3132</name>
            </trkpt>
            <trkpt lon="9.613938" lat="47.780705">
                <ele>456.396027199991</ele>
                <time>2012-05-20T01:33:43.000Z</time>
                <name>Position 3133</name>
            </trkpt>
            <trkpt lon="9.613929" lat="47.780691">
                <ele>456.32746351999634</ele>
                <time>2012-05-20T01:33:44.000Z</time>
                <name>Position 3134</name>
            </trkpt>
            <trkpt lon="9.613916" lat="47.78055">
                <ele>455.9507839999937</ele>
                <time>2012-05-20T01:33:49.000Z</time>
                <name>Position 3135</name>
            </trkpt>
            <trkpt lon="9.613821" lat="47.780433">
                <ele>455.17739024000394</ele>
                <time>2012-05-20T01:33:55.000Z</time>
                <name>Position 3136</name>
            </trkpt>
            <trkpt lon="9.613674" lat="47.780273">
                <ele>453.86143136000084</ele>
                <time>2012-05-20T01:34:02.000Z</time>
                <name>Position 3137</name>
            </trkpt>
            <trkpt lon="9.613522" lat="47.780065">
                <ele>452.11742239999904</ele>
                <time>2012-05-20T01:34:11.000Z</time>
                <name>Position 3138</name>
            </trkpt>
            <trkpt lon="9.613416" lat="47.779874">
                <ele>451.0652019200053</ele>
                <time>2012-05-20T01:34:20.000Z</time>
                <name>Position 3139</name>
            </trkpt>
            <trkpt lon="9.613261" lat="47.779619">
                <ele>450.2321699199991</ele>
                <time>2012-05-20T01:34:31.000Z</time>
                <name>Position 3140</name>
            </trkpt>
            <trkpt lon="9.613118" lat="47.779309">
                <ele>449.8949305600014</ele>
                <time>2012-05-20T01:34:44.000Z</time>
                <name>Position 3141</name>
            </trkpt>
            <trkpt lon="9.612961" lat="47.779039">
                <ele>449.2315502399927</ele>
                <time>2012-05-20T01:34:55.000Z</time>
                <name>Position 3142</name>
            </trkpt>
            <trkpt lon="9.612781" lat="47.778945">
                <ele>448.4660952000003</ele>
                <time>2012-05-20T01:35:01.000Z</time>
                <name>Position 3143</name>
            </trkpt>
            <trkpt lon="9.612534" lat="47.778567">
                <ele>446.45215968000866</ele>
                <time>2012-05-20T01:35:18.000Z</time>
                <name>Position 3144</name>
            </trkpt>
            <trkpt lon="9.612426" lat="47.778345">
                <ele>445.3619136000033</ele>
                <time>2012-05-20T01:35:27.000Z</time>
                <name>Position 3145</name>
            </trkpt>
            <trkpt lon="9.612131" lat="47.777966">
                <ele>444.5639724799995</ele>
                <time>2012-05-20T01:35:44.000Z</time>
                <name>Position 3146</name>
            </trkpt>
            <trkpt lon="9.611854" lat="47.777576">
                <ele>444.44980351999766</ele>
                <time>2012-05-20T01:36:02.000Z</time>
                <name>Position 3147</name>
            </trkpt>
            <trkpt lon="9.61162" lat="47.77713">
                <ele>443.5248639999995</ele>
                <time>2012-05-20T01:36:21.000Z</time>
                <name>Position 3148</name>
            </trkpt>
            <trkpt lon="9.611398" lat="47.77676">
                <ele>442.3654912000052</ele>
                <time>2012-05-20T01:36:37.000Z</time>
                <name>Position 3149</name>
            </trkpt>
            <trkpt lon="9.611211" lat="47.776474">
                <ele>441.6570790400028</ele>
                <time>2012-05-20T01:36:49.000Z</time>
                <name>Position 3150</name>
            </trkpt>
            <trkpt lon="9.611006" lat="47.776151">
                <ele>440.0012921599939</ele>
                <time>2012-05-20T01:37:03.000Z</time>
                <name>Position 3151</name>
            </trkpt>
            <trkpt lon="9.610869" lat="47.775854">
                <ele>437.8924313600045</ele>
                <time>2012-05-20T01:37:16.000Z</time>
                <name>Position 3152</name>
            </trkpt>
            <trkpt lon="9.610713" lat="47.775567">
                <ele>440.61559807997577</ele>
                <time>2012-05-20T01:37:28.000Z</time>
                <name>Position 3153</name>
            </trkpt>
            <trkpt lon="9.61055" lat="47.775307">
                <ele>442.7780480000177</ele>
                <time>2012-05-20T01:37:39.000Z</time>
                <name>Position 3154</name>
            </trkpt>
            <trkpt lon="9.610424" lat="47.775043">
                <ele>444.2395673600256</ele>
                <time>2012-05-20T01:37:50.000Z</time>
                <name>Position 3155</name>
            </trkpt>
            <trkpt lon="9.610309" lat="47.774789">
                <ele>445.460232800021</ele>
                <time>2012-05-20T01:38:01.000Z</time>
                <name>Position 3156</name>
            </trkpt>
            <trkpt lon="9.610197" lat="47.774548">
                <ele>446.27151679997274</ele>
                <time>2012-05-20T01:38:11.000Z</time>
                <name>Position 3157</name>
            </trkpt>
            <trkpt lon="9.610029" lat="47.774351">
                <ele>445.7383111999919</ele>
                <time>2012-05-20T01:38:20.000Z</time>
                <name>Position 3158</name>
            </trkpt>
            <trkpt lon="9.609913" lat="47.774174">
                <ele>446.348843839987</ele>
                <time>2012-05-20T01:38:28.000Z</time>
                <name>Position 3159</name>
            </trkpt>
            <trkpt lon="9.609807" lat="47.774071">
                <ele>446.28529855999994</ele>
                <time>2012-05-20T01:38:33.000Z</time>
                <name>Position 3160</name>
            </trkpt>
            <trkpt lon="9.609726" lat="47.774053">
                <ele>446.08521344000184</ele>
                <time>2012-05-20T01:38:35.000Z</time>
                <name>Position 3161</name>
            </trkpt>
            <trkpt lon="9.609684" lat="47.774091">
                <ele>446.0269491199972</ele>
                <time>2012-05-20T01:38:37.000Z</time>
                <name>Position 3162</name>
            </trkpt>
            <trkpt lon="9.609645" lat="47.774128">
                <ele>446.0086687999962</ele>
                <time>2012-05-20T01:38:39.000Z</time>
                <name>Position 3163</name>
            </trkpt>
            <trkpt lon="9.609612" lat="47.774151">
                <ele>446.00197376000705</ele>
                <time>2012-05-20T01:38:40.000Z</time>
                <name>Position 3164</name>
            </trkpt>
            <trkpt lon="9.609606" lat="47.774166">
                <ele>446.0257740800012</ele>
                <time>2012-05-20T01:38:41.000Z</time>
                <name>Position 3165</name>
            </trkpt>
            <trkpt lon="9.609597" lat="47.774162">
                <ele>446.0059347199938</ele>
                <time>2012-05-20T01:38:41.000Z</time>
                <name>Position 3166</name>
            </trkpt>
            <trkpt lon="9.609588" lat="47.77417">
                <ele>445.9796672000158</ele>
                <time>2012-05-20T01:38:41.000Z</time>
                <name>Position 3167</name>
            </trkpt>
            <trkpt lon="9.609575" lat="47.77416">
                <ele>445.97336000000394</ele>
                <time>2012-05-20T01:38:42.000Z</time>
                <name>Position 3168</name>
            </trkpt>
            <trkpt lon="9.609578" lat="47.774166">
                <ele>445.9919590400032</ele>
                <time>2012-05-20T01:38:42.000Z</time>
                <name>Position 3169</name>
            </trkpt>
            <trkpt lon="9.609532" lat="47.774184">
                <ele>445.79935616001393</ele>
                <time>2012-05-20T01:38:44.000Z</time>
                <name>Position 3170</name>
            </trkpt>
            <trkpt lon="9.609459" lat="47.774211">
                <ele>445.48118767998983</ele>
                <time>2012-05-20T01:38:46.000Z</time>
                <name>Position 3171</name>
            </trkpt>
            <trkpt lon="9.609448" lat="47.774212">
                <ele>445.4574963200125</ele>
                <time>2012-05-20T01:38:46.000Z</time>
                <name>Position 3172</name>
            </trkpt>
            <trkpt lon="9.609438" lat="47.77422">
                <ele>445.3761152000037</ele>
                <time>2012-05-20T01:38:46.000Z</time>
                <name>Position 3173</name>
            </trkpt>
            <trkpt lon="9.609424" lat="47.774215">
                <ele>445.398531200017</ele>
                <time>2012-05-20T01:38:47.000Z</time>
                <name>Position 3174</name>
            </trkpt>
            <trkpt lon="9.609317" lat="47.774136">
                <ele>445.5127097599929</ele>
                <time>2012-05-20T01:38:51.000Z</time>
                <name>Position 3175</name>
            </trkpt>
            <trkpt lon="9.609138" lat="47.774008">
                <ele>444.17084928001157</ele>
                <time>2012-05-20T01:38:58.000Z</time>
                <name>Position 3176</name>
            </trkpt>
            <trkpt lon="9.608989" lat="47.773865">
                <ele>442.28033519999957</ele>
                <time>2012-05-20T01:39:05.000Z</time>
                <name>Position 3177</name>
            </trkpt>
            <trkpt lon="9.608859" lat="47.773717">
                <ele>440.6448609599897</ele>
                <time>2012-05-20T01:39:12.000Z</time>
                <name>Position 3178</name>
            </trkpt>
            <trkpt lon="9.60874" lat="47.773556">
                <ele>439.1567807999914</ele>
                <time>2012-05-20T01:39:19.000Z</time>
                <name>Position 3179</name>
            </trkpt>
            <trkpt lon="9.608681" lat="47.773393">
                <ele>438.05601455999516</ele>
                <time>2012-05-20T01:39:26.000Z</time>
                <name>Position 3180</name>
            </trkpt>
            <trkpt lon="9.608592" lat="47.77328">
                <ele>437.4753343999994</ele>
                <time>2012-05-20T01:39:31.000Z</time>
                <name>Position 3181</name>
            </trkpt>
            <trkpt lon="9.608524" lat="47.773222">
                <ele>437.28943231999983</ele>
                <time>2012-05-20T01:39:34.000Z</time>
                <name>Position 3182</name>
            </trkpt>
            <trkpt lon="9.608344" lat="47.773235">
                <ele>436.6548896000026</ele>
                <time>2012-05-20T01:39:39.000Z</time>
                <name>Position 3183</name>
            </trkpt>
            <trkpt lon="9.608044" lat="47.773231">
                <ele>435.9710361599948</ele>
                <time>2012-05-20T01:39:47.000Z</time>
                <name>Position 3184</name>
            </trkpt>
            <trkpt lon="9.607818" lat="47.773243">
                <ele>435.43863455999843</ele>
                <time>2012-05-20T01:39:53.000Z</time>
                <name>Position 3185</name>
            </trkpt>
            <trkpt lon="9.607686" lat="47.773189">
                <ele>435.25414175999396</ele>
                <time>2012-05-20T01:39:57.000Z</time>
                <name>Position 3186</name>
            </trkpt>
            <trkpt lon="9.607638" lat="47.773072">
                <ele>435.4064678400014</ele>
                <time>2012-05-20T01:40:02.000Z</time>
                <name>Position 3187</name>
            </trkpt>
            <trkpt lon="9.60765" lat="47.772935">
                <ele>435.72996000000626</ele>
                <time>2012-05-20T01:40:08.000Z</time>
                <name>Position 3188</name>
            </trkpt>
            <trkpt lon="9.607587" lat="47.772864">
                <ele>435.77640192000456</ele>
                <time>2012-05-20T01:40:11.000Z</time>
                <name>Position 3189</name>
            </trkpt>
            <trkpt lon="9.607525" lat="47.772883">
                <ele>435.6245880000009</ele>
                <time>2012-05-20T01:40:13.000Z</time>
                <name>Position 3190</name>
            </trkpt>
            <trkpt lon="9.607492" lat="47.772866">
                <ele>435.60123264000043</ele>
                <time>2012-05-20T01:40:14.000Z</time>
                <name>Position 3191</name>
            </trkpt>
            <trkpt lon="9.607446" lat="47.772754">
                <ele>435.73550208000074</ele>
                <time>2012-05-20T01:40:19.000Z</time>
                <name>Position 3192</name>
            </trkpt>
            <trkpt lon="9.607421" lat="47.772622">
                <ele>435.95055744000507</ele>
                <time>2012-05-20T01:40:24.000Z</time>
                <name>Position 3193</name>
            </trkpt>
            <trkpt lon="9.607358" lat="47.772593">
                <ele>435.80363327999777</ele>
                <time>2012-05-20T01:40:26.000Z</time>
                <name>Position 3194</name>
            </trkpt>
            <trkpt lon="9.607353" lat="47.772526">
                <ele>435.91940736000106</ele>
                <time>2012-05-20T01:40:29.000Z</time>
                <name>Position 3195</name>
            </trkpt>
            <trkpt lon="9.607357" lat="47.772468">
                <ele>436.03677887999567</ele>
                <time>2012-05-20T01:40:31.000Z</time>
                <name>Position 3196</name>
            </trkpt>
            <trkpt lon="9.607267" lat="47.772383">
                <ele>435.88011168000486</ele>
                <time>2012-05-20T01:40:35.000Z</time>
                <name>Position 3197</name>
            </trkpt>
            <trkpt lon="9.607148" lat="47.772336">
                <ele>435.5958566399953</ele>
                <time>2012-05-20T01:40:39.000Z</time>
                <name>Position 3198</name>
            </trkpt>
            <trkpt lon="9.607089" lat="47.772264">
                <ele>435.5829484800011</ele>
                <time>2012-05-20T01:40:42.000Z</time>
                <name>Position 3199</name>
            </trkpt>
            <trkpt lon="9.607036" lat="47.772246">
                <ele>435.47382527999565</ele>
                <time>2012-05-20T01:40:44.000Z</time>
                <name>Position 3200</name>
            </trkpt>
            <trkpt lon="9.606963" lat="47.772232">
                <ele>435.30287807999434</ele>
                <time>2012-05-20T01:40:46.000Z</time>
                <name>Position 3201</name>
            </trkpt>
            <trkpt lon="9.606654" lat="47.772244">
                <ele>434.4017305599992</ele>
                <time>2012-05-20T01:40:54.000Z</time>
                <name>Position 3202</name>
            </trkpt>
            <trkpt lon="9.606527" lat="47.77208">
                <ele>434.7599295999912</ele>
                <time>2012-05-20T01:41:01.000Z</time>
                <name>Position 3203</name>
            </trkpt>
            <trkpt lon="9.606377" lat="47.771948">
                <ele>434.9093497599946</ele>
                <time>2012-05-20T01:41:08.000Z</time>
                <name>Position 3204</name>
            </trkpt>
            <trkpt lon="9.606274" lat="47.771822">
                <ele>435.08623168000133</ele>
                <time>2012-05-20T01:41:14.000Z</time>
                <name>Position 3205</name>
            </trkpt>
            <trkpt lon="9.606098" lat="47.771753">
                <ele>434.8950966400076</ele>
                <time>2012-05-20T01:41:19.000Z</time>
                <name>Position 3206</name>
            </trkpt>
            <trkpt lon="9.606072" lat="47.77163">
                <ele>435.1041983999968</ele>
                <time>2012-05-20T01:41:24.000Z</time>
                <name>Position 3207</name>
            </trkpt>
            <trkpt lon="9.60598" lat="47.771648">
                <ele>434.8704576000025</ele>
                <time>2012-05-20T01:41:27.000Z</time>
                <name>Position 3208</name>
            </trkpt>
            <trkpt lon="9.605982" lat="47.771596">
                <ele>434.9264716799957</ele>
                <time>2012-05-20T01:41:29.000Z</time>
                <name>Position 3209</name>
            </trkpt>
            <trkpt lon="9.605979" lat="47.771507">
                <ele>435.00770831999944</ele>
                <time>2012-05-20T01:41:33.000Z</time>
                <name>Position 3210</name>
            </trkpt>
            <trkpt lon="9.605986" lat="47.771409">
                <ele>435.11895456000093</ele>
                <time>2012-05-20T01:41:36.000Z</time>
                <name>Position 3211</name>
            </trkpt>
            <trkpt lon="9.605998" lat="47.771303">
                <ele>435.24536735999624</ele>
                <time>2012-05-20T01:41:41.000Z</time>
                <name>Position 3212</name>
            </trkpt>
            <trkpt lon="9.605992" lat="47.771176">
                <ele>435.3574924800039</ele>
                <time>2012-05-20T01:41:46.000Z</time>
                <name>Position 3213</name>
            </trkpt>
            <trkpt lon="9.605934" lat="47.771026">
                <ele>435.4175289600003</ele>
                <time>2012-05-20T01:41:52.000Z</time>
                <name>Position 3214</name>
            </trkpt>
            <trkpt lon="9.605867" lat="47.770761">
                <ele>435.3703067200004</ele>
                <time>2012-05-20T01:42:03.000Z</time>
                <name>Position 3215</name>
            </trkpt>
            <trkpt lon="9.605655" lat="47.770653">
                <ele>434.8068904000083</ele>
                <time>2012-05-20T01:42:10.000Z</time>
                <name>Position 3216</name>
            </trkpt>
            <trkpt lon="9.605481" lat="47.770566">
                <ele>434.29996576000536</ele>
                <time>2012-05-20T01:42:16.000Z</time>
                <name>Position 3217</name>
            </trkpt>
            <trkpt lon="9.605341" lat="47.770526">
                <ele>433.9537129599883</ele>
                <time>2012-05-20T01:42:20.000Z</time>
                <name>Position 3218</name>
            </trkpt>
            <trkpt lon="9.605207" lat="47.770507">
                <ele>433.67087344000663</ele>
                <time>2012-05-20T01:42:24.000Z</time>
                <name>Position 3219</name>
            </trkpt>
            <trkpt lon="9.605192" lat="47.770483">
                <ele>433.5660601599965</ele>
                <time>2012-05-20T01:42:25.000Z</time>
                <name>Position 3220</name>
            </trkpt>
            <trkpt lon="9.605141" lat="47.770488">
                <ele>433.49611648000024</ele>
                <time>2012-05-20T01:42:26.000Z</time>
                <name>Position 3221</name>
            </trkpt>
            <trkpt lon="9.605088" lat="47.770434">
                <ele>433.2186035200059</ele>
                <time>2012-05-20T01:42:29.000Z</time>
                <name>Position 3222</name>
            </trkpt>
            <trkpt lon="9.605073" lat="47.770423">
                <ele>433.1535342400047</ele>
                <time>2012-05-20T01:42:29.000Z</time>
                <name>Position 3223</name>
            </trkpt>
            <trkpt lon="9.604989" lat="47.770357">
                <ele>432.7531451199886</ele>
                <time>2012-05-20T01:42:33.000Z</time>
                <name>Position 3224</name>
            </trkpt>
            <trkpt lon="9.604836" lat="47.770402">
                <ele>432.4586636799919</ele>
                <time>2012-05-20T01:42:37.000Z</time>
                <name>Position 3225</name>
            </trkpt>
            <trkpt lon="9.604834" lat="47.770383">
                <ele>432.388847680009</ele>
                <time>2012-05-20T01:42:38.000Z</time>
                <name>Position 3226</name>
            </trkpt>
            <trkpt lon="9.60484" lat="47.770344">
                <ele>432.2751424000029</ele>
                <time>2012-05-20T01:42:39.000Z</time>
                <name>Position 3227</name>
            </trkpt>
            <trkpt lon="9.604847" lat="47.770229">
                <ele>431.90674671999994</ele>
                <time>2012-05-20T01:42:44.000Z</time>
                <name>Position 3228</name>
            </trkpt>
            <trkpt lon="9.604827" lat="47.770186">
                <ele>431.70806368000865</ele>
                <time>2012-05-20T01:42:46.000Z</time>
                <name>Position 3229</name>
            </trkpt>
            <trkpt lon="9.604811" lat="47.770168">
                <ele>431.6054771199931</ele>
                <time>2012-05-20T01:42:47.000Z</time>
                <name>Position 3230</name>
            </trkpt>
            <trkpt lon="9.604785" lat="47.770165">
                <ele>431.5269159999945</ele>
                <time>2012-05-20T01:42:47.000Z</time>
                <name>Position 3231</name>
            </trkpt>
            <trkpt lon="9.60477" lat="47.770153">
                <ele>431.44812640000214</ele>
                <time>2012-05-20T01:42:48.000Z</time>
                <name>Position 3232</name>
            </trkpt>
            <trkpt lon="9.604767" lat="47.770128">
                <ele>431.35865344000064</ele>
                <time>2012-05-20T01:42:49.000Z</time>
                <name>Position 3233</name>
            </trkpt>
            <trkpt lon="9.604763" lat="47.770103">
                <ele>431.26684815999647</ele>
                <time>2012-05-20T01:42:50.000Z</time>
                <name>Position 3234</name>
            </trkpt>
            <trkpt lon="9.604774" lat="47.770083">
                <ele>431.2293884800006</ele>
                <time>2012-05-20T01:42:51.000Z</time>
                <name>Position 3235</name>
            </trkpt>
            <trkpt lon="9.604769" lat="47.770052">
                <ele>431.115502719997</ele>
                <time>2012-05-20T01:42:52.000Z</time>
                <name>Position 3236</name>
            </trkpt>
            <trkpt lon="9.60478" lat="47.770032">
                <ele>431.07706240000107</ele>
                <time>2012-05-20T01:42:53.000Z</time>
                <name>Position 3237</name>
            </trkpt>
            <trkpt lon="9.604791" lat="47.770013">
                <ele>431.04128751999684</ele>
                <time>2012-05-20T01:42:54.000Z</time>
                <name>Position 3238</name>
            </trkpt>
            <trkpt lon="9.604791" lat="47.770007">
                <ele>431.0214932799999</ele>
                <time>2012-05-20T01:42:54.000Z</time>
                <name>Position 3239</name>
            </trkpt>
            <trkpt lon="9.604789" lat="47.769994">
                <ele>430.9882230399977</ele>
                <time>2012-05-20T01:42:55.000Z</time>
                <name>Position 3240</name>
            </trkpt>
            <trkpt lon="9.604791" lat="47.769994">
                <ele>430.9930057599983</ele>
                <time>2012-05-20T01:42:55.000Z</time>
                <name>Position 3241</name>
            </trkpt>
            <trkpt lon="9.604794" lat="47.770001">
                <ele>431.0089033600019</ele>
                <time>2012-05-20T01:42:55.000Z</time>
                <name>Position 3242</name>
            </trkpt>
            <trkpt lon="9.604794" lat="47.769995">
                <ele>431.00108320000135</ele>
                <time>2012-05-20T01:42:55.000Z</time>
                <name>Position 3243</name>
            </trkpt>
            <trkpt lon="9.604807" lat="47.769988">
                <ele>431.025735039996</ele>
                <time>2012-05-20T01:42:56.000Z</time>
                <name>Position 3244</name>
            </trkpt>
            <trkpt lon="9.604807" lat="47.769976">
                <ele>431.01467007999776</ele>
                <time>2012-05-20T01:42:56.000Z</time>
                <name>Position 3245</name>
            </trkpt>
            <trkpt lon="9.604807" lat="47.76997">
                <ele>431.0091375999986</ele>
                <time>2012-05-20T01:42:56.000Z</time>
                <name>Position 3246</name>
            </trkpt>
            <trkpt lon="9.60482" lat="47.769963">
                <ele>431.0331903999974</ele>
                <time>2012-05-20T01:42:57.000Z</time>
                <name>Position 3247</name>
            </trkpt>
            <trkpt lon="9.604807" lat="47.769964">
                <ele>431.00360511999946</ele>
                <time>2012-05-20T01:42:57.000Z</time>
                <name>Position 3248</name>
            </trkpt>
            <trkpt lon="9.604807" lat="47.769958">
                <ele>430.9980726400004</ele>
                <time>2012-05-20T01:42:57.000Z</time>
                <name>Position 3249</name>
            </trkpt>
            <trkpt lon="9.60482" lat="47.76995">
                <ele>431.02096000000154</ele>
                <time>2012-05-20T01:42:58.000Z</time>
                <name>Position 3250</name>
            </trkpt>
            <trkpt lon="9.60482" lat="47.769944">
                <ele>431.0153152000024</ele>
                <time>2012-05-20T01:42:58.000Z</time>
                <name>Position 3251</name>
            </trkpt>
            <trkpt lon="9.60482" lat="47.769938">
                <ele>431.0096704000033</ele>
                <time>2012-05-20T01:42:58.000Z</time>
                <name>Position 3252</name>
            </trkpt>
            <trkpt lon="9.604818" lat="47.769926">
                <ele>430.99379391999776</ele>
                <time>2012-05-20T01:42:59.000Z</time>
                <name>Position 3253</name>
            </trkpt>
            <trkpt lon="9.604831" lat="47.769919">
                <ele>431.01691216000313</ele>
                <time>2012-05-20T01:42:59.000Z</time>
                <name>Position 3254</name>
            </trkpt>
            <trkpt lon="9.604831" lat="47.769913">
                <ele>431.011172320004</ele>
                <time>2012-05-20T01:43:00.000Z</time>
                <name>Position 3255</name>
            </trkpt>
            <trkpt lon="9.604831" lat="47.769907">
                <ele>431.0054324800049</ele>
                <time>2012-05-20T01:43:00.000Z</time>
                <name>Position 3256</name>
            </trkpt>
            <trkpt lon="9.604831" lat="47.7699">
                <ele>430.99873600000143</ele>
                <time>2012-05-20T01:43:00.000Z</time>
                <name>Position 3257</name>
            </trkpt>
            <trkpt lon="9.604831" lat="47.769894">
                <ele>430.9929961600023</ele>
                <time>2012-05-20T01:43:00.000Z</time>
                <name>Position 3258</name>
            </trkpt>
            <trkpt lon="9.604831" lat="47.769888">
                <ele>430.9872563200032</ele>
                <time>2012-05-20T01:43:01.000Z</time>
                <name>Position 3259</name>
            </trkpt>
            <trkpt lon="9.604833" lat="47.769889">
                <ele>430.9926932799974</ele>
                <time>2012-05-20T01:43:01.000Z</time>
                <name>Position 3260</name>
            </trkpt>
            <trkpt lon="9.604833" lat="47.769883">
                <ele>430.9869361599983</ele>
                <time>2012-05-20T01:43:01.000Z</time>
                <name>Position 3261</name>
            </trkpt>
            <trkpt lon="9.604833" lat="47.769877">
                <ele>430.98117903999923</ele>
                <time>2012-05-20T01:43:01.000Z</time>
                <name>Position 3262</name>
            </trkpt>
            <trkpt lon="9.604833" lat="47.769871">
                <ele>430.97542192000014</ele>
                <time>2012-05-20T01:43:01.000Z</time>
                <name>Position 3263</name>
            </trkpt>
            <trkpt lon="9.604846" lat="47.76987">
                <ele>431.00322879999777</ele>
                <time>2012-05-20T01:43:02.000Z</time>
                <name>Position 3264</name>
            </trkpt>
            <trkpt lon="9.604846" lat="47.769864">
                <ele>430.99735935999865</ele>
                <time>2012-05-20T01:43:02.000Z</time>
                <name>Position 3265</name>
            </trkpt>
            <trkpt lon="9.604848" lat="47.769864">
                <ele>431.00176767999926</ele>
                <time>2012-05-20T01:43:02.000Z</time>
                <name>Position 3266</name>
            </trkpt>
            <trkpt lon="9.604848" lat="47.769858">
                <ele>430.9958809600002</ele>
                <time>2012-05-20T01:43:02.000Z</time>
                <name>Position 3267</name>
            </trkpt>
            <trkpt lon="9.604851" lat="47.769865">
                <ele>431.00936560000275</ele>
                <time>2012-05-20T01:43:03.000Z</time>
                <name>Position 3268</name>
            </trkpt>
            <trkpt lon="9.604851" lat="47.769859">
                <ele>431.0034529599967</ele>
                <time>2012-05-20T01:43:03.000Z</time>
                <name>Position 3269</name>
            </trkpt>
            <trkpt lon="9.604851" lat="47.769853">
                <ele>430.9975403199976</ele>
                <time>2012-05-20T01:43:03.000Z</time>
                <name>Position 3270</name>
            </trkpt>
            <trkpt lon="9.604853" lat="47.769859">
                <ele>431.0078468799973</ele>
                <time>2012-05-20T01:43:03.000Z</time>
                <name>Position 3271</name>
            </trkpt>
            <trkpt lon="9.604853" lat="47.769853">
                <ele>431.0019169599982</ele>
                <time>2012-05-20T01:43:03.000Z</time>
                <name>Position 3272</name>
            </trkpt>
            <trkpt lon="9.604853" lat="47.769847">
                <ele>430.99598703999914</ele>
                <time>2012-05-20T01:43:04.000Z</time>
                <name>Position 3273</name>
            </trkpt>
            <trkpt lon="9.604853" lat="47.769841">
                <ele>430.9900571200001</ele>
                <time>2012-05-20T01:43:04.000Z</time>
                <name>Position 3274</name>
            </trkpt>
            <trkpt lon="9.604855" lat="47.769848">
                <ele>431.00133760000426</ele>
                <time>2012-05-20T01:43:04.000Z</time>
                <name>Position 3275</name>
            </trkpt>
            <trkpt lon="9.604855" lat="47.769842">
                <ele>430.99539039999814</ele>
                <time>2012-05-20T01:43:05.000Z</time>
                <name>Position 3276</name>
            </trkpt>
            <trkpt lon="9.604857" lat="47.769848">
                <ele>431.0056998400049</ele>
                <time>2012-05-20T01:43:05.000Z</time>
                <name>Position 3277</name>
            </trkpt>
            <trkpt lon="9.604857" lat="47.769842">
                <ele>430.9997353599988</ele>
                <time>2012-05-20T01:43:05.000Z</time>
                <name>Position 3278</name>
            </trkpt>
            <trkpt lon="9.60487" lat="47.769841">
                <ele>431.0269647999994</ele>
                <time>2012-05-20T01:43:05.000Z</time>
                <name>Position 3279</name>
            </trkpt>
            <trkpt lon="9.604857" lat="47.769842">
                <ele>430.9997353599988</ele>
                <time>2012-05-20T01:43:06.000Z</time>
                <name>Position 3280</name>
            </trkpt>
            <trkpt lon="9.60487" lat="47.769835">
                <ele>431.02088800000035</ele>
                <time>2012-05-20T01:43:06.000Z</time>
                <name>Position 3281</name>
            </trkpt>
            <trkpt lon="9.60487" lat="47.769829">
                <ele>431.0148112000013</ele>
                <time>2012-05-20T01:43:06.000Z</time>
                <name>Position 3282</name>
            </trkpt>
            <trkpt lon="9.604857" lat="47.76983">
                <ele>430.98780640000064</ele>
                <time>2012-05-20T01:43:07.000Z</time>
                <name>Position 3283</name>
            </trkpt>
            <trkpt lon="9.60487" lat="47.769829">
                <ele>431.0148112000013</ele>
                <time>2012-05-20T01:43:07.000Z</time>
                <name>Position 3284</name>
            </trkpt>
            <trkpt lon="9.60487" lat="47.769823">
                <ele>431.00873440000225</ele>
                <time>2012-05-20T01:43:07.000Z</time>
                <name>Position 3285</name>
            </trkpt>
            <trkpt lon="9.604873" lat="47.769829">
                <ele>431.02127248000033</ele>
                <time>2012-05-20T01:43:08.000Z</time>
                <name>Position 3286</name>
            </trkpt>
            <trkpt lon="9.604875" lat="47.769836">
                <ele>431.03271999999737</ele>
                <time>2012-05-20T01:43:08.000Z</time>
                <name>Position 3287</name>
            </trkpt>
            <trkpt lon="9.604875" lat="47.76983">
                <ele>431.0265999999984</ele>
                <time>2012-05-20T01:43:08.000Z</time>
                <name>Position 3288</name>
            </trkpt>
            <trkpt lon="9.604875" lat="47.769824">
                <ele>431.02047999999934</ele>
                <time>2012-05-20T01:43:08.000Z</time>
                <name>Position 3289</name>
            </trkpt>
            <trkpt lon="9.604873" lat="47.769817">
                <ele>431.00906704000226</ele>
                <time>2012-05-20T01:43:09.000Z</time>
                <name>Position 3290</name>
            </trkpt>
            <trkpt lon="9.604873" lat="47.769811">
                <ele>431.00296431999595</ele>
                <time>2012-05-20T01:43:09.000Z</time>
                <name>Position 3291</name>
            </trkpt>
            <trkpt lon="9.604886" lat="47.76981">
                <ele>431.02959040000053</ele>
                <time>2012-05-20T01:43:09.000Z</time>
                <name>Position 3292</name>
            </trkpt>
            <trkpt lon="9.604884" lat="47.769804">
                <ele>431.0191398400009</ele>
                <time>2012-05-20T01:43:09.000Z</time>
                <name>Position 3293</name>
            </trkpt>
            <trkpt lon="9.604886" lat="47.76981">
                <ele>431.02959040000053</ele>
                <time>2012-05-20T01:43:10.000Z</time>
                <name>Position 3294</name>
            </trkpt>
            <trkpt lon="9.604886" lat="47.769804">
                <ele>431.02337536000147</ele>
                <time>2012-05-20T01:43:10.000Z</time>
                <name>Position 3295</name>
            </trkpt>
            <trkpt lon="9.604888" lat="47.769811">
                <ele>431.0348819199985</ele>
                <time>2012-05-20T01:43:10.000Z</time>
                <name>Position 3296</name>
            </trkpt>
            <trkpt lon="9.604873" lat="47.769817">
                <ele>431.00906704000226</ele>
                <time>2012-05-20T01:43:11.000Z</time>
                <name>Position 3297</name>
            </trkpt>
            <trkpt lon="9.604851" lat="47.769857">
                <ele>431.00148208000167</ele>
                <time>2012-05-20T01:43:12.000Z</time>
                <name>Position 3298</name>
            </trkpt>
            <trkpt lon="9.60488" lat="47.769944">
                <ele>431.1544768000015</ele>
                <time>2012-05-20T01:43:16.000Z</time>
                <name>Position 3299</name>
            </trkpt>
            <trkpt lon="9.604902" lat="47.769993">
                <ele>431.25738783999725</ele>
                <time>2012-05-20T01:43:18.000Z</time>
                <name>Position 3300</name>
            </trkpt>
            <trkpt lon="9.604869" lat="47.770041">
                <ele>431.3254657599985</ele>
                <time>2012-05-20T01:43:20.000Z</time>
                <name>Position 3301</name>
            </trkpt>
            <trkpt lon="9.60486" lat="47.770079">
                <ele>431.43247360000964</ele>
                <time>2012-05-20T01:43:22.000Z</time>
                <name>Position 3302</name>
            </trkpt>
            <trkpt lon="9.604797" lat="47.770109">
                <ele>431.37333711999185</ele>
                <time>2012-05-20T01:43:24.000Z</time>
                <name>Position 3303</name>
            </trkpt>
            <trkpt lon="9.604674" lat="47.770159">
                <ele>431.21535903999654</ele>
                <time>2012-05-20T01:43:28.000Z</time>
                <name>Position 3304</name>
            </trkpt>
            <trkpt lon="9.604556" lat="47.770232">
                <ele>431.1212684800013</ele>
                <time>2012-05-20T01:43:32.000Z</time>
                <name>Position 3305</name>
            </trkpt>
            <trkpt lon="9.604534" lat="47.770247">
                <ele>431.1050531199909</ele>
                <time>2012-05-20T01:43:33.000Z</time>
                <name>Position 3306</name>
            </trkpt>
            <trkpt lon="9.604523" lat="47.770249">
                <ele>431.08056688</ele>
                <time>2012-05-20T01:43:33.000Z</time>
                <name>Position 3307</name>
            </trkpt>
            <trkpt lon="9.60451" lat="47.77025">
                <ele>431.0475999999901</ele>
                <time>2012-05-20T01:43:33.000Z</time>
                <name>Position 3308</name>
            </trkpt>
            <trkpt lon="9.604497" lat="47.770245">
                <ele>430.9973416000084</ele>
                <time>2012-05-20T01:43:34.000Z</time>
                <name>Position 3309</name>
            </trkpt>
            <trkpt lon="9.604484" lat="47.770246">
                <ele>430.9644121599986</ele>
                <time>2012-05-20T01:43:34.000Z</time>
                <name>Position 3310</name>
            </trkpt>
            <trkpt lon="9.604482" lat="47.770245">
                <ele>430.95604960000986</ele>
                <time>2012-05-20T01:43:34.000Z</time>
                <name>Position 3311</name>
            </trkpt>
            <trkpt lon="9.604468" lat="47.770246">
                <ele>430.9203443200022</ele>
                <time>2012-05-20T01:43:35.000Z</time>
                <name>Position 3312</name>
            </trkpt>
            <trkpt lon="9.604468" lat="47.77024">
                <ele>430.90334080000486</ele>
                <time>2012-05-20T01:43:35.000Z</time>
                <name>Position 3313</name>
            </trkpt>
            <trkpt lon="9.604453" lat="47.770235">
                <ele>430.84809519999703</ele>
                <time>2012-05-20T01:43:35.000Z</time>
                <name>Position 3314</name>
            </trkpt>
            <trkpt lon="9.604451" lat="47.770228">
                <ele>430.822952320006</ele>
                <time>2012-05-20T01:43:36.000Z</time>
                <name>Position 3315</name>
            </trkpt>
            <trkpt lon="9.604464" lat="47.770227">
                <ele>430.85559231999565</ele>
                <time>2012-05-20T01:43:36.000Z</time>
                <name>Position 3316</name>
            </trkpt>
            <trkpt lon="9.604475" lat="47.77022">
                <ele>430.8656800000072</ele>
                <time>2012-05-20T01:43:36.000Z</time>
                <name>Position 3317</name>
            </trkpt>
            <trkpt lon="9.604475" lat="47.770226">
                <ele>430.88274400000455</ele>
                <time>2012-05-20T01:43:37.000Z</time>
                <name>Position 3318</name>
            </trkpt>
            <trkpt lon="9.604488" lat="47.770224">
                <ele>430.9124492799964</ele>
                <time>2012-05-20T01:43:37.000Z</time>
                <name>Position 3319</name>
            </trkpt>
            <trkpt lon="9.604475" lat="47.770226">
                <ele>430.88274400000455</ele>
                <time>2012-05-20T01:43:37.000Z</time>
                <name>Position 3320</name>
            </trkpt>
            <trkpt lon="9.604475" lat="47.770232">
                <ele>430.8998080000019</ele>
                <time>2012-05-20T01:43:38.000Z</time>
                <name>Position 3321</name>
            </trkpt>
            <trkpt lon="9.604473" lat="47.770225">
                <ele>430.874452000011</ele>
                <time>2012-05-20T01:43:38.000Z</time>
                <name>Position 3322</name>
            </trkpt>
            <trkpt lon="9.604486" lat="47.770224">
                <ele>430.9070041599956</ele>
                <time>2012-05-20T01:43:38.000Z</time>
                <name>Position 3323</name>
            </trkpt>
            <trkpt lon="9.604488" lat="47.770231">
                <ele>430.9324883200068</ele>
                <time>2012-05-20T01:43:39.000Z</time>
                <name>Position 3324</name>
            </trkpt>
            <trkpt lon="9.604486" lat="47.770224">
                <ele>430.9070041599956</ele>
                <time>2012-05-20T01:43:39.000Z</time>
                <name>Position 3325</name>
            </trkpt>
            <trkpt lon="9.604488" lat="47.770231">
                <ele>430.9324883200068</ele>
                <time>2012-05-20T01:43:39.000Z</time>
                <name>Position 3326</name>
            </trkpt>
            <trkpt lon="9.604488" lat="47.770224">
                <ele>430.9124492799964</ele>
                <time>2012-05-20T01:43:39.000Z</time>
                <name>Position 3327</name>
            </trkpt>
            <trkpt lon="9.604488" lat="47.770218">
                <ele>430.8952729599991</ele>
                <time>2012-05-20T01:43:40.000Z</time>
                <name>Position 3328</name>
            </trkpt>
            <trkpt lon="9.60449" lat="47.770225">
                <ele>430.92076000001026</ele>
                <time>2012-05-20T01:43:40.000Z</time>
                <name>Position 3329</name>
            </trkpt>
            <trkpt lon="9.604492" lat="47.770232">
                <ele>430.9462873600011</ele>
                <time>2012-05-20T01:43:40.000Z</time>
                <name>Position 3330</name>
            </trkpt>
            <trkpt lon="9.604479" lat="47.770233">
                <ele>430.91359407999136</ele>
                <time>2012-05-20T01:43:41.000Z</time>
                <name>Position 3331</name>
            </trkpt>
            <trkpt lon="9.60435" lat="47.770317">
                <ele>430.78448799999643</ele>
                <time>2012-05-20T01:43:45.000Z</time>
                <name>Position 3332</name>
            </trkpt>
            <trkpt lon="9.604256" lat="47.770354">
                <ele>430.60953855999196</ele>
                <time>2012-05-20T01:43:48.000Z</time>
                <name>Position 3333</name>
            </trkpt>
            <trkpt lon="9.604155" lat="47.770425">
                <ele>430.50600000000765</ele>
                <time>2012-05-20T01:43:52.000Z</time>
                <name>Position 3334</name>
            </trkpt>
            <trkpt lon="9.604092" lat="47.770532">
                <ele>430.6872000000063</ele>
                <time>2012-05-20T01:43:57.000Z</time>
                <name>Position 3335</name>
            </trkpt>
            <trkpt lon="9.604109" lat="47.770562">
                <ele>430.77959999999473</ele>
                <time>2012-05-20T01:43:58.000Z</time>
                <name>Position 3336</name>
            </trkpt>
            <trkpt lon="9.604114" lat="47.770581">
                <ele>430.8311999999988</ele>
                <time>2012-05-20T01:43:59.000Z</time>
                <name>Position 3337</name>
            </trkpt>
            <trkpt lon="9.604133" lat="47.770618">
                <ele>430.9427999999962</ele>
                <time>2012-05-20T01:44:00.000Z</time>
                <name>Position 3338</name>
            </trkpt>
            <trkpt lon="9.604175" lat="47.770704">
                <ele>431.2180480000036</ele>
                <time>2012-05-20T01:44:04.000Z</time>
                <name>Position 3339</name>
            </trkpt>
            <trkpt lon="9.604206" lat="47.770727">
                <ele>431.3803772800003</ele>
                <time>2012-05-20T01:44:05.000Z</time>
                <name>Position 3340</name>
            </trkpt>
            <trkpt lon="9.604244" lat="47.770812">
                <ele>431.72482431999657</ele>
                <time>2012-05-20T01:44:09.000Z</time>
                <name>Position 3341</name>
            </trkpt>
            <trkpt lon="9.604303" lat="47.770863">
                <ele>432.0031033599985</ele>
                <time>2012-05-20T01:44:11.000Z</time>
                <name>Position 3342</name>
            </trkpt>
            <trkpt lon="9.604351" lat="47.771005">
                <ele>432.1873311999986</ele>
                <time>2012-05-20T01:44:17.000Z</time>
                <name>Position 3343</name>
            </trkpt>
        </trkseg>
    </trk>
</gpx>
